<?xml version="1.0" encoding="UTF-8" standalone="no" ?>
<gpx xmlns="http://www.topografix.com/GPX/1/1" xmlns:xsi="http://www.w3.org/2001/XMLSchema-instance" xsi:schemaLocation="http://www.topografix.com/GPX/1/1 http://www.topografix.com/GPX/1/1/gpx.xsd" version="1.1" creator="VisuGPX - https://www.visugpx.com">
  <metadata>
    <name>Bouleternère-Thuir</name>
  </metadata>
  <trk>
    <name><![CDATA[Bouleternère-Thuir]]></name>
    <trkseg>
      <trkpt lat="42.46672" lon="2.65253">
        <ele>250.4</ele>
        <time>2019-12-24T15:33:21Z</time>
      </trkpt>
      <trkpt lat="42.46762" lon="2.65671">
        <ele>247.3</ele>
        <time>2019-12-24T15:33:23Z</time>
      </trkpt>
      <trkpt lat="42.46807" lon="2.65872">
        <ele>247.3</ele>
        <time>2019-12-24T15:33:25Z</time>
      </trkpt>
      <trkpt lat="42.46861" lon="2.6598">
        <ele>246</ele>
        <time>2019-12-24T15:33:27Z</time>
      </trkpt>
      <trkpt lat="42.46895" lon="2.6607">
        <ele>250.7</ele>
        <time>2019-12-24T15:33:28Z</time>
      </trkpt>
      <trkpt lat="42.46934" lon="2.66149">
        <ele>248.3</ele>
        <time>2019-12-24T15:33:36Z</time>
      </trkpt>
      <trkpt lat="42.46997" lon="2.66211">
        <ele>256.5</ele>
        <time>2019-12-24T15:33:48Z</time>
      </trkpt>
      <trkpt lat="42.47059" lon="2.66248">
        <ele>245.6</ele>
        <time>2019-12-24T15:33:54Z</time>
      </trkpt>
      <trkpt lat="42.47098" lon="2.66265">
        <ele>259.8</ele>
        <time>2019-12-24T15:33:56Z</time>
      </trkpt>
      <trkpt lat="42.47119" lon="2.66264">
        <ele>263.6</ele>
        <time>2019-12-24T15:33:58Z</time>
      </trkpt>
      <trkpt lat="42.47186" lon="2.66248">
        <ele>245.3</ele>
        <time>2019-12-24T15:34:00Z</time>
      </trkpt>
      <trkpt lat="42.47233" lon="2.66247">
        <ele>241.5</ele>
        <time>2019-12-24T15:34:03Z</time>
      </trkpt>
      <trkpt lat="42.47282" lon="2.66272">
        <ele>245.1</ele>
        <time>2019-12-24T15:34:10Z</time>
      </trkpt>
      <trkpt lat="42.47334" lon="2.66307">
        <ele>237.4</ele>
        <time>2019-12-24T15:34:13Z</time>
      </trkpt>
      <trkpt lat="42.47355" lon="2.66317">
        <ele>237.1</ele>
        <time>2019-12-24T15:34:19Z</time>
      </trkpt>
      <trkpt lat="42.47378" lon="2.66358">
        <ele>242.2</ele>
        <time>2019-12-24T15:34:26Z</time>
      </trkpt>
      <trkpt lat="42.47417" lon="2.66485">
        <ele>233.7</ele>
        <time>2019-12-24T15:34:31Z</time>
      </trkpt>
      <trkpt lat="42.47429" lon="2.66531">
        <ele>232</ele>
        <time>2019-12-24T15:34:34Z</time>
      </trkpt>
      <trkpt lat="42.47411" lon="2.66605">
        <ele>238.9</ele>
        <time>2019-12-24T15:34:37Z</time>
      </trkpt>
      <trkpt lat="42.47383" lon="2.66714">
        <ele>239</ele>
        <time>2019-12-24T15:34:46Z</time>
      </trkpt>
      <trkpt lat="42.47349" lon="2.66834">
        <ele>232.4</ele>
        <time>2019-12-24T15:34:51Z</time>
      </trkpt>
      <trkpt lat="42.47316" lon="2.66954">
        <ele>228.8</ele>
        <time>2019-12-24T15:34:56Z</time>
      </trkpt>
      <trkpt lat="42.47311" lon="2.66984">
        <ele>227.8</ele>
        <time>2019-12-24T15:34:59Z</time>
      </trkpt>
      <trkpt lat="42.47358" lon="2.67012">
        <ele>222.6</ele>
        <time>2019-12-24T15:35:02Z</time>
      </trkpt>
      <trkpt lat="42.47357" lon="2.67012">
        <ele>222.7</ele>
        <time>2019-12-24T15:35:05Z</time>
      </trkpt>
      <trkpt lat="42.47369" lon="2.67018">
        <ele>221.8</ele>
        <time>2019-12-24T15:35:13Z</time>
      </trkpt>
      <trkpt lat="42.47393" lon="2.67026">
        <ele>220.9</ele>
        <time>2019-12-24T15:35:21Z</time>
      </trkpt>
      <trkpt lat="42.47418" lon="2.67034">
        <ele>225.2</ele>
        <time>2019-12-24T15:35:27Z</time>
      </trkpt>
      <trkpt lat="42.47435" lon="2.67043">
        <ele>226.5</ele>
        <time>2019-12-24T15:35:35Z</time>
      </trkpt>
      <trkpt lat="42.47441" lon="2.67045">
        <ele>227</ele>
        <time>2019-12-24T15:35:43Z</time>
      </trkpt>
      <trkpt lat="42.47443" lon="2.67061">
        <ele>227.1</ele>
        <time>2019-12-24T15:35:45Z</time>
      </trkpt>
      <trkpt lat="42.47445" lon="2.67075">
        <ele>227.1</ele>
        <time>2019-12-24T15:35:52Z</time>
      </trkpt>
      <trkpt lat="42.47449" lon="2.67083">
        <ele>227.7</ele>
        <time>2019-12-24T15:35:56Z</time>
      </trkpt>
      <trkpt lat="42.47459" lon="2.67144">
        <ele>227</ele>
        <time>2019-12-24T15:35:58Z</time>
      </trkpt>
      <trkpt lat="42.47481" lon="2.67232">
        <ele>224.3</ele>
        <time>2019-12-24T15:35:59Z</time>
      </trkpt>
      <trkpt lat="42.47492" lon="2.67272">
        <ele>222.6</ele>
        <time>2019-12-24T15:36:01Z</time>
      </trkpt>
      <trkpt lat="42.47501" lon="2.67282">
        <ele>223.9</ele>
        <time>2019-12-24T15:36:03Z</time>
      </trkpt>
      <trkpt lat="42.47511" lon="2.67286">
        <ele>223.7</ele>
        <time>2019-12-24T15:36:04Z</time>
      </trkpt>
      <trkpt lat="42.47524" lon="2.67284">
        <ele>223.5</ele>
        <time>2019-12-24T15:36:07Z</time>
      </trkpt>
      <trkpt lat="42.47541" lon="2.67274">
        <ele>223.5</ele>
        <time>2019-12-24T15:36:09Z</time>
      </trkpt>
      <trkpt lat="42.47575" lon="2.67251">
        <ele>224.4</ele>
        <time>2019-12-24T15:36:11Z</time>
      </trkpt>
      <trkpt lat="42.47587" lon="2.67244">
        <ele>224.5</ele>
        <time>2019-12-24T15:36:12Z</time>
      </trkpt>
      <trkpt lat="42.47619" lon="2.67223">
        <ele>222.9</ele>
        <time>2019-12-24T15:36:14Z</time>
      </trkpt>
      <trkpt lat="42.47656" lon="2.67198">
        <ele>222.8</ele>
        <time>2019-12-24T15:36:16Z</time>
      </trkpt>
      <trkpt lat="42.47682" lon="2.6718">
        <ele>218.7</ele>
        <time>2019-12-24T15:36:17Z</time>
      </trkpt>
      <trkpt lat="42.47693" lon="2.6717">
        <ele>217.7</ele>
        <time>2019-12-24T15:36:18Z</time>
      </trkpt>
      <trkpt lat="42.47705" lon="2.67154">
        <ele>224.2</ele>
        <time>2019-12-24T15:36:20Z</time>
      </trkpt>
      <trkpt lat="42.47736" lon="2.67101">
        <ele>224.8</ele>
        <time>2019-12-24T15:36:22Z</time>
      </trkpt>
      <trkpt lat="42.47755" lon="2.67072">
        <ele>224.6</ele>
        <time>2019-12-24T15:36:23Z</time>
      </trkpt>
      <trkpt lat="42.47773" lon="2.6704">
        <ele>228.2</ele>
        <time>2019-12-24T15:36:25Z</time>
      </trkpt>
      <trkpt lat="42.47786" lon="2.67021">
        <ele>228.9</ele>
        <time>2019-12-24T15:36:26Z</time>
      </trkpt>
      <trkpt lat="42.47798" lon="2.6701">
        <ele>227.4</ele>
        <time>2019-12-24T15:36:28Z</time>
      </trkpt>
      <trkpt lat="42.47813" lon="2.67003">
        <ele>224.9</ele>
        <time>2019-12-24T15:36:30Z</time>
      </trkpt>
      <trkpt lat="42.4786" lon="2.67">
        <ele>230.7</ele>
        <time>2019-12-24T15:36:31Z</time>
      </trkpt>
      <trkpt lat="42.47906" lon="2.67">
        <ele>227.3</ele>
        <time>2019-12-24T15:36:33Z</time>
      </trkpt>
      <trkpt lat="42.47938" lon="2.66996">
        <ele>228</ele>
        <time>2019-12-24T15:36:34Z</time>
      </trkpt>
      <trkpt lat="42.47981" lon="2.66988">
        <ele>226.7</ele>
        <time>2019-12-24T15:36:36Z</time>
      </trkpt>
      <trkpt lat="42.48026" lon="2.6697">
        <ele>224.7</ele>
        <time>2019-12-24T15:36:38Z</time>
      </trkpt>
      <trkpt lat="42.48037" lon="2.66965">
        <ele>225.1</ele>
        <time>2019-12-24T15:36:39Z</time>
      </trkpt>
      <trkpt lat="42.48072" lon="2.66947">
        <ele>226.6</ele>
        <time>2019-12-24T15:36:41Z</time>
      </trkpt>
      <trkpt lat="42.48094" lon="2.66936">
        <ele>229.9</ele>
        <time>2019-12-24T15:36:42Z</time>
      </trkpt>
      <trkpt lat="42.48103" lon="2.66932">
        <ele>230.4</ele>
        <time>2019-12-24T15:36:43Z</time>
      </trkpt>
      <trkpt lat="42.48112" lon="2.66931">
        <ele>230.9</ele>
        <time>2019-12-24T15:36:44Z</time>
      </trkpt>
      <trkpt lat="42.48119" lon="2.66933">
        <ele>231.2</ele>
        <time>2019-12-24T15:36:46Z</time>
      </trkpt>
      <trkpt lat="42.48129" lon="2.66936">
        <ele>232</ele>
        <time>2019-12-24T15:36:47Z</time>
      </trkpt>
      <trkpt lat="42.48138" lon="2.66943">
        <ele>232.2</ele>
        <time>2019-12-24T15:36:49Z</time>
      </trkpt>
      <trkpt lat="42.48152" lon="2.66957">
        <ele>230.7</ele>
        <time>2019-12-24T15:36:52Z</time>
      </trkpt>
      <trkpt lat="42.4816" lon="2.66966">
        <ele>229.1</ele>
        <time>2019-12-24T15:36:57Z</time>
      </trkpt>
      <trkpt lat="42.48168" lon="2.66974">
        <ele>233.4</ele>
        <time>2019-12-24T15:37:03Z</time>
      </trkpt>
      <trkpt lat="42.48174" lon="2.66978">
        <ele>232.5</ele>
        <time>2019-12-24T15:37:09Z</time>
      </trkpt>
      <trkpt lat="42.48181" lon="2.66983">
        <ele>231.9</ele>
        <time>2019-12-24T15:37:16Z</time>
      </trkpt>
      <trkpt lat="42.48191" lon="2.66991">
        <ele>232.3</ele>
        <time>2019-12-24T15:37:21Z</time>
      </trkpt>
      <trkpt lat="42.48197" lon="2.66994">
        <ele>233</ele>
        <time>2019-12-24T15:37:24Z</time>
      </trkpt>
      <trkpt lat="42.48204" lon="2.66995">
        <ele>233.8</ele>
        <time>2019-12-24T15:37:27Z</time>
      </trkpt>
      <trkpt lat="42.48213" lon="2.66993">
        <ele>234.5</ele>
        <time>2019-12-24T15:37:38Z</time>
      </trkpt>
      <trkpt lat="42.48222" lon="2.66988">
        <ele>235</ele>
        <time>2019-12-24T15:37:41Z</time>
      </trkpt>
      <trkpt lat="42.48229" lon="2.66982">
        <ele>235.6</ele>
        <time>2019-12-24T15:37:43Z</time>
      </trkpt>
      <trkpt lat="42.48238" lon="2.66974">
        <ele>237.1</ele>
        <time>2019-12-24T15:37:45Z</time>
      </trkpt>
      <trkpt lat="42.48245" lon="2.66968">
        <ele>238.7</ele>
        <time>2019-12-24T15:37:47Z</time>
      </trkpt>
      <trkpt lat="42.48252" lon="2.66961">
        <ele>246.8</ele>
        <time>2019-12-24T15:37:49Z</time>
      </trkpt>
      <trkpt lat="42.48262" lon="2.66953">
        <ele>249.5</ele>
        <time>2019-12-24T15:37:50Z</time>
      </trkpt>
      <trkpt lat="42.48268" lon="2.66949">
        <ele>250.6</ele>
        <time>2019-12-24T15:37:53Z</time>
      </trkpt>
      <trkpt lat="42.48275" lon="2.66947">
        <ele>251</ele>
        <time>2019-12-24T15:37:57Z</time>
      </trkpt>
      <trkpt lat="42.48284" lon="2.66946">
        <ele>251.3</ele>
        <time>2019-12-24T15:38:01Z</time>
      </trkpt>
      <trkpt lat="42.48295" lon="2.66946">
        <ele>251.8</ele>
        <time>2019-12-24T15:38:08Z</time>
      </trkpt>
      <trkpt lat="42.48303" lon="2.66944">
        <ele>252.7</ele>
        <time>2019-12-24T15:38:13Z</time>
      </trkpt>
      <trkpt lat="42.48313" lon="2.66942">
        <ele>254.1</ele>
        <time>2019-12-24T15:38:16Z</time>
      </trkpt>
      <trkpt lat="42.4832" lon="2.66942">
        <ele>254.8</ele>
        <time>2019-12-24T15:38:18Z</time>
      </trkpt>
      <trkpt lat="42.48326" lon="2.66946">
        <ele>254.1</ele>
        <time>2019-12-24T15:38:20Z</time>
      </trkpt>
      <trkpt lat="42.4833" lon="2.66951">
        <ele>252.8</ele>
        <time>2019-12-24T15:38:24Z</time>
      </trkpt>
      <trkpt lat="42.48334" lon="2.6696">
        <ele>258.8</ele>
        <time>2019-12-24T15:38:26Z</time>
      </trkpt>
      <trkpt lat="42.48338" lon="2.66971">
        <ele>256</ele>
        <time>2019-12-24T15:38:27Z</time>
      </trkpt>
      <trkpt lat="42.4834" lon="2.66983">
        <ele>251.7</ele>
        <time>2019-12-24T15:38:29Z</time>
      </trkpt>
      <trkpt lat="42.4834" lon="2.66998">
        <ele>245</ele>
        <time>2019-12-24T15:38:31Z</time>
      </trkpt>
      <trkpt lat="42.48341" lon="2.67021">
        <ele>245.2</ele>
        <time>2019-12-24T15:38:33Z</time>
      </trkpt>
      <trkpt lat="42.48351" lon="2.67056">
        <ele>245.4</ele>
        <time>2019-12-24T15:38:34Z</time>
      </trkpt>
      <trkpt lat="42.48363" lon="2.67095">
        <ele>240.2</ele>
        <time>2019-12-24T15:38:36Z</time>
      </trkpt>
      <trkpt lat="42.4838" lon="2.67137">
        <ele>241.3</ele>
        <time>2019-12-24T15:38:40Z</time>
      </trkpt>
      <trkpt lat="42.48407" lon="2.67179">
        <ele>241.6</ele>
        <time>2019-12-24T15:38:42Z</time>
      </trkpt>
      <trkpt lat="42.48427" lon="2.67202">
        <ele>257.3</ele>
        <time>2019-12-24T15:38:44Z</time>
      </trkpt>
      <trkpt lat="42.48437" lon="2.67216">
        <ele>258</ele>
        <time>2019-12-24T15:38:45Z</time>
      </trkpt>
      <trkpt lat="42.48444" lon="2.67236">
        <ele>257.4</ele>
        <time>2019-12-24T15:38:47Z</time>
      </trkpt>
      <trkpt lat="42.48466" lon="2.67318">
        <ele>256.8</ele>
        <time>2019-12-24T15:38:50Z</time>
      </trkpt>
      <trkpt lat="42.48471" lon="2.67339">
        <ele>254.7</ele>
        <time>2019-12-24T15:38:52Z</time>
      </trkpt>
      <trkpt lat="42.48474" lon="2.67355">
        <ele>254.2</ele>
        <time>2019-12-24T15:38:54Z</time>
      </trkpt>
      <trkpt lat="42.48477" lon="2.67369">
        <ele>253.6</ele>
        <time>2019-12-24T15:38:57Z</time>
      </trkpt>
      <trkpt lat="42.4848" lon="2.67383">
        <ele>253.3</ele>
        <time>2019-12-24T15:38:59Z</time>
      </trkpt>
      <trkpt lat="42.48484" lon="2.67396">
        <ele>253.7</ele>
        <time>2019-12-24T15:39:02Z</time>
      </trkpt>
      <trkpt lat="42.48488" lon="2.67405">
        <ele>254.6</ele>
        <time>2019-12-24T15:39:04Z</time>
      </trkpt>
      <trkpt lat="42.48497" lon="2.67418">
        <ele>256.1</ele>
        <time>2019-12-24T15:39:06Z</time>
      </trkpt>
      <trkpt lat="42.48516" lon="2.67438">
        <ele>256</ele>
        <time>2019-12-24T15:39:08Z</time>
      </trkpt>
      <trkpt lat="42.48536" lon="2.67444">
        <ele>256</ele>
        <time>2019-12-24T15:39:10Z</time>
      </trkpt>
      <trkpt lat="42.48575" lon="2.67446">
        <ele>258</ele>
        <time>2019-12-24T15:39:12Z</time>
      </trkpt>
      <trkpt lat="42.48606" lon="2.67445">
        <ele>263.6</ele>
        <time>2019-12-24T15:39:13Z</time>
      </trkpt>
      <trkpt lat="42.48622" lon="2.67439">
        <ele>264.8</ele>
        <time>2019-12-24T15:39:15Z</time>
      </trkpt>
      <trkpt lat="42.48631" lon="2.67434">
        <ele>265.8</ele>
        <time>2019-12-24T15:39:16Z</time>
      </trkpt>
      <trkpt lat="42.48641" lon="2.6742">
        <ele>267.9</ele>
        <time>2019-12-24T15:39:18Z</time>
      </trkpt>
      <trkpt lat="42.48653" lon="2.67397">
        <ele>275.9</ele>
        <time>2019-12-24T15:39:20Z</time>
      </trkpt>
      <trkpt lat="42.4866" lon="2.67389">
        <ele>276.3</ele>
        <time>2019-12-24T15:39:21Z</time>
      </trkpt>
      <trkpt lat="42.48668" lon="2.67385">
        <ele>283.5</ele>
        <time>2019-12-24T15:39:23Z</time>
      </trkpt>
      <trkpt lat="42.48679" lon="2.67386">
        <ele>284.2</ele>
        <time>2019-12-24T15:39:26Z</time>
      </trkpt>
      <trkpt lat="42.48686" lon="2.67394">
        <ele>284.1</ele>
        <time>2019-12-24T15:39:28Z</time>
      </trkpt>
      <trkpt lat="42.48691" lon="2.67405">
        <ele>283.9</ele>
        <time>2019-12-24T15:39:30Z</time>
      </trkpt>
      <trkpt lat="42.48696" lon="2.67418">
        <ele>279.1</ele>
        <time>2019-12-24T15:39:33Z</time>
      </trkpt>
      <trkpt lat="42.48698" lon="2.67432">
        <ele>279.1</ele>
        <time>2019-12-24T15:39:35Z</time>
      </trkpt>
      <trkpt lat="42.48698" lon="2.67461">
        <ele>277.5</ele>
        <time>2019-12-24T15:39:37Z</time>
      </trkpt>
      <trkpt lat="42.48699" lon="2.67477">
        <ele>276.3</ele>
        <time>2019-12-24T15:39:39Z</time>
      </trkpt>
      <trkpt lat="42.48703" lon="2.67489">
        <ele>276.2</ele>
        <time>2019-12-24T15:39:40Z</time>
      </trkpt>
      <trkpt lat="42.48709" lon="2.67496">
        <ele>277.1</ele>
        <time>2019-12-24T15:39:42Z</time>
      </trkpt>
      <trkpt lat="42.48719" lon="2.67502">
        <ele>272</ele>
        <time>2019-12-24T15:39:43Z</time>
      </trkpt>
      <trkpt lat="42.48731" lon="2.67504">
        <ele>275.3</ele>
        <time>2019-12-24T15:39:45Z</time>
      </trkpt>
      <trkpt lat="42.48745" lon="2.67506">
        <ele>280.1</ele>
        <time>2019-12-24T15:39:46Z</time>
      </trkpt>
      <trkpt lat="42.48758" lon="2.6751">
        <ele>285.5</ele>
        <time>2019-12-24T15:39:48Z</time>
      </trkpt>
      <trkpt lat="42.48771" lon="2.67517">
        <ele>286.2</ele>
        <time>2019-12-24T15:39:49Z</time>
      </trkpt>
      <trkpt lat="42.48783" lon="2.67526">
        <ele>286.8</ele>
        <time>2019-12-24T15:39:51Z</time>
      </trkpt>
      <trkpt lat="42.48794" lon="2.67535">
        <ele>287.2</ele>
        <time>2019-12-24T15:39:53Z</time>
      </trkpt>
      <trkpt lat="42.48806" lon="2.67543">
        <ele>287.6</ele>
        <time>2019-12-24T15:39:55Z</time>
      </trkpt>
      <trkpt lat="42.48817" lon="2.67547">
        <ele>288.1</ele>
        <time>2019-12-24T15:39:57Z</time>
      </trkpt>
      <trkpt lat="42.48828" lon="2.67548">
        <ele>288.6</ele>
        <time>2019-12-24T15:40:00Z</time>
      </trkpt>
      <trkpt lat="42.48839" lon="2.67548">
        <ele>302.7</ele>
        <time>2019-12-24T15:40:02Z</time>
      </trkpt>
      <trkpt lat="42.48848" lon="2.6755">
        <ele>303.3</ele>
        <time>2019-12-24T15:40:04Z</time>
      </trkpt>
      <trkpt lat="42.48855" lon="2.67556">
        <ele>303.3</ele>
        <time>2019-12-24T15:40:06Z</time>
      </trkpt>
      <trkpt lat="42.48858" lon="2.67566">
        <ele>302.3</ele>
        <time>2019-12-24T15:40:09Z</time>
      </trkpt>
      <trkpt lat="42.4886" lon="2.67578">
        <ele>301.3</ele>
        <time>2019-12-24T15:40:12Z</time>
      </trkpt>
      <trkpt lat="42.48861" lon="2.67591">
        <ele>298</ele>
        <time>2019-12-24T15:40:14Z</time>
      </trkpt>
      <trkpt lat="42.48859" lon="2.67604">
        <ele>298.4</ele>
        <time>2019-12-24T15:40:16Z</time>
      </trkpt>
      <trkpt lat="42.48855" lon="2.67616">
        <ele>298.6</ele>
        <time>2019-12-24T15:40:19Z</time>
      </trkpt>
      <trkpt lat="42.4885" lon="2.67629">
        <ele>298.4</ele>
        <time>2019-12-24T15:40:22Z</time>
      </trkpt>
      <trkpt lat="42.48844" lon="2.67644">
        <ele>297.1</ele>
        <time>2019-12-24T15:40:22Z</time>
      </trkpt>
      <trkpt lat="42.48839" lon="2.6766">
        <ele>293.6</ele>
        <time>2019-12-24T15:40:24Z</time>
      </trkpt>
      <trkpt lat="42.48833" lon="2.67676">
        <ele>286.8</ele>
        <time>2019-12-24T15:40:27Z</time>
      </trkpt>
      <trkpt lat="42.48826" lon="2.67691">
        <ele>284.1</ele>
        <time>2019-12-24T15:40:33Z</time>
      </trkpt>
      <trkpt lat="42.48818" lon="2.67703">
        <ele>283</ele>
        <time>2019-12-24T15:40:39Z</time>
      </trkpt>
      <trkpt lat="42.4881" lon="2.67714">
        <ele>282.5</ele>
        <time>2019-12-24T15:40:42Z</time>
      </trkpt>
      <trkpt lat="42.48803" lon="2.67725">
        <ele>282.1</ele>
        <time>2019-12-24T15:40:45Z</time>
      </trkpt>
      <trkpt lat="42.48798" lon="2.67736">
        <ele>281.7</ele>
        <time>2019-12-24T15:40:49Z</time>
      </trkpt>
      <trkpt lat="42.48797" lon="2.67747">
        <ele>281.9</ele>
        <time>2019-12-24T15:40:57Z</time>
      </trkpt>
      <trkpt lat="42.48798" lon="2.67758">
        <ele>281.5</ele>
        <time>2019-12-24T15:40:59Z</time>
      </trkpt>
      <trkpt lat="42.48802" lon="2.67766">
        <ele>282</ele>
        <time>2019-12-24T15:41:02Z</time>
      </trkpt>
      <trkpt lat="42.48808" lon="2.67774">
        <ele>282.6</ele>
        <time>2019-12-24T15:41:04Z</time>
      </trkpt>
      <trkpt lat="42.48815" lon="2.67779">
        <ele>283.2</ele>
        <time>2019-12-24T15:41:06Z</time>
      </trkpt>
      <trkpt lat="42.48824" lon="2.67784">
        <ele>283.8</ele>
        <time>2019-12-24T15:41:08Z</time>
      </trkpt>
      <trkpt lat="42.48834" lon="2.6779">
        <ele>303.6</ele>
        <time>2019-12-24T15:41:11Z</time>
      </trkpt>
      <trkpt lat="42.48841" lon="2.678">
        <ele>303.4</ele>
        <time>2019-12-24T15:41:14Z</time>
      </trkpt>
      <trkpt lat="42.48845" lon="2.67813">
        <ele>301.6</ele>
        <time>2019-12-24T15:41:16Z</time>
      </trkpt>
      <trkpt lat="42.48849" lon="2.67828">
        <ele>299.6</ele>
        <time>2019-12-24T15:41:18Z</time>
      </trkpt>
      <trkpt lat="42.48854" lon="2.67846">
        <ele>298.8</ele>
        <time>2019-12-24T15:41:21Z</time>
      </trkpt>
      <trkpt lat="42.48857" lon="2.67862">
        <ele>300.4</ele>
        <time>2019-12-24T15:41:23Z</time>
      </trkpt>
      <trkpt lat="42.48858" lon="2.67876">
        <ele>300.3</ele>
        <time>2019-12-24T15:41:25Z</time>
      </trkpt>
      <trkpt lat="42.48861" lon="2.67897">
        <ele>299.3</ele>
        <time>2019-12-24T15:41:27Z</time>
      </trkpt>
      <trkpt lat="42.48862" lon="2.67917">
        <ele>294.2</ele>
        <time>2019-12-24T15:41:30Z</time>
      </trkpt>
      <trkpt lat="42.48862" lon="2.67937">
        <ele>294.4</ele>
        <time>2019-12-24T15:41:34Z</time>
      </trkpt>
      <trkpt lat="42.48863" lon="2.67957">
        <ele>294.4</ele>
        <time>2019-12-24T15:41:37Z</time>
      </trkpt>
      <trkpt lat="42.48864" lon="2.67972">
        <ele>293.8</ele>
        <time>2019-12-24T15:41:41Z</time>
      </trkpt>
      <trkpt lat="42.48867" lon="2.67992">
        <ele>293.3</ele>
        <time>2019-12-24T15:41:44Z</time>
      </trkpt>
      <trkpt lat="42.48873" lon="2.6801">
        <ele>287.8</ele>
        <time>2019-12-24T15:41:46Z</time>
      </trkpt>
      <trkpt lat="42.48877" lon="2.68013">
        <ele>288.6</ele>
        <time>2019-12-24T15:41:48Z</time>
      </trkpt>
      <trkpt lat="42.48888" lon="2.68013">
        <ele>291.2</ele>
        <time>2019-12-24T15:41:53Z</time>
      </trkpt>
      <trkpt lat="42.48904" lon="2.68006">
        <ele>297.8</ele>
        <time>2019-12-24T15:41:56Z</time>
      </trkpt>
      <trkpt lat="42.48932" lon="2.67979">
        <ele>312.2</ele>
        <time>2019-12-24T15:41:58Z</time>
      </trkpt>
      <trkpt lat="42.48949" lon="2.67948">
        <ele>315.5</ele>
        <time>2019-12-24T15:42:00Z</time>
      </trkpt>
      <trkpt lat="42.48959" lon="2.67923">
        <ele>317.5</ele>
        <time>2019-12-24T15:42:03Z</time>
      </trkpt>
      <trkpt lat="42.48971" lon="2.67916">
        <ele>326.1</ele>
        <time>2019-12-24T15:42:05Z</time>
      </trkpt>
      <trkpt lat="42.48992" lon="2.67934">
        <ele>320.6</ele>
        <time>2019-12-24T15:42:09Z</time>
      </trkpt>
      <trkpt lat="42.49021" lon="2.67975">
        <ele>329</ele>
        <time>2019-12-24T15:42:12Z</time>
      </trkpt>
      <trkpt lat="42.49031" lon="2.67988">
        <ele>329.9</ele>
        <time>2019-12-24T15:42:15Z</time>
      </trkpt>
      <trkpt lat="42.49039" lon="2.68003">
        <ele>323.7</ele>
        <time>2019-12-24T15:42:18Z</time>
      </trkpt>
      <trkpt lat="42.49043" lon="2.68018">
        <ele>324.3</ele>
        <time>2019-12-24T15:42:20Z</time>
      </trkpt>
      <trkpt lat="42.49043" lon="2.68036">
        <ele>323.4</ele>
        <time>2019-12-24T15:42:22Z</time>
      </trkpt>
      <trkpt lat="42.49041" lon="2.68055">
        <ele>321.8</ele>
        <time>2019-12-24T15:42:24Z</time>
      </trkpt>
      <trkpt lat="42.49041" lon="2.68078">
        <ele>320.8</ele>
        <time>2019-12-24T15:42:28Z</time>
      </trkpt>
      <trkpt lat="42.49046" lon="2.68094">
        <ele>318.4</ele>
        <time>2019-12-24T15:42:31Z</time>
      </trkpt>
      <trkpt lat="42.49053" lon="2.68106">
        <ele>319.9</ele>
        <time>2019-12-24T15:42:34Z</time>
      </trkpt>
      <trkpt lat="42.49064" lon="2.6812">
        <ele>321.5</ele>
        <time>2019-12-24T15:42:37Z</time>
      </trkpt>
      <trkpt lat="42.49073" lon="2.68135">
        <ele>323.1</ele>
        <time>2019-12-24T15:42:48Z</time>
      </trkpt>
      <trkpt lat="42.49074" lon="2.68146">
        <ele>324.7</ele>
        <time>2019-12-24T15:42:58Z</time>
      </trkpt>
      <trkpt lat="42.4907" lon="2.68163">
        <ele>326.8</ele>
        <time>2019-12-24T15:43:02Z</time>
      </trkpt>
      <trkpt lat="42.49064" lon="2.6818">
        <ele>322.9</ele>
        <time>2019-12-24T15:43:07Z</time>
      </trkpt>
      <trkpt lat="42.49062" lon="2.682">
        <ele>320.5</ele>
        <time>2019-12-24T15:43:11Z</time>
      </trkpt>
      <trkpt lat="42.49067" lon="2.68227">
        <ele>323</ele>
        <time>2019-12-24T15:43:15Z</time>
      </trkpt>
      <trkpt lat="42.49067" lon="2.68252">
        <ele>327.2</ele>
        <time>2019-12-24T15:43:19Z</time>
      </trkpt>
      <trkpt lat="42.49061" lon="2.68277">
        <ele>322.5</ele>
        <time>2019-12-24T15:43:25Z</time>
      </trkpt>
      <trkpt lat="42.49054" lon="2.68304">
        <ele>321</ele>
        <time>2019-12-24T15:43:28Z</time>
      </trkpt>
      <trkpt lat="42.49054" lon="2.68317">
        <ele>321.9</ele>
        <time>2019-12-24T15:43:31Z</time>
      </trkpt>
      <trkpt lat="42.4906" lon="2.68333">
        <ele>325</ele>
        <time>2019-12-24T15:43:38Z</time>
      </trkpt>
      <trkpt lat="42.49072" lon="2.68362">
        <ele>325.5</ele>
        <time>2019-12-24T15:43:41Z</time>
      </trkpt>
      <trkpt lat="42.4907" lon="2.68387">
        <ele>324.9</ele>
        <time>2019-12-24T15:43:48Z</time>
      </trkpt>
      <trkpt lat="42.49067" lon="2.68403">
        <ele>326.4</ele>
        <time>2019-12-24T15:43:51Z</time>
      </trkpt>
      <trkpt lat="42.49063" lon="2.68418">
        <ele>327.7</ele>
        <time>2019-12-24T15:43:54Z</time>
      </trkpt>
      <trkpt lat="42.4906" lon="2.68434">
        <ele>325.8</ele>
        <time>2019-12-24T15:43:59Z</time>
      </trkpt>
      <trkpt lat="42.49059" lon="2.6845">
        <ele>325</ele>
        <time>2019-12-24T15:44:05Z</time>
      </trkpt>
      <trkpt lat="42.49062" lon="2.68482">
        <ele>327.3</ele>
        <time>2019-12-24T15:44:10Z</time>
      </trkpt>
      <trkpt lat="42.49068" lon="2.68507">
        <ele>332.1</ele>
        <time>2019-12-24T15:44:17Z</time>
      </trkpt>
      <trkpt lat="42.49074" lon="2.68522">
        <ele>331.2</ele>
        <time>2019-12-24T15:44:21Z</time>
      </trkpt>
      <trkpt lat="42.49084" lon="2.6854">
        <ele>335.9</ele>
        <time>2019-12-24T15:44:30Z</time>
      </trkpt>
      <trkpt lat="42.49094" lon="2.68546">
        <ele>335.7</ele>
        <time>2019-12-24T15:44:43Z</time>
      </trkpt>
      <trkpt lat="42.4911" lon="2.68547">
        <ele>335.5</ele>
        <time>2019-12-24T15:44:46Z</time>
      </trkpt>
      <trkpt lat="42.49119" lon="2.68537">
        <ele>335.7</ele>
        <time>2019-12-24T15:44:55Z</time>
      </trkpt>
      <trkpt lat="42.4913" lon="2.68516">
        <ele>336.5</ele>
        <time>2019-12-24T15:45:01Z</time>
      </trkpt>
      <trkpt lat="42.49138" lon="2.68492">
        <ele>340.1</ele>
        <time>2019-12-24T15:45:05Z</time>
      </trkpt>
      <trkpt lat="42.49144" lon="2.68472">
        <ele>340.5</ele>
        <time>2019-12-24T15:45:14Z</time>
      </trkpt>
      <trkpt lat="42.49151" lon="2.68453">
        <ele>341.3</ele>
        <time>2019-12-24T15:45:17Z</time>
      </trkpt>
      <trkpt lat="42.49175" lon="2.68376">
        <ele>347.3</ele>
        <time>2019-12-24T15:45:23Z</time>
      </trkpt>
      <trkpt lat="42.492" lon="2.6831">
        <ele>353.8</ele>
        <time>2019-12-24T15:45:27Z</time>
      </trkpt>
      <trkpt lat="42.49214" lon="2.6828">
        <ele>355</ele>
        <time>2019-12-24T15:45:31Z</time>
      </trkpt>
      <trkpt lat="42.49234" lon="2.68257">
        <ele>355.9</ele>
        <time>2019-12-24T15:45:34Z</time>
      </trkpt>
      <trkpt lat="42.49251" lon="2.68234">
        <ele>352.5</ele>
        <time>2019-12-24T15:45:39Z</time>
      </trkpt>
      <trkpt lat="42.49254" lon="2.68205">
        <ele>350.3</ele>
        <time>2019-12-24T15:45:42Z</time>
      </trkpt>
      <trkpt lat="42.4925" lon="2.68179">
        <ele>357.7</ele>
        <time>2019-12-24T15:45:43Z</time>
      </trkpt>
      <trkpt lat="42.49226" lon="2.68144">
        <ele>358.7</ele>
        <time>2019-12-24T15:45:45Z</time>
      </trkpt>
      <trkpt lat="42.49216" lon="2.68128">
        <ele>359.2</ele>
        <time>2019-12-24T15:45:49Z</time>
      </trkpt>
      <trkpt lat="42.49209" lon="2.68103">
        <ele>359.6</ele>
        <time>2019-12-24T15:45:51Z</time>
      </trkpt>
      <trkpt lat="42.49206" lon="2.68055">
        <ele>362.1</ele>
        <time>2019-12-24T15:45:54Z</time>
      </trkpt>
      <trkpt lat="42.49207" lon="2.68028">
        <ele>362.7</ele>
        <time>2019-12-24T15:45:57Z</time>
      </trkpt>
      <trkpt lat="42.49216" lon="2.67979">
        <ele>363.6</ele>
        <time>2019-12-24T15:45:59Z</time>
      </trkpt>
      <trkpt lat="42.49219" lon="2.67954">
        <ele>363.1</ele>
        <time>2019-12-24T15:46:01Z</time>
      </trkpt>
      <trkpt lat="42.49214" lon="2.6793">
        <ele>363.2</ele>
        <time>2019-12-24T15:46:02Z</time>
      </trkpt>
      <trkpt lat="42.49202" lon="2.67899">
        <ele>363</ele>
        <time>2019-12-24T15:46:04Z</time>
      </trkpt>
      <trkpt lat="42.49191" lon="2.67853">
        <ele>364.4</ele>
        <time>2019-12-24T15:46:05Z</time>
      </trkpt>
      <trkpt lat="42.49181" lon="2.6782">
        <ele>364.8</ele>
        <time>2019-12-24T15:46:06Z</time>
      </trkpt>
      <trkpt lat="42.49163" lon="2.67776">
        <ele>374.2</ele>
        <time>2019-12-24T15:46:08Z</time>
      </trkpt>
      <trkpt lat="42.49156" lon="2.67746">
        <ele>374</ele>
        <time>2019-12-24T15:46:10Z</time>
      </trkpt>
      <trkpt lat="42.49148" lon="2.67674">
        <ele>374.1</ele>
        <time>2019-12-24T15:46:11Z</time>
      </trkpt>
      <trkpt lat="42.49138" lon="2.67582">
        <ele>377.5</ele>
        <time>2019-12-24T15:46:12Z</time>
      </trkpt>
      <trkpt lat="42.49138" lon="2.67559">
        <ele>378.3</ele>
        <time>2019-12-24T15:46:13Z</time>
      </trkpt>
      <trkpt lat="42.49156" lon="2.67491">
        <ele>385.4</ele>
        <time>2019-12-24T15:46:15Z</time>
      </trkpt>
      <trkpt lat="42.49172" lon="2.67451">
        <ele>381.4</ele>
        <time>2019-12-24T15:46:17Z</time>
      </trkpt>
      <trkpt lat="42.49187" lon="2.67425">
        <ele>383.7</ele>
        <time>2019-12-24T15:46:19Z</time>
      </trkpt>
      <trkpt lat="42.49207" lon="2.67368">
        <ele>394.1</ele>
        <time>2019-12-24T15:46:24Z</time>
      </trkpt>
      <trkpt lat="42.49216" lon="2.67343">
        <ele>395.1</ele>
        <time>2019-12-24T15:46:27Z</time>
      </trkpt>
      <trkpt lat="42.49228" lon="2.67306">
        <ele>406.1</ele>
        <time>2019-12-24T15:46:29Z</time>
      </trkpt>
      <trkpt lat="42.49239" lon="2.67273">
        <ele>408.3</ele>
        <time>2019-12-24T15:46:31Z</time>
      </trkpt>
      <trkpt lat="42.49247" lon="2.67249">
        <ele>408.9</ele>
        <time>2019-12-24T15:46:33Z</time>
      </trkpt>
      <trkpt lat="42.49255" lon="2.67225">
        <ele>405.5</ele>
        <time>2019-12-24T15:46:36Z</time>
      </trkpt>
      <trkpt lat="42.49264" lon="2.67195">
        <ele>407.9</ele>
        <time>2019-12-24T15:46:38Z</time>
      </trkpt>
      <trkpt lat="42.49271" lon="2.67175">
        <ele>409.8</ele>
        <time>2019-12-24T15:46:40Z</time>
      </trkpt>
      <trkpt lat="42.49274" lon="2.67165">
        <ele>417.9</ele>
        <time>2019-12-24T15:46:42Z</time>
      </trkpt>
      <trkpt lat="42.49281" lon="2.67148">
        <ele>418</ele>
        <time>2019-12-24T15:46:43Z</time>
      </trkpt>
      <trkpt lat="42.49295" lon="2.67128">
        <ele>418.1</ele>
        <time>2019-12-24T15:46:46Z</time>
      </trkpt>
      <trkpt lat="42.49304" lon="2.67116">
        <ele>418.3</ele>
        <time>2019-12-24T15:46:50Z</time>
      </trkpt>
      <trkpt lat="42.49314" lon="2.67103">
        <ele>418.2</ele>
        <time>2019-12-24T15:46:51Z</time>
      </trkpt>
      <trkpt lat="42.49322" lon="2.67086">
        <ele>417.9</ele>
        <time>2019-12-24T15:46:53Z</time>
      </trkpt>
      <trkpt lat="42.49327" lon="2.6707">
        <ele>423.7</ele>
        <time>2019-12-24T15:46:55Z</time>
      </trkpt>
      <trkpt lat="42.4933" lon="2.67055">
        <ele>427</ele>
        <time>2019-12-24T15:46:57Z</time>
      </trkpt>
      <trkpt lat="42.4933" lon="2.67044">
        <ele>428.6</ele>
        <time>2019-12-24T15:46:59Z</time>
      </trkpt>
      <trkpt lat="42.49332" lon="2.67033">
        <ele>429.5</ele>
        <time>2019-12-24T15:47:02Z</time>
      </trkpt>
      <trkpt lat="42.49335" lon="2.67024">
        <ele>427.9</ele>
        <time>2019-12-24T15:47:03Z</time>
      </trkpt>
      <trkpt lat="42.4934" lon="2.6702">
        <ele>428.3</ele>
        <time>2019-12-24T15:47:05Z</time>
      </trkpt>
      <trkpt lat="42.4935" lon="2.67019">
        <ele>428.5</ele>
        <time>2019-12-24T15:47:08Z</time>
      </trkpt>
      <trkpt lat="42.49358" lon="2.67024">
        <ele>428.6</ele>
        <time>2019-12-24T15:47:11Z</time>
      </trkpt>
      <trkpt lat="42.49363" lon="2.67033">
        <ele>428.3</ele>
        <time>2019-12-24T15:47:13Z</time>
      </trkpt>
      <trkpt lat="42.49367" lon="2.6704">
        <ele>428.1</ele>
        <time>2019-12-24T15:47:16Z</time>
      </trkpt>
      <trkpt lat="42.4937" lon="2.67048">
        <ele>427.7</ele>
        <time>2019-12-24T15:47:18Z</time>
      </trkpt>
      <trkpt lat="42.49375" lon="2.6706">
        <ele>427.3</ele>
        <time>2019-12-24T15:47:21Z</time>
      </trkpt>
      <trkpt lat="42.4938" lon="2.67074">
        <ele>427.2</ele>
        <time>2019-12-24T15:47:24Z</time>
      </trkpt>
      <trkpt lat="42.49384" lon="2.67086">
        <ele>420.4</ele>
        <time>2019-12-24T15:47:26Z</time>
      </trkpt>
      <trkpt lat="42.49396" lon="2.67121">
        <ele>419</ele>
        <time>2019-12-24T15:47:30Z</time>
      </trkpt>
      <trkpt lat="42.49403" lon="2.67137">
        <ele>418.3</ele>
        <time>2019-12-24T15:47:33Z</time>
      </trkpt>
      <trkpt lat="42.4941" lon="2.67149">
        <ele>418.2</ele>
        <time>2019-12-24T15:47:34Z</time>
      </trkpt>
      <trkpt lat="42.4942" lon="2.67162">
        <ele>420.6</ele>
        <time>2019-12-24T15:47:35Z</time>
      </trkpt>
      <trkpt lat="42.4943" lon="2.67175">
        <ele>417.3</ele>
        <time>2019-12-24T15:47:37Z</time>
      </trkpt>
      <trkpt lat="42.49441" lon="2.67188">
        <ele>416.2</ele>
        <time>2019-12-24T15:47:39Z</time>
      </trkpt>
      <trkpt lat="42.49451" lon="2.67195">
        <ele>416</ele>
        <time>2019-12-24T15:47:41Z</time>
      </trkpt>
      <trkpt lat="42.4946" lon="2.67198">
        <ele>416.2</ele>
        <time>2019-12-24T15:47:43Z</time>
      </trkpt>
      <trkpt lat="42.4947" lon="2.67198">
        <ele>416.9</ele>
        <time>2019-12-24T15:47:45Z</time>
      </trkpt>
      <trkpt lat="42.4948" lon="2.67194">
        <ele>418</ele>
        <time>2019-12-24T15:47:47Z</time>
      </trkpt>
      <trkpt lat="42.49492" lon="2.67179">
        <ele>421.4</ele>
        <time>2019-12-24T15:47:49Z</time>
      </trkpt>
      <trkpt lat="42.49499" lon="2.67156">
        <ele>426.3</ele>
        <time>2019-12-24T15:47:51Z</time>
      </trkpt>
      <trkpt lat="42.495" lon="2.67143">
        <ele>426.8</ele>
        <time>2019-12-24T15:47:53Z</time>
      </trkpt>
      <trkpt lat="42.495" lon="2.67129">
        <ele>427.5</ele>
        <time>2019-12-24T15:47:55Z</time>
      </trkpt>
      <trkpt lat="42.495" lon="2.67113">
        <ele>428.7</ele>
        <time>2019-12-24T15:47:56Z</time>
      </trkpt>
      <trkpt lat="42.49501" lon="2.67098">
        <ele>427.7</ele>
        <time>2019-12-24T15:47:59Z</time>
      </trkpt>
      <trkpt lat="42.49506" lon="2.67083">
        <ele>432.2</ele>
        <time>2019-12-24T15:48:01Z</time>
      </trkpt>
      <trkpt lat="42.49513" lon="2.67069">
        <ele>431.2</ele>
        <time>2019-12-24T15:48:03Z</time>
      </trkpt>
      <trkpt lat="42.49516" lon="2.67061">
        <ele>431</ele>
        <time>2019-12-24T15:48:04Z</time>
      </trkpt>
      <trkpt lat="42.49523" lon="2.67045">
        <ele>431.2</ele>
        <time>2019-12-24T15:48:05Z</time>
      </trkpt>
      <trkpt lat="42.4953" lon="2.67029">
        <ele>431.7</ele>
        <time>2019-12-24T15:48:07Z</time>
      </trkpt>
      <trkpt lat="42.49538" lon="2.67011">
        <ele>431.7</ele>
        <time>2019-12-24T15:48:09Z</time>
      </trkpt>
      <trkpt lat="42.49546" lon="2.66994">
        <ele>435.2</ele>
        <time>2019-12-24T15:48:11Z</time>
      </trkpt>
      <trkpt lat="42.49553" lon="2.66975">
        <ele>434.8</ele>
        <time>2019-12-24T15:48:13Z</time>
      </trkpt>
      <trkpt lat="42.49559" lon="2.66958">
        <ele>434.9</ele>
        <time>2019-12-24T15:48:16Z</time>
      </trkpt>
      <trkpt lat="42.49564" lon="2.6694">
        <ele>434.6</ele>
        <time>2019-12-24T15:48:19Z</time>
      </trkpt>
      <trkpt lat="42.49572" lon="2.6692">
        <ele>432.6</ele>
        <time>2019-12-24T15:48:22Z</time>
      </trkpt>
      <trkpt lat="42.49579" lon="2.66903">
        <ele>434.5</ele>
        <time>2019-12-24T15:48:23Z</time>
      </trkpt>
      <trkpt lat="42.4959" lon="2.6688">
        <ele>424.9</ele>
        <time>2019-12-24T15:48:27Z</time>
      </trkpt>
      <trkpt lat="42.49595" lon="2.66861">
        <ele>425.5</ele>
        <time>2019-12-24T15:48:30Z</time>
      </trkpt>
      <trkpt lat="42.49597" lon="2.66851">
        <ele>426.4</ele>
        <time>2019-12-24T15:48:32Z</time>
      </trkpt>
      <trkpt lat="42.49601" lon="2.66842">
        <ele>426.7</ele>
        <time>2019-12-24T15:48:34Z</time>
      </trkpt>
      <trkpt lat="42.49607" lon="2.6683">
        <ele>431</ele>
        <time>2019-12-24T15:48:36Z</time>
      </trkpt>
      <trkpt lat="42.49616" lon="2.66821">
        <ele>430.2</ele>
        <time>2019-12-24T15:48:38Z</time>
      </trkpt>
      <trkpt lat="42.49626" lon="2.66813">
        <ele>429.3</ele>
        <time>2019-12-24T15:48:40Z</time>
      </trkpt>
      <trkpt lat="42.49636" lon="2.66806">
        <ele>428.5</ele>
        <time>2019-12-24T15:48:43Z</time>
      </trkpt>
      <trkpt lat="42.49645" lon="2.66799">
        <ele>428.1</ele>
        <time>2019-12-24T15:48:44Z</time>
      </trkpt>
      <trkpt lat="42.49652" lon="2.66792">
        <ele>428.2</ele>
        <time>2019-12-24T15:48:46Z</time>
      </trkpt>
      <trkpt lat="42.49661" lon="2.66777">
        <ele>428.6</ele>
        <time>2019-12-24T15:48:49Z</time>
      </trkpt>
      <trkpt lat="42.49664" lon="2.66764">
        <ele>428.5</ele>
        <time>2019-12-24T15:48:50Z</time>
      </trkpt>
      <trkpt lat="42.49665" lon="2.66751">
        <ele>427.3</ele>
        <time>2019-12-24T15:48:52Z</time>
      </trkpt>
      <trkpt lat="42.49665" lon="2.66738">
        <ele>432.2</ele>
        <time>2019-12-24T15:48:54Z</time>
      </trkpt>
      <trkpt lat="42.49668" lon="2.66725">
        <ele>423.4</ele>
        <time>2019-12-24T15:48:56Z</time>
      </trkpt>
      <trkpt lat="42.49674" lon="2.66707">
        <ele>423.2</ele>
        <time>2019-12-24T15:48:59Z</time>
      </trkpt>
      <trkpt lat="42.4968" lon="2.66696">
        <ele>423.4</ele>
        <time>2019-12-24T15:49:01Z</time>
      </trkpt>
      <trkpt lat="42.49687" lon="2.66688">
        <ele>423.3</ele>
        <time>2019-12-24T15:49:04Z</time>
      </trkpt>
      <trkpt lat="42.49692" lon="2.66679">
        <ele>423.1</ele>
        <time>2019-12-24T15:49:06Z</time>
      </trkpt>
      <trkpt lat="42.49696" lon="2.6667">
        <ele>422.6</ele>
        <time>2019-12-24T15:49:08Z</time>
      </trkpt>
      <trkpt lat="42.49698" lon="2.66656">
        <ele>422.5</ele>
        <time>2019-12-24T15:49:11Z</time>
      </trkpt>
      <trkpt lat="42.49697" lon="2.66644">
        <ele>422.3</ele>
        <time>2019-12-24T15:49:13Z</time>
      </trkpt>
      <trkpt lat="42.49695" lon="2.66631">
        <ele>422.2</ele>
        <time>2019-12-24T15:49:16Z</time>
      </trkpt>
      <trkpt lat="42.49691" lon="2.66615">
        <ele>422.6</ele>
        <time>2019-12-24T15:49:18Z</time>
      </trkpt>
      <trkpt lat="42.49684" lon="2.66595">
        <ele>424.6</ele>
        <time>2019-12-24T15:49:20Z</time>
      </trkpt>
      <trkpt lat="42.49675" lon="2.66575">
        <ele>428.1</ele>
        <time>2019-12-24T15:49:22Z</time>
      </trkpt>
      <trkpt lat="42.49673" lon="2.66555">
        <ele>427.7</ele>
        <time>2019-12-24T15:49:24Z</time>
      </trkpt>
      <trkpt lat="42.49677" lon="2.66542">
        <ele>428.1</ele>
        <time>2019-12-24T15:49:26Z</time>
      </trkpt>
      <trkpt lat="42.49693" lon="2.66522">
        <ele>428.2</ele>
        <time>2019-12-24T15:49:29Z</time>
      </trkpt>
      <trkpt lat="42.49704" lon="2.66509">
        <ele>427.2</ele>
        <time>2019-12-24T15:49:31Z</time>
      </trkpt>
      <trkpt lat="42.49711" lon="2.66497">
        <ele>432.5</ele>
        <time>2019-12-24T15:49:33Z</time>
      </trkpt>
      <trkpt lat="42.49717" lon="2.66485">
        <ele>431.9</ele>
        <time>2019-12-24T15:49:35Z</time>
      </trkpt>
      <trkpt lat="42.49723" lon="2.66471">
        <ele>432</ele>
        <time>2019-12-24T15:49:37Z</time>
      </trkpt>
      <trkpt lat="42.49729" lon="2.66458">
        <ele>432.2</ele>
        <time>2019-12-24T15:49:40Z</time>
      </trkpt>
      <trkpt lat="42.49734" lon="2.66442">
        <ele>432</ele>
        <time>2019-12-24T15:49:42Z</time>
      </trkpt>
      <trkpt lat="42.49737" lon="2.66425">
        <ele>430.5</ele>
        <time>2019-12-24T15:49:45Z</time>
      </trkpt>
      <trkpt lat="42.49736" lon="2.66411">
        <ele>435.3</ele>
        <time>2019-12-24T15:49:47Z</time>
      </trkpt>
      <trkpt lat="42.49734" lon="2.66396">
        <ele>439.1</ele>
        <time>2019-12-24T15:49:49Z</time>
      </trkpt>
      <trkpt lat="42.49731" lon="2.66379">
        <ele>442.3</ele>
        <time>2019-12-24T15:49:51Z</time>
      </trkpt>
      <trkpt lat="42.49731" lon="2.66366">
        <ele>443.3</ele>
        <time>2019-12-24T15:49:53Z</time>
      </trkpt>
      <trkpt lat="42.49733" lon="2.66356">
        <ele>443.2</ele>
        <time>2019-12-24T15:49:55Z</time>
      </trkpt>
      <trkpt lat="42.49739" lon="2.66342">
        <ele>441.6</ele>
        <time>2019-12-24T15:49:58Z</time>
      </trkpt>
      <trkpt lat="42.49747" lon="2.66329">
        <ele>443.1</ele>
        <time>2019-12-24T15:50:00Z</time>
      </trkpt>
      <trkpt lat="42.49757" lon="2.66317">
        <ele>440.2</ele>
        <time>2019-12-24T15:50:03Z</time>
      </trkpt>
      <trkpt lat="42.49768" lon="2.66307">
        <ele>441.2</ele>
        <time>2019-12-24T15:50:06Z</time>
      </trkpt>
      <trkpt lat="42.49784" lon="2.66298">
        <ele>441.3</ele>
        <time>2019-12-24T15:50:10Z</time>
      </trkpt>
      <trkpt lat="42.49794" lon="2.66291">
        <ele>441.4</ele>
        <time>2019-12-24T15:50:13Z</time>
      </trkpt>
      <trkpt lat="42.49807" lon="2.66284">
        <ele>441.3</ele>
        <time>2019-12-24T15:50:15Z</time>
      </trkpt>
      <trkpt lat="42.4982" lon="2.66277">
        <ele>441.8</ele>
        <time>2019-12-24T15:50:17Z</time>
      </trkpt>
      <trkpt lat="42.49833" lon="2.66271">
        <ele>442.7</ele>
        <time>2019-12-24T15:50:20Z</time>
      </trkpt>
      <trkpt lat="42.49847" lon="2.66264">
        <ele>435.6</ele>
        <time>2019-12-24T15:50:22Z</time>
      </trkpt>
      <trkpt lat="42.49856" lon="2.6626">
        <ele>434</ele>
        <time>2019-12-24T15:50:25Z</time>
      </trkpt>
      <trkpt lat="42.49867" lon="2.66254">
        <ele>432.1</ele>
        <time>2019-12-24T15:50:26Z</time>
      </trkpt>
      <trkpt lat="42.49878" lon="2.66245">
        <ele>444.2</ele>
        <time>2019-12-24T15:50:29Z</time>
      </trkpt>
      <trkpt lat="42.49888" lon="2.66234">
        <ele>443.2</ele>
        <time>2019-12-24T15:50:32Z</time>
      </trkpt>
      <trkpt lat="42.49896" lon="2.66224">
        <ele>443.2</ele>
        <time>2019-12-24T15:50:34Z</time>
      </trkpt>
      <trkpt lat="42.49903" lon="2.66206">
        <ele>445.1</ele>
        <time>2019-12-24T15:50:37Z</time>
      </trkpt>
      <trkpt lat="42.49905" lon="2.66193">
        <ele>445.9</ele>
        <time>2019-12-24T15:50:39Z</time>
      </trkpt>
      <trkpt lat="42.49907" lon="2.66178">
        <ele>445.6</ele>
        <time>2019-12-24T15:50:42Z</time>
      </trkpt>
      <trkpt lat="42.49909" lon="2.66161">
        <ele>451.3</ele>
        <time>2019-12-24T15:50:44Z</time>
      </trkpt>
      <trkpt lat="42.49913" lon="2.66144">
        <ele>458</ele>
        <time>2019-12-24T15:50:47Z</time>
      </trkpt>
      <trkpt lat="42.4992" lon="2.66131">
        <ele>435.7</ele>
        <time>2019-12-24T15:50:49Z</time>
      </trkpt>
      <trkpt lat="42.49929" lon="2.66117">
        <ele>436.2</ele>
        <time>2019-12-24T15:50:51Z</time>
      </trkpt>
      <trkpt lat="42.4994" lon="2.66096">
        <ele>437.5</ele>
        <time>2019-12-24T15:50:55Z</time>
      </trkpt>
      <trkpt lat="42.49946" lon="2.66084">
        <ele>435.9</ele>
        <time>2019-12-24T15:50:59Z</time>
      </trkpt>
      <trkpt lat="42.49947" lon="2.66071">
        <ele>442.4</ele>
        <time>2019-12-24T15:51:01Z</time>
      </trkpt>
      <trkpt lat="42.49946" lon="2.66058">
        <ele>442.6</ele>
        <time>2019-12-24T15:51:03Z</time>
      </trkpt>
      <trkpt lat="42.49945" lon="2.66044">
        <ele>443.4</ele>
        <time>2019-12-24T15:51:06Z</time>
      </trkpt>
      <trkpt lat="42.49947" lon="2.66027">
        <ele>444.5</ele>
        <time>2019-12-24T15:51:13Z</time>
      </trkpt>
      <trkpt lat="42.49952" lon="2.66007">
        <ele>444.5</ele>
        <time>2019-12-24T15:51:16Z</time>
      </trkpt>
      <trkpt lat="42.49957" lon="2.65988">
        <ele>447.1</ele>
        <time>2019-12-24T15:51:18Z</time>
      </trkpt>
      <trkpt lat="42.49963" lon="2.65968">
        <ele>445.4</ele>
        <time>2019-12-24T15:51:20Z</time>
      </trkpt>
      <trkpt lat="42.49967" lon="2.65947">
        <ele>444.7</ele>
        <time>2019-12-24T15:51:22Z</time>
      </trkpt>
      <trkpt lat="42.49963" lon="2.65921">
        <ele>445.7</ele>
        <time>2019-12-24T15:51:24Z</time>
      </trkpt>
      <trkpt lat="42.49959" lon="2.65896">
        <ele>445.4</ele>
        <time>2019-12-24T15:51:29Z</time>
      </trkpt>
      <trkpt lat="42.49958" lon="2.65877">
        <ele>444.9</ele>
        <time>2019-12-24T15:51:31Z</time>
      </trkpt>
      <trkpt lat="42.49956" lon="2.65862">
        <ele>444.7</ele>
        <time>2019-12-24T15:51:35Z</time>
      </trkpt>
      <trkpt lat="42.49946" lon="2.65843">
        <ele>446.7</ele>
        <time>2019-12-24T15:51:38Z</time>
      </trkpt>
      <trkpt lat="42.49937" lon="2.65834">
        <ele>449.2</ele>
        <time>2019-12-24T15:51:43Z</time>
      </trkpt>
      <trkpt lat="42.49926" lon="2.65824">
        <ele>447.9</ele>
        <time>2019-12-24T15:51:50Z</time>
      </trkpt>
      <trkpt lat="42.4992" lon="2.65815">
        <ele>446.1</ele>
        <time>2019-12-24T15:51:52Z</time>
      </trkpt>
      <trkpt lat="42.49917" lon="2.65794">
        <ele>442.1</ele>
        <time>2019-12-24T15:51:56Z</time>
      </trkpt>
      <trkpt lat="42.49917" lon="2.6577">
        <ele>441.7</ele>
        <time>2019-12-24T15:52:04Z</time>
      </trkpt>
      <trkpt lat="42.49913" lon="2.65755">
        <ele>450.5</ele>
        <time>2019-12-24T15:52:08Z</time>
      </trkpt>
      <trkpt lat="42.49908" lon="2.65741">
        <ele>451.6</ele>
        <time>2019-12-24T15:52:11Z</time>
      </trkpt>
      <trkpt lat="42.49895" lon="2.65728">
        <ele>456.3</ele>
        <time>2019-12-24T15:52:14Z</time>
      </trkpt>
      <trkpt lat="42.49883" lon="2.65721">
        <ele>458.7</ele>
        <time>2019-12-24T15:52:18Z</time>
      </trkpt>
      <trkpt lat="42.4987" lon="2.65715">
        <ele>461</ele>
        <time>2019-12-24T15:52:21Z</time>
      </trkpt>
      <trkpt lat="42.49859" lon="2.65706">
        <ele>462.4</ele>
        <time>2019-12-24T15:52:25Z</time>
      </trkpt>
      <trkpt lat="42.49855" lon="2.65691">
        <ele>463</ele>
        <time>2019-12-24T15:52:29Z</time>
      </trkpt>
      <trkpt lat="42.4986" lon="2.65672">
        <ele>462.6</ele>
        <time>2019-12-24T15:52:33Z</time>
      </trkpt>
      <trkpt lat="42.49874" lon="2.65655">
        <ele>466.1</ele>
        <time>2019-12-24T15:52:36Z</time>
      </trkpt>
      <trkpt lat="42.49892" lon="2.65636">
        <ele>465.4</ele>
        <time>2019-12-24T15:52:39Z</time>
      </trkpt>
      <trkpt lat="42.49902" lon="2.6563">
        <ele>465.3</ele>
        <time>2019-12-24T15:52:43Z</time>
      </trkpt>
      <trkpt lat="42.49916" lon="2.65627">
        <ele>464.9</ele>
        <time>2019-12-24T15:52:49Z</time>
      </trkpt>
      <trkpt lat="42.49931" lon="2.65622">
        <ele>457.3</ele>
        <time>2019-12-24T15:52:56Z</time>
      </trkpt>
      <trkpt lat="42.49965" lon="2.65602">
        <ele>459.8</ele>
        <time>2019-12-24T15:52:59Z</time>
      </trkpt>
      <trkpt lat="42.49983" lon="2.65597">
        <ele>462.4</ele>
        <time>2019-12-24T15:53:03Z</time>
      </trkpt>
      <trkpt lat="42.49994" lon="2.656">
        <ele>463</ele>
        <time>2019-12-24T15:53:06Z</time>
      </trkpt>
      <trkpt lat="42.50003" lon="2.65605">
        <ele>462</ele>
        <time>2019-12-24T15:53:13Z</time>
      </trkpt>
      <trkpt lat="42.50015" lon="2.65617">
        <ele>457.8</ele>
        <time>2019-12-24T15:53:16Z</time>
      </trkpt>
      <trkpt lat="42.50022" lon="2.65622">
        <ele>456.5</ele>
        <time>2019-12-24T15:53:18Z</time>
      </trkpt>
      <trkpt lat="42.5005" lon="2.65635">
        <ele>454.4</ele>
        <time>2019-12-24T15:53:22Z</time>
      </trkpt>
      <trkpt lat="42.50063" lon="2.65637">
        <ele>454</ele>
        <time>2019-12-24T15:53:23Z</time>
      </trkpt>
      <trkpt lat="42.50081" lon="2.65639">
        <ele>452.9</ele>
        <time>2019-12-24T15:53:25Z</time>
      </trkpt>
      <trkpt lat="42.50099" lon="2.65643">
        <ele>450.8</ele>
        <time>2019-12-24T15:53:26Z</time>
      </trkpt>
      <trkpt lat="42.50127" lon="2.6564">
        <ele>451.1</ele>
        <time>2019-12-24T15:53:26Z</time>
      </trkpt>
      <trkpt lat="42.50165" lon="2.65635">
        <ele>449.1</ele>
        <time>2019-12-24T15:53:28Z</time>
      </trkpt>
      <trkpt lat="42.50177" lon="2.65629">
        <ele>434.6</ele>
        <time>2019-12-24T15:53:29Z</time>
      </trkpt>
      <trkpt lat="42.5019" lon="2.65603">
        <ele>438.4</ele>
        <time>2019-12-24T15:53:34Z</time>
      </trkpt>
      <trkpt lat="42.50209" lon="2.65551">
        <ele>445.7</ele>
        <time>2019-12-24T15:53:40Z</time>
      </trkpt>
      <trkpt lat="42.50213" lon="2.65515">
        <ele>446.5</ele>
        <time>2019-12-24T15:53:45Z</time>
      </trkpt>
      <trkpt lat="42.50212" lon="2.65499">
        <ele>453.4</ele>
        <time>2019-12-24T15:53:49Z</time>
      </trkpt>
      <trkpt lat="42.50198" lon="2.65479">
        <ele>458.6</ele>
        <time>2019-12-24T15:53:52Z</time>
      </trkpt>
      <trkpt lat="42.50186" lon="2.65456">
        <ele>462</ele>
        <time>2019-12-24T15:53:56Z</time>
      </trkpt>
      <trkpt lat="42.50187" lon="2.65434">
        <ele>465.2</ele>
        <time>2019-12-24T15:54:00Z</time>
      </trkpt>
      <trkpt lat="42.50198" lon="2.65409">
        <ele>469.7</ele>
        <time>2019-12-24T15:54:02Z</time>
      </trkpt>
      <trkpt lat="42.50216" lon="2.65391">
        <ele>464.8</ele>
        <time>2019-12-24T15:54:04Z</time>
      </trkpt>
      <trkpt lat="42.50238" lon="2.65375">
        <ele>461.8</ele>
        <time>2019-12-24T15:54:07Z</time>
      </trkpt>
      <trkpt lat="42.50249" lon="2.6536">
        <ele>461.3</ele>
        <time>2019-12-24T15:54:13Z</time>
      </trkpt>
      <trkpt lat="42.50256" lon="2.6534">
        <ele>447.6</ele>
        <time>2019-12-24T15:54:19Z</time>
      </trkpt>
      <trkpt lat="42.50258" lon="2.65307">
        <ele>446.7</ele>
        <time>2019-12-24T15:54:27Z</time>
      </trkpt>
      <trkpt lat="42.50259" lon="2.65262">
        <ele>451.5</ele>
        <time>2019-12-24T15:54:31Z</time>
      </trkpt>
      <trkpt lat="42.50262" lon="2.65206">
        <ele>450.1</ele>
        <time>2019-12-24T15:54:36Z</time>
      </trkpt>
      <trkpt lat="42.50261" lon="2.65188">
        <ele>450.1</ele>
        <time>2019-12-24T15:54:39Z</time>
      </trkpt>
      <trkpt lat="42.50253" lon="2.65162">
        <ele>452.7</ele>
        <time>2019-12-24T15:54:42Z</time>
      </trkpt>
      <trkpt lat="42.50243" lon="2.65137">
        <ele>463.3</ele>
        <time>2019-12-24T15:54:44Z</time>
      </trkpt>
      <trkpt lat="42.50228" lon="2.6509">
        <ele>464.4</ele>
        <time>2019-12-24T15:54:48Z</time>
      </trkpt>
      <trkpt lat="42.5022" lon="2.65069">
        <ele>467.1</ele>
        <time>2019-12-24T15:54:51Z</time>
      </trkpt>
      <trkpt lat="42.5021" lon="2.65058">
        <ele>468.9</ele>
        <time>2019-12-24T15:54:54Z</time>
      </trkpt>
      <trkpt lat="42.50193" lon="2.65049">
        <ele>470.6</ele>
        <time>2019-12-24T15:54:59Z</time>
      </trkpt>
      <trkpt lat="42.50184" lon="2.65043">
        <ele>471</ele>
        <time>2019-12-24T15:55:06Z</time>
      </trkpt>
      <trkpt lat="42.50181" lon="2.65036">
        <ele>471</ele>
        <time>2019-12-24T15:55:13Z</time>
      </trkpt>
      <trkpt lat="42.5018" lon="2.65027">
        <ele>471</ele>
        <time>2019-12-24T15:55:19Z</time>
      </trkpt>
      <trkpt lat="42.5018" lon="2.65022">
        <ele>471</ele>
        <time>2019-12-24T15:55:24Z</time>
      </trkpt>
      <trkpt lat="42.50184" lon="2.65013">
        <ele>471</ele>
        <time>2019-12-24T15:55:29Z</time>
      </trkpt>
      <trkpt lat="42.50191" lon="2.65005">
        <ele>470.8</ele>
        <time>2019-12-24T15:55:33Z</time>
      </trkpt>
      <trkpt lat="42.50217" lon="2.65002">
        <ele>470.1</ele>
        <time>2019-12-24T15:55:37Z</time>
      </trkpt>
      <trkpt lat="42.50252" lon="2.65009">
        <ele>471.6</ele>
        <time>2019-12-24T15:55:41Z</time>
      </trkpt>
      <trkpt lat="42.50274" lon="2.65022">
        <ele>472.8</ele>
        <time>2019-12-24T15:55:47Z</time>
      </trkpt>
      <trkpt lat="42.50288" lon="2.65046">
        <ele>471.8</ele>
        <time>2019-12-24T15:55:50Z</time>
      </trkpt>
      <trkpt lat="42.50299" lon="2.65068">
        <ele>470.3</ele>
        <time>2019-12-24T15:55:53Z</time>
      </trkpt>
      <trkpt lat="42.50315" lon="2.6508">
        <ele>469.6</ele>
        <time>2019-12-24T15:55:56Z</time>
      </trkpt>
      <trkpt lat="42.50339" lon="2.65082">
        <ele>473.6</ele>
        <time>2019-12-24T15:56:00Z</time>
      </trkpt>
      <trkpt lat="42.50352" lon="2.6509">
        <ele>473.9</ele>
        <time>2019-12-24T15:56:03Z</time>
      </trkpt>
      <trkpt lat="42.50357" lon="2.65097">
        <ele>475.5</ele>
        <time>2019-12-24T15:56:06Z</time>
      </trkpt>
      <trkpt lat="42.50362" lon="2.65124">
        <ele>475.2</ele>
        <time>2019-12-24T15:56:09Z</time>
      </trkpt>
      <trkpt lat="42.50376" lon="2.6516">
        <ele>475.6</ele>
        <time>2019-12-24T15:56:12Z</time>
      </trkpt>
      <trkpt lat="42.504" lon="2.65198">
        <ele>466.2</ele>
        <time>2019-12-24T15:56:19Z</time>
      </trkpt>
      <trkpt lat="42.5043" lon="2.65243">
        <ele>479.3</ele>
        <time>2019-12-24T15:56:27Z</time>
      </trkpt>
      <trkpt lat="42.50436" lon="2.65272">
        <ele>469.9</ele>
        <time>2019-12-24T15:56:31Z</time>
      </trkpt>
      <trkpt lat="42.50446" lon="2.65308">
        <ele>467.1</ele>
        <time>2019-12-24T15:56:39Z</time>
      </trkpt>
      <trkpt lat="42.50458" lon="2.65323">
        <ele>468.8</ele>
        <time>2019-12-24T15:56:50Z</time>
      </trkpt>
      <trkpt lat="42.50472" lon="2.65328">
        <ele>472.6</ele>
        <time>2019-12-24T15:56:54Z</time>
      </trkpt>
      <trkpt lat="42.50486" lon="2.65334">
        <ele>468.3</ele>
        <time>2019-12-24T15:56:57Z</time>
      </trkpt>
      <trkpt lat="42.50503" lon="2.6535">
        <ele>475.8</ele>
        <time>2019-12-24T15:57:04Z</time>
      </trkpt>
      <trkpt lat="42.50516" lon="2.65358">
        <ele>474</ele>
        <time>2019-12-24T15:57:10Z</time>
      </trkpt>
      <trkpt lat="42.50531" lon="2.65349">
        <ele>473.8</ele>
        <time>2019-12-24T15:57:23Z</time>
      </trkpt>
      <trkpt lat="42.5055" lon="2.65321">
        <ele>482</ele>
        <time>2019-12-24T15:57:31Z</time>
      </trkpt>
      <trkpt lat="42.50568" lon="2.65272">
        <ele>485.9</ele>
        <time>2019-12-24T15:57:40Z</time>
      </trkpt>
      <trkpt lat="42.5059" lon="2.65223">
        <ele>490</ele>
        <time>2019-12-24T15:57:45Z</time>
      </trkpt>
      <trkpt lat="42.50612" lon="2.65196">
        <ele>492.4</ele>
        <time>2019-12-24T15:57:50Z</time>
      </trkpt>
      <trkpt lat="42.50638" lon="2.65172">
        <ele>490.3</ele>
        <time>2019-12-24T15:57:57Z</time>
      </trkpt>
      <trkpt lat="42.50651" lon="2.65143">
        <ele>498.9</ele>
        <time>2019-12-24T15:58:00Z</time>
      </trkpt>
      <trkpt lat="42.50656" lon="2.65109">
        <ele>501.2</ele>
        <time>2019-12-24T15:58:02Z</time>
      </trkpt>
      <trkpt lat="42.50658" lon="2.6508">
        <ele>502.8</ele>
        <time>2019-12-24T15:58:09Z</time>
      </trkpt>
      <trkpt lat="42.50654" lon="2.65051">
        <ele>511.9</ele>
        <time>2019-12-24T15:58:14Z</time>
      </trkpt>
      <trkpt lat="42.50665" lon="2.6501">
        <ele>513.5</ele>
        <time>2019-12-24T15:58:19Z</time>
      </trkpt>
      <trkpt lat="42.50677" lon="2.6499">
        <ele>514.8</ele>
        <time>2019-12-24T15:58:21Z</time>
      </trkpt>
      <trkpt lat="42.50692" lon="2.64984">
        <ele>515.9</ele>
        <time>2019-12-24T15:58:22Z</time>
      </trkpt>
      <trkpt lat="42.5071" lon="2.64982">
        <ele>514.9</ele>
        <time>2019-12-24T15:58:25Z</time>
      </trkpt>
      <trkpt lat="42.50728" lon="2.64969">
        <ele>515</ele>
        <time>2019-12-24T15:58:29Z</time>
      </trkpt>
      <trkpt lat="42.50745" lon="2.64958">
        <ele>516.3</ele>
        <time>2019-12-24T15:58:32Z</time>
      </trkpt>
      <trkpt lat="42.50757" lon="2.64953">
        <ele>510</ele>
        <time>2019-12-24T15:58:34Z</time>
      </trkpt>
      <trkpt lat="42.50777" lon="2.64954">
        <ele>508.6</ele>
        <time>2019-12-24T15:58:35Z</time>
      </trkpt>
      <trkpt lat="42.50795" lon="2.64951">
        <ele>507.9</ele>
        <time>2019-12-24T15:58:36Z</time>
      </trkpt>
      <trkpt lat="42.5083" lon="2.64931">
        <ele>511.1</ele>
        <time>2019-12-24T15:58:39Z</time>
      </trkpt>
      <trkpt lat="42.50864" lon="2.64899">
        <ele>513.3</ele>
        <time>2019-12-24T15:58:44Z</time>
      </trkpt>
      <trkpt lat="42.5088" lon="2.64872">
        <ele>514</ele>
        <time>2019-12-24T15:58:46Z</time>
      </trkpt>
      <trkpt lat="42.50905" lon="2.64825">
        <ele>520.2</ele>
        <time>2019-12-24T15:58:49Z</time>
      </trkpt>
      <trkpt lat="42.50937" lon="2.64755">
        <ele>513.1</ele>
        <time>2019-12-24T15:58:51Z</time>
      </trkpt>
      <trkpt lat="42.50944" lon="2.64726">
        <ele>515.8</ele>
        <time>2019-12-24T15:58:55Z</time>
      </trkpt>
      <trkpt lat="42.50947" lon="2.647">
        <ele>515.8</ele>
        <time>2019-12-24T15:59:01Z</time>
      </trkpt>
      <trkpt lat="42.50946" lon="2.64647">
        <ele>520.1</ele>
        <time>2019-12-24T15:59:06Z</time>
      </trkpt>
      <trkpt lat="42.50943" lon="2.64602">
        <ele>522.1</ele>
        <time>2019-12-24T15:59:16Z</time>
      </trkpt>
      <trkpt lat="42.50948" lon="2.64506">
        <ele>524</ele>
        <time>2019-12-24T15:59:20Z</time>
      </trkpt>
      <trkpt lat="42.50946" lon="2.64439">
        <ele>524.1</ele>
        <time>2019-12-24T15:59:25Z</time>
      </trkpt>
      <trkpt lat="42.50939" lon="2.64373">
        <ele>520.3</ele>
        <time>2019-12-24T15:59:31Z</time>
      </trkpt>
      <trkpt lat="42.50931" lon="2.64339">
        <ele>524.3</ele>
        <time>2019-12-24T15:59:37Z</time>
      </trkpt>
      <trkpt lat="42.50911" lon="2.64307">
        <ele>532.2</ele>
        <time>2019-12-24T15:59:43Z</time>
      </trkpt>
      <trkpt lat="42.50888" lon="2.6427">
        <ele>529.3</ele>
        <time>2019-12-24T15:59:48Z</time>
      </trkpt>
      <trkpt lat="42.50873" lon="2.64254">
        <ele>531.3</ele>
        <time>2019-12-24T15:59:51Z</time>
      </trkpt>
      <trkpt lat="42.50862" lon="2.64249">
        <ele>519.5</ele>
        <time>2019-12-24T15:59:54Z</time>
      </trkpt>
      <trkpt lat="42.50827" lon="2.64229">
        <ele>537.8</ele>
        <time>2019-12-24T15:59:57Z</time>
      </trkpt>
      <trkpt lat="42.508" lon="2.64211">
        <ele>539.3</ele>
        <time>2019-12-24T15:59:57Z</time>
      </trkpt>
      <trkpt lat="42.50779" lon="2.64194">
        <ele>541</ele>
        <time>2019-12-24T15:59:58Z</time>
      </trkpt>
      <trkpt lat="42.50772" lon="2.64183">
        <ele>541.3</ele>
        <time>2019-12-24T15:59:59Z</time>
      </trkpt>
      <trkpt lat="42.50768" lon="2.64171">
        <ele>541.7</ele>
        <time>2019-12-24T16:00:02Z</time>
      </trkpt>
      <trkpt lat="42.50762" lon="2.64153">
        <ele>534.2</ele>
        <time>2019-12-24T16:00:07Z</time>
      </trkpt>
      <trkpt lat="42.50745" lon="2.64138">
        <ele>549.7</ele>
        <time>2019-12-24T16:00:10Z</time>
      </trkpt>
      <trkpt lat="42.50726" lon="2.64127">
        <ele>551.5</ele>
        <time>2019-12-24T16:00:14Z</time>
      </trkpt>
      <trkpt lat="42.5072" lon="2.64122">
        <ele>552.1</ele>
        <time>2019-12-24T16:00:19Z</time>
      </trkpt>
      <trkpt lat="42.50718" lon="2.64114">
        <ele>551.9</ele>
        <time>2019-12-24T16:00:24Z</time>
      </trkpt>
      <trkpt lat="42.50719" lon="2.64102">
        <ele>550.8</ele>
        <time>2019-12-24T16:00:35Z</time>
      </trkpt>
      <trkpt lat="42.50725" lon="2.64087">
        <ele>547.9</ele>
        <time>2019-12-24T16:00:40Z</time>
      </trkpt>
      <trkpt lat="42.50741" lon="2.64057">
        <ele>545.7</ele>
        <time>2019-12-24T16:00:42Z</time>
      </trkpt>
      <trkpt lat="42.50746" lon="2.64039">
        <ele>546.5</ele>
        <time>2019-12-24T16:00:44Z</time>
      </trkpt>
      <trkpt lat="42.50745" lon="2.64017">
        <ele>544.4</ele>
        <time>2019-12-24T16:00:47Z</time>
      </trkpt>
      <trkpt lat="42.50742" lon="2.64">
        <ele>541.4</ele>
        <time>2019-12-24T16:00:58Z</time>
      </trkpt>
      <trkpt lat="42.50734" lon="2.63977">
        <ele>545.8</ele>
        <time>2019-12-24T16:01:00Z</time>
      </trkpt>
      <trkpt lat="42.50716" lon="2.63933">
        <ele>547.6</ele>
        <time>2019-12-24T16:01:04Z</time>
      </trkpt>
      <trkpt lat="42.50706" lon="2.63903">
        <ele>544.1</ele>
        <time>2019-12-24T16:01:10Z</time>
      </trkpt>
      <trkpt lat="42.50685" lon="2.6383">
        <ele>542.8</ele>
        <time>2019-12-24T16:01:16Z</time>
      </trkpt>
      <trkpt lat="42.50675" lon="2.638">
        <ele>537.9</ele>
        <time>2019-12-24T16:01:23Z</time>
      </trkpt>
      <trkpt lat="42.50651" lon="2.63776">
        <ele>556.2</ele>
        <time>2019-12-24T16:01:28Z</time>
      </trkpt>
      <trkpt lat="42.50628" lon="2.6375">
        <ele>559.3</ele>
        <time>2019-12-24T16:01:30Z</time>
      </trkpt>
      <trkpt lat="42.50606" lon="2.63711">
        <ele>556.3</ele>
        <time>2019-12-24T16:01:40Z</time>
      </trkpt>
      <trkpt lat="42.50588" lon="2.63671">
        <ele>560.1</ele>
        <time>2019-12-24T16:01:47Z</time>
      </trkpt>
      <trkpt lat="42.50577" lon="2.63643">
        <ele>571.9</ele>
        <time>2019-12-24T16:01:50Z</time>
      </trkpt>
      <trkpt lat="42.50572" lon="2.63614">
        <ele>573.9</ele>
        <time>2019-12-24T16:01:53Z</time>
      </trkpt>
      <trkpt lat="42.50569" lon="2.63593">
        <ele>572</ele>
        <time>2019-12-24T16:01:55Z</time>
      </trkpt>
      <trkpt lat="42.50569" lon="2.63573">
        <ele>579.1</ele>
        <time>2019-12-24T16:01:57Z</time>
      </trkpt>
      <trkpt lat="42.5057" lon="2.6357">
        <ele>579.7</ele>
        <time>2019-12-24T16:02:02Z</time>
      </trkpt>
      <trkpt lat="42.50572" lon="2.63568">
        <ele>579.9</ele>
        <time>2019-12-24T16:02:05Z</time>
      </trkpt>
      <trkpt lat="42.50578" lon="2.63567">
        <ele>578.8</ele>
        <time>2019-12-24T16:02:08Z</time>
      </trkpt>
      <trkpt lat="42.50596" lon="2.63569">
        <ele>572.5</ele>
        <time>2019-12-24T16:02:12Z</time>
      </trkpt>
      <trkpt lat="42.50622" lon="2.63586">
        <ele>559.1</ele>
        <time>2019-12-24T16:02:14Z</time>
      </trkpt>
      <trkpt lat="42.50632" lon="2.63595">
        <ele>558.2</ele>
        <time>2019-12-24T16:02:18Z</time>
      </trkpt>
      <trkpt lat="42.50657" lon="2.63611">
        <ele>556.4</ele>
        <time>2019-12-24T16:02:20Z</time>
      </trkpt>
      <trkpt lat="42.5068" lon="2.63615">
        <ele>548.7</ele>
        <time>2019-12-24T16:02:23Z</time>
      </trkpt>
      <trkpt lat="42.50709" lon="2.63613">
        <ele>547.2</ele>
        <time>2019-12-24T16:02:27Z</time>
      </trkpt>
      <trkpt lat="42.50769" lon="2.63599">
        <ele>548.2</ele>
        <time>2019-12-24T16:02:31Z</time>
      </trkpt>
      <trkpt lat="42.50798" lon="2.63584">
        <ele>549.8</ele>
        <time>2019-12-24T16:02:35Z</time>
      </trkpt>
      <trkpt lat="42.5081" lon="2.6358">
        <ele>570</ele>
        <time>2019-12-24T16:02:43Z</time>
      </trkpt>
      <trkpt lat="42.5082" lon="2.63584">
        <ele>555.1</ele>
        <time>2019-12-24T16:02:51Z</time>
      </trkpt>
      <trkpt lat="42.50832" lon="2.63597">
        <ele>554.3</ele>
        <time>2019-12-24T16:02:56Z</time>
      </trkpt>
      <trkpt lat="42.5088" lon="2.63652">
        <ele>550.8</ele>
        <time>2019-12-24T16:02:59Z</time>
      </trkpt>
      <trkpt lat="42.50892" lon="2.63659">
        <ele>551.1</ele>
        <time>2019-12-24T16:03:06Z</time>
      </trkpt>
      <trkpt lat="42.50911" lon="2.63663">
        <ele>549.7</ele>
        <time>2019-12-24T16:03:09Z</time>
      </trkpt>
      <trkpt lat="42.50948" lon="2.63664">
        <ele>561.5</ele>
        <time>2019-12-24T16:03:11Z</time>
      </trkpt>
      <trkpt lat="42.5098" lon="2.63672">
        <ele>543.7</ele>
        <time>2019-12-24T16:03:13Z</time>
      </trkpt>
      <trkpt lat="42.51015" lon="2.63679">
        <ele>549.8</ele>
        <time>2019-12-24T16:03:16Z</time>
      </trkpt>
      <trkpt lat="42.51045" lon="2.63689">
        <ele>549.3</ele>
        <time>2019-12-24T16:03:20Z</time>
      </trkpt>
      <trkpt lat="42.51057" lon="2.63696">
        <ele>549.5</ele>
        <time>2019-12-24T16:03:23Z</time>
      </trkpt>
      <trkpt lat="42.51102" lon="2.63739">
        <ele>550.5</ele>
        <time>2019-12-24T16:03:25Z</time>
      </trkpt>
      <trkpt lat="42.51132" lon="2.63766">
        <ele>535.3</ele>
        <time>2019-12-24T16:03:28Z</time>
      </trkpt>
      <trkpt lat="42.5115" lon="2.63777">
        <ele>536.1</ele>
        <time>2019-12-24T16:03:32Z</time>
      </trkpt>
      <trkpt lat="42.51163" lon="2.63783">
        <ele>535.6</ele>
        <time>2019-12-24T16:03:36Z</time>
      </trkpt>
      <trkpt lat="42.51175" lon="2.63785">
        <ele>535.7</ele>
        <time>2019-12-24T16:03:49Z</time>
      </trkpt>
      <trkpt lat="42.51188" lon="2.63782">
        <ele>535.3</ele>
        <time>2019-12-24T16:03:51Z</time>
      </trkpt>
      <trkpt lat="42.51213" lon="2.63768">
        <ele>534.8</ele>
        <time>2019-12-24T16:03:52Z</time>
      </trkpt>
      <trkpt lat="42.51226" lon="2.63754">
        <ele>535.4</ele>
        <time>2019-12-24T16:03:53Z</time>
      </trkpt>
      <trkpt lat="42.51237" lon="2.63738">
        <ele>545.8</ele>
        <time>2019-12-24T16:03:55Z</time>
      </trkpt>
      <trkpt lat="42.51254" lon="2.63713">
        <ele>527.9</ele>
        <time>2019-12-24T16:03:56Z</time>
      </trkpt>
      <trkpt lat="42.5126" lon="2.637">
        <ele>528.3</ele>
        <time>2019-12-24T16:03:57Z</time>
      </trkpt>
      <trkpt lat="42.51267" lon="2.63677">
        <ele>531.9</ele>
        <time>2019-12-24T16:03:59Z</time>
      </trkpt>
      <trkpt lat="42.51266" lon="2.63657">
        <ele>533.2</ele>
        <time>2019-12-24T16:04:01Z</time>
      </trkpt>
      <trkpt lat="42.51259" lon="2.63637">
        <ele>530.4</ele>
        <time>2019-12-24T16:04:04Z</time>
      </trkpt>
      <trkpt lat="42.51247" lon="2.63612">
        <ele>553.8</ele>
        <time>2019-12-24T16:04:06Z</time>
      </trkpt>
      <trkpt lat="42.5124" lon="2.63584">
        <ele>548.6</ele>
        <time>2019-12-24T16:04:08Z</time>
      </trkpt>
      <trkpt lat="42.51237" lon="2.63553">
        <ele>553.7</ele>
        <time>2019-12-24T16:04:10Z</time>
      </trkpt>
      <trkpt lat="42.51238" lon="2.63494">
        <ele>547.7</ele>
        <time>2019-12-24T16:04:11Z</time>
      </trkpt>
      <trkpt lat="42.51244" lon="2.63431">
        <ele>547.4</ele>
        <time>2019-12-24T16:04:14Z</time>
      </trkpt>
      <trkpt lat="42.51245" lon="2.63394">
        <ele>546.4</ele>
        <time>2019-12-24T16:04:18Z</time>
      </trkpt>
      <trkpt lat="42.51242" lon="2.63371">
        <ele>546.9</ele>
        <time>2019-12-24T16:04:26Z</time>
      </trkpt>
      <trkpt lat="42.5123" lon="2.63319">
        <ele>538.5</ele>
        <time>2019-12-24T16:04:29Z</time>
      </trkpt>
      <trkpt lat="42.51225" lon="2.63301">
        <ele>538.9</ele>
        <time>2019-12-24T16:04:30Z</time>
      </trkpt>
      <trkpt lat="42.51218" lon="2.63286">
        <ele>538.7</ele>
        <time>2019-12-24T16:04:32Z</time>
      </trkpt>
      <trkpt lat="42.5121" lon="2.63272">
        <ele>538.6</ele>
        <time>2019-12-24T16:04:35Z</time>
      </trkpt>
      <trkpt lat="42.51198" lon="2.63256">
        <ele>539.7</ele>
        <time>2019-12-24T16:04:37Z</time>
      </trkpt>
      <trkpt lat="42.51181" lon="2.63241">
        <ele>533.4</ele>
        <time>2019-12-24T16:04:39Z</time>
      </trkpt>
      <trkpt lat="42.51168" lon="2.63228">
        <ele>531.8</ele>
        <time>2019-12-24T16:04:41Z</time>
      </trkpt>
      <trkpt lat="42.51156" lon="2.63218">
        <ele>548.2</ele>
        <time>2019-12-24T16:04:43Z</time>
      </trkpt>
      <trkpt lat="42.51145" lon="2.632">
        <ele>547.7</ele>
        <time>2019-12-24T16:04:46Z</time>
      </trkpt>
      <trkpt lat="42.51135" lon="2.63181">
        <ele>547.4</ele>
        <time>2019-12-24T16:04:50Z</time>
      </trkpt>
      <trkpt lat="42.51127" lon="2.63152">
        <ele>543</ele>
        <time>2019-12-24T16:04:52Z</time>
      </trkpt>
      <trkpt lat="42.51115" lon="2.63054">
        <ele>548.3</ele>
        <time>2019-12-24T16:04:54Z</time>
      </trkpt>
      <trkpt lat="42.51114" lon="2.63039">
        <ele>548.9</ele>
        <time>2019-12-24T16:04:56Z</time>
      </trkpt>
      <trkpt lat="42.51116" lon="2.63031">
        <ele>549.2</ele>
        <time>2019-12-24T16:04:58Z</time>
      </trkpt>
      <trkpt lat="42.5112" lon="2.63024">
        <ele>549.5</ele>
        <time>2019-12-24T16:05:00Z</time>
      </trkpt>
      <trkpt lat="42.51129" lon="2.63017">
        <ele>550.1</ele>
        <time>2019-12-24T16:05:03Z</time>
      </trkpt>
      <trkpt lat="42.51137" lon="2.63016">
        <ele>550.5</ele>
        <time>2019-12-24T16:05:05Z</time>
      </trkpt>
      <trkpt lat="42.51143" lon="2.63019">
        <ele>550.6</ele>
        <time>2019-12-24T16:05:08Z</time>
      </trkpt>
      <trkpt lat="42.51149" lon="2.63027">
        <ele>549.7</ele>
        <time>2019-12-24T16:05:10Z</time>
      </trkpt>
      <trkpt lat="42.51154" lon="2.6304">
        <ele>547.3</ele>
        <time>2019-12-24T16:05:13Z</time>
      </trkpt>
      <trkpt lat="42.51162" lon="2.63058">
        <ele>542.3</ele>
        <time>2019-12-24T16:05:15Z</time>
      </trkpt>
      <trkpt lat="42.51171" lon="2.6307">
        <ele>536.7</ele>
        <time>2019-12-24T16:05:18Z</time>
      </trkpt>
      <trkpt lat="42.51181" lon="2.63077">
        <ele>536.9</ele>
        <time>2019-12-24T16:05:22Z</time>
      </trkpt>
      <trkpt lat="42.51191" lon="2.6308">
        <ele>538.8</ele>
        <time>2019-12-24T16:05:25Z</time>
      </trkpt>
      <trkpt lat="42.51201" lon="2.63079">
        <ele>540.2</ele>
        <time>2019-12-24T16:05:30Z</time>
      </trkpt>
      <trkpt lat="42.51215" lon="2.63072">
        <ele>541.2</ele>
        <time>2019-12-24T16:05:33Z</time>
      </trkpt>
      <trkpt lat="42.51238" lon="2.63062">
        <ele>541.1</ele>
        <time>2019-12-24T16:05:36Z</time>
      </trkpt>
      <trkpt lat="42.51278" lon="2.63052">
        <ele>549.5</ele>
        <time>2019-12-24T16:05:38Z</time>
      </trkpt>
      <trkpt lat="42.51296" lon="2.63049">
        <ele>551</ele>
        <time>2019-12-24T16:05:41Z</time>
      </trkpt>
      <trkpt lat="42.51305" lon="2.6305">
        <ele>550.8</ele>
        <time>2019-12-24T16:05:43Z</time>
      </trkpt>
      <trkpt lat="42.51314" lon="2.63054">
        <ele>549.2</ele>
        <time>2019-12-24T16:05:45Z</time>
      </trkpt>
      <trkpt lat="42.51327" lon="2.63063">
        <ele>544.6</ele>
        <time>2019-12-24T16:05:48Z</time>
      </trkpt>
      <trkpt lat="42.51339" lon="2.63068">
        <ele>548.8</ele>
        <time>2019-12-24T16:05:50Z</time>
      </trkpt>
      <trkpt lat="42.51351" lon="2.6307">
        <ele>552.6</ele>
        <time>2019-12-24T16:05:53Z</time>
      </trkpt>
      <trkpt lat="42.51363" lon="2.63075">
        <ele>556.4</ele>
        <time>2019-12-24T16:06:02Z</time>
      </trkpt>
      <trkpt lat="42.51373" lon="2.63083">
        <ele>558.6</ele>
        <time>2019-12-24T16:06:06Z</time>
      </trkpt>
      <trkpt lat="42.51381" lon="2.631">
        <ele>534.4</ele>
        <time>2019-12-24T16:06:08Z</time>
      </trkpt>
      <trkpt lat="42.51388" lon="2.6313">
        <ele>529.1</ele>
        <time>2019-12-24T16:06:11Z</time>
      </trkpt>
      <trkpt lat="42.51392" lon="2.6314">
        <ele>527.5</ele>
        <time>2019-12-24T16:06:14Z</time>
      </trkpt>
      <trkpt lat="42.514" lon="2.63152">
        <ele>526</ele>
        <time>2019-12-24T16:06:17Z</time>
      </trkpt>
      <trkpt lat="42.51414" lon="2.63158">
        <ele>524.9</ele>
        <time>2019-12-24T16:06:20Z</time>
      </trkpt>
      <trkpt lat="42.51421" lon="2.63157">
        <ele>530.7</ele>
        <time>2019-12-24T16:06:23Z</time>
      </trkpt>
      <trkpt lat="42.51434" lon="2.63154">
        <ele>535.4</ele>
        <time>2019-12-24T16:06:25Z</time>
      </trkpt>
      <trkpt lat="42.51448" lon="2.63155">
        <ele>538</ele>
        <time>2019-12-24T16:06:28Z</time>
      </trkpt>
      <trkpt lat="42.51462" lon="2.63159">
        <ele>538.6</ele>
        <time>2019-12-24T16:06:30Z</time>
      </trkpt>
      <trkpt lat="42.51476" lon="2.63168">
        <ele>515.7</ele>
        <time>2019-12-24T16:06:33Z</time>
      </trkpt>
      <trkpt lat="42.5149" lon="2.63173">
        <ele>520.1</ele>
        <time>2019-12-24T16:06:37Z</time>
      </trkpt>
      <trkpt lat="42.51502" lon="2.63171">
        <ele>524.8</ele>
        <time>2019-12-24T16:06:43Z</time>
      </trkpt>
      <trkpt lat="42.51514" lon="2.63165">
        <ele>532</ele>
        <time>2019-12-24T16:06:47Z</time>
      </trkpt>
      <trkpt lat="42.51531" lon="2.63151">
        <ele>533.6</ele>
        <time>2019-12-24T16:06:51Z</time>
      </trkpt>
      <trkpt lat="42.51543" lon="2.63134">
        <ele>534.9</ele>
        <time>2019-12-24T16:06:55Z</time>
      </trkpt>
      <trkpt lat="42.51554" lon="2.63116">
        <ele>536.5</ele>
        <time>2019-12-24T16:07:00Z</time>
      </trkpt>
      <trkpt lat="42.51573" lon="2.63085">
        <ele>536.8</ele>
        <time>2019-12-24T16:07:04Z</time>
      </trkpt>
      <trkpt lat="42.51587" lon="2.6307">
        <ele>543</ele>
        <time>2019-12-24T16:07:07Z</time>
      </trkpt>
      <trkpt lat="42.51603" lon="2.63058">
        <ele>548.2</ele>
        <time>2019-12-24T16:07:10Z</time>
      </trkpt>
      <trkpt lat="42.51614" lon="2.63054">
        <ele>549.6</ele>
        <time>2019-12-24T16:07:14Z</time>
      </trkpt>
      <trkpt lat="42.51628" lon="2.63055">
        <ele>549.7</ele>
        <time>2019-12-24T16:07:21Z</time>
      </trkpt>
      <trkpt lat="42.51638" lon="2.63062">
        <ele>548.6</ele>
        <time>2019-12-24T16:07:30Z</time>
      </trkpt>
      <trkpt lat="42.51646" lon="2.63076">
        <ele>546.5</ele>
        <time>2019-12-24T16:07:36Z</time>
      </trkpt>
      <trkpt lat="42.51651" lon="2.63096">
        <ele>534.4</ele>
        <time>2019-12-24T16:07:39Z</time>
      </trkpt>
      <trkpt lat="42.51656" lon="2.63111">
        <ele>532.2</ele>
        <time>2019-12-24T16:07:41Z</time>
      </trkpt>
      <trkpt lat="42.51669" lon="2.63128">
        <ele>542.7</ele>
        <time>2019-12-24T16:07:42Z</time>
      </trkpt>
      <trkpt lat="42.51702" lon="2.63173">
        <ele>536.4</ele>
        <time>2019-12-24T16:07:44Z</time>
      </trkpt>
      <trkpt lat="42.51717" lon="2.63194">
        <ele>539.5</ele>
        <time>2019-12-24T16:07:55Z</time>
      </trkpt>
      <trkpt lat="42.51725" lon="2.63208">
        <ele>539.9</ele>
        <time>2019-12-24T16:07:57Z</time>
      </trkpt>
      <trkpt lat="42.51729" lon="2.63229">
        <ele>540</ele>
        <time>2019-12-24T16:07:58Z</time>
      </trkpt>
      <trkpt lat="42.51733" lon="2.63255">
        <ele>536.7</ele>
        <time>2019-12-24T16:08:00Z</time>
      </trkpt>
      <trkpt lat="42.51738" lon="2.63274">
        <ele>534</ele>
        <time>2019-12-24T16:08:02Z</time>
      </trkpt>
      <trkpt lat="42.51738" lon="2.63298">
        <ele>531.1</ele>
        <time>2019-12-24T16:08:04Z</time>
      </trkpt>
      <trkpt lat="42.51737" lon="2.63319">
        <ele>532.5</ele>
        <time>2019-12-24T16:08:05Z</time>
      </trkpt>
      <trkpt lat="42.51738" lon="2.63336">
        <ele>530.7</ele>
        <time>2019-12-24T16:08:07Z</time>
      </trkpt>
      <trkpt lat="42.51746" lon="2.63352">
        <ele>527.8</ele>
        <time>2019-12-24T16:08:08Z</time>
      </trkpt>
      <trkpt lat="42.51752" lon="2.63369">
        <ele>549.4</ele>
        <time>2019-12-24T16:08:08Z</time>
      </trkpt>
      <trkpt lat="42.51758" lon="2.63391">
        <ele>547.1</ele>
        <time>2019-12-24T16:08:09Z</time>
      </trkpt>
      <trkpt lat="42.51764" lon="2.63423">
        <ele>537.9</ele>
        <time>2019-12-24T16:08:12Z</time>
      </trkpt>
      <trkpt lat="42.51774" lon="2.63465">
        <ele>539.7</ele>
        <time>2019-12-24T16:08:13Z</time>
      </trkpt>
      <trkpt lat="42.51785" lon="2.63488">
        <ele>539.8</ele>
        <time>2019-12-24T16:08:16Z</time>
      </trkpt>
      <trkpt lat="42.51801" lon="2.63512">
        <ele>532.9</ele>
        <time>2019-12-24T16:08:20Z</time>
      </trkpt>
      <trkpt lat="42.51818" lon="2.63535">
        <ele>532.8</ele>
        <time>2019-12-24T16:08:23Z</time>
      </trkpt>
      <trkpt lat="42.51838" lon="2.63555">
        <ele>544.3</ele>
        <time>2019-12-24T16:08:25Z</time>
      </trkpt>
      <trkpt lat="42.51858" lon="2.63567">
        <ele>544.2</ele>
        <time>2019-12-24T16:08:27Z</time>
      </trkpt>
      <trkpt lat="42.51875" lon="2.63573">
        <ele>545.9</ele>
        <time>2019-12-24T16:08:28Z</time>
      </trkpt>
      <trkpt lat="42.51893" lon="2.63572">
        <ele>547</ele>
        <time>2019-12-24T16:08:29Z</time>
      </trkpt>
      <trkpt lat="42.51913" lon="2.6357">
        <ele>546.8</ele>
        <time>2019-12-24T16:08:30Z</time>
      </trkpt>
      <trkpt lat="42.51954" lon="2.63565">
        <ele>553.4</ele>
        <time>2019-12-24T16:08:33Z</time>
      </trkpt>
      <trkpt lat="42.52007" lon="2.63561">
        <ele>550.8</ele>
        <time>2019-12-24T16:08:36Z</time>
      </trkpt>
      <trkpt lat="42.52041" lon="2.63559">
        <ele>551</ele>
        <time>2019-12-24T16:08:41Z</time>
      </trkpt>
      <trkpt lat="42.52055" lon="2.63557">
        <ele>550.5</ele>
        <time>2019-12-24T16:08:43Z</time>
      </trkpt>
      <trkpt lat="42.52063" lon="2.63552">
        <ele>550.6</ele>
        <time>2019-12-24T16:08:45Z</time>
      </trkpt>
      <trkpt lat="42.5207" lon="2.63543">
        <ele>551.5</ele>
        <time>2019-12-24T16:08:47Z</time>
      </trkpt>
      <trkpt lat="42.52075" lon="2.63529">
        <ele>553</ele>
        <time>2019-12-24T16:08:49Z</time>
      </trkpt>
      <trkpt lat="42.52087" lon="2.63448">
        <ele>557.7</ele>
        <time>2019-12-24T16:08:50Z</time>
      </trkpt>
      <trkpt lat="42.5209" lon="2.63434">
        <ele>560</ele>
        <time>2019-12-24T16:08:52Z</time>
      </trkpt>
      <trkpt lat="42.52095" lon="2.63428">
        <ele>560.6</ele>
        <time>2019-12-24T16:08:53Z</time>
      </trkpt>
      <trkpt lat="42.52106" lon="2.63423">
        <ele>558.7</ele>
        <time>2019-12-24T16:08:55Z</time>
      </trkpt>
      <trkpt lat="42.52117" lon="2.6342">
        <ele>556.8</ele>
        <time>2019-12-24T16:08:58Z</time>
      </trkpt>
      <trkpt lat="42.52168" lon="2.63392">
        <ele>552.7</ele>
        <time>2019-12-24T16:42:49Z</time>
      </trkpt>
      <trkpt lat="42.52217" lon="2.63407">
        <ele>549.7</ele>
        <time>2019-12-24T16:42:50Z</time>
      </trkpt>
      <trkpt lat="42.52267" lon="2.63317">
        <ele>553.3</ele>
        <time>2019-12-24T16:42:53Z</time>
      </trkpt>
      <trkpt lat="42.52352" lon="2.6322">
        <ele>559.9</ele>
        <time>2019-12-24T16:43:03Z</time>
      </trkpt>
      <trkpt lat="42.52416" lon="2.63179">
        <ele>561</ele>
        <time>2019-12-24T16:43:13Z</time>
      </trkpt>
      <trkpt lat="42.52471" lon="2.63104">
        <ele>561.8</ele>
        <time>2019-12-24T16:43:39Z</time>
      </trkpt>
      <trkpt lat="42.52515" lon="2.63045">
        <ele>558.4</ele>
        <time>2019-12-24T16:43:56Z</time>
      </trkpt>
      <trkpt lat="42.52567" lon="2.62992">
        <ele>559.7</ele>
        <time>2019-12-24T16:44:03Z</time>
      </trkpt>
      <trkpt lat="42.52578" lon="2.62918">
        <ele>561.8</ele>
        <time>2019-12-24T16:44:04Z</time>
      </trkpt>
      <trkpt lat="42.52559" lon="2.62813">
        <ele>566.8</ele>
        <time>2019-12-24T16:44:06Z</time>
      </trkpt>
      <trkpt lat="42.52559" lon="2.62761">
        <ele>566.4</ele>
        <time>2019-12-24T16:44:07Z</time>
      </trkpt>
      <trkpt lat="42.5263" lon="2.62552">
        <ele>562.5</ele>
        <time>2019-12-24T16:44:08Z</time>
      </trkpt>
      <trkpt lat="42.52639" lon="2.62466">
        <ele>565.6</ele>
        <time>2019-12-24T16:44:11Z</time>
      </trkpt>
      <trkpt lat="42.52677" lon="2.62439">
        <ele>553.5</ele>
        <time>2019-12-24T16:44:15Z</time>
      </trkpt>
      <trkpt lat="42.52705" lon="2.62372">
        <ele>557</ele>
        <time>2019-12-24T16:44:18Z</time>
      </trkpt>
      <trkpt lat="42.52713" lon="2.62294">
        <ele>558</ele>
        <time>2019-12-24T16:44:24Z</time>
      </trkpt>
      <trkpt lat="42.5271" lon="2.62256">
        <ele>557.8</ele>
        <time>2019-12-24T16:44:27Z</time>
      </trkpt>
      <trkpt lat="42.52674" lon="2.62156">
        <ele>556.5</ele>
        <time>2019-12-24T16:44:28Z</time>
      </trkpt>
      <trkpt lat="42.52655" lon="2.62047">
        <ele>552.2</ele>
        <time>2019-12-24T16:44:29Z</time>
      </trkpt>
      <trkpt lat="42.52611" lon="2.62025">
        <ele>552.1</ele>
        <time>2019-12-24T16:44:31Z</time>
      </trkpt>
      <trkpt lat="42.52581" lon="2.62036">
        <ele>560.7</ele>
        <time>2019-12-24T16:44:33Z</time>
      </trkpt>
      <trkpt lat="42.52487" lon="2.61954">
        <ele>557.7</ele>
        <time>2019-12-24T16:44:36Z</time>
      </trkpt>
      <trkpt lat="42.52449" lon="2.61954">
        <ele>562.1</ele>
        <time>2019-12-24T16:44:38Z</time>
      </trkpt>
      <trkpt lat="42.52438" lon="2.61883">
        <ele>546.5</ele>
        <time>2019-12-24T16:44:40Z</time>
      </trkpt>
      <trkpt lat="42.52405" lon="2.61853">
        <ele>549.6</ele>
        <time>2019-12-24T16:44:42Z</time>
      </trkpt>
      <trkpt lat="42.52363" lon="2.61875">
        <ele>550.8</ele>
        <time>2019-12-24T16:44:46Z</time>
      </trkpt>
      <trkpt lat="42.52319" lon="2.61909">
        <ele>553.1</ele>
        <time>2019-12-24T16:44:52Z</time>
      </trkpt>
      <trkpt lat="42.52228" lon="2.61909">
        <ele>548.6</ele>
        <time>2019-12-24T16:44:57Z</time>
      </trkpt>
      <trkpt lat="42.52198" lon="2.6186">
        <ele>543.8</ele>
        <time>2019-12-24T16:44:58Z</time>
      </trkpt>
      <trkpt lat="42.52143" lon="2.61827">
        <ele>540.2</ele>
        <time>2019-12-24T16:45:00Z</time>
      </trkpt>
      <trkpt lat="42.52058" lon="2.61831">
        <ele>551.6</ele>
        <time>2019-12-24T16:45:03Z</time>
      </trkpt>
      <trkpt lat="42.5206" lon="2.61801">
        <ele>552.8</ele>
        <time>2019-12-24T16:45:05Z</time>
      </trkpt>
      <trkpt lat="42.52151" lon="2.61737">
        <ele>553.2</ele>
        <time>2019-12-24T16:45:07Z</time>
      </trkpt>
      <trkpt lat="42.52223" lon="2.6173">
        <ele>550.2</ele>
        <time>2019-12-24T16:45:12Z</time>
      </trkpt>
      <trkpt lat="42.52272" lon="2.617">
        <ele>542.6</ele>
        <time>2019-12-24T16:45:16Z</time>
      </trkpt>
      <trkpt lat="42.523" lon="2.61644">
        <ele>548.5</ele>
        <time>2019-12-24T16:45:17Z</time>
      </trkpt>
      <trkpt lat="42.52303" lon="2.61565">
        <ele>555</ele>
        <time>2019-12-24T16:45:19Z</time>
      </trkpt>
      <trkpt lat="42.5227" lon="2.61423">
        <ele>567.6</ele>
        <time>2019-12-24T16:45:20Z</time>
      </trkpt>
      <trkpt lat="42.52283" lon="2.61367">
        <ele>573.1</ele>
        <time>2019-12-24T16:45:21Z</time>
      </trkpt>
      <trkpt lat="42.52333" lon="2.61274">
        <ele>578.9</ele>
        <time>2019-12-24T16:45:23Z</time>
      </trkpt>
      <trkpt lat="42.52347" lon="2.61192">
        <ele>582.2</ele>
        <time>2019-12-24T16:45:24Z</time>
      </trkpt>
      <trkpt lat="42.52372" lon="2.61162">
        <ele>587</ele>
        <time>2019-12-24T16:45:26Z</time>
      </trkpt>
      <trkpt lat="42.52407" lon="2.6118">
        <ele>582.9</ele>
        <time>2019-12-24T16:45:28Z</time>
      </trkpt>
      <trkpt lat="42.52421" lon="2.61233">
        <ele>592.6</ele>
        <time>2019-12-24T16:45:33Z</time>
      </trkpt>
      <trkpt lat="42.52415" lon="2.6134">
        <ele>578.3</ele>
        <time>2019-12-24T16:45:43Z</time>
      </trkpt>
      <trkpt lat="42.52435" lon="2.61389">
        <ele>587.7</ele>
        <time>2019-12-24T16:45:46Z</time>
      </trkpt>
      <trkpt lat="42.525" lon="2.61459">
        <ele>597.8</ele>
        <time>2019-12-24T16:45:52Z</time>
      </trkpt>
      <trkpt lat="42.52607" lon="2.61499">
        <ele>604.3</ele>
        <time>2019-12-24T16:46:02Z</time>
      </trkpt>
      <trkpt lat="42.52686" lon="2.61471">
        <ele>611.6</ele>
        <time>2019-12-24T16:46:05Z</time>
      </trkpt>
      <trkpt lat="42.52809" lon="2.61482">
        <ele>612.3</ele>
        <time>2019-12-24T16:46:08Z</time>
      </trkpt>
      <trkpt lat="42.52905" lon="2.6142">
        <ele>616</ele>
        <time>2019-12-24T16:46:12Z</time>
      </trkpt>
      <trkpt lat="42.52932" lon="2.6138">
        <ele>614.5</ele>
        <time>2019-12-24T16:46:14Z</time>
      </trkpt>
      <trkpt lat="42.52945" lon="2.61298">
        <ele>623.8</ele>
        <time>2019-12-24T16:46:16Z</time>
      </trkpt>
      <trkpt lat="42.52947" lon="2.61256">
        <ele>626.3</ele>
        <time>2019-12-24T16:46:17Z</time>
      </trkpt>
      <trkpt lat="42.5293" lon="2.61142">
        <ele>650</ele>
        <time>2019-12-24T16:46:19Z</time>
      </trkpt>
      <trkpt lat="42.52934" lon="2.61122">
        <ele>652.5</ele>
        <time>2019-12-24T16:46:26Z</time>
      </trkpt>
      <trkpt lat="42.52948" lon="2.61111">
        <ele>653.6</ele>
        <time>2019-12-24T16:46:34Z</time>
      </trkpt>
      <trkpt lat="42.52976" lon="2.61137">
        <ele>649.3</ele>
        <time>2019-12-24T16:46:36Z</time>
      </trkpt>
      <trkpt lat="42.53061" lon="2.6116">
        <ele>645.6</ele>
        <time>2019-12-24T16:46:38Z</time>
      </trkpt>
      <trkpt lat="42.53095" lon="2.61149">
        <ele>645.7</ele>
        <time>2019-12-24T16:46:41Z</time>
      </trkpt>
      <trkpt lat="42.53137" lon="2.61123">
        <ele>649.5</ele>
        <time>2019-12-24T16:46:45Z</time>
      </trkpt>
      <trkpt lat="42.53146" lon="2.61106">
        <ele>651.2</ele>
        <time>2019-12-24T16:46:54Z</time>
      </trkpt>
      <trkpt lat="42.53149" lon="2.61066">
        <ele>665.3</ele>
        <time>2019-12-24T16:46:57Z</time>
      </trkpt>
      <trkpt lat="42.53192" lon="2.61037">
        <ele>678</ele>
        <time>2019-12-24T16:46:59Z</time>
      </trkpt>
      <trkpt lat="42.53209" lon="2.61091">
        <ele>666.1</ele>
        <time>2019-12-24T16:47:00Z</time>
      </trkpt>
      <trkpt lat="42.53236" lon="2.61141">
        <ele>668.2</ele>
        <time>2019-12-24T16:47:01Z</time>
      </trkpt>
      <trkpt lat="42.53201" lon="2.61258">
        <ele>661.9</ele>
        <time>2019-12-24T16:47:05Z</time>
      </trkpt>
      <trkpt lat="42.53187" lon="2.61328">
        <ele>659.5</ele>
        <time>2019-12-24T16:47:07Z</time>
      </trkpt>
      <trkpt lat="42.53187" lon="2.61371">
        <ele>662.8</ele>
        <time>2019-12-24T16:47:09Z</time>
      </trkpt>
      <trkpt lat="42.53204" lon="2.61417">
        <ele>659.5</ele>
        <time>2019-12-24T16:47:12Z</time>
      </trkpt>
      <trkpt lat="42.53239" lon="2.61464">
        <ele>662.6</ele>
        <time>2019-12-24T16:47:17Z</time>
      </trkpt>
      <trkpt lat="42.533" lon="2.615">
        <ele>671.8</ele>
        <time>2019-12-24T16:47:18Z</time>
      </trkpt>
      <trkpt lat="42.53343" lon="2.61537">
        <ele>684.2</ele>
        <time>2019-12-24T16:47:19Z</time>
      </trkpt>
      <trkpt lat="42.53376" lon="2.61579">
        <ele>685.4</ele>
        <time>2019-12-24T16:47:20Z</time>
      </trkpt>
      <trkpt lat="42.53395" lon="2.61581">
        <ele>689.1</ele>
        <time>2019-12-24T16:47:22Z</time>
      </trkpt>
      <trkpt lat="42.53427" lon="2.61561">
        <ele>705.2</ele>
        <time>2019-12-24T16:47:25Z</time>
      </trkpt>
      <trkpt lat="42.53436" lon="2.61572">
        <ele>705.2</ele>
        <time>2019-12-24T16:47:32Z</time>
      </trkpt>
      <trkpt lat="42.5341" lon="2.61751">
        <ele>680.7</ele>
        <time>2019-12-24T16:47:35Z</time>
      </trkpt>
      <trkpt lat="42.53417" lon="2.61779">
        <ele>696.1</ele>
        <time>2019-12-24T16:47:37Z</time>
      </trkpt>
      <trkpt lat="42.53436" lon="2.61833">
        <ele>695.2</ele>
        <time>2019-12-24T16:47:38Z</time>
      </trkpt>
      <trkpt lat="42.53438" lon="2.61861">
        <ele>697.3</ele>
        <time>2019-12-24T16:47:40Z</time>
      </trkpt>
      <trkpt lat="42.53431" lon="2.61927">
        <ele>693.1</ele>
        <time>2019-12-24T16:47:44Z</time>
      </trkpt>
      <trkpt lat="42.5343" lon="2.61975">
        <ele>694.5</ele>
        <time>2019-12-24T16:47:51Z</time>
      </trkpt>
      <trkpt lat="42.53438" lon="2.61994">
        <ele>694.1</ele>
        <time>2019-12-24T16:47:54Z</time>
      </trkpt>
      <trkpt lat="42.53487" lon="2.62048">
        <ele>690.8</ele>
        <time>2019-12-24T16:47:56Z</time>
      </trkpt>
      <trkpt lat="42.53509" lon="2.62053">
        <ele>698.3</ele>
        <time>2019-12-24T16:47:58Z</time>
      </trkpt>
      <trkpt lat="42.53633" lon="2.62057">
        <ele>713.9</ele>
        <time>2019-12-24T16:48:05Z</time>
      </trkpt>
      <trkpt lat="42.53722" lon="2.62136">
        <ele>717.2</ele>
        <time>2019-12-24T16:48:14Z</time>
      </trkpt>
      <trkpt lat="42.53732" lon="2.62163">
        <ele>718</ele>
        <time>2019-12-24T16:48:17Z</time>
      </trkpt>
      <trkpt lat="42.5374" lon="2.62201">
        <ele>710.3</ele>
        <time>2019-12-24T16:48:27Z</time>
      </trkpt>
      <trkpt lat="42.53746" lon="2.62227">
        <ele>710</ele>
        <time>2019-12-24T16:48:31Z</time>
      </trkpt>
      <trkpt lat="42.53763" lon="2.62227">
        <ele>715.3</ele>
        <time>2019-12-24T16:48:33Z</time>
      </trkpt>
      <trkpt lat="42.53784" lon="2.62204">
        <ele>716.1</ele>
        <time>2019-12-24T16:48:35Z</time>
      </trkpt>
      <trkpt lat="42.53796" lon="2.62187">
        <ele>716.6</ele>
        <time>2019-12-24T16:48:41Z</time>
      </trkpt>
      <trkpt lat="42.53829" lon="2.62105">
        <ele>723.1</ele>
        <time>2019-12-24T16:48:46Z</time>
      </trkpt>
      <trkpt lat="42.53865" lon="2.62028">
        <ele>722.6</ele>
        <time>2019-12-24T16:49:02Z</time>
      </trkpt>
      <trkpt lat="42.53895" lon="2.61978">
        <ele>726.5</ele>
        <time>2019-12-24T16:49:12Z</time>
      </trkpt>
      <trkpt lat="42.53931" lon="2.61947">
        <ele>722.2</ele>
        <time>2019-12-24T16:49:17Z</time>
      </trkpt>
      <trkpt lat="42.53942" lon="2.61924">
        <ele>723.1</ele>
        <time>2019-12-24T16:49:21Z</time>
      </trkpt>
      <trkpt lat="42.53946" lon="2.61907">
        <ele>727.3</ele>
        <time>2019-12-24T16:49:24Z</time>
      </trkpt>
      <trkpt lat="42.53942" lon="2.61889">
        <ele>727.8</ele>
        <time>2019-12-24T16:49:26Z</time>
      </trkpt>
      <trkpt lat="42.53932" lon="2.6187">
        <ele>728.9</ele>
        <time>2019-12-24T16:49:28Z</time>
      </trkpt>
      <trkpt lat="42.53927" lon="2.61849">
        <ele>730.6</ele>
        <time>2019-12-24T16:49:30Z</time>
      </trkpt>
      <trkpt lat="42.53931" lon="2.61834">
        <ele>731.3</ele>
        <time>2019-12-24T16:49:41Z</time>
      </trkpt>
      <trkpt lat="42.53947" lon="2.61825">
        <ele>736.2</ele>
        <time>2019-12-24T16:49:48Z</time>
      </trkpt>
      <trkpt lat="42.53981" lon="2.61821">
        <ele>733.8</ele>
        <time>2019-12-24T16:49:55Z</time>
      </trkpt>
      <trkpt lat="42.53996" lon="2.61811">
        <ele>734</ele>
        <time>2019-12-24T16:50:05Z</time>
      </trkpt>
      <trkpt lat="42.54013" lon="2.61774">
        <ele>736.5</ele>
        <time>2019-12-24T16:50:18Z</time>
      </trkpt>
      <trkpt lat="42.54064" lon="2.61755">
        <ele>736.5</ele>
        <time>2019-12-24T16:50:30Z</time>
      </trkpt>
      <trkpt lat="42.54114" lon="2.61729">
        <ele>747.4</ele>
        <time>2019-12-24T16:50:33Z</time>
      </trkpt>
      <trkpt lat="42.54159" lon="2.61762">
        <ele>738.5</ele>
        <time>2019-12-24T16:50:36Z</time>
      </trkpt>
      <trkpt lat="42.54215" lon="2.61775">
        <ele>735.9</ele>
        <time>2019-12-24T16:50:39Z</time>
      </trkpt>
      <trkpt lat="42.54305" lon="2.61709">
        <ele>751.1</ele>
        <time>2019-12-24T16:50:41Z</time>
      </trkpt>
      <trkpt lat="42.54319" lon="2.61648">
        <ele>766.1</ele>
        <time>2019-12-24T16:50:44Z</time>
      </trkpt>
      <trkpt lat="42.54354" lon="2.61646">
        <ele>767</ele>
        <time>2019-12-24T16:50:46Z</time>
      </trkpt>
      <trkpt lat="42.54387" lon="2.61689">
        <ele>753.9</ele>
        <time>2019-12-24T16:50:48Z</time>
      </trkpt>
      <trkpt lat="42.54433" lon="2.61675">
        <ele>759.4</ele>
        <time>2019-12-24T16:50:50Z</time>
      </trkpt>
      <trkpt lat="42.54534" lon="2.61724">
        <ele>758.6</ele>
        <time>2019-12-24T16:50:53Z</time>
      </trkpt>
      <trkpt lat="42.54573" lon="2.61705">
        <ele>760.6</ele>
        <time>2019-12-24T16:50:59Z</time>
      </trkpt>
      <trkpt lat="42.54643" lon="2.61609">
        <ele>774.8</ele>
        <time>2019-12-24T16:51:02Z</time>
      </trkpt>
      <trkpt lat="42.54681" lon="2.61634">
        <ele>771.8</ele>
        <time>2019-12-24T16:51:03Z</time>
      </trkpt>
      <trkpt lat="42.54714" lon="2.61662">
        <ele>771</ele>
        <time>2019-12-24T16:51:05Z</time>
      </trkpt>
      <trkpt lat="42.54797" lon="2.61676">
        <ele>761.7</ele>
        <time>2019-12-24T16:51:06Z</time>
      </trkpt>
      <trkpt lat="42.54857" lon="2.6166">
        <ele>767.6</ele>
        <time>2019-12-24T16:51:07Z</time>
      </trkpt>
      <trkpt lat="42.54891" lon="2.61644">
        <ele>767</ele>
        <time>2019-12-24T16:51:09Z</time>
      </trkpt>
      <trkpt lat="42.549" lon="2.61639">
        <ele>767</ele>
        <time>2019-12-24T16:51:12Z</time>
      </trkpt>
      <trkpt lat="42.54973" lon="2.61593">
        <ele>762.6</ele>
        <time>2019-12-24T16:51:17Z</time>
      </trkpt>
      <trkpt lat="42.55137" lon="2.61535">
        <ele>759.4</ele>
        <time>2019-12-24T16:51:21Z</time>
      </trkpt>
      <trkpt lat="42.5523" lon="2.61542">
        <ele>754.4</ele>
        <time>2019-12-24T16:51:24Z</time>
      </trkpt>
      <trkpt lat="42.55263" lon="2.61539">
        <ele>754.7</ele>
        <time>2019-12-24T16:51:26Z</time>
      </trkpt>
      <trkpt lat="42.55303" lon="2.61534">
        <ele>755.3</ele>
        <time>2019-12-24T16:51:28Z</time>
      </trkpt>
      <trkpt lat="42.55321" lon="2.61549">
        <ele>754.8</ele>
        <time>2019-12-24T16:51:33Z</time>
      </trkpt>
      <trkpt lat="42.55326" lon="2.61567">
        <ele>754.2</ele>
        <time>2019-12-24T16:51:36Z</time>
      </trkpt>
      <trkpt lat="42.55329" lon="2.61584">
        <ele>752.6</ele>
        <time>2019-12-24T16:51:38Z</time>
      </trkpt>
      <trkpt lat="42.55328" lon="2.61607">
        <ele>749</ele>
        <time>2019-12-24T16:51:40Z</time>
      </trkpt>
      <trkpt lat="42.55324" lon="2.61622">
        <ele>747.6</ele>
        <time>2019-12-24T16:51:41Z</time>
      </trkpt>
      <trkpt lat="42.55322" lon="2.61636">
        <ele>747.1</ele>
        <time>2019-12-24T16:51:44Z</time>
      </trkpt>
      <trkpt lat="42.55323" lon="2.61649">
        <ele>747.4</ele>
        <time>2019-12-24T16:51:48Z</time>
      </trkpt>
      <trkpt lat="42.5533" lon="2.61664">
        <ele>749.2</ele>
        <time>2019-12-24T16:51:50Z</time>
      </trkpt>
      <trkpt lat="42.55357" lon="2.61703">
        <ele>752</ele>
        <time>2019-12-24T16:51:52Z</time>
      </trkpt>
      <trkpt lat="42.55379" lon="2.61744">
        <ele>752.9</ele>
        <time>2019-12-24T16:51:56Z</time>
      </trkpt>
      <trkpt lat="42.55401" lon="2.618">
        <ele>742.6</ele>
        <time>2019-12-24T16:52:05Z</time>
      </trkpt>
      <trkpt lat="42.55434" lon="2.61834">
        <ele>746.5</ele>
        <time>2019-12-24T16:52:09Z</time>
      </trkpt>
      <trkpt lat="42.55446" lon="2.61859">
        <ele>747.5</ele>
        <time>2019-12-24T16:52:22Z</time>
      </trkpt>
      <trkpt lat="42.55447" lon="2.61877">
        <ele>746.1</ele>
        <time>2019-12-24T16:52:25Z</time>
      </trkpt>
      <trkpt lat="42.55442" lon="2.61912">
        <ele>740.9</ele>
        <time>2019-12-24T16:52:28Z</time>
      </trkpt>
      <trkpt lat="42.55453" lon="2.61963">
        <ele>735.9</ele>
        <time>2019-12-24T16:52:38Z</time>
      </trkpt>
      <trkpt lat="42.55477" lon="2.62014">
        <ele>733.7</ele>
        <time>2019-12-24T16:52:47Z</time>
      </trkpt>
      <trkpt lat="42.5554" lon="2.62092">
        <ele>729</ele>
        <time>2019-12-24T16:52:50Z</time>
      </trkpt>
      <trkpt lat="42.55547" lon="2.62096">
        <ele>728.9</ele>
        <time>2019-12-24T16:52:51Z</time>
      </trkpt>
      <trkpt lat="42.55553" lon="2.62097">
        <ele>729.2</ele>
        <time>2019-12-24T16:52:52Z</time>
      </trkpt>
      <trkpt lat="42.55561" lon="2.62095">
        <ele>730</ele>
        <time>2019-12-24T16:52:57Z</time>
      </trkpt>
      <trkpt lat="42.55567" lon="2.62092">
        <ele>731</ele>
        <time>2019-12-24T16:52:59Z</time>
      </trkpt>
      <trkpt lat="42.55582" lon="2.62081">
        <ele>736.5</ele>
        <time>2019-12-24T16:53:01Z</time>
      </trkpt>
      <trkpt lat="42.55625" lon="2.6204">
        <ele>733.4</ele>
        <time>2019-12-24T16:53:06Z</time>
      </trkpt>
      <trkpt lat="42.55674" lon="2.61999">
        <ele>737.8</ele>
        <time>2019-12-24T16:53:11Z</time>
      </trkpt>
      <trkpt lat="42.55818" lon="2.61991">
        <ele>727.8</ele>
        <time>2019-12-24T16:53:14Z</time>
      </trkpt>
      <trkpt lat="42.55917" lon="2.61985">
        <ele>720.4</ele>
        <time>2019-12-24T16:53:18Z</time>
      </trkpt>
      <trkpt lat="42.55953" lon="2.61989">
        <ele>724</ele>
        <time>2019-12-24T16:53:22Z</time>
      </trkpt>
      <trkpt lat="42.55962" lon="2.61994">
        <ele>724.5</ele>
        <time>2019-12-24T16:53:24Z</time>
      </trkpt>
      <trkpt lat="42.55968" lon="2.62">
        <ele>715.9</ele>
        <time>2019-12-24T16:53:26Z</time>
      </trkpt>
      <trkpt lat="42.55971" lon="2.62006">
        <ele>716</ele>
        <time>2019-12-24T16:53:29Z</time>
      </trkpt>
      <trkpt lat="42.55975" lon="2.62017">
        <ele>715.6</ele>
        <time>2019-12-24T16:53:33Z</time>
      </trkpt>
      <trkpt lat="42.55979" lon="2.62034">
        <ele>713.8</ele>
        <time>2019-12-24T16:53:38Z</time>
      </trkpt>
      <trkpt lat="42.55988" lon="2.62066">
        <ele>711</ele>
        <time>2019-12-24T16:53:47Z</time>
      </trkpt>
      <trkpt lat="42.56001" lon="2.62083">
        <ele>710.6</ele>
        <time>2019-12-24T16:53:51Z</time>
      </trkpt>
      <trkpt lat="42.56026" lon="2.62109">
        <ele>711.8</ele>
        <time>2019-12-24T16:53:53Z</time>
      </trkpt>
      <trkpt lat="42.56038" lon="2.62122">
        <ele>712.3</ele>
        <time>2019-12-24T16:53:58Z</time>
      </trkpt>
      <trkpt lat="42.56043" lon="2.62129">
        <ele>712.4</ele>
        <time>2019-12-24T16:54:05Z</time>
      </trkpt>
      <trkpt lat="42.56047" lon="2.62138">
        <ele>712.5</ele>
        <time>2019-12-24T16:54:08Z</time>
      </trkpt>
      <trkpt lat="42.56051" lon="2.62148">
        <ele>712.7</ele>
        <time>2019-12-24T16:54:13Z</time>
      </trkpt>
      <trkpt lat="42.56054" lon="2.62165">
        <ele>713.1</ele>
        <time>2019-12-24T16:54:19Z</time>
      </trkpt>
      <trkpt lat="42.56057" lon="2.62188">
        <ele>708.4</ele>
        <time>2019-12-24T16:54:25Z</time>
      </trkpt>
      <trkpt lat="42.56058" lon="2.62201">
        <ele>707.7</ele>
        <time>2019-12-24T16:54:30Z</time>
      </trkpt>
      <trkpt lat="42.56057" lon="2.62214">
        <ele>707.2</ele>
        <time>2019-12-24T16:54:32Z</time>
      </trkpt>
      <trkpt lat="42.56054" lon="2.62231">
        <ele>706.8</ele>
        <time>2019-12-24T16:54:33Z</time>
      </trkpt>
      <trkpt lat="42.56047" lon="2.62261">
        <ele>702.3</ele>
        <time>2019-12-24T16:54:36Z</time>
      </trkpt>
      <trkpt lat="42.56036" lon="2.62305">
        <ele>699.3</ele>
        <time>2019-12-24T16:54:37Z</time>
      </trkpt>
      <trkpt lat="42.56027" lon="2.62336">
        <ele>696.3</ele>
        <time>2019-12-24T16:54:38Z</time>
      </trkpt>
      <trkpt lat="42.56022" lon="2.62346">
        <ele>695.7</ele>
        <time>2019-12-24T16:54:39Z</time>
      </trkpt>
      <trkpt lat="42.56013" lon="2.62356">
        <ele>695.2</ele>
        <time>2019-12-24T16:54:40Z</time>
      </trkpt>
      <trkpt lat="42.56002" lon="2.62366">
        <ele>695.5</ele>
        <time>2019-12-24T16:54:42Z</time>
      </trkpt>
      <trkpt lat="42.55991" lon="2.62379">
        <ele>682.1</ele>
        <time>2019-12-24T16:54:45Z</time>
      </trkpt>
      <trkpt lat="42.55982" lon="2.62391">
        <ele>682.2</ele>
        <time>2019-12-24T16:54:47Z</time>
      </trkpt>
      <trkpt lat="42.55971" lon="2.62422">
        <ele>683.7</ele>
        <time>2019-12-24T16:54:50Z</time>
      </trkpt>
      <trkpt lat="42.55962" lon="2.62448">
        <ele>681.7</ele>
        <time>2019-12-24T16:54:52Z</time>
      </trkpt>
      <trkpt lat="42.55959" lon="2.6246">
        <ele>681.3</ele>
        <time>2019-12-24T16:54:53Z</time>
      </trkpt>
      <trkpt lat="42.55957" lon="2.62471">
        <ele>681.2</ele>
        <time>2019-12-24T16:54:56Z</time>
      </trkpt>
      <trkpt lat="42.55957" lon="2.62481">
        <ele>681.3</ele>
        <time>2019-12-24T16:55:00Z</time>
      </trkpt>
      <trkpt lat="42.55958" lon="2.6249">
        <ele>681.5</ele>
        <time>2019-12-24T16:55:05Z</time>
      </trkpt>
      <trkpt lat="42.55961" lon="2.625">
        <ele>682.4</ele>
        <time>2019-12-24T16:55:06Z</time>
      </trkpt>
      <trkpt lat="42.55966" lon="2.6251">
        <ele>681.2</ele>
        <time>2019-12-24T16:55:08Z</time>
      </trkpt>
      <trkpt lat="42.55972" lon="2.62518">
        <ele>681.5</ele>
        <time>2019-12-24T16:55:14Z</time>
      </trkpt>
      <trkpt lat="42.55983" lon="2.62524">
        <ele>682.1</ele>
        <time>2019-12-24T16:55:20Z</time>
      </trkpt>
      <trkpt lat="42.56012" lon="2.62533">
        <ele>685.5</ele>
        <time>2019-12-24T16:55:23Z</time>
      </trkpt>
      <trkpt lat="42.56067" lon="2.62554">
        <ele>684.3</ele>
        <time>2019-12-24T16:55:34Z</time>
      </trkpt>
      <trkpt lat="42.56082" lon="2.62556">
        <ele>683.9</ele>
        <time>2019-12-24T16:55:39Z</time>
      </trkpt>
      <trkpt lat="42.56113" lon="2.62549">
        <ele>684.9</ele>
        <time>2019-12-24T16:55:48Z</time>
      </trkpt>
      <trkpt lat="42.56172" lon="2.62535">
        <ele>684.7</ele>
        <time>2019-12-24T16:55:57Z</time>
      </trkpt>
      <trkpt lat="42.56185" lon="2.62536">
        <ele>684.3</ele>
        <time>2019-12-24T16:56:00Z</time>
      </trkpt>
      <trkpt lat="42.562" lon="2.62544">
        <ele>683</ele>
        <time>2019-12-24T16:56:06Z</time>
      </trkpt>
      <trkpt lat="42.56219" lon="2.62562">
        <ele>680.8</ele>
        <time>2019-12-24T16:56:09Z</time>
      </trkpt>
      <trkpt lat="42.5623" lon="2.62575">
        <ele>678.6</ele>
        <time>2019-12-24T16:56:11Z</time>
      </trkpt>
      <trkpt lat="42.56238" lon="2.62579">
        <ele>676.9</ele>
        <time>2019-12-24T16:56:13Z</time>
      </trkpt>
      <trkpt lat="42.56244" lon="2.62579">
        <ele>675.6</ele>
        <time>2019-12-24T16:56:15Z</time>
      </trkpt>
      <trkpt lat="42.56253" lon="2.62575">
        <ele>674.6</ele>
        <time>2019-12-24T16:56:18Z</time>
      </trkpt>
      <trkpt lat="42.5629" lon="2.62547">
        <ele>677.7</ele>
        <time>2019-12-24T16:56:20Z</time>
      </trkpt>
      <trkpt lat="42.5633" lon="2.62515">
        <ele>681.1</ele>
        <time>2019-12-24T16:56:21Z</time>
      </trkpt>
      <trkpt lat="42.5634" lon="2.6251">
        <ele>679.7</ele>
        <time>2019-12-24T16:56:22Z</time>
      </trkpt>
      <trkpt lat="42.56348" lon="2.6251">
        <ele>678.4</ele>
        <time>2019-12-24T16:56:23Z</time>
      </trkpt>
      <trkpt lat="42.56363" lon="2.6252">
        <ele>675.7</ele>
        <time>2019-12-24T16:56:24Z</time>
      </trkpt>
      <trkpt lat="42.56384" lon="2.62534">
        <ele>673.8</ele>
        <time>2019-12-24T16:56:26Z</time>
      </trkpt>
      <trkpt lat="42.56431" lon="2.62554">
        <ele>669.4</ele>
        <time>2019-12-24T16:56:28Z</time>
      </trkpt>
      <trkpt lat="42.56446" lon="2.62569">
        <ele>668.9</ele>
        <time>2019-12-24T16:56:30Z</time>
      </trkpt>
      <trkpt lat="42.56452" lon="2.62581">
        <ele>668.7</ele>
        <time>2019-12-24T16:56:34Z</time>
      </trkpt>
      <trkpt lat="42.56453" lon="2.62591">
        <ele>667.7</ele>
        <time>2019-12-24T16:56:42Z</time>
      </trkpt>
      <trkpt lat="42.56452" lon="2.626">
        <ele>667.6</ele>
        <time>2019-12-24T16:56:51Z</time>
      </trkpt>
      <trkpt lat="42.56445" lon="2.62628">
        <ele>667.1</ele>
        <time>2019-12-24T16:56:57Z</time>
      </trkpt>
      <trkpt lat="42.56443" lon="2.62643">
        <ele>666.6</ele>
        <time>2019-12-24T16:56:58Z</time>
      </trkpt>
      <trkpt lat="42.56444" lon="2.62653">
        <ele>666.3</ele>
        <time>2019-12-24T16:57:00Z</time>
      </trkpt>
      <trkpt lat="42.56449" lon="2.62679">
        <ele>667.2</ele>
        <time>2019-12-24T16:57:02Z</time>
      </trkpt>
      <trkpt lat="42.56454" lon="2.62715">
        <ele>668.3</ele>
        <time>2019-12-24T16:57:06Z</time>
      </trkpt>
      <trkpt lat="42.56454" lon="2.62724">
        <ele>668.3</ele>
        <time>2019-12-24T16:57:08Z</time>
      </trkpt>
      <trkpt lat="42.56454" lon="2.62732">
        <ele>668.4</ele>
        <time>2019-12-24T16:57:09Z</time>
      </trkpt>
      <trkpt lat="42.56452" lon="2.6274">
        <ele>668.2</ele>
        <time>2019-12-24T16:57:12Z</time>
      </trkpt>
      <trkpt lat="42.56449" lon="2.62749">
        <ele>667.9</ele>
        <time>2019-12-24T16:57:16Z</time>
      </trkpt>
      <trkpt lat="42.56438" lon="2.62767">
        <ele>668.9</ele>
        <time>2019-12-24T16:57:20Z</time>
      </trkpt>
      <trkpt lat="42.56411" lon="2.62812">
        <ele>660.4</ele>
        <time>2019-12-24T16:57:24Z</time>
      </trkpt>
      <trkpt lat="42.56406" lon="2.62831">
        <ele>663.8</ele>
        <time>2019-12-24T16:57:26Z</time>
      </trkpt>
      <trkpt lat="42.56405" lon="2.62845">
        <ele>662.5</ele>
        <time>2019-12-24T16:57:29Z</time>
      </trkpt>
      <trkpt lat="42.56406" lon="2.62854">
        <ele>661.1</ele>
        <time>2019-12-24T16:57:30Z</time>
      </trkpt>
      <trkpt lat="42.56409" lon="2.62865">
        <ele>660.1</ele>
        <time>2019-12-24T16:57:31Z</time>
      </trkpt>
      <trkpt lat="42.56419" lon="2.62895">
        <ele>669.9</ele>
        <time>2019-12-24T16:57:32Z</time>
      </trkpt>
      <trkpt lat="42.56428" lon="2.62947">
        <ele>668.9</ele>
        <time>2019-12-24T16:57:34Z</time>
      </trkpt>
      <trkpt lat="42.5643" lon="2.62972">
        <ele>669.2</ele>
        <time>2019-12-24T16:57:36Z</time>
      </trkpt>
      <trkpt lat="42.56428" lon="2.62986">
        <ele>669.6</ele>
        <time>2019-12-24T16:57:37Z</time>
      </trkpt>
      <trkpt lat="42.56423" lon="2.62996">
        <ele>670.3</ele>
        <time>2019-12-24T16:57:39Z</time>
      </trkpt>
      <trkpt lat="42.56393" lon="2.63033">
        <ele>664.5</ele>
        <time>2019-12-24T16:57:43Z</time>
      </trkpt>
      <trkpt lat="42.56361" lon="2.63084">
        <ele>667.3</ele>
        <time>2019-12-24T16:57:48Z</time>
      </trkpt>
      <trkpt lat="42.56352" lon="2.63107">
        <ele>667.4</ele>
        <time>2019-12-24T16:57:52Z</time>
      </trkpt>
      <trkpt lat="42.56351" lon="2.63181">
        <ele>673.5</ele>
        <time>2019-12-24T16:57:54Z</time>
      </trkpt>
      <trkpt lat="42.56348" lon="2.63211">
        <ele>676.3</ele>
        <time>2019-12-24T16:57:57Z</time>
      </trkpt>
      <trkpt lat="42.56343" lon="2.63226">
        <ele>676.9</ele>
        <time>2019-12-24T16:57:58Z</time>
      </trkpt>
      <trkpt lat="42.56334" lon="2.63239">
        <ele>677.1</ele>
        <time>2019-12-24T16:57:59Z</time>
      </trkpt>
      <trkpt lat="42.56309" lon="2.63265">
        <ele>672.3</ele>
        <time>2019-12-24T16:57:59Z</time>
      </trkpt>
      <trkpt lat="42.56292" lon="2.63295">
        <ele>671.3</ele>
        <time>2019-12-24T16:58:01Z</time>
      </trkpt>
      <trkpt lat="42.56247" lon="2.63398">
        <ele>669</ele>
        <time>2019-12-24T16:58:02Z</time>
      </trkpt>
      <trkpt lat="42.56196" lon="2.63443">
        <ele>669.3</ele>
        <time>2019-12-24T16:58:03Z</time>
      </trkpt>
      <trkpt lat="42.56179" lon="2.63465">
        <ele>669.6</ele>
        <time>2019-12-24T16:58:05Z</time>
      </trkpt>
      <trkpt lat="42.56167" lon="2.63492">
        <ele>670.1</ele>
        <time>2019-12-24T16:58:06Z</time>
      </trkpt>
      <trkpt lat="42.56164" lon="2.63518">
        <ele>666.8</ele>
        <time>2019-12-24T16:58:07Z</time>
      </trkpt>
      <trkpt lat="42.56167" lon="2.63531">
        <ele>669.8</ele>
        <time>2019-12-24T16:58:08Z</time>
      </trkpt>
      <trkpt lat="42.56176" lon="2.63541">
        <ele>669.5</ele>
        <time>2019-12-24T16:58:09Z</time>
      </trkpt>
      <trkpt lat="42.56184" lon="2.63546">
        <ele>669.5</ele>
        <time>2019-12-24T16:58:11Z</time>
      </trkpt>
      <trkpt lat="42.56248" lon="2.6355">
        <ele>670.5</ele>
        <time>2019-12-24T16:58:13Z</time>
      </trkpt>
      <trkpt lat="42.56287" lon="2.63552">
        <ele>669.7</ele>
        <time>2019-12-24T16:58:16Z</time>
      </trkpt>
      <trkpt lat="42.56326" lon="2.63537">
        <ele>669.9</ele>
        <time>2019-12-24T16:58:18Z</time>
      </trkpt>
      <trkpt lat="42.56379" lon="2.63521">
        <ele>667.4</ele>
        <time>2019-12-24T16:58:20Z</time>
      </trkpt>
      <trkpt lat="42.56449" lon="2.6352">
        <ele>665.3</ele>
        <time>2019-12-24T16:58:22Z</time>
      </trkpt>
      <trkpt lat="42.56519" lon="2.63514">
        <ele>665.2</ele>
        <time>2019-12-24T16:58:24Z</time>
      </trkpt>
      <trkpt lat="42.56532" lon="2.6352">
        <ele>663.9</ele>
        <time>2019-12-24T16:58:25Z</time>
      </trkpt>
      <trkpt lat="42.56544" lon="2.63537">
        <ele>662.7</ele>
        <time>2019-12-24T16:58:26Z</time>
      </trkpt>
      <trkpt lat="42.56555" lon="2.63556">
        <ele>661.9</ele>
        <time>2019-12-24T16:58:27Z</time>
      </trkpt>
      <trkpt lat="42.56566" lon="2.63568">
        <ele>661.6</ele>
        <time>2019-12-24T16:58:27Z</time>
      </trkpt>
      <trkpt lat="42.56581" lon="2.63577">
        <ele>661.2</ele>
        <time>2019-12-24T16:58:28Z</time>
      </trkpt>
      <trkpt lat="42.56592" lon="2.63584">
        <ele>659.3</ele>
        <time>2019-12-24T16:58:29Z</time>
      </trkpt>
      <trkpt lat="42.566" lon="2.63593">
        <ele>657.9</ele>
        <time>2019-12-24T16:58:31Z</time>
      </trkpt>
      <trkpt lat="42.56607" lon="2.63605">
        <ele>656.7</ele>
        <time>2019-12-24T16:58:34Z</time>
      </trkpt>
      <trkpt lat="42.56614" lon="2.63627">
        <ele>655.2</ele>
        <time>2019-12-24T16:58:52Z</time>
      </trkpt>
      <trkpt lat="42.56622" lon="2.63669">
        <ele>652.2</ele>
        <time>2019-12-24T16:58:57Z</time>
      </trkpt>
      <trkpt lat="42.56625" lon="2.6369">
        <ele>652.5</ele>
        <time>2019-12-24T16:59:07Z</time>
      </trkpt>
      <trkpt lat="42.56625" lon="2.63702">
        <ele>652.7</ele>
        <time>2019-12-24T16:59:13Z</time>
      </trkpt>
      <trkpt lat="42.56624" lon="2.6371">
        <ele>652.8</ele>
        <time>2019-12-24T16:59:18Z</time>
      </trkpt>
      <trkpt lat="42.56621" lon="2.6372">
        <ele>652.8</ele>
        <time>2019-12-24T16:59:24Z</time>
      </trkpt>
      <trkpt lat="42.56618" lon="2.6373">
        <ele>652.8</ele>
        <time>2019-12-24T16:59:32Z</time>
      </trkpt>
      <trkpt lat="42.56614" lon="2.63739">
        <ele>652.7</ele>
        <time>2019-12-24T16:59:35Z</time>
      </trkpt>
      <trkpt lat="42.56602" lon="2.6376">
        <ele>654.7</ele>
        <time>2019-12-24T16:59:39Z</time>
      </trkpt>
      <trkpt lat="42.56588" lon="2.63788">
        <ele>656.2</ele>
        <time>2019-12-24T16:59:44Z</time>
      </trkpt>
      <trkpt lat="42.56584" lon="2.63822">
        <ele>657.7</ele>
        <time>2019-12-24T16:59:48Z</time>
      </trkpt>
      <trkpt lat="42.56578" lon="2.63845">
        <ele>656.4</ele>
        <time>2019-12-24T16:59:53Z</time>
      </trkpt>
      <trkpt lat="42.56572" lon="2.63855">
        <ele>655.7</ele>
        <time>2019-12-24T16:59:54Z</time>
      </trkpt>
      <trkpt lat="42.56563" lon="2.63862">
        <ele>655.1</ele>
        <time>2019-12-24T16:59:56Z</time>
      </trkpt>
      <trkpt lat="42.56537" lon="2.63877">
        <ele>653.4</ele>
        <time>2019-12-24T16:59:57Z</time>
      </trkpt>
      <trkpt lat="42.56523" lon="2.63891">
        <ele>652.7</ele>
        <time>2019-12-24T16:59:58Z</time>
      </trkpt>
      <trkpt lat="42.56516" lon="2.63905">
        <ele>652.2</ele>
        <time>2019-12-24T16:59:59Z</time>
      </trkpt>
      <trkpt lat="42.56515" lon="2.63916">
        <ele>651.9</ele>
        <time>2019-12-24T17:00:00Z</time>
      </trkpt>
      <trkpt lat="42.56517" lon="2.63926">
        <ele>654.1</ele>
        <time>2019-12-24T17:00:01Z</time>
      </trkpt>
      <trkpt lat="42.56526" lon="2.63939">
        <ele>655.8</ele>
        <time>2019-12-24T17:00:03Z</time>
      </trkpt>
      <trkpt lat="42.56545" lon="2.63961">
        <ele>657.8</ele>
        <time>2019-12-24T17:00:05Z</time>
      </trkpt>
      <trkpt lat="42.5655" lon="2.63974">
        <ele>658.4</ele>
        <time>2019-12-24T17:00:07Z</time>
      </trkpt>
      <trkpt lat="42.56548" lon="2.63992">
        <ele>658.4</ele>
        <time>2019-12-24T17:00:08Z</time>
      </trkpt>
      <trkpt lat="42.56541" lon="2.64015">
        <ele>658.5</ele>
        <time>2019-12-24T17:00:10Z</time>
      </trkpt>
      <trkpt lat="42.56519" lon="2.64076">
        <ele>655.8</ele>
        <time>2019-12-24T17:00:13Z</time>
      </trkpt>
      <trkpt lat="42.56517" lon="2.64109">
        <ele>658.3</ele>
        <time>2019-12-24T17:00:15Z</time>
      </trkpt>
      <trkpt lat="42.56531" lon="2.64207">
        <ele>661.2</ele>
        <time>2019-12-24T17:00:16Z</time>
      </trkpt>
      <trkpt lat="42.56532" lon="2.6423">
        <ele>661.1</ele>
        <time>2019-12-24T17:00:17Z</time>
      </trkpt>
      <trkpt lat="42.56525" lon="2.64252">
        <ele>660.3</ele>
        <time>2019-12-24T17:00:19Z</time>
      </trkpt>
      <trkpt lat="42.56488" lon="2.6431">
        <ele>660.2</ele>
        <time>2019-12-24T17:00:22Z</time>
      </trkpt>
      <trkpt lat="42.56444" lon="2.64338">
        <ele>659.5</ele>
        <time>2019-12-24T17:00:24Z</time>
      </trkpt>
      <trkpt lat="42.5643" lon="2.64347">
        <ele>659.4</ele>
        <time>2019-12-24T17:00:25Z</time>
      </trkpt>
      <trkpt lat="42.56425" lon="2.64353">
        <ele>659.3</ele>
        <time>2019-12-24T17:00:27Z</time>
      </trkpt>
      <trkpt lat="42.56421" lon="2.64362">
        <ele>659</ele>
        <time>2019-12-24T17:00:29Z</time>
      </trkpt>
      <trkpt lat="42.56415" lon="2.64395">
        <ele>654.4</ele>
        <time>2019-12-24T17:00:31Z</time>
      </trkpt>
      <trkpt lat="42.56417" lon="2.64412">
        <ele>655.7</ele>
        <time>2019-12-24T17:00:34Z</time>
      </trkpt>
      <trkpt lat="42.56424" lon="2.64424">
        <ele>654.1</ele>
        <time>2019-12-24T17:00:41Z</time>
      </trkpt>
      <trkpt lat="42.56449" lon="2.64446">
        <ele>652.9</ele>
        <time>2019-12-24T17:00:43Z</time>
      </trkpt>
      <trkpt lat="42.5647" lon="2.6447">
        <ele>652.3</ele>
        <time>2019-12-24T17:00:51Z</time>
      </trkpt>
      <trkpt lat="42.56476" lon="2.6449">
        <ele>651.9</ele>
        <time>2019-12-24T17:01:01Z</time>
      </trkpt>
      <trkpt lat="42.56474" lon="2.64518">
        <ele>648</ele>
        <time>2019-12-24T17:01:07Z</time>
      </trkpt>
      <trkpt lat="42.56466" lon="2.64548">
        <ele>646.9</ele>
        <time>2019-12-24T17:01:09Z</time>
      </trkpt>
      <trkpt lat="42.56465" lon="2.64564">
        <ele>646.7</ele>
        <time>2019-12-24T17:01:14Z</time>
      </trkpt>
      <trkpt lat="42.56469" lon="2.64578">
        <ele>646.8</ele>
        <time>2019-12-24T17:01:22Z</time>
      </trkpt>
      <trkpt lat="42.56481" lon="2.64597">
        <ele>647.6</ele>
        <time>2019-12-24T17:01:26Z</time>
      </trkpt>
      <trkpt lat="42.56496" lon="2.64602">
        <ele>647.8</ele>
        <time>2019-12-24T17:01:37Z</time>
      </trkpt>
      <trkpt lat="42.5651" lon="2.64576">
        <ele>645.9</ele>
        <time>2019-12-24T17:01:39Z</time>
      </trkpt>
      <trkpt lat="42.56538" lon="2.64519">
        <ele>644.1</ele>
        <time>2019-12-24T17:01:40Z</time>
      </trkpt>
      <trkpt lat="42.56552" lon="2.64494">
        <ele>648.7</ele>
        <time>2019-12-24T17:01:41Z</time>
      </trkpt>
      <trkpt lat="42.56561" lon="2.64487">
        <ele>647.9</ele>
        <time>2019-12-24T17:01:43Z</time>
      </trkpt>
      <trkpt lat="42.56588" lon="2.64478">
        <ele>640.8</ele>
        <time>2019-12-24T17:01:44Z</time>
      </trkpt>
      <trkpt lat="42.56631" lon="2.64468">
        <ele>638.3</ele>
        <time>2019-12-24T17:02:02Z</time>
      </trkpt>
      <trkpt lat="42.56647" lon="2.64461">
        <ele>637.5</ele>
        <time>2019-12-24T17:02:05Z</time>
      </trkpt>
      <trkpt lat="42.56669" lon="2.64443">
        <ele>627.2</ele>
        <time>2019-12-24T17:02:07Z</time>
      </trkpt>
      <trkpt lat="42.56694" lon="2.64411">
        <ele>633.5</ele>
        <time>2019-12-24T17:02:08Z</time>
      </trkpt>
      <trkpt lat="42.56714" lon="2.64377">
        <ele>630.9</ele>
        <time>2019-12-24T17:02:09Z</time>
      </trkpt>
      <trkpt lat="42.56727" lon="2.6434">
        <ele>629.8</ele>
        <time>2019-12-24T17:02:10Z</time>
      </trkpt>
      <trkpt lat="42.56729" lon="2.64329">
        <ele>633.6</ele>
        <time>2019-12-24T17:02:16Z</time>
      </trkpt>
      <trkpt lat="42.56728" lon="2.64316">
        <ele>635.1</ele>
        <time>2019-12-24T17:02:22Z</time>
      </trkpt>
      <trkpt lat="42.56725" lon="2.64299">
        <ele>637.2</ele>
        <time>2019-12-24T17:02:28Z</time>
      </trkpt>
      <trkpt lat="42.56725" lon="2.6429">
        <ele>637.8</ele>
        <time>2019-12-24T17:02:30Z</time>
      </trkpt>
      <trkpt lat="42.56725" lon="2.64282">
        <ele>638.1</ele>
        <time>2019-12-24T17:02:32Z</time>
      </trkpt>
      <trkpt lat="42.56729" lon="2.64272">
        <ele>637.8</ele>
        <time>2019-12-24T17:02:35Z</time>
      </trkpt>
      <trkpt lat="42.56732" lon="2.64268">
        <ele>637.4</ele>
        <time>2019-12-24T17:02:37Z</time>
      </trkpt>
      <trkpt lat="42.56741" lon="2.64264">
        <ele>636.1</ele>
        <time>2019-12-24T17:02:41Z</time>
      </trkpt>
      <trkpt lat="42.5676" lon="2.64259">
        <ele>626.6</ele>
        <time>2019-12-24T17:02:43Z</time>
      </trkpt>
      <trkpt lat="42.56767" lon="2.64256">
        <ele>625</ele>
        <time>2019-12-24T17:02:45Z</time>
      </trkpt>
      <trkpt lat="42.56784" lon="2.64249">
        <ele>626.5</ele>
        <time>2019-12-24T17:02:50Z</time>
      </trkpt>
      <trkpt lat="42.56794" lon="2.64241">
        <ele>624.9</ele>
        <time>2019-12-24T17:02:51Z</time>
      </trkpt>
      <trkpt lat="42.568" lon="2.64236">
        <ele>624</ele>
        <time>2019-12-24T17:02:53Z</time>
      </trkpt>
      <trkpt lat="42.5681" lon="2.64219">
        <ele>623.7</ele>
        <time>2019-12-24T17:03:00Z</time>
      </trkpt>
      <trkpt lat="42.56824" lon="2.64193">
        <ele>623.7</ele>
        <time>2019-12-24T17:03:01Z</time>
      </trkpt>
      <trkpt lat="42.56838" lon="2.64164">
        <ele>617.7</ele>
        <time>2019-12-24T17:03:02Z</time>
      </trkpt>
      <trkpt lat="42.56842" lon="2.64154">
        <ele>614.6</ele>
        <time>2019-12-24T17:03:04Z</time>
      </trkpt>
      <trkpt lat="42.56845" lon="2.6414">
        <ele>612.4</ele>
        <time>2019-12-24T17:03:06Z</time>
      </trkpt>
      <trkpt lat="42.5685" lon="2.64097">
        <ele>612.8</ele>
        <time>2019-12-24T17:03:08Z</time>
      </trkpt>
      <trkpt lat="42.56852" lon="2.6405">
        <ele>610.7</ele>
        <time>2019-12-24T17:03:12Z</time>
      </trkpt>
      <trkpt lat="42.5685" lon="2.64029">
        <ele>610.6</ele>
        <time>2019-12-24T17:03:13Z</time>
      </trkpt>
      <trkpt lat="42.56834" lon="2.63945">
        <ele>609</ele>
        <time>2019-12-24T17:03:14Z</time>
      </trkpt>
      <trkpt lat="42.56829" lon="2.63908">
        <ele>618</ele>
        <time>2019-12-24T17:03:14Z</time>
      </trkpt>
      <trkpt lat="42.56846" lon="2.63844">
        <ele>608.6</ele>
        <time>2019-12-24T17:03:15Z</time>
      </trkpt>
      <trkpt lat="42.56864" lon="2.63783">
        <ele>604.9</ele>
        <time>2019-12-24T17:03:16Z</time>
      </trkpt>
      <trkpt lat="42.56874" lon="2.63759">
        <ele>603.8</ele>
        <time>2019-12-24T17:03:21Z</time>
      </trkpt>
      <trkpt lat="42.56895" lon="2.63725">
        <ele>600.6</ele>
        <time>2019-12-24T17:03:24Z</time>
      </trkpt>
      <trkpt lat="42.569" lon="2.63701">
        <ele>599.8</ele>
        <time>2019-12-24T17:03:28Z</time>
      </trkpt>
      <trkpt lat="42.56897" lon="2.63689">
        <ele>599.3</ele>
        <time>2019-12-24T17:03:35Z</time>
      </trkpt>
      <trkpt lat="42.56891" lon="2.63682">
        <ele>599.7</ele>
        <time>2019-12-24T17:03:52Z</time>
      </trkpt>
      <trkpt lat="42.5688" lon="2.6368">
        <ele>601.5</ele>
        <time>2019-12-24T17:03:55Z</time>
      </trkpt>
      <trkpt lat="42.56863" lon="2.63686">
        <ele>604.2</ele>
        <time>2019-12-24T17:04:05Z</time>
      </trkpt>
      <trkpt lat="42.56852" lon="2.63687">
        <ele>605.8</ele>
        <time>2019-12-24T17:04:10Z</time>
      </trkpt>
      <trkpt lat="42.56846" lon="2.63684">
        <ele>606.7</ele>
        <time>2019-12-24T17:04:17Z</time>
      </trkpt>
      <trkpt lat="42.56842" lon="2.63678">
        <ele>608</ele>
        <time>2019-12-24T17:04:20Z</time>
      </trkpt>
      <trkpt lat="42.56839" lon="2.63668">
        <ele>610</ele>
        <time>2019-12-24T17:04:24Z</time>
      </trkpt>
      <trkpt lat="42.56839" lon="2.63661">
        <ele>608.3</ele>
        <time>2019-12-24T17:04:26Z</time>
      </trkpt>
      <trkpt lat="42.56843" lon="2.63649">
        <ele>604.9</ele>
        <time>2019-12-24T17:04:29Z</time>
      </trkpt>
      <trkpt lat="42.5685" lon="2.63636">
        <ele>602.4</ele>
        <time>2019-12-24T17:04:33Z</time>
      </trkpt>
      <trkpt lat="42.56855" lon="2.63623">
        <ele>601.2</ele>
        <time>2019-12-24T17:04:39Z</time>
      </trkpt>
      <trkpt lat="42.56859" lon="2.63597">
        <ele>601.1</ele>
        <time>2019-12-24T17:04:43Z</time>
      </trkpt>
      <trkpt lat="42.56883" lon="2.6354">
        <ele>598</ele>
        <time>2019-12-24T17:04:44Z</time>
      </trkpt>
      <trkpt lat="42.56905" lon="2.63483">
        <ele>599</ele>
        <time>2019-12-24T17:04:47Z</time>
      </trkpt>
      <trkpt lat="42.56935" lon="2.63454">
        <ele>576.5</ele>
        <time>2019-12-24T17:04:52Z</time>
      </trkpt>
      <trkpt lat="42.56939" lon="2.63448">
        <ele>576.3</ele>
        <time>2019-12-24T17:05:01Z</time>
      </trkpt>
      <trkpt lat="42.56941" lon="2.63438">
        <ele>577.4</ele>
        <time>2019-12-24T17:05:04Z</time>
      </trkpt>
      <trkpt lat="42.56942" lon="2.6342">
        <ele>579.5</ele>
        <time>2019-12-24T17:05:10Z</time>
      </trkpt>
      <trkpt lat="42.56946" lon="2.63393">
        <ele>577.9</ele>
        <time>2019-12-24T17:05:12Z</time>
      </trkpt>
      <trkpt lat="42.56948" lon="2.63378">
        <ele>576.4</ele>
        <time>2019-12-24T17:05:13Z</time>
      </trkpt>
      <trkpt lat="42.56948" lon="2.63368">
        <ele>576.3</ele>
        <time>2019-12-24T17:05:14Z</time>
      </trkpt>
      <trkpt lat="42.56945" lon="2.63347">
        <ele>578.4</ele>
        <time>2019-12-24T17:05:15Z</time>
      </trkpt>
      <trkpt lat="42.56941" lon="2.63317">
        <ele>576.9</ele>
        <time>2019-12-24T17:05:16Z</time>
      </trkpt>
      <trkpt lat="42.56939" lon="2.63285">
        <ele>574</ele>
        <time>2019-12-24T17:05:17Z</time>
      </trkpt>
      <trkpt lat="42.56936" lon="2.63254">
        <ele>576.4</ele>
        <time>2019-12-24T17:05:18Z</time>
      </trkpt>
      <trkpt lat="42.56937" lon="2.63241">
        <ele>571</ele>
        <time>2019-12-24T17:05:19Z</time>
      </trkpt>
      <trkpt lat="42.56944" lon="2.63221">
        <ele>565.6</ele>
        <time>2019-12-24T17:05:20Z</time>
      </trkpt>
      <trkpt lat="42.56948" lon="2.63212">
        <ele>563.8</ele>
        <time>2019-12-24T17:05:24Z</time>
      </trkpt>
      <trkpt lat="42.56949" lon="2.63204">
        <ele>563</ele>
        <time>2019-12-24T17:05:26Z</time>
      </trkpt>
      <trkpt lat="42.56948" lon="2.63196">
        <ele>562.6</ele>
        <time>2019-12-24T17:05:27Z</time>
      </trkpt>
      <trkpt lat="42.56945" lon="2.63185">
        <ele>562.5</ele>
        <time>2019-12-24T17:05:28Z</time>
      </trkpt>
      <trkpt lat="42.56939" lon="2.63175">
        <ele>563.1</ele>
        <time>2019-12-24T17:05:29Z</time>
      </trkpt>
      <trkpt lat="42.5693" lon="2.63168">
        <ele>564.2</ele>
        <time>2019-12-24T17:05:30Z</time>
      </trkpt>
      <trkpt lat="42.56921" lon="2.63165">
        <ele>562.3</ele>
        <time>2019-12-24T17:05:32Z</time>
      </trkpt>
      <trkpt lat="42.56901" lon="2.63168">
        <ele>569.8</ele>
        <time>2019-12-24T17:05:33Z</time>
      </trkpt>
      <trkpt lat="42.56872" lon="2.63178">
        <ele>571.6</ele>
        <time>2019-12-24T17:05:35Z</time>
      </trkpt>
      <trkpt lat="42.56849" lon="2.63187">
        <ele>570.8</ele>
        <time>2019-12-24T17:05:37Z</time>
      </trkpt>
      <trkpt lat="42.56838" lon="2.63195">
        <ele>572</ele>
        <time>2019-12-24T17:05:41Z</time>
      </trkpt>
      <trkpt lat="42.56826" lon="2.63207">
        <ele>581.9</ele>
        <time>2019-12-24T17:05:45Z</time>
      </trkpt>
      <trkpt lat="42.56821" lon="2.63209">
        <ele>582.7</ele>
        <time>2019-12-24T17:05:50Z</time>
      </trkpt>
      <trkpt lat="42.56817" lon="2.6321">
        <ele>583.3</ele>
        <time>2019-12-24T17:05:53Z</time>
      </trkpt>
      <trkpt lat="42.56815" lon="2.63209">
        <ele>583.3</ele>
        <time>2019-12-24T17:05:58Z</time>
      </trkpt>
      <trkpt lat="42.56806" lon="2.63201">
        <ele>583.1</ele>
        <time>2019-12-24T17:06:03Z</time>
      </trkpt>
      <trkpt lat="42.56803" lon="2.63196">
        <ele>582.9</ele>
        <time>2019-12-24T17:06:11Z</time>
      </trkpt>
      <trkpt lat="42.56802" lon="2.63188">
        <ele>581.8</ele>
        <time>2019-12-24T17:06:21Z</time>
      </trkpt>
      <trkpt lat="42.56803" lon="2.63177">
        <ele>580.1</ele>
        <time>2019-12-24T17:06:26Z</time>
      </trkpt>
      <trkpt lat="42.56805" lon="2.63167">
        <ele>578.6</ele>
        <time>2019-12-24T17:06:31Z</time>
      </trkpt>
      <trkpt lat="42.56808" lon="2.63158">
        <ele>566.8</ele>
        <time>2019-12-24T17:06:34Z</time>
      </trkpt>
      <trkpt lat="42.56808" lon="2.63152">
        <ele>566.6</ele>
        <time>2019-12-24T17:06:35Z</time>
      </trkpt>
      <trkpt lat="42.56807" lon="2.63144">
        <ele>566.4</ele>
        <time>2019-12-24T17:06:40Z</time>
      </trkpt>
      <trkpt lat="42.56801" lon="2.63129">
        <ele>566.1</ele>
        <time>2019-12-24T17:06:43Z</time>
      </trkpt>
      <trkpt lat="42.56794" lon="2.63118">
        <ele>566.1</ele>
        <time>2019-12-24T17:06:45Z</time>
      </trkpt>
      <trkpt lat="42.56784" lon="2.63105">
        <ele>566.6</ele>
        <time>2019-12-24T17:06:49Z</time>
      </trkpt>
      <trkpt lat="42.56772" lon="2.63097">
        <ele>568.3</ele>
        <time>2019-12-24T17:06:52Z</time>
      </trkpt>
      <trkpt lat="42.56761" lon="2.63093">
        <ele>569.9</ele>
        <time>2019-12-24T17:06:55Z</time>
      </trkpt>
      <trkpt lat="42.56749" lon="2.63091">
        <ele>577</ele>
        <time>2019-12-24T17:07:01Z</time>
      </trkpt>
      <trkpt lat="42.56741" lon="2.63087">
        <ele>578.1</ele>
        <time>2019-12-24T17:07:12Z</time>
      </trkpt>
      <trkpt lat="42.56737" lon="2.63082">
        <ele>578.8</ele>
        <time>2019-12-24T17:07:20Z</time>
      </trkpt>
      <trkpt lat="42.56733" lon="2.63076">
        <ele>580.8</ele>
        <time>2019-12-24T17:07:21Z</time>
      </trkpt>
      <trkpt lat="42.56731" lon="2.63071">
        <ele>582.1</ele>
        <time>2019-12-24T17:07:24Z</time>
      </trkpt>
      <trkpt lat="42.56731" lon="2.63066">
        <ele>582.9</ele>
        <time>2019-12-24T17:07:26Z</time>
      </trkpt>
      <trkpt lat="42.56733" lon="2.63059">
        <ele>583.7</ele>
        <time>2019-12-24T17:07:28Z</time>
      </trkpt>
      <trkpt lat="42.56737" lon="2.63054">
        <ele>583.9</ele>
        <time>2019-12-24T17:07:30Z</time>
      </trkpt>
      <trkpt lat="42.56744" lon="2.6305">
        <ele>583.9</ele>
        <time>2019-12-24T17:07:32Z</time>
      </trkpt>
      <trkpt lat="42.56762" lon="2.63048">
        <ele>568.1</ele>
        <time>2019-12-24T17:07:34Z</time>
      </trkpt>
      <trkpt lat="42.56854" lon="2.62994">
        <ele>553.7</ele>
        <time>2019-12-24T17:07:36Z</time>
      </trkpt>
      <trkpt lat="42.56878" lon="2.62972">
        <ele>549.6</ele>
        <time>2019-12-24T17:07:37Z</time>
      </trkpt>
      <trkpt lat="42.56908" lon="2.62908">
        <ele>549.9</ele>
        <time>2019-12-24T17:07:38Z</time>
      </trkpt>
      <trkpt lat="42.56922" lon="2.62866">
        <ele>537.4</ele>
        <time>2019-12-24T17:07:41Z</time>
      </trkpt>
      <trkpt lat="42.56929" lon="2.62832">
        <ele>542.4</ele>
        <time>2019-12-24T17:07:44Z</time>
      </trkpt>
      <trkpt lat="42.56937" lon="2.62787">
        <ele>537.8</ele>
        <time>2019-12-24T17:07:46Z</time>
      </trkpt>
      <trkpt lat="42.56949" lon="2.62725">
        <ele>533.3</ele>
        <time>2019-12-24T17:07:48Z</time>
      </trkpt>
      <trkpt lat="42.5695" lon="2.62703">
        <ele>531.5</ele>
        <time>2019-12-24T17:07:51Z</time>
      </trkpt>
      <trkpt lat="42.56942" lon="2.62676">
        <ele>531.7</ele>
        <time>2019-12-24T17:07:55Z</time>
      </trkpt>
      <trkpt lat="42.56921" lon="2.62645">
        <ele>525.6</ele>
        <time>2019-12-24T17:07:59Z</time>
      </trkpt>
      <trkpt lat="42.56901" lon="2.62631">
        <ele>536.8</ele>
        <time>2019-12-24T17:08:00Z</time>
      </trkpt>
      <trkpt lat="42.56877" lon="2.62623">
        <ele>538.9</ele>
        <time>2019-12-24T17:08:01Z</time>
      </trkpt>
      <trkpt lat="42.56868" lon="2.62619">
        <ele>539.9</ele>
        <time>2019-12-24T17:08:04Z</time>
      </trkpt>
      <trkpt lat="42.56859" lon="2.62613">
        <ele>540.9</ele>
        <time>2019-12-24T17:08:05Z</time>
      </trkpt>
      <trkpt lat="42.56855" lon="2.62609">
        <ele>541.4</ele>
        <time>2019-12-24T17:08:06Z</time>
      </trkpt>
      <trkpt lat="42.56854" lon="2.626">
        <ele>541.7</ele>
        <time>2019-12-24T17:08:09Z</time>
      </trkpt>
      <trkpt lat="42.56855" lon="2.62594">
        <ele>541.8</ele>
        <time>2019-12-24T17:08:11Z</time>
      </trkpt>
      <trkpt lat="42.56858" lon="2.6259">
        <ele>541.3</ele>
        <time>2019-12-24T17:08:12Z</time>
      </trkpt>
      <trkpt lat="42.56862" lon="2.62587">
        <ele>540.4</ele>
        <time>2019-12-24T17:08:13Z</time>
      </trkpt>
      <trkpt lat="42.56876" lon="2.62584">
        <ele>537.2</ele>
        <time>2019-12-24T17:08:15Z</time>
      </trkpt>
      <trkpt lat="42.56884" lon="2.62578">
        <ele>532.2</ele>
        <time>2019-12-24T17:08:20Z</time>
      </trkpt>
      <trkpt lat="42.5689" lon="2.62568">
        <ele>531.1</ele>
        <time>2019-12-24T17:08:26Z</time>
      </trkpt>
      <trkpt lat="42.56891" lon="2.62558">
        <ele>531.4</ele>
        <time>2019-12-24T17:08:39Z</time>
      </trkpt>
      <trkpt lat="42.56889" lon="2.62541">
        <ele>532</ele>
        <time>2019-12-24T17:08:50Z</time>
      </trkpt>
      <trkpt lat="42.5688" lon="2.6252">
        <ele>533.2</ele>
        <time>2019-12-24T17:08:54Z</time>
      </trkpt>
      <trkpt lat="42.56877" lon="2.62506">
        <ele>533.7</ele>
        <time>2019-12-24T17:09:00Z</time>
      </trkpt>
      <trkpt lat="42.56879" lon="2.62497">
        <ele>535.9</ele>
        <time>2019-12-24T17:09:03Z</time>
      </trkpt>
      <trkpt lat="42.56883" lon="2.62492">
        <ele>535</ele>
        <time>2019-12-24T17:09:06Z</time>
      </trkpt>
      <trkpt lat="42.56891" lon="2.62489">
        <ele>533.1</ele>
        <time>2019-12-24T17:09:13Z</time>
      </trkpt>
      <trkpt lat="42.56909" lon="2.6249">
        <ele>527.5</ele>
        <time>2019-12-24T17:09:17Z</time>
      </trkpt>
      <trkpt lat="42.56916" lon="2.62484">
        <ele>528.6</ele>
        <time>2019-12-24T17:09:31Z</time>
      </trkpt>
      <trkpt lat="42.5692" lon="2.62477">
        <ele>522.6</ele>
        <time>2019-12-24T17:09:42Z</time>
      </trkpt>
      <trkpt lat="42.56923" lon="2.62462">
        <ele>524.4</ele>
        <time>2019-12-24T17:09:50Z</time>
      </trkpt>
      <trkpt lat="42.56927" lon="2.62449">
        <ele>526.1</ele>
        <time>2019-12-24T17:09:55Z</time>
      </trkpt>
      <trkpt lat="42.56936" lon="2.6244">
        <ele>526.9</ele>
        <time>2019-12-24T17:09:59Z</time>
      </trkpt>
      <trkpt lat="42.56954" lon="2.62433">
        <ele>526.2</ele>
        <time>2019-12-24T17:10:01Z</time>
      </trkpt>
      <trkpt lat="42.5699" lon="2.62428">
        <ele>526.9</ele>
        <time>2019-12-24T17:10:04Z</time>
      </trkpt>
      <trkpt lat="42.57002" lon="2.62434">
        <ele>524.1</ele>
        <time>2019-12-24T17:10:09Z</time>
      </trkpt>
      <trkpt lat="42.57045" lon="2.62459">
        <ele>518.4</ele>
        <time>2019-12-24T17:10:13Z</time>
      </trkpt>
      <trkpt lat="42.57095" lon="2.62482">
        <ele>507.5</ele>
        <time>2019-12-24T17:10:17Z</time>
      </trkpt>
      <trkpt lat="42.5713" lon="2.6249">
        <ele>504.6</ele>
        <time>2019-12-24T17:10:21Z</time>
      </trkpt>
      <trkpt lat="42.57143" lon="2.62486">
        <ele>502.9</ele>
        <time>2019-12-24T17:10:23Z</time>
      </trkpt>
      <trkpt lat="42.57159" lon="2.62462">
        <ele>504.6</ele>
        <time>2019-12-24T17:10:25Z</time>
      </trkpt>
      <trkpt lat="42.57185" lon="2.62406">
        <ele>499.4</ele>
        <time>2019-12-24T17:10:28Z</time>
      </trkpt>
      <trkpt lat="42.57187" lon="2.6238">
        <ele>498.4</ele>
        <time>2019-12-24T17:10:33Z</time>
      </trkpt>
      <trkpt lat="42.57175" lon="2.62293">
        <ele>509.2</ele>
        <time>2019-12-24T17:10:42Z</time>
      </trkpt>
      <trkpt lat="42.57176" lon="2.62278">
        <ele>510.5</ele>
        <time>2019-12-24T17:10:43Z</time>
      </trkpt>
      <trkpt lat="42.57178" lon="2.62271">
        <ele>511.1</ele>
        <time>2019-12-24T17:10:45Z</time>
      </trkpt>
      <trkpt lat="42.57182" lon="2.62267">
        <ele>511.4</ele>
        <time>2019-12-24T17:10:48Z</time>
      </trkpt>
      <trkpt lat="42.5719" lon="2.62266">
        <ele>511.3</ele>
        <time>2019-12-24T17:10:50Z</time>
      </trkpt>
      <trkpt lat="42.57197" lon="2.6227">
        <ele>510.9</ele>
        <time>2019-12-24T17:10:52Z</time>
      </trkpt>
      <trkpt lat="42.57274" lon="2.62363">
        <ele>481.7</ele>
        <time>2019-12-24T17:10:56Z</time>
      </trkpt>
      <trkpt lat="42.57288" lon="2.62376">
        <ele>478.8</ele>
        <time>2019-12-24T17:11:00Z</time>
      </trkpt>
      <trkpt lat="42.57294" lon="2.62378">
        <ele>478</ele>
        <time>2019-12-24T17:11:05Z</time>
      </trkpt>
      <trkpt lat="42.573" lon="2.62378">
        <ele>477.3</ele>
        <time>2019-12-24T17:11:11Z</time>
      </trkpt>
      <trkpt lat="42.57305" lon="2.62375">
        <ele>477.2</ele>
        <time>2019-12-24T17:11:13Z</time>
      </trkpt>
      <trkpt lat="42.57314" lon="2.62369">
        <ele>477.1</ele>
        <time>2019-12-24T17:11:16Z</time>
      </trkpt>
      <trkpt lat="42.57332" lon="2.62334">
        <ele>479</ele>
        <time>2019-12-24T17:11:19Z</time>
      </trkpt>
      <trkpt lat="42.57347" lon="2.6229">
        <ele>479.4</ele>
        <time>2019-12-24T17:11:27Z</time>
      </trkpt>
      <trkpt lat="42.57364" lon="2.62257">
        <ele>481.4</ele>
        <time>2019-12-24T17:11:34Z</time>
      </trkpt>
      <trkpt lat="42.57373" lon="2.62246">
        <ele>491.7</ele>
        <time>2019-12-24T17:11:42Z</time>
      </trkpt>
      <trkpt lat="42.57384" lon="2.62233">
        <ele>489.2</ele>
        <time>2019-12-24T17:11:47Z</time>
      </trkpt>
      <trkpt lat="42.57397" lon="2.62224">
        <ele>487.1</ele>
        <time>2019-12-24T17:11:54Z</time>
      </trkpt>
      <trkpt lat="42.57409" lon="2.62219">
        <ele>486.1</ele>
        <time>2019-12-24T17:12:00Z</time>
      </trkpt>
      <trkpt lat="42.57428" lon="2.62215">
        <ele>467.3</ele>
        <time>2019-12-24T17:12:03Z</time>
      </trkpt>
      <trkpt lat="42.57438" lon="2.62212">
        <ele>466.9</ele>
        <time>2019-12-24T17:12:06Z</time>
      </trkpt>
      <trkpt lat="42.57449" lon="2.62206">
        <ele>466.3</ele>
        <time>2019-12-24T17:12:09Z</time>
      </trkpt>
      <trkpt lat="42.57474" lon="2.62185">
        <ele>463.8</ele>
        <time>2019-12-24T17:12:11Z</time>
      </trkpt>
      <trkpt lat="42.57481" lon="2.62179">
        <ele>462.7</ele>
        <time>2019-12-24T17:12:12Z</time>
      </trkpt>
      <trkpt lat="42.57487" lon="2.62167">
        <ele>461.3</ele>
        <time>2019-12-24T17:12:15Z</time>
      </trkpt>
      <trkpt lat="42.57505" lon="2.62125">
        <ele>454.8</ele>
        <time>2019-12-24T17:12:17Z</time>
      </trkpt>
      <trkpt lat="42.57508" lon="2.62115">
        <ele>455.6</ele>
        <time>2019-12-24T17:12:18Z</time>
      </trkpt>
      <trkpt lat="42.57509" lon="2.62106">
        <ele>456.9</ele>
        <time>2019-12-24T17:12:19Z</time>
      </trkpt>
      <trkpt lat="42.57507" lon="2.62097">
        <ele>459.4</ele>
        <time>2019-12-24T17:12:21Z</time>
      </trkpt>
      <trkpt lat="42.57502" lon="2.62079">
        <ele>465.9</ele>
        <time>2019-12-24T17:12:24Z</time>
      </trkpt>
      <trkpt lat="42.57499" lon="2.62063">
        <ele>479.4</ele>
        <time>2019-12-24T17:12:27Z</time>
      </trkpt>
      <trkpt lat="42.57498" lon="2.62034">
        <ele>484.3</ele>
        <time>2019-12-24T17:12:31Z</time>
      </trkpt>
      <trkpt lat="42.57499" lon="2.62028">
        <ele>484.1</ele>
        <time>2019-12-24T17:12:34Z</time>
      </trkpt>
      <trkpt lat="42.575" lon="2.62023">
        <ele>468.2</ele>
        <time>2019-12-24T17:12:38Z</time>
      </trkpt>
      <trkpt lat="42.57502" lon="2.62019">
        <ele>469.1</ele>
        <time>2019-12-24T17:12:39Z</time>
      </trkpt>
      <trkpt lat="42.57505" lon="2.62016">
        <ele>469.6</ele>
        <time>2019-12-24T17:12:40Z</time>
      </trkpt>
      <trkpt lat="42.57509" lon="2.62015">
        <ele>469.3</ele>
        <time>2019-12-24T17:12:41Z</time>
      </trkpt>
      <trkpt lat="42.57539" lon="2.62014">
        <ele>463.9</ele>
        <time>2019-12-24T17:12:43Z</time>
      </trkpt>
      <trkpt lat="42.57556" lon="2.62024">
        <ele>461.2</ele>
        <time>2019-12-24T17:12:49Z</time>
      </trkpt>
      <trkpt lat="42.57574" lon="2.62029">
        <ele>459.4</ele>
        <time>2019-12-24T17:12:54Z</time>
      </trkpt>
      <trkpt lat="42.57611" lon="2.62012">
        <ele>449.5</ele>
        <time>2019-12-24T17:13:01Z</time>
      </trkpt>
      <trkpt lat="42.57701" lon="2.61968">
        <ele>446.2</ele>
        <time>2019-12-24T17:13:06Z</time>
      </trkpt>
      <trkpt lat="42.57714" lon="2.61952">
        <ele>446</ele>
        <time>2019-12-24T17:13:11Z</time>
      </trkpt>
      <trkpt lat="42.57739" lon="2.61879">
        <ele>454.3</ele>
        <time>2019-12-24T17:13:17Z</time>
      </trkpt>
      <trkpt lat="42.57753" lon="2.6185">
        <ele>441.8</ele>
        <time>2019-12-24T17:13:20Z</time>
      </trkpt>
      <trkpt lat="42.57778" lon="2.61807">
        <ele>445.1</ele>
        <time>2019-12-24T17:13:22Z</time>
      </trkpt>
      <trkpt lat="42.57788" lon="2.61787">
        <ele>445.7</ele>
        <time>2019-12-24T17:13:26Z</time>
      </trkpt>
      <trkpt lat="42.57797" lon="2.61765">
        <ele>446</ele>
        <time>2019-12-24T17:13:35Z</time>
      </trkpt>
      <trkpt lat="42.57811" lon="2.61758">
        <ele>443.2</ele>
        <time>2019-12-24T17:13:41Z</time>
      </trkpt>
      <trkpt lat="42.57825" lon="2.6175">
        <ele>440.1</ele>
        <time>2019-12-24T17:13:43Z</time>
      </trkpt>
      <trkpt lat="42.57844" lon="2.61739">
        <ele>436.8</ele>
        <time>2019-12-24T17:13:46Z</time>
      </trkpt>
      <trkpt lat="42.57878" lon="2.61726">
        <ele>432.7</ele>
        <time>2019-12-24T17:13:49Z</time>
      </trkpt>
      <trkpt lat="42.57897" lon="2.61713">
        <ele>431.1</ele>
        <time>2019-12-24T17:13:52Z</time>
      </trkpt>
      <trkpt lat="42.57904" lon="2.61706">
        <ele>431.1</ele>
        <time>2019-12-24T17:13:53Z</time>
      </trkpt>
      <trkpt lat="42.57913" lon="2.61691">
        <ele>431.2</ele>
        <time>2019-12-24T17:13:54Z</time>
      </trkpt>
      <trkpt lat="42.57927" lon="2.61653">
        <ele>423.7</ele>
        <time>2019-12-24T17:13:56Z</time>
      </trkpt>
      <trkpt lat="42.57949" lon="2.61594">
        <ele>420.4</ele>
        <time>2019-12-24T17:13:59Z</time>
      </trkpt>
      <trkpt lat="42.57959" lon="2.61576">
        <ele>417.3</ele>
        <time>2019-12-24T17:14:02Z</time>
      </trkpt>
      <trkpt lat="42.57973" lon="2.61536">
        <ele>415.5</ele>
        <time>2019-12-24T17:14:06Z</time>
      </trkpt>
      <trkpt lat="42.57978" lon="2.6152">
        <ele>414.9</ele>
        <time>2019-12-24T17:14:14Z</time>
      </trkpt>
      <trkpt lat="42.57979" lon="2.61513">
        <ele>414.6</ele>
        <time>2019-12-24T17:14:16Z</time>
      </trkpt>
      <trkpt lat="42.57978" lon="2.61507">
        <ele>414.5</ele>
        <time>2019-12-24T17:14:17Z</time>
      </trkpt>
      <trkpt lat="42.57974" lon="2.61501">
        <ele>414.7</ele>
        <time>2019-12-24T17:14:18Z</time>
      </trkpt>
      <trkpt lat="42.57969" lon="2.61498">
        <ele>415.4</ele>
        <time>2019-12-24T17:14:19Z</time>
      </trkpt>
      <trkpt lat="42.57965" lon="2.61498">
        <ele>415.6</ele>
        <time>2019-12-24T17:14:21Z</time>
      </trkpt>
      <trkpt lat="42.57958" lon="2.61501">
        <ele>415.6</ele>
        <time>2019-12-24T17:14:23Z</time>
      </trkpt>
      <trkpt lat="42.57954" lon="2.61502">
        <ele>415.8</ele>
        <time>2019-12-24T17:14:27Z</time>
      </trkpt>
      <trkpt lat="42.57947" lon="2.615">
        <ele>416</ele>
        <time>2019-12-24T17:14:33Z</time>
      </trkpt>
      <trkpt lat="42.57929" lon="2.6148">
        <ele>416.5</ele>
        <time>2019-12-24T17:14:39Z</time>
      </trkpt>
      <trkpt lat="42.57923" lon="2.6147">
        <ele>416.8</ele>
        <time>2019-12-24T17:14:41Z</time>
      </trkpt>
      <trkpt lat="42.57922" lon="2.61465">
        <ele>417</ele>
        <time>2019-12-24T17:14:43Z</time>
      </trkpt>
      <trkpt lat="42.57921" lon="2.61458">
        <ele>417.2</ele>
        <time>2019-12-24T17:14:46Z</time>
      </trkpt>
      <trkpt lat="42.5792" lon="2.61447">
        <ele>417.6</ele>
        <time>2019-12-24T17:14:49Z</time>
      </trkpt>
      <trkpt lat="42.57922" lon="2.61437">
        <ele>417.9</ele>
        <time>2019-12-24T17:14:51Z</time>
      </trkpt>
      <trkpt lat="42.57926" lon="2.61429">
        <ele>418.2</ele>
        <time>2019-12-24T17:14:56Z</time>
      </trkpt>
      <trkpt lat="42.57933" lon="2.61421">
        <ele>418.2</ele>
        <time>2019-12-24T17:15:03Z</time>
      </trkpt>
      <trkpt lat="42.57943" lon="2.61414">
        <ele>423.6</ele>
        <time>2019-12-24T17:15:06Z</time>
      </trkpt>
      <trkpt lat="42.57954" lon="2.61407">
        <ele>424.7</ele>
        <time>2019-12-24T17:15:09Z</time>
      </trkpt>
      <trkpt lat="42.57973" lon="2.61401">
        <ele>425.4</ele>
        <time>2019-12-24T17:15:13Z</time>
      </trkpt>
      <trkpt lat="42.57998" lon="2.61401">
        <ele>424.6</ele>
        <time>2019-12-24T17:15:18Z</time>
      </trkpt>
      <trkpt lat="42.58021" lon="2.61407">
        <ele>440.5</ele>
        <time>2019-12-24T17:15:29Z</time>
      </trkpt>
      <trkpt lat="42.58039" lon="2.61421">
        <ele>434.7</ele>
        <time>2019-12-24T17:15:32Z</time>
      </trkpt>
      <trkpt lat="42.58059" lon="2.61445">
        <ele>438</ele>
        <time>2019-12-24T17:15:37Z</time>
      </trkpt>
      <trkpt lat="42.58069" lon="2.61483">
        <ele>434.5</ele>
        <time>2019-12-24T17:15:41Z</time>
      </trkpt>
      <trkpt lat="42.58069" lon="2.61544">
        <ele>425.7</ele>
        <time>2019-12-24T17:15:42Z</time>
      </trkpt>
      <trkpt lat="42.58065" lon="2.61614">
        <ele>421.8</ele>
        <time>2019-12-24T17:15:44Z</time>
      </trkpt>
      <trkpt lat="42.58058" lon="2.61651">
        <ele>420</ele>
        <time>2019-12-24T17:15:45Z</time>
      </trkpt>
      <trkpt lat="42.58055" lon="2.6169">
        <ele>414.3</ele>
        <time>2019-12-24T17:15:46Z</time>
      </trkpt>
      <trkpt lat="42.58059" lon="2.61711">
        <ele>412.9</ele>
        <time>2019-12-24T17:15:49Z</time>
      </trkpt>
      <trkpt lat="42.58063" lon="2.61717">
        <ele>412.6</ele>
        <time>2019-12-24T17:15:51Z</time>
      </trkpt>
      <trkpt lat="42.58089" lon="2.61735">
        <ele>414</ele>
        <time>2019-12-24T17:15:54Z</time>
      </trkpt>
      <trkpt lat="42.58108" lon="2.61741">
        <ele>415</ele>
        <time>2019-12-24T17:15:56Z</time>
      </trkpt>
      <trkpt lat="42.58116" lon="2.61739">
        <ele>415.7</ele>
        <time>2019-12-24T17:15:57Z</time>
      </trkpt>
      <trkpt lat="42.58139" lon="2.61726">
        <ele>416.9</ele>
        <time>2019-12-24T17:16:00Z</time>
      </trkpt>
      <trkpt lat="42.58155" lon="2.61723">
        <ele>417</ele>
        <time>2019-12-24T17:16:02Z</time>
      </trkpt>
      <trkpt lat="42.58172" lon="2.61725">
        <ele>415.2</ele>
        <time>2019-12-24T17:16:06Z</time>
      </trkpt>
      <trkpt lat="42.58202" lon="2.61716">
        <ele>415.7</ele>
        <time>2019-12-24T17:16:09Z</time>
      </trkpt>
      <trkpt lat="42.58265" lon="2.61696">
        <ele>412.2</ele>
        <time>2019-12-24T17:16:12Z</time>
      </trkpt>
      <trkpt lat="42.58305" lon="2.61686">
        <ele>411.8</ele>
        <time>2019-12-24T17:16:16Z</time>
      </trkpt>
      <trkpt lat="42.58316" lon="2.61686">
        <ele>412</ele>
        <time>2019-12-24T17:16:22Z</time>
      </trkpt>
      <trkpt lat="42.58328" lon="2.61689">
        <ele>412</ele>
        <time>2019-12-24T17:16:27Z</time>
      </trkpt>
      <trkpt lat="42.58343" lon="2.61695">
        <ele>413.7</ele>
        <time>2019-12-24T17:16:35Z</time>
      </trkpt>
      <trkpt lat="42.58354" lon="2.61698">
        <ele>413.8</ele>
        <time>2019-12-24T17:16:37Z</time>
      </trkpt>
      <trkpt lat="42.58363" lon="2.61697">
        <ele>414.4</ele>
        <time>2019-12-24T17:16:38Z</time>
      </trkpt>
      <trkpt lat="42.58375" lon="2.61692">
        <ele>415.6</ele>
        <time>2019-12-24T17:16:40Z</time>
      </trkpt>
      <trkpt lat="42.58386" lon="2.61693">
        <ele>416.5</ele>
        <time>2019-12-24T17:16:42Z</time>
      </trkpt>
      <trkpt lat="42.58393" lon="2.61698">
        <ele>416.6</ele>
        <time>2019-12-24T17:16:46Z</time>
      </trkpt>
      <trkpt lat="42.58396" lon="2.61703">
        <ele>416.3</ele>
        <time>2019-12-24T17:16:52Z</time>
      </trkpt>
      <trkpt lat="42.584" lon="2.61716">
        <ele>415.2</ele>
        <time>2019-12-24T17:16:55Z</time>
      </trkpt>
      <trkpt lat="42.58401" lon="2.61734">
        <ele>414.1</ele>
        <time>2019-12-24T17:16:57Z</time>
      </trkpt>
      <trkpt lat="42.584" lon="2.61759">
        <ele>408.3</ele>
        <time>2019-12-24T17:16:59Z</time>
      </trkpt>
      <trkpt lat="42.58401" lon="2.61774">
        <ele>406.6</ele>
        <time>2019-12-24T17:17:01Z</time>
      </trkpt>
      <trkpt lat="42.58406" lon="2.61787">
        <ele>405.3</ele>
        <time>2019-12-24T17:17:03Z</time>
      </trkpt>
      <trkpt lat="42.58417" lon="2.61801">
        <ele>409.2</ele>
        <time>2019-12-24T17:17:05Z</time>
      </trkpt>
      <trkpt lat="42.58436" lon="2.6182">
        <ele>407.6</ele>
        <time>2019-12-24T17:17:05Z</time>
      </trkpt>
      <trkpt lat="42.58452" lon="2.6184">
        <ele>402.2</ele>
        <time>2019-12-24T17:17:08Z</time>
      </trkpt>
      <trkpt lat="42.58459" lon="2.61844">
        <ele>402.5</ele>
        <time>2019-12-24T17:17:10Z</time>
      </trkpt>
      <trkpt lat="42.58465" lon="2.61846">
        <ele>402.8</ele>
        <time>2019-12-24T17:17:13Z</time>
      </trkpt>
      <trkpt lat="42.58479" lon="2.61844">
        <ele>403.9</ele>
        <time>2019-12-24T17:17:17Z</time>
      </trkpt>
      <trkpt lat="42.58487" lon="2.61843">
        <ele>404.7</ele>
        <time>2019-12-24T17:17:22Z</time>
      </trkpt>
      <trkpt lat="42.58493" lon="2.61844">
        <ele>405.2</ele>
        <time>2019-12-24T17:17:25Z</time>
      </trkpt>
      <trkpt lat="42.58504" lon="2.61853">
        <ele>403.5</ele>
        <time>2019-12-24T17:17:27Z</time>
      </trkpt>
      <trkpt lat="42.58516" lon="2.61861">
        <ele>402</ele>
        <time>2019-12-24T17:17:29Z</time>
      </trkpt>
      <trkpt lat="42.58524" lon="2.61862">
        <ele>401.5</ele>
        <time>2019-12-24T17:17:32Z</time>
      </trkpt>
      <trkpt lat="42.5853" lon="2.6186">
        <ele>401.4</ele>
        <time>2019-12-24T17:17:36Z</time>
      </trkpt>
      <trkpt lat="42.58538" lon="2.61854">
        <ele>401.5</ele>
        <time>2019-12-24T17:17:40Z</time>
      </trkpt>
      <trkpt lat="42.58564" lon="2.61833">
        <ele>410.3</ele>
        <time>2019-12-24T17:17:42Z</time>
      </trkpt>
      <trkpt lat="42.58591" lon="2.6182">
        <ele>407.3</ele>
        <time>2019-12-24T17:17:44Z</time>
      </trkpt>
      <trkpt lat="42.58663" lon="2.61789">
        <ele>410.1</ele>
        <time>2019-12-24T17:17:46Z</time>
      </trkpt>
      <trkpt lat="42.58721" lon="2.6177">
        <ele>404.3</ele>
        <time>2019-12-24T17:17:52Z</time>
      </trkpt>
      <trkpt lat="42.58746" lon="2.61765">
        <ele>404.4</ele>
        <time>2019-12-24T17:17:56Z</time>
      </trkpt>
      <trkpt lat="42.58776" lon="2.61762">
        <ele>397.1</ele>
        <time>2019-12-24T17:17:57Z</time>
      </trkpt>
      <trkpt lat="42.58791" lon="2.6175">
        <ele>395.3</ele>
        <time>2019-12-24T17:17:58Z</time>
      </trkpt>
      <trkpt lat="42.58803" lon="2.61728">
        <ele>401.5</ele>
        <time>2019-12-24T17:17:59Z</time>
      </trkpt>
      <trkpt lat="42.58818" lon="2.61684">
        <ele>403.3</ele>
        <time>2019-12-24T17:18:00Z</time>
      </trkpt>
      <trkpt lat="42.58824" lon="2.61655">
        <ele>406.6</ele>
        <time>2019-12-24T17:18:02Z</time>
      </trkpt>
      <trkpt lat="42.58835" lon="2.61548">
        <ele>395.6</ele>
        <time>2019-12-24T17:18:07Z</time>
      </trkpt>
      <trkpt lat="42.58838" lon="2.6146">
        <ele>395.4</ele>
        <time>2019-12-24T17:18:13Z</time>
      </trkpt>
      <trkpt lat="42.5884" lon="2.61401">
        <ele>401.9</ele>
        <time>2019-12-24T17:18:16Z</time>
      </trkpt>
      <trkpt lat="42.58846" lon="2.61366">
        <ele>404.3</ele>
        <time>2019-12-24T17:18:25Z</time>
      </trkpt>
      <trkpt lat="42.58855" lon="2.61338">
        <ele>406.9</ele>
        <time>2019-12-24T17:18:34Z</time>
      </trkpt>
      <trkpt lat="42.58863" lon="2.61324">
        <ele>415.4</ele>
        <time>2019-12-24T17:18:38Z</time>
      </trkpt>
      <trkpt lat="42.58879" lon="2.61315">
        <ele>414.2</ele>
        <time>2019-12-24T17:18:42Z</time>
      </trkpt>
      <trkpt lat="42.58906" lon="2.61316">
        <ele>409.4</ele>
        <time>2019-12-24T17:18:44Z</time>
      </trkpt>
      <trkpt lat="42.58929" lon="2.61325">
        <ele>400</ele>
        <time>2019-12-24T17:18:45Z</time>
      </trkpt>
      <trkpt lat="42.58944" lon="2.61342">
        <ele>391.8</ele>
        <time>2019-12-24T17:18:48Z</time>
      </trkpt>
      <trkpt lat="42.58962" lon="2.61359">
        <ele>389.1</ele>
        <time>2019-12-24T17:18:54Z</time>
      </trkpt>
      <trkpt lat="42.58974" lon="2.61361">
        <ele>388.5</ele>
        <time>2019-12-24T17:18:58Z</time>
      </trkpt>
      <trkpt lat="42.58982" lon="2.61356">
        <ele>388.4</ele>
        <time>2019-12-24T17:18:59Z</time>
      </trkpt>
      <trkpt lat="42.58992" lon="2.61335">
        <ele>388.3</ele>
        <time>2019-12-24T17:19:00Z</time>
      </trkpt>
      <trkpt lat="42.58995" lon="2.61294">
        <ele>396.5</ele>
        <time>2019-12-24T17:19:02Z</time>
      </trkpt>
      <trkpt lat="42.58993" lon="2.6123">
        <ele>404.9</ele>
        <time>2019-12-24T17:19:04Z</time>
      </trkpt>
      <trkpt lat="42.58995" lon="2.61217">
        <ele>407.9</ele>
        <time>2019-12-24T17:19:06Z</time>
      </trkpt>
      <trkpt lat="42.59" lon="2.61206">
        <ele>404</ele>
        <time>2019-12-24T17:19:07Z</time>
      </trkpt>
      <trkpt lat="42.59014" lon="2.61194">
        <ele>405.9</ele>
        <time>2019-12-24T17:19:10Z</time>
      </trkpt>
      <trkpt lat="42.59025" lon="2.6119">
        <ele>406.5</ele>
        <time>2019-12-24T17:19:12Z</time>
      </trkpt>
      <trkpt lat="42.59036" lon="2.61193">
        <ele>406.3</ele>
        <time>2019-12-24T17:19:13Z</time>
      </trkpt>
      <trkpt lat="42.59054" lon="2.6121">
        <ele>404.2</ele>
        <time>2019-12-24T17:19:17Z</time>
      </trkpt>
      <trkpt lat="42.59074" lon="2.61219">
        <ele>401.7</ele>
        <time>2019-12-24T17:19:19Z</time>
      </trkpt>
      <trkpt lat="42.59103" lon="2.61225">
        <ele>411.1</ele>
        <time>2019-12-24T17:19:21Z</time>
      </trkpt>
      <trkpt lat="42.59132" lon="2.61239">
        <ele>415.2</ele>
        <time>2019-12-24T17:19:22Z</time>
      </trkpt>
      <trkpt lat="42.59144" lon="2.61245">
        <ele>416.1</ele>
        <time>2019-12-24T17:19:23Z</time>
      </trkpt>
      <trkpt lat="42.59157" lon="2.61263">
        <ele>403.8</ele>
        <time>2019-12-24T17:19:25Z</time>
      </trkpt>
      <trkpt lat="42.59172" lon="2.61277">
        <ele>413.7</ele>
        <time>2019-12-24T17:19:31Z</time>
      </trkpt>
      <trkpt lat="42.59204" lon="2.61317">
        <ele>411.4</ele>
        <time>2019-12-24T17:19:34Z</time>
      </trkpt>
      <trkpt lat="42.59225" lon="2.6136">
        <ele>400.3</ele>
        <time>2019-12-24T17:19:37Z</time>
      </trkpt>
      <trkpt lat="42.59244" lon="2.61414">
        <ele>397.6</ele>
        <time>2019-12-24T17:19:46Z</time>
      </trkpt>
      <trkpt lat="42.59261" lon="2.61442">
        <ele>398.6</ele>
        <time>2019-12-24T17:19:49Z</time>
      </trkpt>
      <trkpt lat="42.59297" lon="2.61471">
        <ele>398.9</ele>
        <time>2019-12-24T17:19:52Z</time>
      </trkpt>
      <trkpt lat="42.59327" lon="2.61494">
        <ele>397.3</ele>
        <time>2019-12-24T17:19:56Z</time>
      </trkpt>
      <trkpt lat="42.59341" lon="2.61508">
        <ele>394.2</ele>
        <time>2019-12-24T17:20:01Z</time>
      </trkpt>
      <trkpt lat="42.59348" lon="2.61524">
        <ele>392.1</ele>
        <time>2019-12-24T17:20:05Z</time>
      </trkpt>
      <trkpt lat="42.59361" lon="2.61543">
        <ele>390</ele>
        <time>2019-12-24T17:20:11Z</time>
      </trkpt>
      <trkpt lat="42.59371" lon="2.61549">
        <ele>390</ele>
        <time>2019-12-24T17:20:18Z</time>
      </trkpt>
      <trkpt lat="42.59378" lon="2.61549">
        <ele>390.6</ele>
        <time>2019-12-24T17:20:21Z</time>
      </trkpt>
      <trkpt lat="42.59395" lon="2.61544">
        <ele>392.4</ele>
        <time>2019-12-24T17:20:24Z</time>
      </trkpt>
      <trkpt lat="42.59402" lon="2.61543">
        <ele>393</ele>
        <time>2019-12-24T17:20:30Z</time>
      </trkpt>
      <trkpt lat="42.59408" lon="2.61545">
        <ele>392.9</ele>
        <time>2019-12-24T17:20:35Z</time>
      </trkpt>
      <trkpt lat="42.59415" lon="2.6155">
        <ele>392.4</ele>
        <time>2019-12-24T17:20:39Z</time>
      </trkpt>
      <trkpt lat="42.59422" lon="2.61561">
        <ele>395.8</ele>
        <time>2019-12-24T17:20:41Z</time>
      </trkpt>
      <trkpt lat="42.59429" lon="2.61579">
        <ele>393</ele>
        <time>2019-12-24T17:20:43Z</time>
      </trkpt>
      <trkpt lat="42.59441" lon="2.61596">
        <ele>385.9</ele>
        <time>2019-12-24T17:20:44Z</time>
      </trkpt>
      <trkpt lat="42.59459" lon="2.61613">
        <ele>385.3</ele>
        <time>2019-12-24T17:20:46Z</time>
      </trkpt>
      <trkpt lat="42.59474" lon="2.61629">
        <ele>384.7</ele>
        <time>2019-12-24T17:20:47Z</time>
      </trkpt>
      <trkpt lat="42.59488" lon="2.61648">
        <ele>383.5</ele>
        <time>2019-12-24T17:20:49Z</time>
      </trkpt>
      <trkpt lat="42.59496" lon="2.61656">
        <ele>382.9</ele>
        <time>2019-12-24T17:20:52Z</time>
      </trkpt>
      <trkpt lat="42.595" lon="2.61657">
        <ele>382.8</ele>
        <time>2019-12-24T17:20:57Z</time>
      </trkpt>
      <trkpt lat="42.59504" lon="2.61655">
        <ele>381.1</ele>
        <time>2019-12-24T17:21:01Z</time>
      </trkpt>
      <trkpt lat="42.59512" lon="2.61643">
        <ele>380.9</ele>
        <time>2019-12-24T17:21:07Z</time>
      </trkpt>
      <trkpt lat="42.59534" lon="2.61609">
        <ele>382</ele>
        <time>2019-12-24T17:21:10Z</time>
      </trkpt>
      <trkpt lat="42.59558" lon="2.61583">
        <ele>392.5</ele>
        <time>2019-12-24T17:21:13Z</time>
      </trkpt>
      <trkpt lat="42.59593" lon="2.61559">
        <ele>390</ele>
        <time>2019-12-24T17:21:16Z</time>
      </trkpt>
      <trkpt lat="42.59617" lon="2.61552">
        <ele>391.9</ele>
        <time>2019-12-24T17:21:20Z</time>
      </trkpt>
      <trkpt lat="42.59644" lon="2.61557">
        <ele>389.6</ele>
        <time>2019-12-24T17:21:23Z</time>
      </trkpt>
      <trkpt lat="42.59676" lon="2.6157">
        <ele>380.3</ele>
        <time>2019-12-24T17:21:25Z</time>
      </trkpt>
      <trkpt lat="42.59695" lon="2.6158">
        <ele>380.3</ele>
        <time>2019-12-24T17:21:28Z</time>
      </trkpt>
      <trkpt lat="42.59706" lon="2.6158">
        <ele>379.9</ele>
        <time>2019-12-24T17:21:32Z</time>
      </trkpt>
      <trkpt lat="42.59723" lon="2.6157">
        <ele>378.8</ele>
        <time>2019-12-24T17:21:33Z</time>
      </trkpt>
      <trkpt lat="42.59771" lon="2.61533">
        <ele>374.2</ele>
        <time>2019-12-24T17:21:36Z</time>
      </trkpt>
      <trkpt lat="42.59799" lon="2.61514">
        <ele>373.2</ele>
        <time>2019-12-24T17:21:37Z</time>
      </trkpt>
      <trkpt lat="42.59813" lon="2.61511">
        <ele>372.4</ele>
        <time>2019-12-24T17:21:42Z</time>
      </trkpt>
      <trkpt lat="42.59825" lon="2.61509">
        <ele>372.3</ele>
        <time>2019-12-24T17:21:45Z</time>
      </trkpt>
      <trkpt lat="42.59845" lon="2.61501">
        <ele>367.5</ele>
        <time>2019-12-24T17:21:49Z</time>
      </trkpt>
      <trkpt lat="42.59858" lon="2.61495">
        <ele>371.7</ele>
        <time>2019-12-24T17:21:52Z</time>
      </trkpt>
      <trkpt lat="42.59864" lon="2.6149">
        <ele>371.3</ele>
        <time>2019-12-24T17:21:54Z</time>
      </trkpt>
      <trkpt lat="42.5987" lon="2.61483">
        <ele>371</ele>
        <time>2019-12-24T17:21:56Z</time>
      </trkpt>
      <trkpt lat="42.59875" lon="2.61472">
        <ele>371.2</ele>
        <time>2019-12-24T17:21:58Z</time>
      </trkpt>
      <trkpt lat="42.59876" lon="2.61448">
        <ele>373</ele>
        <time>2019-12-24T17:21:59Z</time>
      </trkpt>
      <trkpt lat="42.59875" lon="2.61427">
        <ele>374.4</ele>
        <time>2019-12-24T17:22:01Z</time>
      </trkpt>
      <trkpt lat="42.59879" lon="2.61397">
        <ele>380.5</ele>
        <time>2019-12-24T17:22:03Z</time>
      </trkpt>
      <trkpt lat="42.5989" lon="2.61341">
        <ele>381.4</ele>
        <time>2019-12-24T17:22:07Z</time>
      </trkpt>
      <trkpt lat="42.59896" lon="2.61327">
        <ele>385.1</ele>
        <time>2019-12-24T17:22:12Z</time>
      </trkpt>
      <trkpt lat="42.59901" lon="2.61323">
        <ele>384.8</ele>
        <time>2019-12-24T17:22:14Z</time>
      </trkpt>
      <trkpt lat="42.59908" lon="2.61322">
        <ele>384.1</ele>
        <time>2019-12-24T17:22:20Z</time>
      </trkpt>
      <trkpt lat="42.59915" lon="2.61323">
        <ele>383.2</ele>
        <time>2019-12-24T17:22:23Z</time>
      </trkpt>
      <trkpt lat="42.59922" lon="2.61327">
        <ele>384.9</ele>
        <time>2019-12-24T17:22:28Z</time>
      </trkpt>
      <trkpt lat="42.59927" lon="2.6134">
        <ele>380.9</ele>
        <time>2019-12-24T17:22:33Z</time>
      </trkpt>
      <trkpt lat="42.5993" lon="2.61375">
        <ele>380.2</ele>
        <time>2019-12-24T17:22:38Z</time>
      </trkpt>
      <trkpt lat="42.59936" lon="2.61419">
        <ele>370.5</ele>
        <time>2019-12-24T17:22:44Z</time>
      </trkpt>
      <trkpt lat="42.59948" lon="2.61458">
        <ele>367.7</ele>
        <time>2019-12-24T17:22:48Z</time>
      </trkpt>
      <trkpt lat="42.59957" lon="2.61472">
        <ele>366.6</ele>
        <time>2019-12-24T17:22:51Z</time>
      </trkpt>
      <trkpt lat="42.59967" lon="2.61479">
        <ele>366.2</ele>
        <time>2019-12-24T17:22:55Z</time>
      </trkpt>
      <trkpt lat="42.5998" lon="2.61481">
        <ele>365.8</ele>
        <time>2019-12-24T17:22:57Z</time>
      </trkpt>
      <trkpt lat="42.59997" lon="2.61478">
        <ele>365.8</ele>
        <time>2019-12-24T17:22:59Z</time>
      </trkpt>
      <trkpt lat="42.60008" lon="2.61471">
        <ele>363.5</ele>
        <time>2019-12-24T17:23:01Z</time>
      </trkpt>
      <trkpt lat="42.60032" lon="2.61442">
        <ele>365</ele>
        <time>2019-12-24T17:23:04Z</time>
      </trkpt>
      <trkpt lat="42.60058" lon="2.61408">
        <ele>369.7</ele>
        <time>2019-12-24T17:23:08Z</time>
      </trkpt>
      <trkpt lat="42.60067" lon="2.61392">
        <ele>370</ele>
        <time>2019-12-24T17:23:14Z</time>
      </trkpt>
      <trkpt lat="42.60073" lon="2.61371">
        <ele>371.8</ele>
        <time>2019-12-24T17:23:20Z</time>
      </trkpt>
      <trkpt lat="42.60076" lon="2.6134">
        <ele>370.5</ele>
        <time>2019-12-24T17:23:25Z</time>
      </trkpt>
      <trkpt lat="42.60084" lon="2.61302">
        <ele>365.6</ele>
        <time>2019-12-24T17:23:28Z</time>
      </trkpt>
      <trkpt lat="42.60107" lon="2.61225">
        <ele>377.5</ele>
        <time>2019-12-24T17:23:31Z</time>
      </trkpt>
      <trkpt lat="42.60113" lon="2.61198">
        <ele>379.7</ele>
        <time>2019-12-24T17:23:32Z</time>
      </trkpt>
      <trkpt lat="42.60127" lon="2.61167">
        <ele>379.3</ele>
        <time>2019-12-24T17:23:36Z</time>
      </trkpt>
      <trkpt lat="42.60134" lon="2.61141">
        <ele>397.8</ele>
        <time>2019-12-24T17:23:40Z</time>
      </trkpt>
      <trkpt lat="42.60135" lon="2.6113">
        <ele>400</ele>
        <time>2019-12-24T17:23:41Z</time>
      </trkpt>
      <trkpt lat="42.60139" lon="2.6112">
        <ele>401.6</ele>
        <time>2019-12-24T17:23:43Z</time>
      </trkpt>
      <trkpt lat="42.60145" lon="2.61115">
        <ele>402</ele>
        <time>2019-12-24T17:23:43Z</time>
      </trkpt>
      <trkpt lat="42.60151" lon="2.61114">
        <ele>401.7</ele>
        <time>2019-12-24T17:23:44Z</time>
      </trkpt>
      <trkpt lat="42.60166" lon="2.61121">
        <ele>398.8</ele>
        <time>2019-12-24T17:23:45Z</time>
      </trkpt>
      <trkpt lat="42.60176" lon="2.61126">
        <ele>390.8</ele>
        <time>2019-12-24T17:23:47Z</time>
      </trkpt>
      <trkpt lat="42.60192" lon="2.6113">
        <ele>390.3</ele>
        <time>2019-12-24T17:23:54Z</time>
      </trkpt>
      <trkpt lat="42.60202" lon="2.61132">
        <ele>390.4</ele>
        <time>2019-12-24T17:23:58Z</time>
      </trkpt>
      <trkpt lat="42.6021" lon="2.61137">
        <ele>389.7</ele>
        <time>2019-12-24T17:24:03Z</time>
      </trkpt>
      <trkpt lat="42.60222" lon="2.61148">
        <ele>387.6</ele>
        <time>2019-12-24T17:24:06Z</time>
      </trkpt>
      <trkpt lat="42.60233" lon="2.61153">
        <ele>385.7</ele>
        <time>2019-12-24T17:24:09Z</time>
      </trkpt>
      <trkpt lat="42.60257" lon="2.6116">
        <ele>385.1</ele>
        <time>2019-12-24T17:24:11Z</time>
      </trkpt>
      <trkpt lat="42.60269" lon="2.61172">
        <ele>377.2</ele>
        <time>2019-12-24T17:24:14Z</time>
      </trkpt>
      <trkpt lat="42.60281" lon="2.61186">
        <ele>377.3</ele>
        <time>2019-12-24T17:24:17Z</time>
      </trkpt>
      <trkpt lat="42.60298" lon="2.6121">
        <ele>376.6</ele>
        <time>2019-12-24T17:24:20Z</time>
      </trkpt>
      <trkpt lat="42.6032" lon="2.61241">
        <ele>376.2</ele>
        <time>2019-12-24T17:24:23Z</time>
      </trkpt>
      <trkpt lat="42.60344" lon="2.61266">
        <ele>367.5</ele>
        <time>2019-12-24T17:24:28Z</time>
      </trkpt>
      <trkpt lat="42.60373" lon="2.61313">
        <ele>357.8</ele>
        <time>2019-12-24T17:24:35Z</time>
      </trkpt>
      <trkpt lat="42.60382" lon="2.6132">
        <ele>357.3</ele>
        <time>2019-12-24T17:24:41Z</time>
      </trkpt>
      <trkpt lat="42.6039" lon="2.61319">
        <ele>357.2</ele>
        <time>2019-12-24T17:24:44Z</time>
      </trkpt>
      <trkpt lat="42.60397" lon="2.61313">
        <ele>357.5</ele>
        <time>2019-12-24T17:24:48Z</time>
      </trkpt>
      <trkpt lat="42.60403" lon="2.61299">
        <ele>358.9</ele>
        <time>2019-12-24T17:24:51Z</time>
      </trkpt>
      <trkpt lat="42.60409" lon="2.61268">
        <ele>362.1</ele>
        <time>2019-12-24T17:24:56Z</time>
      </trkpt>
      <trkpt lat="42.60414" lon="2.61228">
        <ele>372.8</ele>
        <time>2019-12-24T17:24:59Z</time>
      </trkpt>
      <trkpt lat="42.60418" lon="2.61204">
        <ele>364.2</ele>
        <time>2019-12-24T17:25:02Z</time>
      </trkpt>
      <trkpt lat="42.60427" lon="2.61193">
        <ele>365.6</ele>
        <time>2019-12-24T17:25:05Z</time>
      </trkpt>
      <trkpt lat="42.60438" lon="2.61182">
        <ele>365.7</ele>
        <time>2019-12-24T17:25:14Z</time>
      </trkpt>
      <trkpt lat="42.60442" lon="2.61172">
        <ele>365.9</ele>
        <time>2019-12-24T17:25:20Z</time>
      </trkpt>
      <trkpt lat="42.60447" lon="2.61156">
        <ele>375.5</ele>
        <time>2019-12-24T17:25:25Z</time>
      </trkpt>
      <trkpt lat="42.60453" lon="2.61149">
        <ele>374.9</ele>
        <time>2019-12-24T17:25:29Z</time>
      </trkpt>
      <trkpt lat="42.60457" lon="2.61147">
        <ele>374.4</ele>
        <time>2019-12-24T17:25:32Z</time>
      </trkpt>
      <trkpt lat="42.60472" lon="2.61144">
        <ele>371.9</ele>
        <time>2019-12-24T17:25:33Z</time>
      </trkpt>
      <trkpt lat="42.60482" lon="2.61143">
        <ele>370.1</ele>
        <time>2019-12-24T17:25:35Z</time>
      </trkpt>
      <trkpt lat="42.60498" lon="2.61136">
        <ele>369.8</ele>
        <time>2019-12-24T17:25:36Z</time>
      </trkpt>
      <trkpt lat="42.60522" lon="2.61122">
        <ele>361.5</ele>
        <time>2019-12-24T17:25:42Z</time>
      </trkpt>
      <trkpt lat="42.60547" lon="2.61113">
        <ele>360.7</ele>
        <time>2019-12-24T17:25:45Z</time>
      </trkpt>
      <trkpt lat="42.60561" lon="2.6111">
        <ele>360.2</ele>
        <time>2019-12-24T17:25:48Z</time>
      </trkpt>
      <trkpt lat="42.60572" lon="2.61108">
        <ele>359.9</ele>
        <time>2019-12-24T17:25:51Z</time>
      </trkpt>
      <trkpt lat="42.60586" lon="2.61101">
        <ele>350.5</ele>
        <time>2019-12-24T17:25:55Z</time>
      </trkpt>
      <trkpt lat="42.60596" lon="2.6109">
        <ele>351.4</ele>
        <time>2019-12-24T17:25:57Z</time>
      </trkpt>
      <trkpt lat="42.6061" lon="2.61066">
        <ele>348.3</ele>
        <time>2019-12-24T17:25:59Z</time>
      </trkpt>
      <trkpt lat="42.60621" lon="2.61034">
        <ele>345.7</ele>
        <time>2019-12-24T17:26:00Z</time>
      </trkpt>
      <trkpt lat="42.60622" lon="2.6102">
        <ele>345.9</ele>
        <time>2019-12-24T17:26:02Z</time>
      </trkpt>
      <trkpt lat="42.60621" lon="2.61009">
        <ele>346.4</ele>
        <time>2019-12-24T17:26:03Z</time>
      </trkpt>
      <trkpt lat="42.60614" lon="2.60991">
        <ele>350.6</ele>
        <time>2019-12-24T17:26:05Z</time>
      </trkpt>
      <trkpt lat="42.6059" lon="2.60957">
        <ele>352.7</ele>
        <time>2019-12-24T17:26:07Z</time>
      </trkpt>
      <trkpt lat="42.60581" lon="2.60936">
        <ele>364.9</ele>
        <time>2019-12-24T17:26:10Z</time>
      </trkpt>
      <trkpt lat="42.6058" lon="2.60927">
        <ele>363.1</ele>
        <time>2019-12-24T17:26:13Z</time>
      </trkpt>
      <trkpt lat="42.60582" lon="2.60921">
        <ele>361</ele>
        <time>2019-12-24T17:26:16Z</time>
      </trkpt>
      <trkpt lat="42.60585" lon="2.60915">
        <ele>359.1</ele>
        <time>2019-12-24T17:26:22Z</time>
      </trkpt>
      <trkpt lat="42.60592" lon="2.60905">
        <ele>359.5</ele>
        <time>2019-12-24T17:26:27Z</time>
      </trkpt>
      <trkpt lat="42.60603" lon="2.60901">
        <ele>359.4</ele>
        <time>2019-12-24T17:26:29Z</time>
      </trkpt>
      <trkpt lat="42.60629" lon="2.60903">
        <ele>356.8</ele>
        <time>2019-12-24T17:26:30Z</time>
      </trkpt>
      <trkpt lat="42.60659" lon="2.60908">
        <ele>349.3</ele>
        <time>2019-12-24T17:26:31Z</time>
      </trkpt>
      <trkpt lat="42.60675" lon="2.60901">
        <ele>342.7</ele>
        <time>2019-12-24T17:26:34Z</time>
      </trkpt>
      <trkpt lat="42.60721" lon="2.60866">
        <ele>341.1</ele>
        <time>2019-12-24T17:26:35Z</time>
      </trkpt>
      <trkpt lat="42.6076" lon="2.60819">
        <ele>334.1</ele>
        <time>2019-12-24T17:26:38Z</time>
      </trkpt>
      <trkpt lat="42.60778" lon="2.60803">
        <ele>330.9</ele>
        <time>2019-12-24T17:26:41Z</time>
      </trkpt>
      <trkpt lat="42.6079" lon="2.60782">
        <ele>329.5</ele>
        <time>2019-12-24T17:26:45Z</time>
      </trkpt>
      <trkpt lat="42.60792" lon="2.60766">
        <ele>329.3</ele>
        <time>2019-12-24T17:26:48Z</time>
      </trkpt>
      <trkpt lat="42.6079" lon="2.60754">
        <ele>329.6</ele>
        <time>2019-12-24T17:26:50Z</time>
      </trkpt>
      <trkpt lat="42.6078" lon="2.60738">
        <ele>331.2</ele>
        <time>2019-12-24T17:26:54Z</time>
      </trkpt>
      <trkpt lat="42.60751" lon="2.60714">
        <ele>332.3</ele>
        <time>2019-12-24T17:26:57Z</time>
      </trkpt>
      <trkpt lat="42.60736" lon="2.60697">
        <ele>343.5</ele>
        <time>2019-12-24T17:26:59Z</time>
      </trkpt>
      <trkpt lat="42.60733" lon="2.60689">
        <ele>343</ele>
        <time>2019-12-24T17:27:01Z</time>
      </trkpt>
      <trkpt lat="42.60733" lon="2.60677">
        <ele>341.5</ele>
        <time>2019-12-24T17:27:04Z</time>
      </trkpt>
      <trkpt lat="42.60735" lon="2.60668">
        <ele>340.1</ele>
        <time>2019-12-24T17:27:05Z</time>
      </trkpt>
      <trkpt lat="42.60743" lon="2.60656">
        <ele>339.3</ele>
        <time>2019-12-24T17:27:06Z</time>
      </trkpt>
      <trkpt lat="42.60754" lon="2.60653">
        <ele>335</ele>
        <time>2019-12-24T17:27:07Z</time>
      </trkpt>
      <trkpt lat="42.60762" lon="2.60657">
        <ele>334.8</ele>
        <time>2019-12-24T17:27:09Z</time>
      </trkpt>
      <trkpt lat="42.60776" lon="2.60665">
        <ele>334.4</ele>
        <time>2019-12-24T17:27:11Z</time>
      </trkpt>
      <trkpt lat="42.60786" lon="2.60668">
        <ele>330.3</ele>
        <time>2019-12-24T17:27:12Z</time>
      </trkpt>
      <trkpt lat="42.60792" lon="2.60667">
        <ele>329.8</ele>
        <time>2019-12-24T17:27:13Z</time>
      </trkpt>
      <trkpt lat="42.60814" lon="2.6066">
        <ele>331.1</ele>
        <time>2019-12-24T17:27:16Z</time>
      </trkpt>
      <trkpt lat="42.60824" lon="2.60656">
        <ele>329.9</ele>
        <time>2019-12-24T17:27:20Z</time>
      </trkpt>
      <trkpt lat="42.60832" lon="2.60651">
        <ele>330.1</ele>
        <time>2019-12-24T17:27:25Z</time>
      </trkpt>
      <trkpt lat="42.60835" lon="2.60642">
        <ele>323.5</ele>
        <time>2019-12-24T17:27:30Z</time>
      </trkpt>
      <trkpt lat="42.60837" lon="2.60634">
        <ele>323.5</ele>
        <time>2019-12-24T17:27:35Z</time>
      </trkpt>
      <trkpt lat="42.60835" lon="2.60615">
        <ele>324.6</ele>
        <time>2019-12-24T17:27:41Z</time>
      </trkpt>
      <trkpt lat="42.60831" lon="2.60574">
        <ele>336.2</ele>
        <time>2019-12-24T17:27:43Z</time>
      </trkpt>
      <trkpt lat="42.60835" lon="2.60554">
        <ele>330.6</ele>
        <time>2019-12-24T17:27:45Z</time>
      </trkpt>
      <trkpt lat="42.60846" lon="2.6053">
        <ele>331.9</ele>
        <time>2019-12-24T17:27:46Z</time>
      </trkpt>
      <trkpt lat="42.60882" lon="2.60491">
        <ele>334.5</ele>
        <time>2019-12-24T17:27:51Z</time>
      </trkpt>
      <trkpt lat="42.60894" lon="2.60472">
        <ele>333.9</ele>
        <time>2019-12-24T17:27:58Z</time>
      </trkpt>
      <trkpt lat="42.60905" lon="2.6045">
        <ele>334.1</ele>
        <time>2019-12-24T17:28:04Z</time>
      </trkpt>
      <trkpt lat="42.60917" lon="2.60424">
        <ele>327.9</ele>
        <time>2019-12-24T17:28:07Z</time>
      </trkpt>
      <trkpt lat="42.60936" lon="2.60399">
        <ele>333.8</ele>
        <time>2019-12-24T17:28:11Z</time>
      </trkpt>
      <trkpt lat="42.60955" lon="2.60384">
        <ele>334.8</ele>
        <time>2019-12-24T17:28:13Z</time>
      </trkpt>
      <trkpt lat="42.60989" lon="2.60368">
        <ele>334.5</ele>
        <time>2019-12-24T17:28:17Z</time>
      </trkpt>
      <trkpt lat="42.61023" lon="2.60358">
        <ele>329.1</ele>
        <time>2019-12-24T17:28:20Z</time>
      </trkpt>
      <trkpt lat="42.61041" lon="2.6036">
        <ele>327.9</ele>
        <time>2019-12-24T17:28:22Z</time>
      </trkpt>
      <trkpt lat="42.61056" lon="2.60367">
        <ele>326.9</ele>
        <time>2019-12-24T17:28:23Z</time>
      </trkpt>
      <trkpt lat="42.61089" lon="2.60393">
        <ele>319.5</ele>
        <time>2019-12-24T17:28:24Z</time>
      </trkpt>
      <trkpt lat="42.61113" lon="2.60413">
        <ele>318.5</ele>
        <time>2019-12-24T17:28:26Z</time>
      </trkpt>
      <trkpt lat="42.61132" lon="2.60426">
        <ele>314</ele>
        <time>2019-12-24T17:28:30Z</time>
      </trkpt>
      <trkpt lat="42.61141" lon="2.6043">
        <ele>313.9</ele>
        <time>2019-12-24T17:28:32Z</time>
      </trkpt>
      <trkpt lat="42.6115" lon="2.60432">
        <ele>313.9</ele>
        <time>2019-12-24T17:28:35Z</time>
      </trkpt>
      <trkpt lat="42.61158" lon="2.60432">
        <ele>314</ele>
        <time>2019-12-24T17:28:36Z</time>
      </trkpt>
      <trkpt lat="42.61166" lon="2.60426">
        <ele>314.4</ele>
        <time>2019-12-24T17:28:40Z</time>
      </trkpt>
      <trkpt lat="42.61171" lon="2.60417">
        <ele>314.3</ele>
        <time>2019-12-24T17:28:42Z</time>
      </trkpt>
      <trkpt lat="42.61173" lon="2.60406">
        <ele>312.8</ele>
        <time>2019-12-24T17:28:46Z</time>
      </trkpt>
      <trkpt lat="42.61173" lon="2.60382">
        <ele>311</ele>
        <time>2019-12-24T17:28:51Z</time>
      </trkpt>
      <trkpt lat="42.61165" lon="2.60347">
        <ele>315</ele>
        <time>2019-12-24T17:28:55Z</time>
      </trkpt>
      <trkpt lat="42.61149" lon="2.60317">
        <ele>316.8</ele>
        <time>2019-12-24T17:28:57Z</time>
      </trkpt>
      <trkpt lat="42.61132" lon="2.60286">
        <ele>318.8</ele>
        <time>2019-12-24T17:29:00Z</time>
      </trkpt>
      <trkpt lat="42.61124" lon="2.60265">
        <ele>319.8</ele>
        <time>2019-12-24T17:29:02Z</time>
      </trkpt>
      <trkpt lat="42.6112" lon="2.60243">
        <ele>323.7</ele>
        <time>2019-12-24T17:29:04Z</time>
      </trkpt>
      <trkpt lat="42.61122" lon="2.60217">
        <ele>324.4</ele>
        <time>2019-12-24T17:29:07Z</time>
      </trkpt>
      <trkpt lat="42.61129" lon="2.60192">
        <ele>324.8</ele>
        <time>2019-12-24T17:29:10Z</time>
      </trkpt>
      <trkpt lat="42.6114" lon="2.60174">
        <ele>322.5</ele>
        <time>2019-12-24T17:29:15Z</time>
      </trkpt>
      <trkpt lat="42.61152" lon="2.60162">
        <ele>328.2</ele>
        <time>2019-12-24T17:29:20Z</time>
      </trkpt>
      <trkpt lat="42.61166" lon="2.60153">
        <ele>326.9</ele>
        <time>2019-12-24T17:29:25Z</time>
      </trkpt>
      <trkpt lat="42.61185" lon="2.60145">
        <ele>324.2</ele>
        <time>2019-12-24T17:29:29Z</time>
      </trkpt>
      <trkpt lat="42.61195" lon="2.60145">
        <ele>324.9</ele>
        <time>2019-12-24T17:29:34Z</time>
      </trkpt>
      <trkpt lat="42.61208" lon="2.60151">
        <ele>324.4</ele>
        <time>2019-12-24T17:29:36Z</time>
      </trkpt>
      <trkpt lat="42.61215" lon="2.60158">
        <ele>323.5</ele>
        <time>2019-12-24T17:29:41Z</time>
      </trkpt>
      <trkpt lat="42.61233" lon="2.60181">
        <ele>311</ele>
        <time>2019-12-24T17:29:44Z</time>
      </trkpt>
      <trkpt lat="42.6125" lon="2.60197">
        <ele>309.5</ele>
        <time>2019-12-24T17:29:48Z</time>
      </trkpt>
      <trkpt lat="42.61269" lon="2.60213">
        <ele>307</ele>
        <time>2019-12-24T17:29:51Z</time>
      </trkpt>
      <trkpt lat="42.61283" lon="2.60223">
        <ele>306.3</ele>
        <time>2019-12-24T17:29:54Z</time>
      </trkpt>
      <trkpt lat="42.61292" lon="2.60228">
        <ele>306.1</ele>
        <time>2019-12-24T17:29:57Z</time>
      </trkpt>
      <trkpt lat="42.61302" lon="2.60231">
        <ele>305.8</ele>
        <time>2019-12-24T17:29:58Z</time>
      </trkpt>
      <trkpt lat="42.61313" lon="2.60231">
        <ele>305.6</ele>
        <time>2019-12-24T17:29:59Z</time>
      </trkpt>
      <trkpt lat="42.61319" lon="2.60229">
        <ele>305.6</ele>
        <time>2019-12-24T17:30:01Z</time>
      </trkpt>
      <trkpt lat="42.61333" lon="2.60224">
        <ele>305.9</ele>
        <time>2019-12-24T17:30:03Z</time>
      </trkpt>
      <trkpt lat="42.6134" lon="2.60224">
        <ele>308</ele>
        <time>2019-12-24T17:30:05Z</time>
      </trkpt>
      <trkpt lat="42.61365" lon="2.60227">
        <ele>309.2</ele>
        <time>2019-12-24T17:30:06Z</time>
      </trkpt>
      <trkpt lat="42.6139" lon="2.6023">
        <ele>310</ele>
        <time>2019-12-24T17:30:09Z</time>
      </trkpt>
      <trkpt lat="42.61402" lon="2.6023">
        <ele>310.1</ele>
        <time>2019-12-24T17:30:14Z</time>
      </trkpt>
      <trkpt lat="42.61435" lon="2.60221">
        <ele>313.7</ele>
        <time>2019-12-24T17:30:20Z</time>
      </trkpt>
      <trkpt lat="42.61455" lon="2.60217">
        <ele>314.5</ele>
        <time>2019-12-24T17:30:21Z</time>
      </trkpt>
      <trkpt lat="42.61483" lon="2.60214">
        <ele>314.8</ele>
        <time>2019-12-24T17:30:22Z</time>
      </trkpt>
      <trkpt lat="42.61509" lon="2.60217">
        <ele>313.2</ele>
        <time>2019-12-24T17:30:23Z</time>
      </trkpt>
      <trkpt lat="42.61539" lon="2.60225">
        <ele>312</ele>
        <time>2019-12-24T17:30:24Z</time>
      </trkpt>
      <trkpt lat="42.61569" lon="2.60234">
        <ele>308.7</ele>
        <time>2019-12-24T17:30:25Z</time>
      </trkpt>
      <trkpt lat="42.61593" lon="2.60238">
        <ele>303.7</ele>
        <time>2019-12-24T17:30:27Z</time>
      </trkpt>
      <trkpt lat="42.6161" lon="2.60237">
        <ele>304</ele>
        <time>2019-12-24T17:30:29Z</time>
      </trkpt>
      <trkpt lat="42.6163" lon="2.60231">
        <ele>303.6</ele>
        <time>2019-12-24T17:30:36Z</time>
      </trkpt>
      <trkpt lat="42.61641" lon="2.60219">
        <ele>303.4</ele>
        <time>2019-12-24T17:30:40Z</time>
      </trkpt>
      <trkpt lat="42.61646" lon="2.60209">
        <ele>303.3</ele>
        <time>2019-12-24T17:30:43Z</time>
      </trkpt>
      <trkpt lat="42.6165" lon="2.60196">
        <ele>302.9</ele>
        <time>2019-12-24T17:30:44Z</time>
      </trkpt>
      <trkpt lat="42.61652" lon="2.60174">
        <ele>301.3</ele>
        <time>2019-12-24T17:30:46Z</time>
      </trkpt>
      <trkpt lat="42.61649" lon="2.60141">
        <ele>307.3</ele>
        <time>2019-12-24T17:30:49Z</time>
      </trkpt>
      <trkpt lat="42.61644" lon="2.60094">
        <ele>307</ele>
        <time>2019-12-24T17:30:52Z</time>
      </trkpt>
      <trkpt lat="42.61644" lon="2.6005">
        <ele>314.9</ele>
        <time>2019-12-24T17:30:54Z</time>
      </trkpt>
      <trkpt lat="42.61651" lon="2.60018">
        <ele>311.6</ele>
        <time>2019-12-24T17:30:55Z</time>
      </trkpt>
      <trkpt lat="42.61661" lon="2.59997">
        <ele>303.5</ele>
        <time>2019-12-24T17:30:59Z</time>
      </trkpt>
      <trkpt lat="42.61675" lon="2.59985">
        <ele>295.3</ele>
        <time>2019-12-24T17:31:03Z</time>
      </trkpt>
      <trkpt lat="42.61684" lon="2.59984">
        <ele>295</ele>
        <time>2019-12-24T17:31:07Z</time>
      </trkpt>
      <trkpt lat="42.61702" lon="2.59989">
        <ele>294</ele>
        <time>2019-12-24T17:31:11Z</time>
      </trkpt>
      <trkpt lat="42.61727" lon="2.5999">
        <ele>292</ele>
        <time>2019-12-24T17:31:13Z</time>
      </trkpt>
      <trkpt lat="42.61733" lon="2.59985">
        <ele>291.7</ele>
        <time>2019-12-24T17:31:15Z</time>
      </trkpt>
      <trkpt lat="42.61737" lon="2.59979">
        <ele>291.8</ele>
        <time>2019-12-24T17:31:16Z</time>
      </trkpt>
      <trkpt lat="42.61738" lon="2.59976">
        <ele>291.9</ele>
        <time>2019-12-24T17:31:18Z</time>
      </trkpt>
      <trkpt lat="42.61738" lon="2.59972">
        <ele>292.2</ele>
        <time>2019-12-24T17:31:20Z</time>
      </trkpt>
      <trkpt lat="42.61735" lon="2.59964">
        <ele>292.7</ele>
        <time>2019-12-24T17:31:22Z</time>
      </trkpt>
      <trkpt lat="42.61724" lon="2.59955">
        <ele>293.5</ele>
        <time>2019-12-24T17:31:24Z</time>
      </trkpt>
      <trkpt lat="42.61692" lon="2.5993">
        <ele>296.5</ele>
        <time>2019-12-24T17:31:29Z</time>
      </trkpt>
      <trkpt lat="42.61678" lon="2.59907">
        <ele>298.1</ele>
        <time>2019-12-24T17:31:35Z</time>
      </trkpt>
      <trkpt lat="42.61665" lon="2.5987">
        <ele>319.5</ele>
        <time>2019-12-24T17:31:37Z</time>
      </trkpt>
      <trkpt lat="42.61659" lon="2.59849">
        <ele>313.9</ele>
        <time>2019-12-24T17:31:40Z</time>
      </trkpt>
      <trkpt lat="42.61657" lon="2.59823">
        <ele>317.1</ele>
        <time>2019-12-24T17:31:42Z</time>
      </trkpt>
      <trkpt lat="42.61659" lon="2.59807">
        <ele>327</ele>
        <time>2019-12-24T17:31:46Z</time>
      </trkpt>
      <trkpt lat="42.61664" lon="2.5979">
        <ele>332.3</ele>
        <time>2019-12-24T17:31:47Z</time>
      </trkpt>
      <trkpt lat="42.61676" lon="2.59774">
        <ele>309.3</ele>
        <time>2019-12-24T17:31:50Z</time>
      </trkpt>
      <trkpt lat="42.6169" lon="2.59763">
        <ele>309.1</ele>
        <time>2019-12-24T17:31:52Z</time>
      </trkpt>
      <trkpt lat="42.6171" lon="2.59758">
        <ele>304.7</ele>
        <time>2019-12-24T17:31:53Z</time>
      </trkpt>
      <trkpt lat="42.61737" lon="2.59758">
        <ele>301</ele>
        <time>2019-12-24T17:31:54Z</time>
      </trkpt>
      <trkpt lat="42.61777" lon="2.59766">
        <ele>293.5</ele>
        <time>2019-12-24T17:31:56Z</time>
      </trkpt>
      <trkpt lat="42.61806" lon="2.59773">
        <ele>292</ele>
        <time>2019-12-24T17:31:58Z</time>
      </trkpt>
      <trkpt lat="42.61822" lon="2.59775">
        <ele>291.9</ele>
        <time>2019-12-24T17:32:00Z</time>
      </trkpt>
      <trkpt lat="42.61849" lon="2.59773">
        <ele>290.9</ele>
        <time>2019-12-24T17:32:02Z</time>
      </trkpt>
      <trkpt lat="42.61864" lon="2.59765">
        <ele>290.3</ele>
        <time>2019-12-24T17:32:03Z</time>
      </trkpt>
      <trkpt lat="42.61883" lon="2.59745">
        <ele>293.7</ele>
        <time>2019-12-24T17:32:05Z</time>
      </trkpt>
      <trkpt lat="42.61894" lon="2.5972">
        <ele>294.9</ele>
        <time>2019-12-24T17:32:08Z</time>
      </trkpt>
      <trkpt lat="42.61902" lon="2.59701">
        <ele>296.4</ele>
        <time>2019-12-24T17:32:11Z</time>
      </trkpt>
      <trkpt lat="42.61913" lon="2.59683">
        <ele>296.1</ele>
        <time>2019-12-24T17:32:14Z</time>
      </trkpt>
      <trkpt lat="42.61957" lon="2.59649">
        <ele>292.5</ele>
        <time>2019-12-24T17:32:16Z</time>
      </trkpt>
      <trkpt lat="42.61986" lon="2.59629">
        <ele>290.7</ele>
        <time>2019-12-24T17:32:18Z</time>
      </trkpt>
      <trkpt lat="42.62007" lon="2.59611">
        <ele>285.9</ele>
        <time>2019-12-24T17:32:19Z</time>
      </trkpt>
      <trkpt lat="42.6203" lon="2.59595">
        <ele>286.5</ele>
        <time>2019-12-24T17:32:20Z</time>
      </trkpt>
      <trkpt lat="42.62041" lon="2.59582">
        <ele>286.2</ele>
        <time>2019-12-24T17:32:22Z</time>
      </trkpt>
      <trkpt lat="42.62044" lon="2.5957">
        <ele>286.1</ele>
        <time>2019-12-24T17:32:24Z</time>
      </trkpt>
      <trkpt lat="42.62042" lon="2.5956">
        <ele>286</ele>
        <time>2019-12-24T17:32:26Z</time>
      </trkpt>
      <trkpt lat="42.62037" lon="2.59551">
        <ele>285.9</ele>
        <time>2019-12-24T17:32:27Z</time>
      </trkpt>
      <trkpt lat="42.62016" lon="2.59522">
        <ele>285.3</ele>
        <time>2019-12-24T17:32:29Z</time>
      </trkpt>
      <trkpt lat="42.62003" lon="2.595">
        <ele>284.2</ele>
        <time>2019-12-24T17:32:31Z</time>
      </trkpt>
      <trkpt lat="42.61993" lon="2.59483">
        <ele>293.8</ele>
        <time>2019-12-24T17:32:33Z</time>
      </trkpt>
      <trkpt lat="42.61985" lon="2.59466">
        <ele>297.7</ele>
        <time>2019-12-24T17:32:36Z</time>
      </trkpt>
      <trkpt lat="42.61974" lon="2.59435">
        <ele>297.9</ele>
        <time>2019-12-24T17:32:38Z</time>
      </trkpt>
      <trkpt lat="42.6197" lon="2.59422">
        <ele>298.4</ele>
        <time>2019-12-24T17:32:41Z</time>
      </trkpt>
      <trkpt lat="42.61968" lon="2.5941">
        <ele>302.4</ele>
        <time>2019-12-24T17:32:43Z</time>
      </trkpt>
      <trkpt lat="42.61968" lon="2.59397">
        <ele>303.8</ele>
        <time>2019-12-24T17:32:45Z</time>
      </trkpt>
      <trkpt lat="42.61969" lon="2.59386">
        <ele>304.9</ele>
        <time>2019-12-24T17:32:48Z</time>
      </trkpt>
      <trkpt lat="42.61971" lon="2.59376">
        <ele>305.4</ele>
        <time>2019-12-24T17:32:50Z</time>
      </trkpt>
      <trkpt lat="42.61975" lon="2.59366">
        <ele>305</ele>
        <time>2019-12-24T17:32:52Z</time>
      </trkpt>
      <trkpt lat="42.61983" lon="2.59353">
        <ele>302.6</ele>
        <time>2019-12-24T17:32:55Z</time>
      </trkpt>
      <trkpt lat="42.61999" lon="2.59343">
        <ele>296.4</ele>
        <time>2019-12-24T17:32:57Z</time>
      </trkpt>
      <trkpt lat="42.62012" lon="2.59336">
        <ele>285.9</ele>
        <time>2019-12-24T17:32:59Z</time>
      </trkpt>
      <trkpt lat="42.6203" lon="2.59323">
        <ele>292.1</ele>
        <time>2019-12-24T17:33:01Z</time>
      </trkpt>
      <trkpt lat="42.6206" lon="2.5931">
        <ele>289.6</ele>
        <time>2019-12-24T17:33:03Z</time>
      </trkpt>
      <trkpt lat="42.62086" lon="2.59292">
        <ele>287.3</ele>
        <time>2019-12-24T17:33:07Z</time>
      </trkpt>
      <trkpt lat="42.62095" lon="2.59291">
        <ele>287.5</ele>
        <time>2019-12-24T17:33:12Z</time>
      </trkpt>
      <trkpt lat="42.62101" lon="2.59293">
        <ele>287</ele>
        <time>2019-12-24T17:33:19Z</time>
      </trkpt>
      <trkpt lat="42.62105" lon="2.59299">
        <ele>285.8</ele>
        <time>2019-12-24T17:33:23Z</time>
      </trkpt>
      <trkpt lat="42.62112" lon="2.5932">
        <ele>282.5</ele>
        <time>2019-12-24T17:33:26Z</time>
      </trkpt>
      <trkpt lat="42.62117" lon="2.59328">
        <ele>282</ele>
        <time>2019-12-24T17:33:29Z</time>
      </trkpt>
      <trkpt lat="42.62128" lon="2.59336">
        <ele>274.1</ele>
        <time>2019-12-24T17:33:32Z</time>
      </trkpt>
      <trkpt lat="42.6215" lon="2.59339">
        <ele>273.9</ele>
        <time>2019-12-24T17:33:34Z</time>
      </trkpt>
      <trkpt lat="42.62169" lon="2.59337">
        <ele>274</ele>
        <time>2019-12-24T17:33:38Z</time>
      </trkpt>
      <trkpt lat="42.62187" lon="2.59334">
        <ele>276</ele>
        <time>2019-12-24T17:33:45Z</time>
      </trkpt>
      <trkpt lat="42.62199" lon="2.59334">
        <ele>276.5</ele>
        <time>2019-12-24T17:33:48Z</time>
      </trkpt>
      <trkpt lat="42.62217" lon="2.59329">
        <ele>273.3</ele>
        <time>2019-12-24T17:33:48Z</time>
      </trkpt>
      <trkpt lat="42.62233" lon="2.59315">
        <ele>272.3</ele>
        <time>2019-12-24T17:33:49Z</time>
      </trkpt>
      <trkpt lat="42.6224" lon="2.59302">
        <ele>272.7</ele>
        <time>2019-12-24T17:33:53Z</time>
      </trkpt>
      <trkpt lat="42.62244" lon="2.59288">
        <ele>272.8</ele>
        <time>2019-12-24T17:33:58Z</time>
      </trkpt>
      <trkpt lat="42.62247" lon="2.59268">
        <ele>270.9</ele>
        <time>2019-12-24T17:34:01Z</time>
      </trkpt>
      <trkpt lat="42.62252" lon="2.59257">
        <ele>268.9</ele>
        <time>2019-12-24T17:34:06Z</time>
      </trkpt>
      <trkpt lat="42.62257" lon="2.59253">
        <ele>269.1</ele>
        <time>2019-12-24T17:34:10Z</time>
      </trkpt>
      <trkpt lat="42.62263" lon="2.59253">
        <ele>271.5</ele>
        <time>2019-12-24T17:34:13Z</time>
      </trkpt>
      <trkpt lat="42.62273" lon="2.59255">
        <ele>274.8</ele>
        <time>2019-12-24T17:34:14Z</time>
      </trkpt>
      <trkpt lat="42.6228" lon="2.59256">
        <ele>276.7</ele>
        <time>2019-12-24T17:34:15Z</time>
      </trkpt>
      <trkpt lat="42.62287" lon="2.59254">
        <ele>278.2</ele>
        <time>2019-12-24T17:34:17Z</time>
      </trkpt>
      <trkpt lat="42.62292" lon="2.59248">
        <ele>273.3</ele>
        <time>2019-12-24T17:34:19Z</time>
      </trkpt>
      <trkpt lat="42.62298" lon="2.59225">
        <ele>273.5</ele>
        <time>2019-12-24T17:34:22Z</time>
      </trkpt>
      <trkpt lat="42.62301" lon="2.59194">
        <ele>272.1</ele>
        <time>2019-12-24T17:34:24Z</time>
      </trkpt>
      <trkpt lat="42.6231" lon="2.59163">
        <ele>269.4</ele>
        <time>2019-12-24T17:34:26Z</time>
      </trkpt>
      <trkpt lat="42.62326" lon="2.59126">
        <ele>267.7</ele>
        <time>2019-12-24T17:34:29Z</time>
      </trkpt>
      <trkpt lat="42.62344" lon="2.59105">
        <ele>264.7</ele>
        <time>2019-12-24T17:34:32Z</time>
      </trkpt>
      <trkpt lat="42.62376" lon="2.59084">
        <ele>265.8</ele>
        <time>2019-12-24T17:34:35Z</time>
      </trkpt>
      <trkpt lat="42.62386" lon="2.59082">
        <ele>264.8</ele>
        <time>2019-12-24T17:34:39Z</time>
      </trkpt>
      <trkpt lat="42.62396" lon="2.59082">
        <ele>264.7</ele>
        <time>2019-12-24T17:34:43Z</time>
      </trkpt>
      <trkpt lat="42.62406" lon="2.59087">
        <ele>265.2</ele>
        <time>2019-12-24T17:34:46Z</time>
      </trkpt>
      <trkpt lat="42.62425" lon="2.5911">
        <ele>267.9</ele>
        <time>2019-12-24T17:34:49Z</time>
      </trkpt>
      <trkpt lat="42.62457" lon="2.59142">
        <ele>269.4</ele>
        <time>2019-12-24T17:34:52Z</time>
      </trkpt>
      <trkpt lat="42.62487" lon="2.59164">
        <ele>265.1</ele>
        <time>2019-12-24T17:34:53Z</time>
      </trkpt>
      <trkpt lat="42.62504" lon="2.59172">
        <ele>265.1</ele>
        <time>2019-12-24T17:34:55Z</time>
      </trkpt>
      <trkpt lat="42.62526" lon="2.59175">
        <ele>269.5</ele>
        <time>2019-12-24T17:34:57Z</time>
      </trkpt>
      <trkpt lat="42.62536" lon="2.59173">
        <ele>269.5</ele>
        <time>2019-12-24T17:34:58Z</time>
      </trkpt>
      <trkpt lat="42.62553" lon="2.59159">
        <ele>261.1</ele>
        <time>2019-12-24T17:34:59Z</time>
      </trkpt>
      <trkpt lat="42.62571" lon="2.59143">
        <ele>261.2</ele>
        <time>2019-12-24T17:35:02Z</time>
      </trkpt>
      <trkpt lat="42.62579" lon="2.59143">
        <ele>261</ele>
        <time>2019-12-24T17:35:06Z</time>
      </trkpt>
      <trkpt lat="42.62585" lon="2.59145">
        <ele>264.6</ele>
        <time>2019-12-24T17:35:14Z</time>
      </trkpt>
      <trkpt lat="42.62591" lon="2.5915">
        <ele>264</ele>
        <time>2019-12-24T17:35:17Z</time>
      </trkpt>
      <trkpt lat="42.62597" lon="2.59159">
        <ele>263.2</ele>
        <time>2019-12-24T17:35:21Z</time>
      </trkpt>
      <trkpt lat="42.62609" lon="2.59185">
        <ele>263</ele>
        <time>2019-12-24T17:35:23Z</time>
      </trkpt>
      <trkpt lat="42.62616" lon="2.592">
        <ele>264</ele>
        <time>2019-12-24T17:35:27Z</time>
      </trkpt>
      <trkpt lat="42.62627" lon="2.59209">
        <ele>263.9</ele>
        <time>2019-12-24T17:35:32Z</time>
      </trkpt>
      <trkpt lat="42.62637" lon="2.5921">
        <ele>263.4</ele>
        <time>2019-12-24T17:35:35Z</time>
      </trkpt>
      <trkpt lat="42.62657" lon="2.59214">
        <ele>262.2</ele>
        <time>2019-12-24T17:35:38Z</time>
      </trkpt>
      <trkpt lat="42.62669" lon="2.59224">
        <ele>258.2</ele>
        <time>2019-12-24T17:35:41Z</time>
      </trkpt>
      <trkpt lat="42.62682" lon="2.59246">
        <ele>255.9</ele>
        <time>2019-12-24T17:35:45Z</time>
      </trkpt>
      <trkpt lat="42.627" lon="2.59277">
        <ele>251.9</ele>
        <time>2019-12-24T17:35:48Z</time>
      </trkpt>
      <trkpt lat="42.62714" lon="2.59299">
        <ele>251</ele>
        <time>2019-12-24T17:35:51Z</time>
      </trkpt>
      <trkpt lat="42.62722" lon="2.59307">
        <ele>250</ele>
        <time>2019-12-24T17:35:56Z</time>
      </trkpt>
      <trkpt lat="42.62741" lon="2.59311">
        <ele>247.9</ele>
        <time>2019-12-24T17:36:00Z</time>
      </trkpt>
      <trkpt lat="42.6275" lon="2.59307">
        <ele>248.1</ele>
        <time>2019-12-24T17:36:05Z</time>
      </trkpt>
      <trkpt lat="42.6276" lon="2.59298">
        <ele>245.8</ele>
        <time>2019-12-24T17:36:14Z</time>
      </trkpt>
      <trkpt lat="42.62768" lon="2.59282">
        <ele>246.9</ele>
        <time>2019-12-24T17:36:22Z</time>
      </trkpt>
      <trkpt lat="42.62772" lon="2.5926">
        <ele>248.1</ele>
        <time>2019-12-24T17:36:25Z</time>
      </trkpt>
      <trkpt lat="42.62777" lon="2.59218">
        <ele>249.9</ele>
        <time>2019-12-24T17:36:28Z</time>
      </trkpt>
      <trkpt lat="42.62784" lon="2.59184">
        <ele>250.9</ele>
        <time>2019-12-24T17:36:31Z</time>
      </trkpt>
      <trkpt lat="42.62785" lon="2.59147">
        <ele>254.3</ele>
        <time>2019-12-24T17:36:37Z</time>
      </trkpt>
      <trkpt lat="42.62783" lon="2.59119">
        <ele>254.9</ele>
        <time>2019-12-24T17:36:44Z</time>
      </trkpt>
      <trkpt lat="42.62777" lon="2.5908">
        <ele>260.2</ele>
        <time>2019-12-24T17:36:52Z</time>
      </trkpt>
      <trkpt lat="42.62773" lon="2.59062">
        <ele>260.3</ele>
        <time>2019-12-24T17:36:56Z</time>
      </trkpt>
      <trkpt lat="42.62767" lon="2.59026">
        <ele>260.3</ele>
        <time>2019-12-24T17:37:00Z</time>
      </trkpt>
      <trkpt lat="42.62761" lon="2.59003">
        <ele>261.5</ele>
        <time>2019-12-24T17:37:03Z</time>
      </trkpt>
      <trkpt lat="42.62751" lon="2.58978">
        <ele>263.6</ele>
        <time>2019-12-24T17:37:05Z</time>
      </trkpt>
      <trkpt lat="42.62743" lon="2.58956">
        <ele>273.1</ele>
        <time>2019-12-24T17:37:07Z</time>
      </trkpt>
      <trkpt lat="42.62737" lon="2.58935">
        <ele>272.2</ele>
        <time>2019-12-24T17:37:16Z</time>
      </trkpt>
      <trkpt lat="42.62734" lon="2.58915">
        <ele>272.8</ele>
        <time>2019-12-24T17:37:18Z</time>
      </trkpt>
      <trkpt lat="42.62734" lon="2.5891">
        <ele>273.3</ele>
        <time>2019-12-24T17:37:20Z</time>
      </trkpt>
      <trkpt lat="42.62739" lon="2.58898">
        <ele>274.6</ele>
        <time>2019-12-24T17:37:22Z</time>
      </trkpt>
      <trkpt lat="42.62748" lon="2.58895">
        <ele>274.3</ele>
        <time>2019-12-24T17:37:25Z</time>
      </trkpt>
      <trkpt lat="42.62758" lon="2.58895">
        <ele>269.6</ele>
        <time>2019-12-24T17:37:26Z</time>
      </trkpt>
      <trkpt lat="42.62767" lon="2.58903">
        <ele>269.3</ele>
        <time>2019-12-24T17:37:31Z</time>
      </trkpt>
      <trkpt lat="42.62773" lon="2.58914">
        <ele>269.2</ele>
        <time>2019-12-24T17:37:34Z</time>
      </trkpt>
      <trkpt lat="42.62781" lon="2.58934">
        <ele>264.9</ele>
        <time>2019-12-24T17:37:44Z</time>
      </trkpt>
      <trkpt lat="42.62799" lon="2.58962">
        <ele>264.1</ele>
        <time>2019-12-24T17:37:50Z</time>
      </trkpt>
      <trkpt lat="42.62826" lon="2.58982">
        <ele>262.1</ele>
        <time>2019-12-24T17:37:54Z</time>
      </trkpt>
      <trkpt lat="42.62834" lon="2.58986">
        <ele>256.9</ele>
        <time>2019-12-24T17:38:02Z</time>
      </trkpt>
      <trkpt lat="42.6284" lon="2.58987">
        <ele>256.6</ele>
        <time>2019-12-24T17:38:08Z</time>
      </trkpt>
      <trkpt lat="42.62844" lon="2.58987">
        <ele>256.2</ele>
        <time>2019-12-24T17:38:11Z</time>
      </trkpt>
      <trkpt lat="42.62848" lon="2.58986">
        <ele>255.7</ele>
        <time>2019-12-24T17:38:13Z</time>
      </trkpt>
      <trkpt lat="42.62853" lon="2.5898">
        <ele>254.9</ele>
        <time>2019-12-24T17:38:25Z</time>
      </trkpt>
      <trkpt lat="42.62855" lon="2.5897">
        <ele>254.8</ele>
        <time>2019-12-24T17:38:30Z</time>
      </trkpt>
      <trkpt lat="42.62854" lon="2.58949">
        <ele>256.1</ele>
        <time>2019-12-24T17:38:34Z</time>
      </trkpt>
      <trkpt lat="42.62849" lon="2.58899">
        <ele>260.9</ele>
        <time>2019-12-24T17:38:35Z</time>
      </trkpt>
      <trkpt lat="42.62842" lon="2.5887">
        <ele>260.8</ele>
        <time>2019-12-24T17:38:36Z</time>
      </trkpt>
      <trkpt lat="42.62836" lon="2.58852">
        <ele>264.5</ele>
        <time>2019-12-24T17:38:37Z</time>
      </trkpt>
      <trkpt lat="42.62835" lon="2.58839">
        <ele>269.9</ele>
        <time>2019-12-24T17:38:37Z</time>
      </trkpt>
      <trkpt lat="42.62837" lon="2.58826">
        <ele>272.6</ele>
        <time>2019-12-24T17:38:39Z</time>
      </trkpt>
      <trkpt lat="42.62842" lon="2.58806">
        <ele>272.2</ele>
        <time>2019-12-24T17:38:40Z</time>
      </trkpt>
      <trkpt lat="42.62845" lon="2.58784">
        <ele>275.5</ele>
        <time>2019-12-24T17:38:41Z</time>
      </trkpt>
      <trkpt lat="42.62846" lon="2.5877">
        <ele>279.4</ele>
        <time>2019-12-24T17:38:44Z</time>
      </trkpt>
      <trkpt lat="42.62848" lon="2.58756">
        <ele>283.1</ele>
        <time>2019-12-24T17:38:45Z</time>
      </trkpt>
      <trkpt lat="42.62862" lon="2.58734">
        <ele>296.8</ele>
        <time>2019-12-24T17:38:47Z</time>
      </trkpt>
      <trkpt lat="42.62879" lon="2.58717">
        <ele>297.2</ele>
        <time>2019-12-24T17:38:48Z</time>
      </trkpt>
      <trkpt lat="42.629" lon="2.58713">
        <ele>295.2</ele>
        <time>2019-12-24T17:38:51Z</time>
      </trkpt>
      <trkpt lat="42.62921" lon="2.58717">
        <ele>280.6</ele>
        <time>2019-12-24T17:38:53Z</time>
      </trkpt>
      <trkpt lat="42.62936" lon="2.58723">
        <ele>278.6</ele>
        <time>2019-12-24T17:38:54Z</time>
      </trkpt>
      <trkpt lat="42.62944" lon="2.58726">
        <ele>277.7</ele>
        <time>2019-12-24T17:38:56Z</time>
      </trkpt>
      <trkpt lat="42.62952" lon="2.58725">
        <ele>277.3</ele>
        <time>2019-12-24T17:38:57Z</time>
      </trkpt>
      <trkpt lat="42.62958" lon="2.5872">
        <ele>277.6</ele>
        <time>2019-12-24T17:38:58Z</time>
      </trkpt>
      <trkpt lat="42.62963" lon="2.58703">
        <ele>281</ele>
        <time>2019-12-24T17:39:00Z</time>
      </trkpt>
      <trkpt lat="42.62969" lon="2.58686">
        <ele>284.3</ele>
        <time>2019-12-24T17:39:02Z</time>
      </trkpt>
      <trkpt lat="42.62977" lon="2.58677">
        <ele>285.9</ele>
        <time>2019-12-24T17:39:04Z</time>
      </trkpt>
      <trkpt lat="42.63004" lon="2.58663">
        <ele>294.7</ele>
        <time>2019-12-24T17:39:08Z</time>
      </trkpt>
      <trkpt lat="42.63035" lon="2.58646">
        <ele>298.2</ele>
        <time>2019-12-24T17:39:12Z</time>
      </trkpt>
      <trkpt lat="42.63045" lon="2.58646">
        <ele>297</ele>
        <time>2019-12-24T17:39:13Z</time>
      </trkpt>
      <trkpt lat="42.63061" lon="2.58655">
        <ele>292.5</ele>
        <time>2019-12-24T17:39:14Z</time>
      </trkpt>
      <trkpt lat="42.63072" lon="2.58657">
        <ele>288.6</ele>
        <time>2019-12-24T17:39:14Z</time>
      </trkpt>
      <trkpt lat="42.63092" lon="2.58654">
        <ele>280.2</ele>
        <time>2019-12-24T17:39:18Z</time>
      </trkpt>
      <trkpt lat="42.631" lon="2.58657">
        <ele>279.8</ele>
        <time>2019-12-24T17:39:20Z</time>
      </trkpt>
      <trkpt lat="42.63111" lon="2.58665">
        <ele>278.6</ele>
        <time>2019-12-24T17:39:21Z</time>
      </trkpt>
      <trkpt lat="42.63122" lon="2.58667">
        <ele>258.6</ele>
        <time>2019-12-24T17:39:22Z</time>
      </trkpt>
      <trkpt lat="42.63127" lon="2.58664">
        <ele>276.3</ele>
        <time>2019-12-24T17:39:24Z</time>
      </trkpt>
      <trkpt lat="42.63132" lon="2.58655">
        <ele>276.1</ele>
        <time>2019-12-24T17:39:25Z</time>
      </trkpt>
      <trkpt lat="42.63134" lon="2.58644">
        <ele>277.2</ele>
        <time>2019-12-24T17:39:26Z</time>
      </trkpt>
      <trkpt lat="42.63134" lon="2.58625">
        <ele>280.2</ele>
        <time>2019-12-24T17:39:29Z</time>
      </trkpt>
      <trkpt lat="42.63133" lon="2.58609">
        <ele>282.6</ele>
        <time>2019-12-24T17:39:30Z</time>
      </trkpt>
      <trkpt lat="42.63135" lon="2.586">
        <ele>283.3</ele>
        <time>2019-12-24T17:39:31Z</time>
      </trkpt>
      <trkpt lat="42.63141" lon="2.58592">
        <ele>283.4</ele>
        <time>2019-12-24T17:39:33Z</time>
      </trkpt>
      <trkpt lat="42.6315" lon="2.58587">
        <ele>283.3</ele>
        <time>2019-12-24T17:39:38Z</time>
      </trkpt>
      <trkpt lat="42.63168" lon="2.58573">
        <ele>284.8</ele>
        <time>2019-12-24T17:39:39Z</time>
      </trkpt>
      <trkpt lat="42.63177" lon="2.58563">
        <ele>285.6</ele>
        <time>2019-12-24T17:39:39Z</time>
      </trkpt>
      <trkpt lat="42.63189" lon="2.58546">
        <ele>287</ele>
        <time>2019-12-24T17:39:41Z</time>
      </trkpt>
      <trkpt lat="42.63197" lon="2.58534">
        <ele>288</ele>
        <time>2019-12-24T17:39:44Z</time>
      </trkpt>
      <trkpt lat="42.63206" lon="2.58526">
        <ele>288.6</ele>
        <time>2019-12-24T17:39:46Z</time>
      </trkpt>
      <trkpt lat="42.63211" lon="2.58523">
        <ele>288.8</ele>
        <time>2019-12-24T17:39:47Z</time>
      </trkpt>
      <trkpt lat="42.6322" lon="2.58524">
        <ele>288.6</ele>
        <time>2019-12-24T17:39:49Z</time>
      </trkpt>
      <trkpt lat="42.63227" lon="2.5853">
        <ele>287.7</ele>
        <time>2019-12-24T17:39:54Z</time>
      </trkpt>
      <trkpt lat="42.63236" lon="2.58544">
        <ele>284.6</ele>
        <time>2019-12-24T17:39:54Z</time>
      </trkpt>
      <trkpt lat="42.63243" lon="2.58552">
        <ele>282.2</ele>
        <time>2019-12-24T17:39:57Z</time>
      </trkpt>
      <trkpt lat="42.63251" lon="2.58557">
        <ele>280.6</ele>
        <time>2019-12-24T17:39:59Z</time>
      </trkpt>
      <trkpt lat="42.6326" lon="2.58558">
        <ele>280.8</ele>
        <time>2019-12-24T17:40:05Z</time>
      </trkpt>
      <trkpt lat="42.63273" lon="2.58558">
        <ele>282.3</ele>
        <time>2019-12-24T17:40:12Z</time>
      </trkpt>
      <trkpt lat="42.63282" lon="2.58563">
        <ele>282.3</ele>
        <time>2019-12-24T17:40:14Z</time>
      </trkpt>
      <trkpt lat="42.63296" lon="2.58578">
        <ele>281.3</ele>
        <time>2019-12-24T17:40:15Z</time>
      </trkpt>
      <trkpt lat="42.63304" lon="2.58583">
        <ele>280.8</ele>
        <time>2019-12-24T17:40:18Z</time>
      </trkpt>
      <trkpt lat="42.63319" lon="2.58585">
        <ele>264.5</ele>
        <time>2019-12-24T17:40:19Z</time>
      </trkpt>
      <trkpt lat="42.6333" lon="2.58588">
        <ele>268.7</ele>
        <time>2019-12-24T17:40:21Z</time>
      </trkpt>
      <trkpt lat="42.6334" lon="2.58596">
        <ele>264</ele>
        <time>2019-12-24T17:40:22Z</time>
      </trkpt>
      <trkpt lat="42.63354" lon="2.58609">
        <ele>257.6</ele>
        <time>2019-12-24T17:40:29Z</time>
      </trkpt>
      <trkpt lat="42.63364" lon="2.58617">
        <ele>255</ele>
        <time>2019-12-24T17:40:40Z</time>
      </trkpt>
      <trkpt lat="42.63375" lon="2.58623">
        <ele>253.4</ele>
        <time>2019-12-24T17:40:46Z</time>
      </trkpt>
      <trkpt lat="42.63392" lon="2.5863">
        <ele>251.6</ele>
        <time>2019-12-24T17:40:48Z</time>
      </trkpt>
      <trkpt lat="42.63403" lon="2.58631">
        <ele>251.1</ele>
        <time>2019-12-24T17:40:52Z</time>
      </trkpt>
      <trkpt lat="42.63414" lon="2.5863">
        <ele>251.2</ele>
        <time>2019-12-24T17:40:59Z</time>
      </trkpt>
      <trkpt lat="42.63424" lon="2.58625">
        <ele>242.5</ele>
        <time>2019-12-24T17:41:03Z</time>
      </trkpt>
      <trkpt lat="42.63434" lon="2.58617">
        <ele>243.3</ele>
        <time>2019-12-24T17:41:14Z</time>
      </trkpt>
      <trkpt lat="42.63447" lon="2.58595">
        <ele>244.6</ele>
        <time>2019-12-24T17:41:30Z</time>
      </trkpt>
      <trkpt lat="42.63463" lon="2.58557">
        <ele>260.9</ele>
        <time>2019-12-24T17:41:42Z</time>
      </trkpt>
      <trkpt lat="42.63484" lon="2.5851">
        <ele>263.2</ele>
        <time>2019-12-24T17:41:50Z</time>
      </trkpt>
      <trkpt lat="42.63499" lon="2.58489">
        <ele>273.6</ele>
        <time>2019-12-24T17:42:03Z</time>
      </trkpt>
      <trkpt lat="42.63512" lon="2.58478">
        <ele>269.5</ele>
        <time>2019-12-24T17:42:13Z</time>
      </trkpt>
      <trkpt lat="42.63526" lon="2.58468">
        <ele>272.6</ele>
        <time>2019-12-24T17:42:19Z</time>
      </trkpt>
      <trkpt lat="42.63545" lon="2.58467">
        <ele>271.7</ele>
        <time>2019-12-24T17:42:33Z</time>
      </trkpt>
      <trkpt lat="42.63555" lon="2.5847">
        <ele>269.9</ele>
        <time>2019-12-24T17:42:42Z</time>
      </trkpt>
      <trkpt lat="42.63573" lon="2.58482">
        <ele>262.3</ele>
        <time>2019-12-24T17:42:50Z</time>
      </trkpt>
      <trkpt lat="42.63611" lon="2.58511">
        <ele>233.3</ele>
        <time>2019-12-24T17:42:58Z</time>
      </trkpt>
      <trkpt lat="42.63622" lon="2.58516">
        <ele>231</ele>
        <time>2019-12-24T17:43:08Z</time>
      </trkpt>
      <trkpt lat="42.63625" lon="2.58516">
        <ele>230.7</ele>
        <time>2019-12-24T17:43:16Z</time>
      </trkpt>
      <trkpt lat="42.63631" lon="2.58511">
        <ele>230.3</ele>
        <time>2019-12-24T17:43:27Z</time>
      </trkpt>
      <trkpt lat="42.63644" lon="2.5849">
        <ele>245.9</ele>
        <time>2019-12-24T17:43:39Z</time>
      </trkpt>
      <trkpt lat="42.63661" lon="2.5846">
        <ele>252.4</ele>
        <time>2019-12-24T17:43:58Z</time>
      </trkpt>
      <trkpt lat="42.63672" lon="2.58446">
        <ele>240.2</ele>
        <time>2019-12-24T17:44:05Z</time>
      </trkpt>
      <trkpt lat="42.637" lon="2.58428">
        <ele>236.6</ele>
        <time>2019-12-24T17:44:12Z</time>
      </trkpt>
      <trkpt lat="42.63719" lon="2.58419">
        <ele>229.9</ele>
        <time>2019-12-24T17:44:41Z</time>
      </trkpt>
      <trkpt lat="42.63737" lon="2.58408">
        <ele>228.9</ele>
        <time>2019-12-24T17:44:48Z</time>
      </trkpt>
      <trkpt lat="42.63742" lon="2.58403">
        <ele>228.6</ele>
        <time>2019-12-24T17:44:52Z</time>
      </trkpt>
      <trkpt lat="42.63744" lon="2.58397">
        <ele>230.8</ele>
        <time>2019-12-24T17:44:57Z</time>
      </trkpt>
      <trkpt lat="42.63748" lon="2.58385">
        <ele>234.1</ele>
        <time>2019-12-24T17:45:00Z</time>
      </trkpt>
      <trkpt lat="42.6375" lon="2.58368">
        <ele>217.9</ele>
        <time>2019-12-24T17:45:06Z</time>
      </trkpt>
      <trkpt lat="42.6375" lon="2.58349">
        <ele>221.6</ele>
        <time>2019-12-24T17:45:11Z</time>
      </trkpt>
      <trkpt lat="42.6375" lon="2.5833">
        <ele>227</ele>
        <time>2019-12-24T17:45:14Z</time>
      </trkpt>
      <trkpt lat="42.63752" lon="2.58313">
        <ele>224</ele>
        <time>2019-12-24T17:45:43Z</time>
      </trkpt>
      <trkpt lat="42.63756" lon="2.58292">
        <ele>223.2</ele>
        <time>2019-12-24T17:45:46Z</time>
      </trkpt>
      <trkpt lat="42.63758" lon="2.58274">
        <ele>224.2</ele>
        <time>2019-12-24T17:45:49Z</time>
      </trkpt>
      <trkpt lat="42.63759" lon="2.58247">
        <ele>230</ele>
        <time>2019-12-24T17:45:52Z</time>
      </trkpt>
      <trkpt lat="42.63761" lon="2.58216">
        <ele>231.2</ele>
        <time>2019-12-24T17:45:55Z</time>
      </trkpt>
      <trkpt lat="42.63764" lon="2.58185">
        <ele>233.2</ele>
        <time>2019-12-24T17:46:04Z</time>
      </trkpt>
      <trkpt lat="42.63763" lon="2.58168">
        <ele>234</ele>
        <time>2019-12-24T17:46:10Z</time>
      </trkpt>
      <trkpt lat="42.63755" lon="2.58144">
        <ele>241</ele>
        <time>2019-12-24T17:46:14Z</time>
      </trkpt>
      <trkpt lat="42.63751" lon="2.58125">
        <ele>242.6</ele>
        <time>2019-12-24T17:46:17Z</time>
      </trkpt>
      <trkpt lat="42.63756" lon="2.58114">
        <ele>243.1</ele>
        <time>2019-12-24T17:46:21Z</time>
      </trkpt>
      <trkpt lat="42.63764" lon="2.58112">
        <ele>243.7</ele>
        <time>2019-12-24T17:46:23Z</time>
      </trkpt>
      <trkpt lat="42.63773" lon="2.58111">
        <ele>244.6</ele>
        <time>2019-12-24T17:46:26Z</time>
      </trkpt>
      <trkpt lat="42.6378" lon="2.58113">
        <ele>245.4</ele>
        <time>2019-12-24T17:46:30Z</time>
      </trkpt>
      <trkpt lat="42.63786" lon="2.5812">
        <ele>245.7</ele>
        <time>2019-12-24T17:46:34Z</time>
      </trkpt>
      <trkpt lat="42.63794" lon="2.58135">
        <ele>245.4</ele>
        <time>2019-12-24T17:46:41Z</time>
      </trkpt>
      <trkpt lat="42.63809" lon="2.58161">
        <ele>244.8</ele>
        <time>2019-12-24T17:46:56Z</time>
      </trkpt>
      <trkpt lat="42.63834" lon="2.58211">
        <ele>233.3</ele>
        <time>2019-12-24T17:47:14Z</time>
      </trkpt>
      <trkpt lat="42.63844" lon="2.58228">
        <ele>228.8</ele>
        <time>2019-12-24T17:47:18Z</time>
      </trkpt>
      <trkpt lat="42.63867" lon="2.58244">
        <ele>229.4</ele>
        <time>2019-12-24T17:47:21Z</time>
      </trkpt>
      <trkpt lat="42.63877" lon="2.58245">
        <ele>230.2</ele>
        <time>2019-12-24T17:47:25Z</time>
      </trkpt>
      <trkpt lat="42.63897" lon="2.58243">
        <ele>229.2</ele>
        <time>2019-12-24T17:47:28Z</time>
      </trkpt>
      <trkpt lat="42.63928" lon="2.5824">
        <ele>235.1</ele>
        <time>2019-12-24T17:47:35Z</time>
      </trkpt>
      <trkpt lat="42.63941" lon="2.58242">
        <ele>240.3</ele>
        <time>2019-12-24T17:47:41Z</time>
      </trkpt>
      <trkpt lat="42.6396" lon="2.58248">
        <ele>244.7</ele>
        <time>2019-12-24T17:47:44Z</time>
      </trkpt>
      <trkpt lat="42.63977" lon="2.58257">
        <ele>229.5</ele>
        <time>2019-12-24T17:47:45Z</time>
      </trkpt>
      <trkpt lat="42.63992" lon="2.58272">
        <ele>229.5</ele>
        <time>2019-12-24T17:47:47Z</time>
      </trkpt>
      <trkpt lat="42.64004" lon="2.58291">
        <ele>238.9</ele>
        <time>2019-12-24T17:47:50Z</time>
      </trkpt>
      <trkpt lat="42.64016" lon="2.58312">
        <ele>234.7</ele>
        <time>2019-12-24T17:48:00Z</time>
      </trkpt>
      <trkpt lat="42.64033" lon="2.5834">
        <ele>225.7</ele>
        <time>2019-12-24T17:48:05Z</time>
      </trkpt>
      <trkpt lat="42.64042" lon="2.58365">
        <ele>226.6</ele>
        <time>2019-12-24T17:48:08Z</time>
      </trkpt>
      <trkpt lat="42.64047" lon="2.58407">
        <ele>225</ele>
        <time>2019-12-24T17:48:14Z</time>
      </trkpt>
      <trkpt lat="42.64065" lon="2.58467">
        <ele>218.6</ele>
        <time>2019-12-24T17:48:22Z</time>
      </trkpt>
      <trkpt lat="42.64087" lon="2.58517">
        <ele>228.4</ele>
        <time>2019-12-24T17:48:27Z</time>
      </trkpt>
      <trkpt lat="42.64095" lon="2.58542">
        <ele>230.1</ele>
        <time>2019-12-24T17:48:31Z</time>
      </trkpt>
      <trkpt lat="42.64098" lon="2.58563">
        <ele>227.7</ele>
        <time>2019-12-24T17:48:38Z</time>
      </trkpt>
      <trkpt lat="42.64098" lon="2.5859">
        <ele>223.1</ele>
        <time>2019-12-24T17:48:43Z</time>
      </trkpt>
      <trkpt lat="42.64093" lon="2.58632">
        <ele>225.7</ele>
        <time>2019-12-24T17:48:44Z</time>
      </trkpt>
      <trkpt lat="42.64097" lon="2.58686">
        <ele>221.1</ele>
        <time>2019-12-24T17:48:45Z</time>
      </trkpt>
      <trkpt lat="42.64112" lon="2.58744">
        <ele>220.5</ele>
        <time>2019-12-24T17:48:47Z</time>
      </trkpt>
      <trkpt lat="42.64119" lon="2.58775">
        <ele>214.7</ele>
        <time>2019-12-24T17:48:49Z</time>
      </trkpt>
      <trkpt lat="42.64119" lon="2.588">
        <ele>213.1</ele>
        <time>2019-12-24T17:48:54Z</time>
      </trkpt>
      <trkpt lat="42.64119" lon="2.58824">
        <ele>211.4</ele>
        <time>2019-12-24T17:48:59Z</time>
      </trkpt>
      <trkpt lat="42.64125" lon="2.58836">
        <ele>206.1</ele>
        <time>2019-12-24T17:49:02Z</time>
      </trkpt>
      <trkpt lat="42.64136" lon="2.58844">
        <ele>207.5</ele>
        <time>2019-12-24T17:49:05Z</time>
      </trkpt>
      <trkpt lat="42.64181" lon="2.58872">
        <ele>208.6</ele>
        <time>2019-12-24T17:49:08Z</time>
      </trkpt>
      <trkpt lat="42.64194" lon="2.58877">
        <ele>207.7</ele>
        <time>2019-12-24T17:49:11Z</time>
      </trkpt>
      <trkpt lat="42.64204" lon="2.58876">
        <ele>207.4</ele>
        <time>2019-12-24T17:49:16Z</time>
      </trkpt>
      <trkpt lat="42.64214" lon="2.58871">
        <ele>207.3</ele>
        <time>2019-12-24T17:49:21Z</time>
      </trkpt>
      <trkpt lat="42.64224" lon="2.58857">
        <ele>207.9</ele>
        <time>2019-12-24T17:49:28Z</time>
      </trkpt>
      <trkpt lat="42.64228" lon="2.58843">
        <ele>208.6</ele>
        <time>2019-12-24T17:49:32Z</time>
      </trkpt>
      <trkpt lat="42.64234" lon="2.58808">
        <ele>219.9</ele>
        <time>2019-12-24T17:49:42Z</time>
      </trkpt>
      <trkpt lat="42.64247" lon="2.58791">
        <ele>222.7</ele>
        <time>2019-12-24T17:49:44Z</time>
      </trkpt>
      <trkpt lat="42.64295" lon="2.58755">
        <ele>211.6</ele>
        <time>2019-12-24T17:49:47Z</time>
      </trkpt>
      <trkpt lat="42.64326" lon="2.58737">
        <ele>216.3</ele>
        <time>2019-12-24T17:49:54Z</time>
      </trkpt>
      <trkpt lat="42.64348" lon="2.58732">
        <ele>210.6</ele>
        <time>2019-12-24T17:49:59Z</time>
      </trkpt>
      <trkpt lat="42.64394" lon="2.58722">
        <ele>210.2</ele>
        <time>2019-12-24T17:50:04Z</time>
      </trkpt>
      <trkpt lat="42.64423" lon="2.58717">
        <ele>207</ele>
        <time>2019-12-24T17:50:08Z</time>
      </trkpt>
      <trkpt lat="42.64438" lon="2.5871">
        <ele>208.5</ele>
        <time>2019-12-24T17:50:13Z</time>
      </trkpt>
      <trkpt lat="42.64451" lon="2.5871">
        <ele>208.5</ele>
        <time>2019-12-24T17:50:27Z</time>
      </trkpt>
      <trkpt lat="42.64517" lon="2.5873">
        <ele>203.6</ele>
        <time>2019-12-24T17:50:37Z</time>
      </trkpt>
      <trkpt lat="42.64543" lon="2.58736">
        <ele>204.3</ele>
        <time>2019-12-24T17:50:52Z</time>
      </trkpt>
      <trkpt lat="42.64565" lon="2.58736">
        <ele>203.2</ele>
        <time>2019-12-24T17:51:05Z</time>
      </trkpt>
      <trkpt lat="42.64566" lon="2.58727">
        <ele>204.5</ele>
        <time>2019-12-24T17:51:16Z</time>
      </trkpt>
      <trkpt lat="42.64568" lon="2.5872">
        <ele>205.6</ele>
        <time>2019-12-24T17:51:28Z</time>
      </trkpt>
      <trkpt lat="42.64571" lon="2.58716">
        <ele>206.2</ele>
        <time>2019-12-24T17:51:44Z</time>
      </trkpt>
      <trkpt lat="42.64576" lon="2.58716">
        <ele>206.1</ele>
        <time>2019-12-24T17:51:53Z</time>
      </trkpt>
      <trkpt lat="42.64582" lon="2.5872">
        <ele>205.2</ele>
        <time>2019-12-24T17:52:04Z</time>
      </trkpt>
      <trkpt lat="42.64588" lon="2.58725">
        <ele>204.3</ele>
        <time>2019-12-24T17:52:10Z</time>
      </trkpt>
      <trkpt lat="42.64597" lon="2.58727">
        <ele>204.3</ele>
        <time>2019-12-24T17:52:19Z</time>
      </trkpt>
      <trkpt lat="42.6461" lon="2.58731">
        <ele>204.6</ele>
        <time>2019-12-24T17:52:31Z</time>
      </trkpt>
      <trkpt lat="42.64617" lon="2.58729">
        <ele>205.1</ele>
        <time>2019-12-24T17:52:38Z</time>
      </trkpt>
      <trkpt lat="42.64624" lon="2.58725">
        <ele>205.7</ele>
        <time>2019-12-24T17:52:44Z</time>
      </trkpt>
      <trkpt lat="42.6463" lon="2.58719">
        <ele>206.4</ele>
        <time>2019-12-24T17:52:51Z</time>
      </trkpt>
      <trkpt lat="42.64644" lon="2.58709">
        <ele>207.8</ele>
        <time>2019-12-24T17:52:58Z</time>
      </trkpt>
      <trkpt lat="42.64654" lon="2.58703">
        <ele>209</ele>
        <time>2019-12-24T17:53:05Z</time>
      </trkpt>
      <trkpt lat="42.64663" lon="2.587">
        <ele>209.7</ele>
        <time>2019-12-24T17:53:11Z</time>
      </trkpt>
      <trkpt lat="42.64672" lon="2.587">
        <ele>207.7</ele>
        <time>2019-12-24T17:53:17Z</time>
      </trkpt>
      <trkpt lat="42.6468" lon="2.58699">
        <ele>207.5</ele>
        <time>2019-12-24T17:53:17Z</time>
      </trkpt>
      <trkpt lat="42.64683" lon="2.58699">
        <ele>207.3</ele>
        <time>2019-12-24T17:53:18Z</time>
      </trkpt>
      <trkpt lat="42.64695" lon="2.587">
        <ele>206.3</ele>
        <time>2019-12-24T17:53:18Z</time>
      </trkpt>
      <trkpt lat="42.64707" lon="2.587">
        <ele>205.6</ele>
        <time>2019-12-24T17:53:18Z</time>
      </trkpt>
      <trkpt lat="42.64718" lon="2.58699">
        <ele>205.1</ele>
        <time>2019-12-24T17:53:19Z</time>
      </trkpt>
      <trkpt lat="42.64738" lon="2.58695">
        <ele>205.1</ele>
        <time>2019-12-24T17:53:19Z</time>
      </trkpt>
      <trkpt lat="42.64761" lon="2.58687">
        <ele>202.4</ele>
        <time>2019-12-24T17:53:19Z</time>
      </trkpt>
      <trkpt lat="42.64767" lon="2.58685">
        <ele>202.2</ele>
        <time>2019-12-24T17:53:20Z</time>
      </trkpt>
      <trkpt lat="42.64772" lon="2.58682">
        <ele>202</ele>
        <time>2019-12-24T17:53:20Z</time>
      </trkpt>
      <trkpt lat="42.64774" lon="2.5868">
        <ele>202</ele>
        <time>2019-12-24T17:53:20Z</time>
      </trkpt>
      <trkpt lat="42.64785" lon="2.58656">
        <ele>209.3</ele>
        <time>2019-12-24T17:53:35Z</time>
      </trkpt>
      <trkpt lat="42.6479" lon="2.58647">
        <ele>209.4</ele>
        <time>2019-12-24T17:53:42Z</time>
      </trkpt>
      <trkpt lat="42.64795" lon="2.58641">
        <ele>209.3</ele>
        <time>2019-12-24T17:53:46Z</time>
      </trkpt>
      <trkpt lat="42.64801" lon="2.58633">
        <ele>209.3</ele>
        <time>2019-12-24T17:53:57Z</time>
      </trkpt>
      <trkpt lat="42.64806" lon="2.58625">
        <ele>209.3</ele>
        <time>2019-12-24T17:54:03Z</time>
      </trkpt>
      <trkpt lat="42.64811" lon="2.5862">
        <ele>209.1</ele>
        <time>2019-12-24T17:54:10Z</time>
      </trkpt>
      <trkpt lat="42.64816" lon="2.58619">
        <ele>208.8</ele>
        <time>2019-12-24T17:54:12Z</time>
      </trkpt>
      <trkpt lat="42.64834" lon="2.58625">
        <ele>200.9</ele>
        <time>2019-12-24T17:54:16Z</time>
      </trkpt>
      <trkpt lat="42.64837" lon="2.58634">
        <ele>200.7</ele>
        <time>2019-12-24T17:54:27Z</time>
      </trkpt>
      <trkpt lat="42.64842" lon="2.58629">
        <ele>200.6</ele>
        <time>2019-12-24T17:54:31Z</time>
      </trkpt>
      <trkpt lat="42.64847" lon="2.58619">
        <ele>200.7</ele>
        <time>2019-12-24T17:54:33Z</time>
      </trkpt>
      <trkpt lat="42.64862" lon="2.58588">
        <ele>200.6</ele>
        <time>2019-12-24T17:54:42Z</time>
      </trkpt>
      <trkpt lat="42.64866" lon="2.58587">
        <ele>200.2</ele>
        <time>2019-12-24T17:54:51Z</time>
      </trkpt>
      <trkpt lat="42.64867" lon="2.58585">
        <ele>200.1</ele>
        <time>2019-12-24T17:55:02Z</time>
      </trkpt>
      <trkpt lat="42.64871" lon="2.58569">
        <ele>202.5</ele>
        <time>2019-12-24T17:55:21Z</time>
      </trkpt>
      <trkpt lat="42.64874" lon="2.58546">
        <ele>203.1</ele>
        <time>2019-12-24T17:55:29Z</time>
      </trkpt>
      <trkpt lat="42.6488" lon="2.58538">
        <ele>202.9</ele>
        <time>2019-12-24T17:55:37Z</time>
      </trkpt>
      <trkpt lat="42.64887" lon="2.58533">
        <ele>202.4</ele>
        <time>2019-12-24T17:55:58Z</time>
      </trkpt>
      <trkpt lat="42.64887" lon="2.58549">
        <ele>201.9</ele>
        <time>2019-12-24T17:56:15Z</time>
      </trkpt>
      <trkpt lat="42.64892" lon="2.58581">
        <ele>199.7</ele>
        <time>2019-12-24T17:56:24Z</time>
      </trkpt>
      <trkpt lat="42.64894" lon="2.58584">
        <ele>197.4</ele>
        <time>2019-12-24T17:56:31Z</time>
      </trkpt>
      <trkpt lat="42.64912" lon="2.58593">
        <ele>195.9</ele>
        <time>2019-12-24T17:56:32Z</time>
      </trkpt>
      <trkpt lat="42.64913" lon="2.58604">
        <ele>196.9</ele>
        <time>2019-12-24T17:56:46Z</time>
      </trkpt>
      <trkpt lat="42.64921" lon="2.58651">
        <ele>193.7</ele>
        <time>2019-12-24T17:56:57Z</time>
      </trkpt>
      <trkpt lat="42.64925" lon="2.58704">
        <ele>191</ele>
        <time>2019-12-24T17:57:06Z</time>
      </trkpt>
      <trkpt lat="42.64923" lon="2.58714">
        <ele>190.7</ele>
        <time>2019-12-24T17:57:14Z</time>
      </trkpt>
      <trkpt lat="42.64917" lon="2.58726">
        <ele>190.5</ele>
        <time>2019-12-24T17:57:25Z</time>
      </trkpt>
      <trkpt lat="42.64911" lon="2.58744">
        <ele>192.1</ele>
        <time>2019-12-24T17:57:35Z</time>
      </trkpt>
      <trkpt lat="42.64908" lon="2.58753">
        <ele>190</ele>
        <time>2019-12-24T17:57:41Z</time>
      </trkpt>
      <trkpt lat="42.64912" lon="2.58761">
        <ele>189.8</ele>
        <time>2019-12-24T17:57:47Z</time>
      </trkpt>
      <trkpt lat="42.64918" lon="2.58772">
        <ele>187.9</ele>
        <time>2019-12-24T17:57:55Z</time>
      </trkpt>
      <trkpt lat="42.64911" lon="2.58824">
        <ele>186</ele>
        <time>2019-12-24T17:58:00Z</time>
      </trkpt>
      <trkpt lat="42.64901" lon="2.58903">
        <ele>182</ele>
        <time>2019-12-24T17:58:09Z</time>
      </trkpt>
      <trkpt lat="42.64896" lon="2.58946">
        <ele>180.6</ele>
        <time>2019-12-24T17:58:23Z</time>
      </trkpt>
      <trkpt lat="42.64895" lon="2.58962">
        <ele>180.5</ele>
        <time>2019-12-24T17:58:38Z</time>
      </trkpt>
      <trkpt lat="42.64898" lon="2.58995">
        <ele>180.2</ele>
        <time>2019-12-24T17:58:57Z</time>
      </trkpt>
      <trkpt lat="42.64904" lon="2.59045">
        <ele>180.4</ele>
        <time>2019-12-24T17:59:03Z</time>
      </trkpt>
      <trkpt lat="42.64908" lon="2.59078">
        <ele>180.2</ele>
        <time>2019-12-24T17:59:07Z</time>
      </trkpt>
      <trkpt lat="42.64934" lon="2.59158">
        <ele>179</ele>
        <time>2019-12-24T17:59:09Z</time>
      </trkpt>
      <trkpt lat="42.6497" lon="2.59265">
        <ele>182.9</ele>
        <time>2019-12-24T17:59:10Z</time>
      </trkpt>
      <trkpt lat="42.64995" lon="2.59349">
        <ele>183.4</ele>
        <time>2019-12-24T17:59:10Z</time>
      </trkpt>
      <trkpt lat="42.6501" lon="2.59405">
        <ele>178.4</ele>
        <time>2019-12-24T17:59:11Z</time>
      </trkpt>
      <trkpt lat="42.65043" lon="2.59499">
        <ele>176.8</ele>
        <time>2019-12-24T17:59:11Z</time>
      </trkpt>
      <trkpt lat="42.6507" lon="2.59567">
        <ele>176.2</ele>
        <time>2019-12-24T17:59:12Z</time>
      </trkpt>
      <trkpt lat="42.6508" lon="2.59607">
        <ele>177.6</ele>
        <time>2019-12-24T17:59:12Z</time>
      </trkpt>
      <trkpt lat="42.65093" lon="2.59716">
        <ele>175.2</ele>
        <time>2019-12-24T17:59:12Z</time>
      </trkpt>
      <trkpt lat="42.651" lon="2.59778">
        <ele>175.8</ele>
        <time>2019-12-24T17:59:13Z</time>
      </trkpt>
      <trkpt lat="42.65102" lon="2.59845">
        <ele>179.2</ele>
        <time>2019-12-24T17:59:13Z</time>
      </trkpt>
      <trkpt lat="42.651" lon="2.59907">
        <ele>181.1</ele>
        <time>2019-12-24T17:59:13Z</time>
      </trkpt>
      <trkpt lat="42.65097" lon="2.5998">
        <ele>181.9</ele>
        <time>2019-12-24T17:59:14Z</time>
      </trkpt>
      <trkpt lat="42.65098" lon="2.60044">
        <ele>180.3</ele>
        <time>2019-12-24T17:59:14Z</time>
      </trkpt>
      <trkpt lat="42.65105" lon="2.60128">
        <ele>179</ele>
        <time>2019-12-24T17:59:14Z</time>
      </trkpt>
      <trkpt lat="42.65113" lon="2.60219">
        <ele>180.1</ele>
        <time>2019-12-24T17:59:15Z</time>
      </trkpt>
      <trkpt lat="42.65136" lon="2.60357">
        <ele>181.6</ele>
        <time>2019-12-24T17:59:15Z</time>
      </trkpt>
      <trkpt lat="42.65149" lon="2.6041">
        <ele>179.5</ele>
        <time>2019-12-24T17:59:16Z</time>
      </trkpt>
      <trkpt lat="42.65164" lon="2.60454">
        <ele>182.6</ele>
        <time>2019-12-24T17:59:16Z</time>
      </trkpt>
      <trkpt lat="42.65243" lon="2.60647">
        <ele>178.3</ele>
        <time>2019-12-24T17:59:16Z</time>
      </trkpt>
      <trkpt lat="42.65264" lon="2.60697">
        <ele>175.7</ele>
        <time>2019-12-24T17:59:17Z</time>
      </trkpt>
      <trkpt lat="42.65278" lon="2.60724">
        <ele>176.6</ele>
        <time>2019-12-24T17:59:17Z</time>
      </trkpt>
      <trkpt lat="42.65296" lon="2.60751">
        <ele>181.1</ele>
        <time>2019-12-24T17:59:18Z</time>
      </trkpt>
      <trkpt lat="42.65307" lon="2.60763">
        <ele>179.2</ele>
        <time>2019-12-24T17:59:18Z</time>
      </trkpt>
      <trkpt lat="42.65336" lon="2.60784">
        <ele>169.2</ele>
        <time>2019-12-24T17:59:18Z</time>
      </trkpt>
      <trkpt lat="42.65361" lon="2.60804">
        <ele>170.4</ele>
        <time>2019-12-24T17:59:19Z</time>
      </trkpt>
      <trkpt lat="42.65374" lon="2.60819">
        <ele>170.1</ele>
        <time>2019-12-24T17:59:19Z</time>
      </trkpt>
      <trkpt lat="42.6549" lon="2.60975">
        <ele>171.1</ele>
        <time>2019-12-24T17:59:24Z</time>
      </trkpt>
      <trkpt lat="42.65501" lon="2.6099">
        <ele>166.9</ele>
        <time>2019-12-24T17:59:30Z</time>
      </trkpt>
      <trkpt lat="42.65514" lon="2.61005">
        <ele>166.8</ele>
        <time>2019-12-24T17:59:45Z</time>
      </trkpt>
      <trkpt lat="42.65528" lon="2.61021">
        <ele>166</ele>
        <time>2019-12-24T17:59:49Z</time>
      </trkpt>
      <trkpt lat="42.65545" lon="2.61036">
        <ele>165.4</ele>
        <time>2019-12-24T17:59:51Z</time>
      </trkpt>
      <trkpt lat="42.65586" lon="2.61066">
        <ele>162.9</ele>
        <time>2019-12-24T17:59:53Z</time>
      </trkpt>
      <trkpt lat="42.65616" lon="2.61087">
        <ele>162.8</ele>
        <time>2019-12-24T17:59:58Z</time>
      </trkpt>
      <trkpt lat="42.65636" lon="2.61102">
        <ele>162.8</ele>
        <time>2019-12-24T18:00:01Z</time>
      </trkpt>
      <trkpt lat="42.65653" lon="2.61116">
        <ele>162.8</ele>
        <time>2019-12-24T18:00:06Z</time>
      </trkpt>
      <trkpt lat="42.65667" lon="2.61131">
        <ele>162.1</ele>
        <time>2019-12-24T18:00:09Z</time>
      </trkpt>
      <trkpt lat="42.65676" lon="2.61148">
        <ele>162.2</ele>
        <time>2019-12-24T18:00:11Z</time>
      </trkpt>
      <trkpt lat="42.65681" lon="2.61165">
        <ele>162.3</ele>
        <time>2019-12-24T18:00:30Z</time>
      </trkpt>
      <trkpt lat="42.65684" lon="2.61195">
        <ele>161.8</ele>
        <time>2019-12-24T18:00:40Z</time>
      </trkpt>
      <trkpt lat="42.6568" lon="2.61224">
        <ele>161.5</ele>
        <time>2019-12-24T18:00:55Z</time>
      </trkpt>
      <trkpt lat="42.65667" lon="2.6128">
        <ele>160.8</ele>
        <time>2019-12-24T18:01:06Z</time>
      </trkpt>
      <trkpt lat="42.65644" lon="2.61392">
        <ele>159.3</ele>
        <time>2019-12-24T18:01:09Z</time>
      </trkpt>
      <trkpt lat="42.65636" lon="2.61525">
        <ele>160</ele>
        <time>2019-12-24T18:01:13Z</time>
      </trkpt>
      <trkpt lat="42.65631" lon="2.61558">
        <ele>159.8</ele>
        <time>2019-12-24T18:01:14Z</time>
      </trkpt>
      <trkpt lat="42.65627" lon="2.61574">
        <ele>159.8</ele>
        <time>2019-12-24T18:01:15Z</time>
      </trkpt>
      <trkpt lat="42.65617" lon="2.61604">
        <ele>159.5</ele>
        <time>2019-12-24T18:01:16Z</time>
      </trkpt>
      <trkpt lat="42.65605" lon="2.61626">
        <ele>159.5</ele>
        <time>2019-12-24T18:01:16Z</time>
      </trkpt>
      <trkpt lat="42.65584" lon="2.61667">
        <ele>159.9</ele>
        <time>2019-12-24T18:01:17Z</time>
      </trkpt>
      <trkpt lat="42.65568" lon="2.61704">
        <ele>161.8</ele>
        <time>2019-12-24T18:01:17Z</time>
      </trkpt>
      <trkpt lat="42.65561" lon="2.61726">
        <ele>161.5</ele>
        <time>2019-12-24T18:01:17Z</time>
      </trkpt>
      <trkpt lat="42.65559" lon="2.61739">
        <ele>161.2</ele>
        <time>2019-12-24T18:01:18Z</time>
      </trkpt>
      <trkpt lat="42.65558" lon="2.61747">
        <ele>161.1</ele>
        <time>2019-12-24T18:01:18Z</time>
      </trkpt>
      <trkpt lat="42.65557" lon="2.61776">
        <ele>161.9</ele>
        <time>2019-12-24T18:01:19Z</time>
      </trkpt>
      <trkpt lat="42.65557" lon="2.61851">
        <ele>163.4</ele>
        <time>2019-12-24T18:01:19Z</time>
      </trkpt>
      <trkpt lat="42.65559" lon="2.61889">
        <ele>163.8</ele>
        <time>2019-12-24T18:01:20Z</time>
      </trkpt>
      <trkpt lat="42.65561" lon="2.61914">
        <ele>163.4</ele>
        <time>2019-12-24T18:01:23Z</time>
      </trkpt>
      <trkpt lat="42.65564" lon="2.61954">
        <ele>163.6</ele>
        <time>2019-12-24T18:01:27Z</time>
      </trkpt>
      <trkpt lat="42.65571" lon="2.62019">
        <ele>163</ele>
        <time>2019-12-24T18:01:33Z</time>
      </trkpt>
      <trkpt lat="42.65574" lon="2.62051">
        <ele>163.5</ele>
        <time>2019-12-24T18:01:37Z</time>
      </trkpt>
      <trkpt lat="42.65575" lon="2.62085">
        <ele>163</ele>
        <time>2019-12-24T18:01:43Z</time>
      </trkpt>
      <trkpt lat="42.65582" lon="2.62139">
        <ele>164.7</ele>
        <time>2019-12-24T18:01:49Z</time>
      </trkpt>
      <trkpt lat="42.65586" lon="2.62174">
        <ele>163.5</ele>
        <time>2019-12-24T18:01:51Z</time>
      </trkpt>
      <trkpt lat="42.65584" lon="2.62181">
        <ele>163.3</ele>
        <time>2019-12-24T18:01:54Z</time>
      </trkpt>
      <trkpt lat="42.65585" lon="2.62186">
        <ele>163.1</ele>
        <time>2019-12-24T18:01:59Z</time>
      </trkpt>
      <trkpt lat="42.65585" lon="2.62202">
        <ele>162.8</ele>
        <time>2019-12-24T18:02:03Z</time>
      </trkpt>
      <trkpt lat="42.65584" lon="2.6222">
        <ele>162.7</ele>
        <time>2019-12-24T18:02:19Z</time>
      </trkpt>
      <trkpt lat="42.65577" lon="2.62255">
        <ele>163.4</ele>
        <time>2019-12-24T18:02:29Z</time>
      </trkpt>
      <trkpt lat="42.65567" lon="2.62294">
        <ele>164.1</ele>
        <time>2019-12-24T18:02:36Z</time>
      </trkpt>
      <trkpt lat="42.65562" lon="2.62317">
        <ele>164.2</ele>
        <time>2019-12-24T18:02:42Z</time>
      </trkpt>
      <trkpt lat="42.65557" lon="2.62339">
        <ele>164.4</ele>
        <time>2019-12-24T18:02:43Z</time>
      </trkpt>
      <trkpt lat="42.65554" lon="2.62361">
        <ele>164.4</ele>
        <time>2019-12-24T18:02:43Z</time>
      </trkpt>
      <trkpt lat="42.65552" lon="2.62381">
        <ele>164.4</ele>
        <time>2019-12-24T18:02:44Z</time>
      </trkpt>
      <trkpt lat="42.6555" lon="2.6242">
        <ele>164.1</ele>
        <time>2019-12-24T18:02:44Z</time>
      </trkpt>
      <trkpt lat="42.65544" lon="2.62454">
        <ele>164</ele>
        <time>2019-12-24T18:02:44Z</time>
      </trkpt>
      <trkpt lat="42.65534" lon="2.62508">
        <ele>163.4</ele>
        <time>2019-12-24T18:02:45Z</time>
      </trkpt>
      <trkpt lat="42.6553" lon="2.6254">
        <ele>163.4</ele>
        <time>2019-12-24T18:02:45Z</time>
      </trkpt>
      <trkpt lat="42.65522" lon="2.6261">
        <ele>164.4</ele>
        <time>2019-12-24T18:02:45Z</time>
      </trkpt>
      <trkpt lat="42.65521" lon="2.62632">
        <ele>164.8</ele>
        <time>2019-12-24T18:02:46Z</time>
      </trkpt>
      <trkpt lat="42.65519" lon="2.62651">
        <ele>165.2</ele>
        <time>2019-12-24T18:02:46Z</time>
      </trkpt>
      <trkpt lat="42.65518" lon="2.62704">
        <ele>165.7</ele>
        <time>2019-12-24T18:02:46Z</time>
      </trkpt>
      <trkpt lat="42.65518" lon="2.62744">
        <ele>165.4</ele>
        <time>2019-12-24T18:02:48Z</time>
      </trkpt>
      <trkpt lat="42.65519" lon="2.6278">
        <ele>165.7</ele>
        <time>2019-12-24T18:02:53Z</time>
      </trkpt>
      <trkpt lat="42.65521" lon="2.6281">
        <ele>166</ele>
        <time>2019-12-24T18:02:56Z</time>
      </trkpt>
      <trkpt lat="42.65526" lon="2.62847">
        <ele>166.2</ele>
        <time>2019-12-24T18:03:00Z</time>
      </trkpt>
      <trkpt lat="42.65545" lon="2.6295">
        <ele>166</ele>
        <time>2019-12-24T18:03:05Z</time>
      </trkpt>
      <trkpt lat="42.65557" lon="2.63024">
        <ele>166</ele>
        <time>2019-12-24T18:03:12Z</time>
      </trkpt>
      <trkpt lat="42.6558" lon="2.63139">
        <ele>166</ele>
        <time>2019-12-24T18:03:16Z</time>
      </trkpt>
      <trkpt lat="42.656" lon="2.63232">
        <ele>165.7</ele>
        <time>2019-12-24T18:03:21Z</time>
      </trkpt>
      <trkpt lat="42.65621" lon="2.63311">
        <ele>164.6</ele>
        <time>2019-12-24T18:03:39Z</time>
      </trkpt>
      <trkpt lat="42.65646" lon="2.63401">
        <ele>165.2</ele>
        <time>2019-12-24T18:04:02Z</time>
      </trkpt>
      <trkpt lat="42.65658" lon="2.63522">
        <ele>165.7</ele>
        <time>2019-12-24T18:04:06Z</time>
      </trkpt>
      <trkpt lat="42.65664" lon="2.63585">
        <ele>164.3</ele>
        <time>2019-12-24T18:04:10Z</time>
      </trkpt>
      <trkpt lat="42.65672" lon="2.63668">
        <ele>164.8</ele>
        <time>2019-12-24T18:04:15Z</time>
      </trkpt>
      <trkpt lat="42.65678" lon="2.63715">
        <ele>164.3</ele>
        <time>2019-12-24T18:04:19Z</time>
      </trkpt>
      <trkpt lat="42.65692" lon="2.63781">
        <ele>163.6</ele>
        <time>2019-12-24T18:04:26Z</time>
      </trkpt>
      <trkpt lat="42.65717" lon="2.6387">
        <ele>163.3</ele>
        <time>2019-12-24T18:04:32Z</time>
      </trkpt>
      <trkpt lat="42.65728" lon="2.63917">
        <ele>163.4</ele>
        <time>2019-12-24T18:04:39Z</time>
      </trkpt>
      <trkpt lat="42.65736" lon="2.63966">
        <ele>163.8</ele>
        <time>2019-12-24T18:04:53Z</time>
      </trkpt>
      <trkpt lat="42.65742" lon="2.64014">
        <ele>163.6</ele>
        <time>2019-12-24T18:04:59Z</time>
      </trkpt>
      <trkpt lat="42.6575" lon="2.64067">
        <ele>163.5</ele>
        <time>2019-12-24T18:05:06Z</time>
      </trkpt>
      <trkpt lat="42.65759" lon="2.64118">
        <ele>161.7</ele>
        <time>2019-12-24T18:05:10Z</time>
      </trkpt>
      <trkpt lat="42.6577" lon="2.64167">
        <ele>161.1</ele>
        <time>2019-12-24T18:05:13Z</time>
      </trkpt>
      <trkpt lat="42.65785" lon="2.64206">
        <ele>160.4</ele>
        <time>2019-12-24T18:05:19Z</time>
      </trkpt>
      <trkpt lat="42.65784" lon="2.64207">
        <ele>160.4</ele>
        <time>2019-12-24T18:05:27Z</time>
      </trkpt>
      <trkpt lat="42.65784" lon="2.64209">
        <ele>160.4</ele>
        <time>2019-12-24T18:05:41Z</time>
      </trkpt>
      <trkpt lat="42.65785" lon="2.6421">
        <ele>160.3</ele>
        <time>2019-12-24T18:05:49Z</time>
      </trkpt>
      <trkpt lat="42.65785" lon="2.64212">
        <ele>160.3</ele>
        <time>2019-12-24T18:05:52Z</time>
      </trkpt>
      <trkpt lat="42.65786" lon="2.64214">
        <ele>160.3</ele>
        <time>2019-12-24T18:06:11Z</time>
      </trkpt>
      <trkpt lat="42.65786" lon="2.64216">
        <ele>160.3</ele>
        <time>2019-12-24T18:06:28Z</time>
      </trkpt>
      <trkpt lat="42.65787" lon="2.64217">
        <ele>160.2</ele>
        <time>2019-12-24T18:06:32Z</time>
      </trkpt>
      <trkpt lat="42.65788" lon="2.64218">
        <ele>160.2</ele>
        <time>2019-12-24T18:06:48Z</time>
      </trkpt>
      <trkpt lat="42.65789" lon="2.6422">
        <ele>160.2</ele>
        <time>2019-12-24T18:07:00Z</time>
      </trkpt>
      <trkpt lat="42.65791" lon="2.64221">
        <ele>160.2</ele>
        <time>2019-12-24T18:07:09Z</time>
      </trkpt>
      <trkpt lat="42.65805" lon="2.64328">
        <ele>159.1</ele>
        <time>2019-12-24T18:07:28Z</time>
      </trkpt>
      <trkpt lat="42.65811" lon="2.64381">
        <ele>159.5</ele>
        <time>2019-12-24T18:07:37Z</time>
      </trkpt>
      <trkpt lat="42.65814" lon="2.64413">
        <ele>159.4</ele>
        <time>2019-12-24T18:07:45Z</time>
      </trkpt>
      <trkpt lat="42.65824" lon="2.64494">
        <ele>160.1</ele>
        <time>2019-12-24T18:07:49Z</time>
      </trkpt>
      <trkpt lat="42.65832" lon="2.64542">
        <ele>160.8</ele>
        <time>2019-12-24T18:07:53Z</time>
      </trkpt>
      <trkpt lat="42.65838" lon="2.64597">
        <ele>159.1</ele>
        <time>2019-12-24T18:07:58Z</time>
      </trkpt>
      <trkpt lat="42.65838" lon="2.64609">
        <ele>158.8</ele>
        <time>2019-12-24T18:08:13Z</time>
      </trkpt>
      <trkpt lat="42.65838" lon="2.64644">
        <ele>158.5</ele>
        <time>2019-12-24T18:08:19Z</time>
      </trkpt>
      <trkpt lat="42.65836" lon="2.64723">
        <ele>159.4</ele>
        <time>2019-12-24T18:08:26Z</time>
      </trkpt>
      <trkpt lat="42.65835" lon="2.64756">
        <ele>160.4</ele>
        <time>2019-12-24T18:08:28Z</time>
      </trkpt>
      <trkpt lat="42.65835" lon="2.64772">
        <ele>159.5</ele>
        <time>2019-12-24T18:08:30Z</time>
      </trkpt>
      <trkpt lat="42.65838" lon="2.64837">
        <ele>159.3</ele>
        <time>2019-12-24T18:08:30Z</time>
      </trkpt>
      <trkpt lat="42.65842" lon="2.64911">
        <ele>157.7</ele>
        <time>2019-12-24T18:08:31Z</time>
      </trkpt>
      <trkpt lat="42.65845" lon="2.64989">
        <ele>156.7</ele>
        <time>2019-12-24T18:08:31Z</time>
      </trkpt>
      <trkpt lat="42.65849" lon="2.65136">
        <ele>154.4</ele>
        <time>2019-12-24T18:08:32Z</time>
      </trkpt>
      <trkpt lat="42.6585" lon="2.65201">
        <ele>153.5</ele>
        <time>2019-12-24T18:08:32Z</time>
      </trkpt>
      <trkpt lat="42.65855" lon="2.65255">
        <ele>153</ele>
        <time>2019-12-24T18:08:33Z</time>
      </trkpt>
      <trkpt lat="42.65876" lon="2.65419">
        <ele>151.7</ele>
        <time>2019-12-24T18:08:33Z</time>
      </trkpt>
      <trkpt lat="42.65894" lon="2.65544">
        <ele>150.4</ele>
        <time>2019-12-24T18:08:33Z</time>
      </trkpt>
      <trkpt lat="42.65904" lon="2.65613">
        <ele>149.6</ele>
        <time>2019-12-24T18:08:33Z</time>
      </trkpt>
      <trkpt lat="42.6591" lon="2.65662">
        <ele>148.6</ele>
        <time>2019-12-24T18:08:34Z</time>
      </trkpt>
      <trkpt lat="42.65911" lon="2.65672">
        <ele>148.7</ele>
        <time>2019-12-24T18:08:34Z</time>
      </trkpt>
      <trkpt lat="42.65922" lon="2.65777">
        <ele>150.1</ele>
        <time>2019-12-24T18:08:34Z</time>
      </trkpt>
      <trkpt lat="42.65928" lon="2.65859">
        <ele>151.2</ele>
        <time>2019-12-24T18:08:35Z</time>
      </trkpt>
      <trkpt lat="42.65934" lon="2.65929">
        <ele>151.2</ele>
        <time>2019-12-24T18:08:35Z</time>
      </trkpt>
      <trkpt lat="42.65941" lon="2.65994">
        <ele>151.3</ele>
        <time>2019-12-24T18:08:35Z</time>
      </trkpt>
      <trkpt lat="42.65946" lon="2.66076">
        <ele>152.8</ele>
        <time>2019-12-24T18:08:36Z</time>
      </trkpt>
      <trkpt lat="42.6595" lon="2.66147">
        <ele>154.7</ele>
        <time>2019-12-24T18:08:38Z</time>
      </trkpt>
      <trkpt lat="42.65952" lon="2.66198">
        <ele>155.1</ele>
        <time>2019-12-24T18:08:42Z</time>
      </trkpt>
      <trkpt lat="42.65951" lon="2.66244">
        <ele>155.1</ele>
        <time>2019-12-24T18:08:46Z</time>
      </trkpt>
      <trkpt lat="42.6595" lon="2.663">
        <ele>153.7</ele>
        <time>2019-12-24T18:08:50Z</time>
      </trkpt>
      <trkpt lat="42.65949" lon="2.6634">
        <ele>153.5</ele>
        <time>2019-12-24T18:08:54Z</time>
      </trkpt>
      <trkpt lat="42.65944" lon="2.66406">
        <ele>154.3</ele>
        <time>2019-12-24T18:08:57Z</time>
      </trkpt>
      <trkpt lat="42.65935" lon="2.66516">
        <ele>156.1</ele>
        <time>2019-12-24T18:08:58Z</time>
      </trkpt>
      <trkpt lat="42.6593" lon="2.6663">
        <ele>156.5</ele>
        <time>2019-12-24T18:08:59Z</time>
      </trkpt>
      <trkpt lat="42.65922" lon="2.66777">
        <ele>156.5</ele>
        <time>2019-12-24T18:09:00Z</time>
      </trkpt>
      <trkpt lat="42.65918" lon="2.66818">
        <ele>156</ele>
        <time>2019-12-24T18:09:00Z</time>
      </trkpt>
      <trkpt lat="42.65917" lon="2.6685">
        <ele>155.8</ele>
        <time>2019-12-24T18:09:00Z</time>
      </trkpt>
      <trkpt lat="42.65916" lon="2.66867">
        <ele>157.5</ele>
        <time>2019-12-24T18:09:01Z</time>
      </trkpt>
      <trkpt lat="42.65916" lon="2.66874">
        <ele>157.6</ele>
        <time>2019-12-24T18:09:01Z</time>
      </trkpt>
      <trkpt lat="42.65915" lon="2.66875">
        <ele>157.6</ele>
        <time>2019-12-24T18:09:02Z</time>
      </trkpt>
      <trkpt lat="42.65913" lon="2.66877">
        <ele>157.6</ele>
        <time>2019-12-24T18:09:02Z</time>
      </trkpt>
      <trkpt lat="42.65912" lon="2.66878">
        <ele>157.6</ele>
        <time>2019-12-24T18:09:02Z</time>
      </trkpt>
      <trkpt lat="42.65911" lon="2.66881">
        <ele>157.7</ele>
        <time>2019-12-24T18:09:03Z</time>
      </trkpt>
      <trkpt lat="42.65909" lon="2.66883">
        <ele>157.7</ele>
        <time>2019-12-24T18:09:03Z</time>
      </trkpt>
      <trkpt lat="42.65909" lon="2.66885">
        <ele>157.7</ele>
        <time>2019-12-24T18:09:03Z</time>
      </trkpt>
      <trkpt lat="42.65908" lon="2.66888">
        <ele>157.7</ele>
        <time>2019-12-24T18:09:03Z</time>
      </trkpt>
      <trkpt lat="42.65908" lon="2.6689">
        <ele>157.7</ele>
        <time>2019-12-24T18:09:04Z</time>
      </trkpt>
      <trkpt lat="42.65908" lon="2.66893">
        <ele>157.6</ele>
        <time>2019-12-24T18:09:05Z</time>
      </trkpt>
      <trkpt lat="42.65908" lon="2.66896">
        <ele>157.6</ele>
        <time>2019-12-24T18:09:08Z</time>
      </trkpt>
      <trkpt lat="42.65909" lon="2.66898">
        <ele>157.6</ele>
        <time>2019-12-24T18:09:12Z</time>
      </trkpt>
      <trkpt lat="42.65909" lon="2.669">
        <ele>157.5</ele>
        <time>2019-12-24T18:09:24Z</time>
      </trkpt>
      <trkpt lat="42.6591" lon="2.66902">
        <ele>157.5</ele>
        <time>2019-12-24T18:09:41Z</time>
      </trkpt>
      <trkpt lat="42.65912" lon="2.66905">
        <ele>157.4</ele>
        <time>2019-12-24T18:09:47Z</time>
      </trkpt>
      <trkpt lat="42.65913" lon="2.66907">
        <ele>157.4</ele>
        <time>2019-12-24T18:09:50Z</time>
      </trkpt>
      <trkpt lat="42.65915" lon="2.66909">
        <ele>157.3</ele>
        <time>2019-12-24T18:09:53Z</time>
      </trkpt>
      <trkpt lat="42.65916" lon="2.6691">
        <ele>157.3</ele>
        <time>2019-12-24T18:09:56Z</time>
      </trkpt>
      <trkpt lat="42.65918" lon="2.66911">
        <ele>156.7</ele>
        <time>2019-12-24T18:09:59Z</time>
      </trkpt>
      <trkpt lat="42.6592" lon="2.66912">
        <ele>156.7</ele>
        <time>2019-12-24T18:10:14Z</time>
      </trkpt>
      <trkpt lat="42.65922" lon="2.66912">
        <ele>156.6</ele>
        <time>2019-12-24T18:10:37Z</time>
      </trkpt>
      <trkpt lat="42.65924" lon="2.66912">
        <ele>156.6</ele>
        <time>2019-12-24T18:10:52Z</time>
      </trkpt>
      <trkpt lat="42.65926" lon="2.66912">
        <ele>156.5</ele>
        <time>2019-12-24T18:11:18Z</time>
      </trkpt>
      <trkpt lat="42.65928" lon="2.66911">
        <ele>156.4</ele>
        <time>2019-12-24T18:11:29Z</time>
      </trkpt>
      <trkpt lat="42.6593" lon="2.6691">
        <ele>156.3</ele>
        <time>2019-12-24T18:11:35Z</time>
      </trkpt>
      <trkpt lat="42.65952" lon="2.66926">
        <ele>155.6</ele>
        <time>2019-12-24T18:12:01Z</time>
      </trkpt>
      <trkpt lat="42.65981" lon="2.6695">
        <ele>154.9</ele>
        <time>2019-12-24T18:12:21Z</time>
      </trkpt>
      <trkpt lat="42.66049" lon="2.67018">
        <ele>150.5</ele>
        <time>2019-12-24T18:12:36Z</time>
      </trkpt>
      <trkpt lat="42.66065" lon="2.67039">
        <ele>150.1</ele>
        <time>2019-12-24T18:12:40Z</time>
      </trkpt>
      <trkpt lat="42.66074" lon="2.67052">
        <ele>149.8</ele>
        <time>2019-12-24T18:12:49Z</time>
      </trkpt>
      <trkpt lat="42.66081" lon="2.67066">
        <ele>149.2</ele>
        <time>2019-12-24T18:13:09Z</time>
      </trkpt>
      <trkpt lat="42.66094" lon="2.67096">
        <ele>148.1</ele>
        <time>2019-12-24T18:13:25Z</time>
      </trkpt>
      <trkpt lat="42.66101" lon="2.67122">
        <ele>148.2</ele>
        <time>2019-12-24T18:13:51Z</time>
      </trkpt>
      <trkpt lat="42.66108" lon="2.67154">
        <ele>148.5</ele>
        <time>2019-12-24T18:13:58Z</time>
      </trkpt>
      <trkpt lat="42.6611" lon="2.67176">
        <ele>148.8</ele>
        <time>2019-12-24T18:14:07Z</time>
      </trkpt>
      <trkpt lat="42.66112" lon="2.67197">
        <ele>148.8</ele>
        <time>2019-12-24T18:14:17Z</time>
      </trkpt>
      <trkpt lat="42.6611" lon="2.67342">
        <ele>147.6</ele>
        <time>2019-12-24T18:14:26Z</time>
      </trkpt>
      <trkpt lat="42.66109" lon="2.67417">
        <ele>146.7</ele>
        <time>2019-12-24T18:14:34Z</time>
      </trkpt>
      <trkpt lat="42.66107" lon="2.67527">
        <ele>145.9</ele>
        <time>2019-12-24T18:14:40Z</time>
      </trkpt>
      <trkpt lat="42.66107" lon="2.67615">
        <ele>146.1</ele>
        <time>2019-12-24T18:14:57Z</time>
      </trkpt>
      <trkpt lat="42.66106" lon="2.67635">
        <ele>146.4</ele>
        <time>2019-12-24T18:15:20Z</time>
      </trkpt>
      <trkpt lat="42.66106" lon="2.67664">
        <ele>147</ele>
        <time>2019-12-24T18:15:26Z</time>
      </trkpt>
      <trkpt lat="42.66105" lon="2.67677">
        <ele>147</ele>
        <time>2019-12-24T18:15:29Z</time>
      </trkpt>
      <trkpt lat="42.66104" lon="2.67686">
        <ele>146.8</ele>
        <time>2019-12-24T18:15:34Z</time>
      </trkpt>
      <trkpt lat="42.66102" lon="2.67689">
        <ele>146.8</ele>
        <time>2019-12-24T18:15:40Z</time>
      </trkpt>
      <trkpt lat="42.66101" lon="2.67691">
        <ele>146.8</ele>
        <time>2019-12-24T18:15:43Z</time>
      </trkpt>
      <trkpt lat="42.661" lon="2.67693">
        <ele>146.8</ele>
        <time>2019-12-24T18:15:47Z</time>
      </trkpt>
      <trkpt lat="42.66099" lon="2.67696">
        <ele>146.7</ele>
        <time>2019-12-24T18:15:56Z</time>
      </trkpt>
      <trkpt lat="42.66099" lon="2.67698">
        <ele>146.7</ele>
        <time>2019-12-24T18:16:14Z</time>
      </trkpt>
      <trkpt lat="42.66099" lon="2.67701">
        <ele>146.6</ele>
        <time>2019-12-24T18:16:25Z</time>
      </trkpt>
      <trkpt lat="42.66099" lon="2.67704">
        <ele>146.5</ele>
        <time>2019-12-24T18:16:32Z</time>
      </trkpt>
      <trkpt lat="42.661" lon="2.67706">
        <ele>146.5</ele>
        <time>2019-12-24T18:16:40Z</time>
      </trkpt>
      <trkpt lat="42.661" lon="2.67708">
        <ele>146.4</ele>
        <time>2019-12-24T18:16:49Z</time>
      </trkpt>
      <trkpt lat="42.66103" lon="2.67715">
        <ele>146.3</ele>
        <time>2019-12-24T18:16:54Z</time>
      </trkpt>
      <trkpt lat="42.66101" lon="2.67739">
        <ele>146.1</ele>
        <time>2019-12-24T18:16:58Z</time>
      </trkpt>
      <trkpt lat="42.66099" lon="2.67771">
        <ele>145.8</ele>
        <time>2019-12-24T18:17:02Z</time>
      </trkpt>
      <trkpt lat="42.66095" lon="2.67812">
        <ele>145.9</ele>
        <time>2019-12-24T18:17:06Z</time>
      </trkpt>
      <trkpt lat="42.66093" lon="2.67841">
        <ele>146.5</ele>
        <time>2019-12-24T18:17:10Z</time>
      </trkpt>
      <trkpt lat="42.6609" lon="2.6789">
        <ele>147.7</ele>
        <time>2019-12-24T18:17:15Z</time>
      </trkpt>
      <trkpt lat="42.66085" lon="2.67933">
        <ele>148.5</ele>
        <time>2019-12-24T18:17:24Z</time>
      </trkpt>
      <trkpt lat="42.66081" lon="2.67954">
        <ele>148.1</ele>
        <time>2019-12-24T18:17:32Z</time>
      </trkpt>
      <trkpt lat="42.66076" lon="2.6797">
        <ele>147.8</ele>
        <time>2019-12-24T18:17:39Z</time>
      </trkpt>
      <trkpt lat="42.66064" lon="2.68003">
        <ele>146.6</ele>
        <time>2019-12-24T18:17:53Z</time>
      </trkpt>
      <trkpt lat="42.6605" lon="2.68033">
        <ele>146.3</ele>
        <time>2019-12-24T18:17:59Z</time>
      </trkpt>
      <trkpt lat="42.66003" lon="2.68134">
        <ele>145.1</ele>
        <time>2019-12-24T18:18:07Z</time>
      </trkpt>
      <trkpt lat="42.65971" lon="2.68202">
        <ele>146.9</ele>
        <time>2019-12-24T18:18:17Z</time>
      </trkpt>
      <trkpt lat="42.65951" lon="2.6824">
        <ele>147.4</ele>
        <time>2019-12-24T18:18:38Z</time>
      </trkpt>
      <trkpt lat="42.65925" lon="2.68278">
        <ele>147.1</ele>
        <time>2019-12-24T18:18:56Z</time>
      </trkpt>
      <trkpt lat="42.65923" lon="2.68278">
        <ele>147.2</ele>
        <time>2019-12-24T18:19:18Z</time>
      </trkpt>
      <trkpt lat="42.65921" lon="2.68277">
        <ele>147.2</ele>
        <time>2019-12-24T18:19:20Z</time>
      </trkpt>
      <trkpt lat="42.65919" lon="2.68277">
        <ele>147.3</ele>
        <time>2019-12-24T18:19:23Z</time>
      </trkpt>
      <trkpt lat="42.65917" lon="2.68278">
        <ele>147.2</ele>
        <time>2019-12-24T18:19:23Z</time>
      </trkpt>
      <trkpt lat="42.65915" lon="2.68278">
        <ele>148.5</ele>
        <time>2019-12-24T18:19:23Z</time>
      </trkpt>
      <trkpt lat="42.65913" lon="2.6828">
        <ele>148.5</ele>
        <time>2019-12-24T18:19:24Z</time>
      </trkpt>
      <trkpt lat="42.65911" lon="2.68281">
        <ele>148.5</ele>
        <time>2019-12-24T18:19:24Z</time>
      </trkpt>
      <trkpt lat="42.6591" lon="2.68283">
        <ele>148.5</ele>
        <time>2019-12-24T18:19:25Z</time>
      </trkpt>
      <trkpt lat="42.65909" lon="2.68284">
        <ele>148.5</ele>
        <time>2019-12-24T18:19:25Z</time>
      </trkpt>
      <trkpt lat="42.65908" lon="2.68285">
        <ele>148.4</ele>
        <time>2019-12-24T18:19:27Z</time>
      </trkpt>
      <trkpt lat="42.65907" lon="2.68286">
        <ele>148.4</ele>
        <time>2019-12-24T18:19:29Z</time>
      </trkpt>
      <trkpt lat="42.65897" lon="2.68292">
        <ele>148.4</ele>
        <time>2019-12-24T18:19:30Z</time>
      </trkpt>
      <trkpt lat="42.6587" lon="2.683">
        <ele>148.4</ele>
        <time>2019-12-24T18:19:43Z</time>
      </trkpt>
      <trkpt lat="42.65854" lon="2.68305">
        <ele>148.4</ele>
        <time>2019-12-24T18:19:45Z</time>
      </trkpt>
      <trkpt lat="42.65835" lon="2.68317">
        <ele>148.3</ele>
        <time>2019-12-24T18:19:47Z</time>
      </trkpt>
      <trkpt lat="42.65815" lon="2.68339">
        <ele>148.3</ele>
        <time>2019-12-24T18:19:57Z</time>
      </trkpt>
      <trkpt lat="42.65788" lon="2.68385">
        <ele>148.5</ele>
        <time>2019-12-24T18:20:07Z</time>
      </trkpt>
      <trkpt lat="42.65779" lon="2.6841">
        <ele>148.9</ele>
        <time>2019-12-24T18:20:14Z</time>
      </trkpt>
      <trkpt lat="42.6577" lon="2.68443">
        <ele>147.6</ele>
        <time>2019-12-24T18:20:23Z</time>
      </trkpt>
      <trkpt lat="42.65735" lon="2.68578">
        <ele>149.2</ele>
        <time>2019-12-24T18:20:34Z</time>
      </trkpt>
      <trkpt lat="42.65696" lon="2.68743">
        <ele>146.1</ele>
        <time>2019-12-24T18:20:35Z</time>
      </trkpt>
      <trkpt lat="42.65688" lon="2.68775">
        <ele>143.7</ele>
        <time>2019-12-24T18:20:40Z</time>
      </trkpt>
      <trkpt lat="42.65679" lon="2.688">
        <ele>143</ele>
        <time>2019-12-24T18:20:50Z</time>
      </trkpt>
      <trkpt lat="42.65665" lon="2.68832">
        <ele>142.9</ele>
        <time>2019-12-24T18:20:51Z</time>
      </trkpt>
      <trkpt lat="42.65652" lon="2.68855">
        <ele>144.2</ele>
        <time>2019-12-24T18:20:57Z</time>
      </trkpt>
      <trkpt lat="42.65626" lon="2.68895">
        <ele>144.5</ele>
        <time>2019-12-24T18:21:03Z</time>
      </trkpt>
      <trkpt lat="42.65601" lon="2.68928">
        <ele>141.8</ele>
        <time>2019-12-24T18:21:20Z</time>
      </trkpt>
      <trkpt lat="42.65574" lon="2.68967">
        <ele>141.6</ele>
        <time>2019-12-24T18:21:21Z</time>
      </trkpt>
      <trkpt lat="42.65524" lon="2.69048">
        <ele>138.7</ele>
        <time>2019-12-24T18:21:36Z</time>
      </trkpt>
      <trkpt lat="42.655" lon="2.69084">
        <ele>138</ele>
        <time>2019-12-24T18:21:48Z</time>
      </trkpt>
      <trkpt lat="42.65471" lon="2.69117">
        <ele>138</ele>
        <time>2019-12-24T18:21:49Z</time>
      </trkpt>
      <trkpt lat="42.65454" lon="2.69139">
        <ele>137.9</ele>
        <time>2019-12-24T18:21:55Z</time>
      </trkpt>
      <trkpt lat="42.65444" lon="2.69154">
        <ele>137.7</ele>
        <time>2019-12-24T18:21:58Z</time>
      </trkpt>
      <trkpt lat="42.65426" lon="2.69194">
        <ele>138.2</ele>
        <time>2019-12-24T18:21:58Z</time>
      </trkpt>
      <trkpt lat="42.65403" lon="2.69251">
        <ele>141</ele>
        <time>2019-12-24T18:21:58Z</time>
      </trkpt>
      <trkpt lat="42.65365" lon="2.69346">
        <ele>140.8</ele>
        <time>2019-12-24T18:21:58Z</time>
      </trkpt>
      <trkpt lat="42.6534" lon="2.69392">
        <ele>140.8</ele>
        <time>2019-12-24T18:21:59Z</time>
      </trkpt>
      <trkpt lat="42.65327" lon="2.69412">
        <ele>141.5</ele>
        <time>2019-12-24T18:21:59Z</time>
      </trkpt>
      <trkpt lat="42.65254" lon="2.69518">
        <ele>143.5</ele>
        <time>2019-12-24T18:21:59Z</time>
      </trkpt>
      <trkpt lat="42.65191" lon="2.69612">
        <ele>144.2</ele>
        <time>2019-12-24T18:22:00Z</time>
      </trkpt>
      <trkpt lat="42.65181" lon="2.69634">
        <ele>144.1</ele>
        <time>2019-12-24T18:22:09Z</time>
      </trkpt>
      <trkpt lat="42.65137" lon="2.69743">
        <ele>144</ele>
        <time>2019-12-24T18:22:28Z</time>
      </trkpt>
      <trkpt lat="42.65102" lon="2.69827">
        <ele>143</ele>
        <time>2019-12-24T18:22:39Z</time>
      </trkpt>
      <trkpt lat="42.65088" lon="2.69893">
        <ele>141.5</ele>
        <time>2019-12-24T18:22:43Z</time>
      </trkpt>
      <trkpt lat="42.65068" lon="2.70029">
        <ele>141.4</ele>
        <time>2019-12-24T18:22:58Z</time>
      </trkpt>
      <trkpt lat="42.65056" lon="2.70097">
        <ele>143.4</ele>
        <time>2019-12-24T18:23:07Z</time>
      </trkpt>
      <trkpt lat="42.65041" lon="2.70155">
        <ele>143.8</ele>
        <time>2019-12-24T18:23:12Z</time>
      </trkpt>
      <trkpt lat="42.65029" lon="2.70186">
        <ele>143.5</ele>
        <time>2019-12-24T18:23:19Z</time>
      </trkpt>
      <trkpt lat="42.65017" lon="2.7021">
        <ele>143.3</ele>
        <time>2019-12-24T18:23:20Z</time>
      </trkpt>
      <trkpt lat="42.64999" lon="2.7024">
        <ele>143.7</ele>
        <time>2019-12-24T18:23:20Z</time>
      </trkpt>
      <trkpt lat="42.64945" lon="2.70322">
        <ele>144</ele>
        <time>2019-12-24T18:23:20Z</time>
      </trkpt>
      <trkpt lat="42.64923" lon="2.70362">
        <ele>143.1</ele>
        <time>2019-12-24T18:23:21Z</time>
      </trkpt>
      <trkpt lat="42.64904" lon="2.70405">
        <ele>141.9</ele>
        <time>2019-12-24T18:23:21Z</time>
      </trkpt>
      <trkpt lat="42.64897" lon="2.70419">
        <ele>140.8</ele>
        <time>2019-12-24T18:23:22Z</time>
      </trkpt>
      <trkpt lat="42.6489" lon="2.70431">
        <ele>140.7</ele>
        <time>2019-12-24T18:23:22Z</time>
      </trkpt>
      <trkpt lat="42.64888" lon="2.70432">
        <ele>140.7</ele>
        <time>2019-12-24T18:23:23Z</time>
      </trkpt>
      <trkpt lat="42.64886" lon="2.70432">
        <ele>140.7</ele>
        <time>2019-12-24T18:23:23Z</time>
      </trkpt>
      <trkpt lat="42.64884" lon="2.70434">
        <ele>140.7</ele>
        <time>2019-12-24T18:23:24Z</time>
      </trkpt>
      <trkpt lat="42.64882" lon="2.70436">
        <ele>140.7</ele>
        <time>2019-12-24T18:23:24Z</time>
      </trkpt>
      <trkpt lat="42.64881" lon="2.70438">
        <ele>140.7</ele>
        <time>2019-12-24T18:23:25Z</time>
      </trkpt>
      <trkpt lat="42.64879" lon="2.7044">
        <ele>140.7</ele>
        <time>2019-12-24T18:23:25Z</time>
      </trkpt>
      <trkpt lat="42.64879" lon="2.70442">
        <ele>140.7</ele>
        <time>2019-12-24T18:23:26Z</time>
      </trkpt>
      <trkpt lat="42.64878" lon="2.70444">
        <ele>140.7</ele>
        <time>2019-12-24T18:23:26Z</time>
      </trkpt>
      <trkpt lat="42.64878" lon="2.70446">
        <ele>140.6</ele>
        <time>2019-12-24T18:23:26Z</time>
      </trkpt>
      <trkpt lat="42.64878" lon="2.70448">
        <ele>140.6</ele>
        <time>2019-12-24T18:23:27Z</time>
      </trkpt>
      <trkpt lat="42.64878" lon="2.7045">
        <ele>140.6</ele>
        <time>2019-12-24T18:23:36Z</time>
      </trkpt>
      <trkpt lat="42.64878" lon="2.70453">
        <ele>140.6</ele>
        <time>2019-12-24T18:23:39Z</time>
      </trkpt>
      <trkpt lat="42.64878" lon="2.70455">
        <ele>140.5</ele>
        <time>2019-12-24T18:23:49Z</time>
      </trkpt>
      <trkpt lat="42.64879" lon="2.70457">
        <ele>140.5</ele>
        <time>2019-12-24T18:23:56Z</time>
      </trkpt>
      <trkpt lat="42.6488" lon="2.70459">
        <ele>140.5</ele>
        <time>2019-12-24T18:24:20Z</time>
      </trkpt>
      <trkpt lat="42.64881" lon="2.70462">
        <ele>140.5</ele>
        <time>2019-12-24T18:24:29Z</time>
      </trkpt>
      <trkpt lat="42.64879" lon="2.7048">
        <ele>140.3</ele>
        <time>2019-12-24T18:24:35Z</time>
      </trkpt>
      <trkpt lat="42.64872" lon="2.70509">
        <ele>139.8</ele>
        <time>2019-12-24T18:24:36Z</time>
      </trkpt>
      <trkpt lat="42.64865" lon="2.70535">
        <ele>139.9</ele>
        <time>2019-12-24T18:24:37Z</time>
      </trkpt>
      <trkpt lat="42.64855" lon="2.70568">
        <ele>140.3</ele>
        <time>2019-12-24T18:24:37Z</time>
      </trkpt>
      <trkpt lat="42.64843" lon="2.70589">
        <ele>141</ele>
        <time>2019-12-24T18:24:38Z</time>
      </trkpt>
      <trkpt lat="42.64833" lon="2.70607">
        <ele>142.2</ele>
        <time>2019-12-24T18:24:38Z</time>
      </trkpt>
      <trkpt lat="42.64827" lon="2.70613">
        <ele>142.3</ele>
        <time>2019-12-24T18:24:38Z</time>
      </trkpt>
      <trkpt lat="42.64821" lon="2.70616">
        <ele>142.5</ele>
        <time>2019-12-24T18:24:39Z</time>
      </trkpt>
      <trkpt lat="42.64819" lon="2.70617">
        <ele>142.5</ele>
        <time>2019-12-24T18:24:39Z</time>
      </trkpt>
      <trkpt lat="42.64817" lon="2.70617">
        <ele>142.5</ele>
        <time>2019-12-24T18:24:39Z</time>
      </trkpt>
      <trkpt lat="42.64816" lon="2.70618">
        <ele>142.5</ele>
        <time>2019-12-24T18:24:40Z</time>
      </trkpt>
      <trkpt lat="42.64814" lon="2.7062">
        <ele>142.6</ele>
        <time>2019-12-24T18:24:40Z</time>
      </trkpt>
      <trkpt lat="42.64813" lon="2.70622">
        <ele>142.6</ele>
        <time>2019-12-24T18:24:41Z</time>
      </trkpt>
      <trkpt lat="42.64812" lon="2.70624">
        <ele>142.7</ele>
        <time>2019-12-24T18:24:41Z</time>
      </trkpt>
      <trkpt lat="42.64811" lon="2.70626">
        <ele>142.7</ele>
        <time>2019-12-24T18:24:42Z</time>
      </trkpt>
      <trkpt lat="42.6481" lon="2.70628">
        <ele>142.7</ele>
        <time>2019-12-24T18:24:43Z</time>
      </trkpt>
      <trkpt lat="42.6481" lon="2.7063">
        <ele>142.7</ele>
        <time>2019-12-24T18:24:53Z</time>
      </trkpt>
      <trkpt lat="42.6481" lon="2.70632">
        <ele>142.7</ele>
        <time>2019-12-24T18:24:57Z</time>
      </trkpt>
      <trkpt lat="42.6481" lon="2.70634">
        <ele>142.7</ele>
        <time>2019-12-24T18:25:07Z</time>
      </trkpt>
      <trkpt lat="42.6481" lon="2.70636">
        <ele>142.7</ele>
        <time>2019-12-24T18:25:15Z</time>
      </trkpt>
      <trkpt lat="42.6481" lon="2.70638">
        <ele>142.7</ele>
        <time>2019-12-24T18:25:29Z</time>
      </trkpt>
      <trkpt lat="42.64808" lon="2.70647">
        <ele>142.7</ele>
        <time>2019-12-24T18:25:35Z</time>
      </trkpt>
      <trkpt lat="42.64799" lon="2.70663">
        <ele>142.9</ele>
        <time>2019-12-24T18:25:38Z</time>
      </trkpt>
      <trkpt lat="42.6478" lon="2.70687">
        <ele>142.8</ele>
        <time>2019-12-24T18:25:39Z</time>
      </trkpt>
      <trkpt lat="42.64732" lon="2.70748">
        <ele>143.4</ele>
        <time>2019-12-24T18:25:41Z</time>
      </trkpt>
      <trkpt lat="42.64663" lon="2.70836">
        <ele>144</ele>
        <time>2019-12-24T18:25:41Z</time>
      </trkpt>
      <trkpt lat="42.64636" lon="2.7087">
        <ele>143.7</ele>
        <time>2019-12-24T18:25:41Z</time>
      </trkpt>
      <trkpt lat="42.64626" lon="2.70887">
        <ele>143.6</ele>
        <time>2019-12-24T18:25:42Z</time>
      </trkpt>
      <trkpt lat="42.64616" lon="2.70906">
        <ele>143.6</ele>
        <time>2019-12-24T18:25:42Z</time>
      </trkpt>
      <trkpt lat="42.6461" lon="2.70925">
        <ele>142.8</ele>
        <time>2019-12-24T18:25:42Z</time>
      </trkpt>
      <trkpt lat="42.64605" lon="2.70947">
        <ele>142.6</ele>
        <time>2019-12-24T18:25:42Z</time>
      </trkpt>
      <trkpt lat="42.64595" lon="2.71059">
        <ele>140.6</ele>
        <time>2019-12-24T18:25:43Z</time>
      </trkpt>
      <trkpt lat="42.6458" lon="2.71235">
        <ele>137.7</ele>
        <time>2019-12-24T18:25:43Z</time>
      </trkpt>
      <trkpt lat="42.64569" lon="2.7135">
        <ele>136.3</ele>
        <time>2019-12-24T18:25:45Z</time>
      </trkpt>
      <trkpt lat="42.64541" lon="2.71546">
        <ele>132.9</ele>
        <time>2019-12-24T18:25:54Z</time>
      </trkpt>
      <trkpt lat="42.64529" lon="2.71625">
        <ele>130.7</ele>
        <time>2019-12-24T18:26:09Z</time>
      </trkpt>
      <trkpt lat="42.6452" lon="2.71669">
        <ele>129.1</ele>
        <time>2019-12-24T18:26:18Z</time>
      </trkpt>
      <trkpt lat="42.64474" lon="2.71862">
        <ele>128.6</ele>
        <time>2019-12-24T18:26:22Z</time>
      </trkpt>
      <trkpt lat="42.64439" lon="2.72008">
        <ele>126.6</ele>
        <time>2019-12-24T18:26:24Z</time>
      </trkpt>
      <trkpt lat="42.6441" lon="2.72111">
        <ele>125</ele>
        <time>2019-12-24T18:26:25Z</time>
      </trkpt>
      <trkpt lat="42.644" lon="2.72137">
        <ele>124.4</ele>
        <time>2019-12-24T18:26:25Z</time>
      </trkpt>
      <trkpt lat="42.64372" lon="2.72201">
        <ele>123.6</ele>
        <time>2019-12-24T18:26:26Z</time>
      </trkpt>
      <trkpt lat="42.64311" lon="2.72324">
        <ele>122.4</ele>
        <time>2019-12-24T18:26:26Z</time>
      </trkpt>
      <trkpt lat="42.6426" lon="2.72427">
        <ele>121.7</ele>
        <time>2019-12-24T18:26:26Z</time>
      </trkpt>
      <trkpt lat="42.6418" lon="2.72594">
        <ele>121.9</ele>
        <time>2019-12-24T18:26:27Z</time>
      </trkpt>
      <trkpt lat="42.64164" lon="2.72639">
        <ele>122.9</ele>
        <time>2019-12-24T18:26:27Z</time>
      </trkpt>
      <trkpt lat="42.64145" lon="2.72701">
        <ele>121.3</ele>
        <time>2019-12-24T18:26:27Z</time>
      </trkpt>
      <trkpt lat="42.64125" lon="2.72774">
        <ele>119.7</ele>
        <time>2019-12-24T18:26:27Z</time>
      </trkpt>
      <trkpt lat="42.64107" lon="2.72838">
        <ele>118.3</ele>
        <time>2019-12-24T18:26:28Z</time>
      </trkpt>
      <trkpt lat="42.64088" lon="2.72896">
        <ele>117.9</ele>
        <time>2019-12-24T18:30:22Z</time>
      </trkpt>
      <trkpt lat="42.64076" lon="2.7294">
        <ele>117.5</ele>
        <time>2019-12-24T18:30:23Z</time>
      </trkpt>
      <trkpt lat="42.64048" lon="2.73064">
        <ele>115.5</ele>
        <time>2019-12-24T18:30:23Z</time>
      </trkpt>
      <trkpt lat="42.64003" lon="2.73229">
        <ele>111.6</ele>
        <time>2019-12-24T18:30:23Z</time>
      </trkpt>
      <trkpt lat="42.63991" lon="2.73273">
        <ele>111.4</ele>
        <time>2019-12-24T18:30:24Z</time>
      </trkpt>
      <trkpt lat="42.63984" lon="2.73291">
        <ele>111.3</ele>
        <time>2019-12-24T18:30:24Z</time>
      </trkpt>
      <trkpt lat="42.63969" lon="2.73323">
        <ele>111</ele>
        <time>2019-12-24T18:30:24Z</time>
      </trkpt>
      <trkpt lat="42.63948" lon="2.73361">
        <ele>110.9</ele>
        <time>2019-12-24T18:30:25Z</time>
      </trkpt>
      <trkpt lat="42.63941" lon="2.73379">
        <ele>111</ele>
        <time>2019-12-24T18:30:25Z</time>
      </trkpt>
      <trkpt lat="42.63932" lon="2.73405">
        <ele>111.3</ele>
        <time>2019-12-24T18:30:25Z</time>
      </trkpt>
      <trkpt lat="42.63912" lon="2.73471">
        <ele>113.2</ele>
        <time>2019-12-24T18:30:26Z</time>
      </trkpt>
      <trkpt lat="42.63871" lon="2.73598">
        <ele>112.4</ele>
        <time>2019-12-24T18:30:26Z</time>
      </trkpt>
      <trkpt lat="42.63846" lon="2.7367">
        <ele>112.9</ele>
        <time>2019-12-24T18:30:26Z</time>
      </trkpt>
      <trkpt lat="42.63824" lon="2.73721">
        <ele>113.6</ele>
        <time>2019-12-24T18:30:38Z</time>
      </trkpt>
      <trkpt lat="42.63802" lon="2.73768">
        <ele>112.1</ele>
        <time>2019-12-24T18:30:46Z</time>
      </trkpt>
      <trkpt lat="42.63774" lon="2.73831">
        <ele>111.9</ele>
        <time>2019-12-24T18:30:49Z</time>
      </trkpt>
      <trkpt lat="42.6376" lon="2.73862">
        <ele>110.8</ele>
        <time>2019-12-24T18:30:56Z</time>
      </trkpt>
      <trkpt lat="42.63752" lon="2.73889">
        <ele>110.6</ele>
        <time>2019-12-24T18:31:02Z</time>
      </trkpt>
      <trkpt lat="42.63745" lon="2.73918">
        <ele>111.1</ele>
        <time>2019-12-24T18:31:22Z</time>
      </trkpt>
      <trkpt lat="42.63741" lon="2.73949">
        <ele>111.2</ele>
        <time>2019-12-24T18:31:27Z</time>
      </trkpt>
      <trkpt lat="42.63739" lon="2.73979">
        <ele>110.9</ele>
        <time>2019-12-24T18:31:32Z</time>
      </trkpt>
      <trkpt lat="42.63738" lon="2.74017">
        <ele>109.4</ele>
        <time>2019-12-24T18:31:35Z</time>
      </trkpt>
      <trkpt lat="42.63735" lon="2.74084">
        <ele>106.2</ele>
        <time>2019-12-24T18:31:40Z</time>
      </trkpt>
      <trkpt lat="42.6373" lon="2.74148">
        <ele>105.8</ele>
        <time>2019-12-24T18:31:47Z</time>
      </trkpt>
      <trkpt lat="42.63733" lon="2.74202">
        <ele>104</ele>
        <time>2019-12-24T18:31:50Z</time>
      </trkpt>
      <trkpt lat="42.63743" lon="2.74303">
        <ele>100.7</ele>
        <time>2019-12-24T18:31:52Z</time>
      </trkpt>
      <trkpt lat="42.63744" lon="2.7435">
        <ele>99.5</ele>
        <time>2019-12-24T18:31:54Z</time>
      </trkpt>
      <trkpt lat="42.63738" lon="2.74413">
        <ele>100.5</ele>
        <time>2019-12-24T18:32:00Z</time>
      </trkpt>
      <trkpt lat="42.63729" lon="2.74492">
        <ele>99.3</ele>
        <time>2019-12-24T18:32:07Z</time>
      </trkpt>
      <trkpt lat="42.63715" lon="2.74651">
        <ele>97.3</ele>
        <time>2019-12-24T18:32:35Z</time>
      </trkpt>
      <trkpt lat="42.63709" lon="2.74787">
        <ele>95.1</ele>
        <time>2019-12-24T18:32:49Z</time>
      </trkpt>
      <trkpt lat="42.63702" lon="2.74949">
        <ele>94.4</ele>
        <time>2019-12-24T18:33:00Z</time>
      </trkpt>
      <trkpt lat="42.637" lon="2.74967">
        <ele>94.4</ele>
        <time>2019-12-24T18:33:08Z</time>
      </trkpt>
      <trkpt lat="42.63695" lon="2.74986">
        <ele>94.4</ele>
        <time>2019-12-24T18:33:09Z</time>
      </trkpt>
      <trkpt lat="42.63693" lon="2.74987">
        <ele>94.3</ele>
        <time>2019-12-24T18:33:09Z</time>
      </trkpt>
      <trkpt lat="42.63691" lon="2.74989">
        <ele>94.3</ele>
        <time>2019-12-24T18:33:10Z</time>
      </trkpt>
      <trkpt lat="42.6369" lon="2.74992">
        <ele>94.3</ele>
        <time>2019-12-24T18:33:10Z</time>
      </trkpt>
      <trkpt lat="42.63688" lon="2.74995">
        <ele>94.3</ele>
        <time>2019-12-24T18:33:11Z</time>
      </trkpt>
      <trkpt lat="42.63687" lon="2.74998">
        <ele>94.3</ele>
        <time>2019-12-24T18:33:13Z</time>
      </trkpt>
      <trkpt lat="42.63686" lon="2.75001">
        <ele>94.6</ele>
        <time>2019-12-24T18:33:15Z</time>
      </trkpt>
      <trkpt lat="42.63684" lon="2.75009">
        <ele>94.6</ele>
        <time>2019-12-24T18:33:18Z</time>
      </trkpt>
      <trkpt lat="42.63674" lon="2.75024">
        <ele>94.7</ele>
        <time>2019-12-24T18:33:21Z</time>
      </trkpt>
      <trkpt lat="42.6367" lon="2.75031">
        <ele>94.8</ele>
        <time>2019-12-24T18:33:24Z</time>
      </trkpt>
      <trkpt lat="42.63637" lon="2.75116">
        <ele>97.1</ele>
        <time>2019-12-24T18:33:27Z</time>
      </trkpt>
      <trkpt lat="42.63631" lon="2.75132">
        <ele>97.2</ele>
        <time>2019-12-24T18:33:30Z</time>
      </trkpt>
      <trkpt lat="42.63626" lon="2.75144">
        <ele>97.3</ele>
        <time>2019-12-24T18:33:31Z</time>
      </trkpt>
      <trkpt lat="42.63593" lon="2.752">
        <ele>96.7</ele>
        <time>2019-12-24T18:33:39Z</time>
      </trkpt>
      <trkpt lat="42.63558" lon="2.75261">
        <ele>96.9</ele>
        <time>2019-12-24T18:33:44Z</time>
      </trkpt>
      <trkpt lat="42.63534" lon="2.75303">
        <ele>97.8</ele>
        <time>2019-12-24T18:33:46Z</time>
      </trkpt>
      <trkpt lat="42.63502" lon="2.75356">
        <ele>99.4</ele>
        <time>2019-12-24T18:33:48Z</time>
      </trkpt>
      <trkpt lat="42.63438" lon="2.75445">
        <ele>102.8</ele>
        <time>2019-12-24T18:34:04Z</time>
      </trkpt>
      <trkpt lat="42.63432" lon="2.75438">
        <ele>103</ele>
        <time>2019-12-24T18:34:08Z</time>
      </trkpt>
      <trkpt lat="42.63366" lon="2.75369">
        <ele>105.2</ele>
        <time>2019-12-24T18:34:11Z</time>
      </trkpt>
      <trkpt lat="42.63311" lon="2.75321">
        <ele>106.8</ele>
        <time>2019-12-24T18:34:13Z</time>
      </trkpt>
      <trkpt lat="42.63303" lon="2.75318">
        <ele>106.8</ele>
        <time>2019-12-24T18:34:17Z</time>
      </trkpt>
      <trkpt lat="42.63272" lon="2.75317">
        <ele>106.9</ele>
        <time>2019-12-24T18:34:30Z</time>
      </trkpt>
      <trkpt lat="42.63255" lon="2.75316">
        <ele>107</ele>
        <time>2019-12-24T18:34:38Z</time>
      </trkpt>
      <trkpt lat="42.63255" lon="2.75315">
        <ele>107</ele>
        <time>2019-12-24T18:34:41Z</time>
      </trkpt>
      <trkpt lat="42.63254" lon="2.75314">
        <ele>107</ele>
        <time>2019-12-24T18:34:45Z</time>
      </trkpt>
      <trkpt lat="42.63253" lon="2.75312">
        <ele>107</ele>
        <time>2019-12-24T18:34:57Z</time>
      </trkpt>
      <trkpt lat="42.63252" lon="2.75311">
        <ele>107</ele>
        <time>2019-12-24T18:35:00Z</time>
      </trkpt>
      <trkpt lat="42.6325" lon="2.75311">
        <ele>107</ele>
        <time>2019-12-24T18:35:02Z</time>
      </trkpt>
      <trkpt lat="42.63248" lon="2.75311">
        <ele>107.5</ele>
        <time>2019-12-24T18:35:05Z</time>
      </trkpt>
      <trkpt lat="42.63247" lon="2.75312">
        <ele>107.5</ele>
        <time>2019-12-24T18:35:06Z</time>
      </trkpt>
      <trkpt lat="42.63224" lon="2.75247">
        <ele>108.3</ele>
        <time>2019-12-24T18:35:26Z</time>
      </trkpt>
      <trkpt lat="42.63211" lon="2.75107">
        <ele>110.5</ele>
        <time>2019-12-24T18:35:32Z</time>
      </trkpt>
      <trkpt lat="42.632" lon="2.75021">
        <ele>113.2</ele>
        <time>2019-12-24T18:35:40Z</time>
      </trkpt>
      <trkpt lat="42.63179" lon="2.75032">
        <ele>113.2</ele>
        <time>2019-12-24T18:35:48Z</time>
      </trkpt>
      <trkpt lat="42.63112" lon="2.75094">
        <ele>111.2</ele>
        <time>2019-12-24T18:35:49Z</time>
      </trkpt>
      <trkpt lat="42.63069" lon="2.75136">
        <ele>111</ele>
        <time>2019-12-24T18:35:52Z</time>
      </trkpt>
      <trkpt lat="42.63045" lon="2.75158">
        <ele>110.8</ele>
        <time>2019-12-24T18:35:54Z</time>
      </trkpt>
      <trkpt lat="42.63028" lon="2.75166">
        <ele>110.7</ele>
        <time>2019-12-24T18:36:21Z</time>
      </trkpt>
      <trkpt lat="42.63023" lon="2.7517">
        <ele>110</ele>
        <time>2019-12-24T18:36:28Z</time>
      </trkpt>
      <trkpt lat="42.63021" lon="2.75166">
        <ele>110.6</ele>
        <time>2019-12-24T18:36:31Z</time>
      </trkpt>
      <trkpt lat="42.6302" lon="2.75164">
        <ele>110.6</ele>
        <time>2019-12-24T18:36:35Z</time>
      </trkpt>
      <trkpt lat="42.63018" lon="2.75162">
        <ele>110.6</ele>
        <time>2019-12-24T18:36:40Z</time>
      </trkpt>
      <trkpt lat="42.63016" lon="2.7516">
        <ele>110.6</ele>
        <time>2019-12-24T18:36:45Z</time>
      </trkpt>
      <trkpt lat="42.63014" lon="2.75159">
        <ele>110.6</ele>
        <time>2019-12-24T18:36:52Z</time>
      </trkpt>
      <trkpt lat="42.63011" lon="2.75158">
        <ele>110.5</ele>
        <time>2019-12-24T18:37:07Z</time>
      </trkpt>
      <trkpt lat="42.63009" lon="2.75158">
        <ele>110.5</ele>
        <time>2019-12-24T18:37:41Z</time>
      </trkpt>
      <trkpt lat="42.63007" lon="2.75158">
        <ele>110.5</ele>
        <time>2019-12-24T18:38:02Z</time>
      </trkpt>
      <trkpt lat="42.63005" lon="2.75159">
        <ele>110.4</ele>
        <time>2019-12-24T18:38:19Z</time>
      </trkpt>
      <trkpt lat="42.63002" lon="2.7516">
        <ele>110.3</ele>
        <time>2019-12-24T18:38:22Z</time>
      </trkpt>
      <trkpt lat="42.63" lon="2.75162">
        <ele>110.2</ele>
        <time>2019-12-24T18:38:25Z</time>
      </trkpt>
      <trkpt lat="42.62998" lon="2.75164">
        <ele>110.3</ele>
        <time>2019-12-24T18:38:28Z</time>
      </trkpt>
      <trkpt lat="42.62996" lon="2.75166">
        <ele>110.3</ele>
        <time>2019-12-24T18:38:32Z</time>
      </trkpt>
      <trkpt lat="42.62994" lon="2.75169">
        <ele>110.3</ele>
        <time>2019-12-24T18:38:36Z</time>
      </trkpt>
      <trkpt lat="42.62993" lon="2.75172">
        <ele>110.4</ele>
        <time>2019-12-24T18:38:54Z</time>
      </trkpt>
      <trkpt lat="42.62992" lon="2.75175">
        <ele>110.5</ele>
        <time>2019-12-24T18:38:59Z</time>
      </trkpt>
      <trkpt lat="42.62992" lon="2.75178">
        <ele>110.6</ele>
        <time>2019-12-24T18:39:01Z</time>
      </trkpt>
      <trkpt lat="42.62992" lon="2.75182">
        <ele>110.7</ele>
        <time>2019-12-24T18:39:06Z</time>
      </trkpt>
      <trkpt lat="42.62992" lon="2.75185">
        <ele>110.7</ele>
        <time>2019-12-24T18:39:19Z</time>
      </trkpt>
      <trkpt lat="42.62993" lon="2.75188">
        <ele>110.8</ele>
        <time>2019-12-24T18:39:48Z</time>
      </trkpt>
      <trkpt lat="42.62994" lon="2.75191">
        <ele>110.8</ele>
        <time>2019-12-24T18:39:56Z</time>
      </trkpt>
      <trkpt lat="42.62995" lon="2.75194">
        <ele>110.9</ele>
        <time>2019-12-24T18:40:02Z</time>
      </trkpt>
      <trkpt lat="42.62997" lon="2.75196">
        <ele>110.9</ele>
        <time>2019-12-24T18:40:13Z</time>
      </trkpt>
      <trkpt lat="42.62974" lon="2.7526">
        <ele>110.9</ele>
        <time>2019-12-24T18:40:16Z</time>
      </trkpt>
      <trkpt lat="42.62969" lon="2.75281">
        <ele>110.9</ele>
        <time>2019-12-24T18:40:21Z</time>
      </trkpt>
      <trkpt lat="42.6295" lon="2.75354">
        <ele>109.2</ele>
        <time>2019-12-24T18:40:43Z</time>
      </trkpt>
      <trkpt lat="42.62937" lon="2.754">
        <ele>108.8</ele>
        <time>2019-12-24T18:40:46Z</time>
      </trkpt>
      <trkpt lat="42.62871" lon="2.7556">
        <ele>105.5</ele>
        <time>2019-12-24T18:41:04Z</time>
      </trkpt>
      <trkpt lat="42.62844" lon="2.75624">
        <ele>105</ele>
        <time>2019-12-24T18:41:26Z</time>
      </trkpt>
      <trkpt lat="42.62827" lon="2.75657">
        <ele>105.3</ele>
        <time>2019-12-24T18:41:35Z</time>
      </trkpt>
      <trkpt lat="42.62823" lon="2.75668">
        <ele>104.8</ele>
        <time>2019-12-24T18:41:39Z</time>
      </trkpt>
      <trkpt lat="42.62821" lon="2.75669">
        <ele>104.8</ele>
        <time>2019-12-24T18:41:47Z</time>
      </trkpt>
      <trkpt lat="42.62819" lon="2.75669">
        <ele>104.8</ele>
        <time>2019-12-24T18:41:49Z</time>
      </trkpt>
      <trkpt lat="42.62817" lon="2.7567">
        <ele>104.7</ele>
        <time>2019-12-24T18:41:51Z</time>
      </trkpt>
      <trkpt lat="42.62815" lon="2.75672">
        <ele>104.7</ele>
        <time>2019-12-24T18:41:53Z</time>
      </trkpt>
      <trkpt lat="42.62814" lon="2.75673">
        <ele>104.7</ele>
        <time>2019-12-24T18:41:59Z</time>
      </trkpt>
      <trkpt lat="42.62813" lon="2.75675">
        <ele>104.7</ele>
        <time>2019-12-24T18:42:05Z</time>
      </trkpt>
      <trkpt lat="42.62812" lon="2.75678">
        <ele>104.7</ele>
        <time>2019-12-24T18:42:08Z</time>
      </trkpt>
      <trkpt lat="42.62812" lon="2.7568">
        <ele>104.7</ele>
        <time>2019-12-24T18:42:14Z</time>
      </trkpt>
      <trkpt lat="42.62811" lon="2.75683">
        <ele>104.6</ele>
        <time>2019-12-24T18:42:21Z</time>
      </trkpt>
      <trkpt lat="42.62812" lon="2.75686">
        <ele>104.6</ele>
        <time>2019-12-24T18:42:23Z</time>
      </trkpt>
      <trkpt lat="42.62812" lon="2.75689">
        <ele>104.6</ele>
        <time>2019-12-24T18:42:26Z</time>
      </trkpt>
      <trkpt lat="42.62813" lon="2.75691">
        <ele>104.6</ele>
        <time>2019-12-24T18:42:27Z</time>
      </trkpt>
      <trkpt lat="42.62815" lon="2.75694">
        <ele>104.5</ele>
        <time>2019-12-24T18:42:30Z</time>
      </trkpt>
      <trkpt lat="42.62815" lon="2.75705">
        <ele>104.4</ele>
        <time>2019-12-24T18:42:34Z</time>
      </trkpt>
      <trkpt lat="42.62814" lon="2.75783">
        <ele>103.7</ele>
        <time>2019-12-24T18:42:36Z</time>
      </trkpt>
      <trkpt lat="42.62813" lon="2.75813">
        <ele>103.7</ele>
        <time>2019-12-24T18:42:46Z</time>
      </trkpt>
      <trkpt lat="42.62816" lon="2.75889">
        <ele>103.1</ele>
        <time>2019-12-24T18:42:58Z</time>
      </trkpt>
      <trkpt lat="42.6282" lon="2.75949">
        <ele>101.7</ele>
        <time>2019-12-24T18:43:00Z</time>
      </trkpt>
      <trkpt lat="42.62829" lon="2.76055">
        <ele>99.7</ele>
        <time>2019-12-24T18:43:13Z</time>
      </trkpt>
      <trkpt lat="42.6277" lon="2.76064">
        <ele>100</ele>
        <time>2019-12-24T18:43:20Z</time>
      </trkpt>
      <trkpt lat="42.62746" lon="2.7612">
        <ele>101.6</ele>
        <time>2019-12-24T18:43:33Z</time>
      </trkpt>
      <trkpt lat="42.6272" lon="2.76182">
        <ele>101.7</ele>
        <time>2019-12-24T18:43:39Z</time>
      </trkpt>
      <trkpt lat="42.62557" lon="2.76267">
        <ele>104.5</ele>
        <time>2019-12-24T18:43:41Z</time>
      </trkpt>
      <trkpt lat="42.62511" lon="2.76311">
        <ele>104.5</ele>
        <time>2019-12-24T18:43:41Z</time>
      </trkpt>
      <trkpt lat="42.62425" lon="2.76402">
        <ele>105.2</ele>
        <time>2019-12-24T18:43:42Z</time>
      </trkpt>
      <trkpt lat="42.62374" lon="2.76463">
        <ele>105.2</ele>
        <time>2019-12-24T18:43:42Z</time>
      </trkpt>
      <trkpt lat="42.62291" lon="2.76593">
        <ele>104.8</ele>
        <time>2019-12-24T18:43:42Z</time>
      </trkpt>
      <trkpt lat="42.6223" lon="2.76712">
        <ele>105.6</ele>
        <time>2019-12-24T18:43:42Z</time>
      </trkpt>
      <trkpt lat="42.6221" lon="2.76741">
        <ele>105.8</ele>
        <time>2019-12-24T18:43:43Z</time>
      </trkpt>
      <trkpt lat="42.62187" lon="2.76766">
        <ele>105.4</ele>
        <time>2019-12-24T18:43:43Z</time>
      </trkpt>
      <trkpt lat="42.62136" lon="2.76803">
        <ele>106.8</ele>
        <time>2019-12-24T18:43:43Z</time>
      </trkpt>
      <trkpt lat="42.62107" lon="2.76826">
        <ele>107.2</ele>
        <time>2019-12-24T18:43:44Z</time>
      </trkpt>
      <trkpt lat="42.62093" lon="2.76853">
        <ele>107.3</ele>
        <time>2019-12-24T18:43:44Z</time>
      </trkpt>
      <trkpt lat="42.62091" lon="2.76853">
        <ele>107.3</ele>
        <time>2019-12-24T18:43:44Z</time>
      </trkpt>
      <trkpt lat="42.62089" lon="2.76853">
        <ele>107.3</ele>
        <time>2019-12-24T18:43:45Z</time>
      </trkpt>
      <trkpt lat="42.62088" lon="2.76854">
        <ele>107.3</ele>
        <time>2019-12-24T18:43:45Z</time>
      </trkpt>
      <trkpt lat="42.62087" lon="2.76855">
        <ele>107.3</ele>
        <time>2019-12-24T18:43:47Z</time>
      </trkpt>
      <trkpt lat="42.62076" lon="2.76847">
        <ele>108.2</ele>
        <time>2019-12-24T18:43:51Z</time>
      </trkpt>
      <trkpt lat="42.62055" lon="2.76836">
        <ele>108.4</ele>
        <time>2019-12-24T18:43:59Z</time>
      </trkpt>
      <trkpt lat="42.62033" lon="2.7683">
        <ele>108.4</ele>
        <time>2019-12-24T18:44:08Z</time>
      </trkpt>
      <trkpt lat="42.62015" lon="2.76827">
        <ele>108.6</ele>
        <time>2019-12-24T18:44:10Z</time>
      </trkpt>
      <trkpt lat="42.61992" lon="2.76827">
        <ele>109.1</ele>
        <time>2019-12-24T18:44:11Z</time>
      </trkpt>
      <trkpt lat="42.61942" lon="2.76838">
        <ele>109.7</ele>
        <time>2019-12-24T18:44:13Z</time>
      </trkpt>
      <trkpt lat="42.61906" lon="2.76848">
        <ele>110.5</ele>
        <time>2019-12-24T18:44:15Z</time>
      </trkpt>
      <trkpt lat="42.61871" lon="2.76857">
        <ele>110.9</ele>
        <time>2019-12-24T18:44:17Z</time>
      </trkpt>
      <trkpt lat="42.6187" lon="2.76856">
        <ele>110.9</ele>
        <time>2019-12-24T18:44:18Z</time>
      </trkpt>
      <trkpt lat="42.61869" lon="2.76854">
        <ele>110.9</ele>
        <time>2019-12-24T18:44:19Z</time>
      </trkpt>
      <trkpt lat="42.61867" lon="2.76853">
        <ele>111</ele>
        <time>2019-12-24T18:44:20Z</time>
      </trkpt>
      <trkpt lat="42.61866" lon="2.76852">
        <ele>111</ele>
        <time>2019-12-24T18:44:21Z</time>
      </trkpt>
      <trkpt lat="42.61865" lon="2.76853">
        <ele>111</ele>
        <time>2019-12-24T18:44:21Z</time>
      </trkpt>
      <trkpt lat="42.61863" lon="2.76853">
        <ele>111</ele>
        <time>2019-12-24T18:44:21Z</time>
      </trkpt>
      <trkpt lat="42.61862" lon="2.76854">
        <ele>111</ele>
        <time>2019-12-24T18:44:22Z</time>
      </trkpt>
      <trkpt lat="42.61861" lon="2.76855">
        <ele>111</ele>
        <time>2019-12-24T18:44:22Z</time>
      </trkpt>
      <trkpt lat="42.6186" lon="2.76856">
        <ele>111</ele>
        <time>2019-12-24T18:44:22Z</time>
      </trkpt>
      <trkpt lat="42.61859" lon="2.76858">
        <ele>111</ele>
        <time>2019-12-24T18:44:22Z</time>
      </trkpt>
      <trkpt lat="42.61859" lon="2.7686">
        <ele>111.1</ele>
        <time>2019-12-24T18:44:23Z</time>
      </trkpt>
      <trkpt lat="42.61858" lon="2.76861">
        <ele>111.1</ele>
        <time>2019-12-24T18:44:23Z</time>
      </trkpt>
      <trkpt lat="42.61809" lon="2.76874">
        <ele>112.4</ele>
        <time>2019-12-24T18:44:23Z</time>
      </trkpt>
      <trkpt lat="42.61754" lon="2.76893">
        <ele>113.1</ele>
        <time>2019-12-24T18:44:24Z</time>
      </trkpt>
      <trkpt lat="42.61704" lon="2.76906">
        <ele>115.3</ele>
        <time>2019-12-24T18:44:24Z</time>
      </trkpt>
      <trkpt lat="42.61687" lon="2.76906">
        <ele>115.8</ele>
        <time>2019-12-24T18:44:24Z</time>
      </trkpt>
      <trkpt lat="42.61686" lon="2.76904">
        <ele>115.8</ele>
        <time>2019-12-24T18:44:25Z</time>
      </trkpt>
      <trkpt lat="42.61685" lon="2.76903">
        <ele>115.8</ele>
        <time>2019-12-24T18:44:25Z</time>
      </trkpt>
      <trkpt lat="42.61683" lon="2.76902">
        <ele>115.9</ele>
        <time>2019-12-24T18:44:25Z</time>
      </trkpt>
      <trkpt lat="42.61682" lon="2.76901">
        <ele>115.9</ele>
        <time>2019-12-24T18:44:26Z</time>
      </trkpt>
      <trkpt lat="42.61681" lon="2.769">
        <ele>115.9</ele>
        <time>2019-12-24T18:44:26Z</time>
      </trkpt>
      <trkpt lat="42.6168" lon="2.769">
        <ele>115.9</ele>
        <time>2019-12-24T18:44:28Z</time>
      </trkpt>
      <trkpt lat="42.61679" lon="2.76901">
        <ele>116</ele>
        <time>2019-12-24T18:44:30Z</time>
      </trkpt>
      <trkpt lat="42.61677" lon="2.76901">
        <ele>116</ele>
        <time>2019-12-24T18:44:33Z</time>
      </trkpt>
      <trkpt lat="42.61676" lon="2.76902">
        <ele>116.1</ele>
        <time>2019-12-24T18:44:48Z</time>
      </trkpt>
      <trkpt lat="42.61675" lon="2.76904">
        <ele>116.1</ele>
        <time>2019-12-24T18:45:06Z</time>
      </trkpt>
      <trkpt lat="42.61674" lon="2.76905">
        <ele>116.2</ele>
        <time>2019-12-24T18:45:19Z</time>
      </trkpt>
      <trkpt lat="42.61674" lon="2.76907">
        <ele>116.3</ele>
        <time>2019-12-24T18:45:28Z</time>
      </trkpt>
      <trkpt lat="42.61609" lon="2.76906">
        <ele>117.8</ele>
        <time>2019-12-24T18:45:33Z</time>
      </trkpt>
      <trkpt lat="42.61564" lon="2.76907">
        <ele>119.1</ele>
        <time>2019-12-24T18:45:47Z</time>
      </trkpt>
      <trkpt lat="42.61544" lon="2.76907">
        <ele>119.6</ele>
        <time>2019-12-24T18:45:57Z</time>
      </trkpt>
      <trkpt lat="42.61508" lon="2.76909">
        <ele>120.5</ele>
        <time>2019-12-24T18:46:11Z</time>
      </trkpt>
      <trkpt lat="42.61476" lon="2.76918">
        <ele>121.2</ele>
        <time>2019-12-24T18:46:17Z</time>
      </trkpt>
      <trkpt lat="42.61375" lon="2.76985">
        <ele>125.3</ele>
        <time>2019-12-24T18:46:30Z</time>
      </trkpt>
      <trkpt lat="42.61348" lon="2.77001">
        <ele>126.8</ele>
        <time>2019-12-24T18:46:37Z</time>
      </trkpt>
      <trkpt lat="42.6132" lon="2.77003">
        <ele>129.3</ele>
        <time>2019-12-24T18:46:43Z</time>
      </trkpt>
      <trkpt lat="42.61302" lon="2.76996">
        <ele>130.4</ele>
        <time>2019-12-24T18:46:49Z</time>
      </trkpt>
      <trkpt lat="42.6128" lon="2.76979">
        <ele>131.5</ele>
        <time>2019-12-24T18:46:52Z</time>
      </trkpt>
      <trkpt lat="42.61244" lon="2.7695">
        <ele>134.3</ele>
        <time>2019-12-24T18:46:57Z</time>
      </trkpt>
      <trkpt lat="42.61231" lon="2.76943">
        <ele>134.3</ele>
        <time>2019-12-24T18:47:01Z</time>
      </trkpt>
      <trkpt lat="42.61218" lon="2.76941">
        <ele>134.5</ele>
        <time>2019-12-24T18:47:09Z</time>
      </trkpt>
      <trkpt lat="42.61209" lon="2.7694">
        <ele>134.6</ele>
        <time>2019-12-24T18:47:17Z</time>
      </trkpt>
      <trkpt lat="42.61175" lon="2.76947">
        <ele>134.9</ele>
        <time>2019-12-24T18:47:24Z</time>
      </trkpt>
      <trkpt lat="42.61135" lon="2.76964">
        <ele>135.7</ele>
        <time>2019-12-24T18:47:32Z</time>
      </trkpt>
      <trkpt lat="42.60989" lon="2.77044">
        <ele>136.5</ele>
        <time>2019-12-24T18:47:36Z</time>
      </trkpt>
      <trkpt lat="42.60919" lon="2.77081">
        <ele>137</ele>
        <time>2019-12-24T18:47:41Z</time>
      </trkpt>
      <trkpt lat="42.6086" lon="2.77113">
        <ele>137</ele>
        <time>2019-12-24T18:47:44Z</time>
      </trkpt>
      <trkpt lat="42.60819" lon="2.77138">
        <ele>136.5</ele>
        <time>2019-12-24T18:47:51Z</time>
      </trkpt>
      <trkpt lat="42.60816" lon="2.7714">
        <ele>136.5</ele>
        <time>2019-12-24T18:48:15Z</time>
      </trkpt>
      <trkpt lat="42.60814" lon="2.77143">
        <ele>136.5</ele>
        <time>2019-12-24T18:48:20Z</time>
      </trkpt>
      <trkpt lat="42.60814" lon="2.77146">
        <ele>136.5</ele>
        <time>2019-12-24T18:48:42Z</time>
      </trkpt>
      <trkpt lat="42.60813" lon="2.77148">
        <ele>136.5</ele>
        <time>2019-12-24T18:48:52Z</time>
      </trkpt>
      <trkpt lat="42.60814" lon="2.77157">
        <ele>136.5</ele>
        <time>2019-12-24T18:48:57Z</time>
      </trkpt>
      <trkpt lat="42.60816" lon="2.7717">
        <ele>135.5</ele>
        <time>2019-12-24T18:48:59Z</time>
      </trkpt>
      <trkpt lat="42.60819" lon="2.77186">
        <ele>135.2</ele>
        <time>2019-12-24T18:49:14Z</time>
      </trkpt>
      <trkpt lat="42.60823" lon="2.77206">
        <ele>134.7</ele>
        <time>2019-12-24T18:49:16Z</time>
      </trkpt>
      <trkpt lat="42.60826" lon="2.77231">
        <ele>134.5</ele>
        <time>2019-12-24T18:49:41Z</time>
      </trkpt>
      <trkpt lat="42.60827" lon="2.77253">
        <ele>134.2</ele>
        <time>2019-12-24T18:49:44Z</time>
      </trkpt>
      <trkpt lat="42.6082" lon="2.77276">
        <ele>132.9</ele>
        <time>2019-12-24T18:49:53Z</time>
      </trkpt>
      <trkpt lat="42.60809" lon="2.7729">
        <ele>132.4</ele>
        <time>2019-12-24T18:50:02Z</time>
      </trkpt>
      <trkpt lat="42.60802" lon="2.77294">
        <ele>132.2</ele>
        <time>2019-12-24T18:50:05Z</time>
      </trkpt>
      <trkpt lat="42.60758" lon="2.77309">
        <ele>131.1</ele>
        <time>2019-12-24T18:50:08Z</time>
      </trkpt>
      <trkpt lat="42.60735" lon="2.77319">
        <ele>125.8</ele>
        <time>2019-12-24T18:50:09Z</time>
      </trkpt>
      <trkpt lat="42.60728" lon="2.77329">
        <ele>125.3</ele>
        <time>2019-12-24T18:50:11Z</time>
      </trkpt>
      <trkpt lat="42.60724" lon="2.77345">
        <ele>123.8</ele>
        <time>2019-12-24T18:50:14Z</time>
      </trkpt>
      <trkpt lat="42.60698" lon="2.77464">
        <ele>121.3</ele>
        <time>2019-12-24T18:50:17Z</time>
      </trkpt>
      <trkpt lat="42.60685" lon="2.77486">
        <ele>120.4</ele>
        <time>2019-12-24T18:50:19Z</time>
      </trkpt>
      <trkpt lat="42.60671" lon="2.77498">
        <ele>118.7</ele>
        <time>2019-12-24T18:50:22Z</time>
      </trkpt>
      <trkpt lat="42.60657" lon="2.77505">
        <ele>117.1</ele>
        <time>2019-12-24T18:50:24Z</time>
      </trkpt>
      <trkpt lat="42.60639" lon="2.77508">
        <ele>115.8</ele>
        <time>2019-12-24T18:50:26Z</time>
      </trkpt>
      <trkpt lat="42.60561" lon="2.77506">
        <ele>110</ele>
        <time>2019-12-24T18:50:28Z</time>
      </trkpt>
      <trkpt lat="42.6052" lon="2.77506">
        <ele>110.3</ele>
        <time>2019-12-24T18:50:31Z</time>
      </trkpt>
      <trkpt lat="42.60502" lon="2.77506">
        <ele>110.7</ele>
        <time>2019-12-24T18:50:33Z</time>
      </trkpt>
      <trkpt lat="42.60477" lon="2.77512">
        <ele>111.6</ele>
        <time>2019-12-24T18:50:35Z</time>
      </trkpt>
      <trkpt lat="42.60414" lon="2.77541">
        <ele>114.3</ele>
        <time>2019-12-24T18:50:40Z</time>
      </trkpt>
      <trkpt lat="42.60398" lon="2.77545">
        <ele>114.3</ele>
        <time>2019-12-24T18:50:44Z</time>
      </trkpt>
      <trkpt lat="42.60388" lon="2.77545">
        <ele>114.4</ele>
        <time>2019-12-24T18:50:50Z</time>
      </trkpt>
      <trkpt lat="42.60371" lon="2.77541">
        <ele>114.8</ele>
        <time>2019-12-24T18:50:53Z</time>
      </trkpt>
      <trkpt lat="42.60365" lon="2.77537">
        <ele>115</ele>
        <time>2019-12-24T18:50:55Z</time>
      </trkpt>
      <trkpt lat="42.60269" lon="2.77457">
        <ele>121.3</ele>
        <time>2019-12-24T18:50:59Z</time>
      </trkpt>
      <trkpt lat="42.60246" lon="2.77422">
        <ele>122.8</ele>
        <time>2019-12-24T18:51:02Z</time>
      </trkpt>
      <trkpt lat="42.60218" lon="2.77376">
        <ele>124.2</ele>
        <time>2019-12-24T18:51:05Z</time>
      </trkpt>
      <trkpt lat="42.60195" lon="2.77331">
        <ele>124.4</ele>
        <time>2019-12-24T18:51:18Z</time>
      </trkpt>
      <trkpt lat="42.60186" lon="2.77324">
        <ele>124.9</ele>
        <time>2019-12-24T18:51:24Z</time>
      </trkpt>
      <trkpt lat="42.60174" lon="2.77321">
        <ele>125.5</ele>
        <time>2019-12-24T18:51:27Z</time>
      </trkpt>
      <trkpt lat="42.6016" lon="2.7732">
        <ele>127.1</ele>
        <time>2019-12-24T18:51:32Z</time>
      </trkpt>
      <trkpt lat="42.60007" lon="2.77323">
        <ele>126.9</ele>
        <time>2019-12-24T18:51:36Z</time>
      </trkpt>
      <trkpt lat="42.59972" lon="2.77327">
        <ele>125.9</ele>
        <time>2019-12-24T18:51:38Z</time>
      </trkpt>
      <trkpt lat="42.59953" lon="2.77333">
        <ele>125.4</ele>
        <time>2019-12-24T18:51:45Z</time>
      </trkpt>
      <trkpt lat="42.59932" lon="2.77343">
        <ele>123.6</ele>
        <time>2019-12-24T18:51:56Z</time>
      </trkpt>
      <trkpt lat="42.59908" lon="2.7736">
        <ele>121.6</ele>
        <time>2019-12-24T18:52:00Z</time>
      </trkpt>
      <trkpt lat="42.59883" lon="2.77384">
        <ele>121</ele>
        <time>2019-12-24T18:52:05Z</time>
      </trkpt>
      <trkpt lat="42.59854" lon="2.77417">
        <ele>120.7</ele>
        <time>2019-12-24T18:52:09Z</time>
      </trkpt>
      <trkpt lat="42.59786" lon="2.77485">
        <ele>124.3</ele>
        <time>2019-12-24T18:52:13Z</time>
      </trkpt>
      <trkpt lat="42.59612" lon="2.77585">
        <ele>129.4</ele>
        <time>2019-12-24T18:52:15Z</time>
      </trkpt>
      <trkpt lat="42.59499" lon="2.77647">
        <ele>134</ele>
        <time>2019-12-24T18:52:18Z</time>
      </trkpt>
      <trkpt lat="42.59414" lon="2.77695">
        <ele>136.7</ele>
        <time>2019-12-24T18:52:21Z</time>
      </trkpt>
      <trkpt lat="42.59395" lon="2.77706">
        <ele>136.6</ele>
        <time>2019-12-24T18:52:26Z</time>
      </trkpt>
      <trkpt lat="42.59383" lon="2.77712">
        <ele>136.6</ele>
        <time>2019-12-24T18:52:28Z</time>
      </trkpt>
      <trkpt lat="42.59363" lon="2.7772">
        <ele>136.5</ele>
        <time>2019-12-24T18:52:30Z</time>
      </trkpt>
      <trkpt lat="42.59345" lon="2.77724">
        <ele>136.6</ele>
        <time>2019-12-24T18:52:33Z</time>
      </trkpt>
      <trkpt lat="42.59323" lon="2.77727">
        <ele>135.1</ele>
        <time>2019-12-24T18:52:36Z</time>
      </trkpt>
      <trkpt lat="42.59222" lon="2.7773">
        <ele>131.4</ele>
        <time>2019-12-24T18:52:39Z</time>
      </trkpt>
      <trkpt lat="42.59193" lon="2.77732">
        <ele>131</ele>
        <time>2019-12-24T18:52:42Z</time>
      </trkpt>
      <trkpt lat="42.59178" lon="2.77735">
        <ele>130.7</ele>
        <time>2019-12-24T18:52:49Z</time>
      </trkpt>
      <trkpt lat="42.59156" lon="2.77746">
        <ele>130.1</ele>
        <time>2019-12-24T18:52:54Z</time>
      </trkpt>
      <trkpt lat="42.59088" lon="2.77797">
        <ele>128.3</ele>
        <time>2019-12-24T18:52:56Z</time>
      </trkpt>
      <trkpt lat="42.58951" lon="2.77905">
        <ele>123.1</ele>
        <time>2019-12-24T18:52:58Z</time>
      </trkpt>
      <trkpt lat="42.58911" lon="2.7794">
        <ele>121.9</ele>
        <time>2019-12-24T18:53:03Z</time>
      </trkpt>
      <trkpt lat="42.5889" lon="2.77977">
        <ele>121.8</ele>
        <time>2019-12-24T18:53:05Z</time>
      </trkpt>
      <trkpt lat="42.58861" lon="2.78052">
        <ele>121.1</ele>
        <time>2019-12-24T18:53:07Z</time>
      </trkpt>
      <trkpt lat="42.58849" lon="2.78067">
        <ele>120.8</ele>
        <time>2019-12-24T18:53:09Z</time>
      </trkpt>
      <trkpt lat="42.58829" lon="2.78086">
        <ele>119.7</ele>
        <time>2019-12-24T18:53:13Z</time>
      </trkpt>
      <trkpt lat="42.58711" lon="2.78143">
        <ele>119.2</ele>
        <time>2019-12-24T18:53:17Z</time>
      </trkpt>
      <trkpt lat="42.58692" lon="2.78152">
        <ele>119.7</ele>
        <time>2019-12-24T18:53:23Z</time>
      </trkpt>
      <trkpt lat="42.58602" lon="2.78196">
        <ele>119.5</ele>
        <time>2019-12-24T18:53:25Z</time>
      </trkpt>
      <trkpt lat="42.58475" lon="2.78216">
        <ele>121.7</ele>
        <time>2019-12-24T18:53:26Z</time>
      </trkpt>
      <trkpt lat="42.58425" lon="2.78218">
        <ele>123.2</ele>
        <time>2019-12-24T18:53:28Z</time>
      </trkpt>
      <trkpt lat="42.58407" lon="2.78206">
        <ele>126</ele>
        <time>2019-12-24T18:53:31Z</time>
      </trkpt>
      <trkpt lat="42.5838" lon="2.7816">
        <ele>127.1</ele>
        <time>2019-12-24T18:53:34Z</time>
      </trkpt>
      <trkpt lat="42.58374" lon="2.78145">
        <ele>127.4</ele>
        <time>2019-12-24T18:53:36Z</time>
      </trkpt>
      <trkpt lat="42.58364" lon="2.78131">
        <ele>127.9</ele>
        <time>2019-12-24T18:53:38Z</time>
      </trkpt>
      <trkpt lat="42.58354" lon="2.78125">
        <ele>128.3</ele>
        <time>2019-12-24T18:53:39Z</time>
      </trkpt>
      <trkpt lat="42.58322" lon="2.78109">
        <ele>132.2</ele>
        <time>2019-12-24T18:53:40Z</time>
      </trkpt>
      <trkpt lat="42.58296" lon="2.78093">
        <ele>132.7</ele>
        <time>2019-12-24T18:53:42Z</time>
      </trkpt>
      <trkpt lat="42.58282" lon="2.78076">
        <ele>134.8</ele>
        <time>2019-12-24T18:53:46Z</time>
      </trkpt>
      <trkpt lat="42.58261" lon="2.78041">
        <ele>135.1</ele>
        <time>2019-12-24T18:53:54Z</time>
      </trkpt>
      <trkpt lat="42.58236" lon="2.77999">
        <ele>137.1</ele>
        <time>2019-12-24T18:54:01Z</time>
      </trkpt>
      <trkpt lat="42.58229" lon="2.77983">
        <ele>137.2</ele>
        <time>2019-12-24T18:54:04Z</time>
      </trkpt>
      <trkpt lat="42.5822" lon="2.77966">
        <ele>137.3</ele>
        <time>2019-12-24T18:54:06Z</time>
      </trkpt>
      <trkpt lat="42.58216" lon="2.77962">
        <ele>137.4</ele>
        <time>2019-12-24T18:54:08Z</time>
      </trkpt>
      <trkpt lat="42.582" lon="2.7795">
        <ele>137.8</ele>
        <time>2019-12-24T18:54:10Z</time>
      </trkpt>
      <trkpt lat="42.58183" lon="2.7794">
        <ele>138.4</ele>
        <time>2019-12-24T18:54:12Z</time>
      </trkpt>
      <trkpt lat="42.5817" lon="2.77941">
        <ele>138.6</ele>
        <time>2019-12-24T18:54:15Z</time>
      </trkpt>
      <trkpt lat="42.58115" lon="2.77954">
        <ele>139</ele>
        <time>2019-12-24T18:54:17Z</time>
      </trkpt>
      <trkpt lat="42.5805" lon="2.77961">
        <ele>139.2</ele>
        <time>2019-12-24T18:54:22Z</time>
      </trkpt>
      <trkpt lat="42.58038" lon="2.77955">
        <ele>139.4</ele>
        <time>2019-12-24T18:54:23Z</time>
      </trkpt>
      <trkpt lat="42.57973" lon="2.77903">
        <ele>142.9</ele>
        <time>2019-12-24T18:54:24Z</time>
      </trkpt>
      <trkpt lat="42.57939" lon="2.77876">
        <ele>143.4</ele>
        <time>2019-12-24T18:54:26Z</time>
      </trkpt>
      <trkpt lat="42.57877" lon="2.77829">
        <ele>145.6</ele>
        <time>2019-12-24T18:54:31Z</time>
      </trkpt>
      <trkpt lat="42.57848" lon="2.77807">
        <ele>145.6</ele>
        <time>2019-12-24T18:54:32Z</time>
      </trkpt>
      <trkpt lat="42.57842" lon="2.77793">
        <ele>146.3</ele>
        <time>2019-12-24T18:54:33Z</time>
      </trkpt>
      <trkpt lat="42.57843" lon="2.77792">
        <ele>146.3</ele>
        <time>2019-12-24T18:54:34Z</time>
      </trkpt>
      <trkpt lat="42.57843" lon="2.7779">
        <ele>146.4</ele>
        <time>2019-12-24T18:54:37Z</time>
      </trkpt>
      <trkpt lat="42.57844" lon="2.77789">
        <ele>146.5</ele>
        <time>2019-12-24T18:54:39Z</time>
      </trkpt>
      <trkpt lat="42.57844" lon="2.77787">
        <ele>146.6</ele>
        <time>2019-12-24T18:54:41Z</time>
      </trkpt>
      <trkpt lat="42.57844" lon="2.77785">
        <ele>146.7</ele>
        <time>2019-12-24T18:54:43Z</time>
      </trkpt>
      <trkpt lat="42.57844" lon="2.77783">
        <ele>146.8</ele>
        <time>2019-12-24T18:54:45Z</time>
      </trkpt>
      <trkpt lat="42.57843" lon="2.77781">
        <ele>146.9</ele>
        <time>2019-12-24T18:54:47Z</time>
      </trkpt>
      <trkpt lat="42.57842" lon="2.77779">
        <ele>147</ele>
        <time>2019-12-24T18:54:51Z</time>
      </trkpt>
      <trkpt lat="42.57841" lon="2.77778">
        <ele>147</ele>
        <time>2019-12-24T18:54:56Z</time>
      </trkpt>
      <trkpt lat="42.57839" lon="2.77778">
        <ele>147</ele>
        <time>2019-12-24T18:54:58Z</time>
      </trkpt>
      <trkpt lat="42.57837" lon="2.77778">
        <ele>147</ele>
        <time>2019-12-24T18:55:00Z</time>
      </trkpt>
      <trkpt lat="42.57835" lon="2.77778">
        <ele>147</ele>
        <time>2019-12-24T18:55:02Z</time>
      </trkpt>
      <trkpt lat="42.57834" lon="2.77779">
        <ele>147</ele>
        <time>2019-12-24T18:55:04Z</time>
      </trkpt>
      <trkpt lat="42.57825" lon="2.77777">
        <ele>145.7</ele>
        <time>2019-12-24T18:55:06Z</time>
      </trkpt>
      <trkpt lat="42.57803" lon="2.77766">
        <ele>145.4</ele>
        <time>2019-12-24T18:55:10Z</time>
      </trkpt>
      <trkpt lat="42.57761" lon="2.77749">
        <ele>146.5</ele>
        <time>2019-12-24T18:55:19Z</time>
      </trkpt>
      <trkpt lat="42.57711" lon="2.77731">
        <ele>146</ele>
        <time>2019-12-24T18:55:24Z</time>
      </trkpt>
      <trkpt lat="42.577" lon="2.77727">
        <ele>146</ele>
        <time>2019-12-24T18:55:30Z</time>
      </trkpt>
      <trkpt lat="42.57693" lon="2.77725">
        <ele>145.9</ele>
        <time>2019-12-24T18:55:36Z</time>
      </trkpt>
      <trkpt lat="42.57685" lon="2.77721">
        <ele>145.9</ele>
        <time>2019-12-24T18:55:43Z</time>
      </trkpt>
      <trkpt lat="42.57673" lon="2.77711">
        <ele>146.1</ele>
        <time>2019-12-24T18:55:46Z</time>
      </trkpt>
      <trkpt lat="42.57665" lon="2.77703">
        <ele>145.5</ele>
        <time>2019-12-24T18:55:50Z</time>
      </trkpt>
      <trkpt lat="42.57662" lon="2.77699">
        <ele>145.6</ele>
        <time>2019-12-24T18:55:54Z</time>
      </trkpt>
      <trkpt lat="42.57656" lon="2.77694">
        <ele>145.7</ele>
        <time>2019-12-24T18:55:57Z</time>
      </trkpt>
      <trkpt lat="42.57652" lon="2.77686">
        <ele>145.9</ele>
        <time>2019-12-24T18:56:05Z</time>
      </trkpt>
      <trkpt lat="42.57652" lon="2.77684">
        <ele>145.9</ele>
        <time>2019-12-24T18:56:13Z</time>
      </trkpt>
      <trkpt lat="42.57653" lon="2.77682">
        <ele>146</ele>
        <time>2019-12-24T18:56:16Z</time>
      </trkpt>
      <trkpt lat="42.57653" lon="2.7768">
        <ele>146</ele>
        <time>2019-12-24T18:56:20Z</time>
      </trkpt>
      <trkpt lat="42.57653" lon="2.77678">
        <ele>146.1</ele>
        <time>2019-12-24T18:56:22Z</time>
      </trkpt>
      <trkpt lat="42.57653" lon="2.77676">
        <ele>146.1</ele>
        <time>2019-12-24T18:56:24Z</time>
      </trkpt>
      <trkpt lat="42.57653" lon="2.77674">
        <ele>146.2</ele>
        <time>2019-12-24T18:56:27Z</time>
      </trkpt>
      <trkpt lat="42.57652" lon="2.77672">
        <ele>146.2</ele>
        <time>2019-12-24T18:56:30Z</time>
      </trkpt>
      <trkpt lat="42.57652" lon="2.7767">
        <ele>146.2</ele>
        <time>2019-12-24T18:56:33Z</time>
      </trkpt>
      <trkpt lat="42.57651" lon="2.77668">
        <ele>146.2</ele>
        <time>2019-12-24T18:56:35Z</time>
      </trkpt>
      <trkpt lat="42.5765" lon="2.77666">
        <ele>148</ele>
        <time>2019-12-24T18:56:37Z</time>
      </trkpt>
      <trkpt lat="42.57649" lon="2.77665">
        <ele>148</ele>
        <time>2019-12-24T18:56:39Z</time>
      </trkpt>
      <trkpt lat="42.57647" lon="2.77664">
        <ele>148.1</ele>
        <time>2019-12-24T18:56:41Z</time>
      </trkpt>
      <trkpt lat="42.57646" lon="2.77663">
        <ele>148.1</ele>
        <time>2019-12-24T18:56:43Z</time>
      </trkpt>
      <trkpt lat="42.57645" lon="2.77662">
        <ele>148.2</ele>
        <time>2019-12-24T18:56:46Z</time>
      </trkpt>
      <trkpt lat="42.57643" lon="2.77662">
        <ele>148.2</ele>
        <time>2019-12-24T18:56:48Z</time>
      </trkpt>
      <trkpt lat="42.57641" lon="2.77661">
        <ele>148.3</ele>
        <time>2019-12-24T18:56:50Z</time>
      </trkpt>
      <trkpt lat="42.5764" lon="2.77662">
        <ele>148.2</ele>
        <time>2019-12-24T18:56:52Z</time>
      </trkpt>
      <trkpt lat="42.57638" lon="2.77662">
        <ele>148.3</ele>
        <time>2019-12-24T18:56:54Z</time>
      </trkpt>
      <trkpt lat="42.57631" lon="2.77656">
        <ele>148.4</ele>
        <time>2019-12-24T18:56:55Z</time>
      </trkpt>
      <trkpt lat="42.57618" lon="2.77648">
        <ele>148.5</ele>
        <time>2019-12-24T18:56:56Z</time>
      </trkpt>
      <trkpt lat="42.57606" lon="2.77638">
        <ele>148.6</ele>
        <time>2019-12-24T18:56:58Z</time>
      </trkpt>
      <trkpt lat="42.57536" lon="2.77575">
        <ele>151.4</ele>
        <time>2019-12-24T19:01:00Z</time>
      </trkpt>
      <trkpt lat="42.57446" lon="2.775">
        <ele>154.1</ele>
        <time>2019-12-24T19:01:04Z</time>
      </trkpt>
      <trkpt lat="42.57388" lon="2.77447">
        <ele>152.7</ele>
        <time>2019-12-24T19:01:07Z</time>
      </trkpt>
      <trkpt lat="42.57352" lon="2.77397">
        <ele>155.2</ele>
        <time>2019-12-24T19:01:08Z</time>
      </trkpt>
      <trkpt lat="42.57334" lon="2.77368">
        <ele>156.3</ele>
        <time>2019-12-24T19:01:09Z</time>
      </trkpt>
      <trkpt lat="42.57285" lon="2.77289">
        <ele>156.4</ele>
        <time>2019-12-24T19:01:11Z</time>
      </trkpt>
      <trkpt lat="42.57249" lon="2.7723">
        <ele>157.6</ele>
        <time>2019-12-24T19:01:12Z</time>
      </trkpt>
      <trkpt lat="42.57196" lon="2.77144">
        <ele>160.3</ele>
        <time>2019-12-24T19:01:12Z</time>
      </trkpt>
      <trkpt lat="42.5717" lon="2.77118">
        <ele>160.8</ele>
        <time>2019-12-24T19:01:13Z</time>
      </trkpt>
      <trkpt lat="42.57106" lon="2.77068">
        <ele>163.5</ele>
        <time>2019-12-24T19:01:15Z</time>
      </trkpt>
      <trkpt lat="42.57077" lon="2.77035">
        <ele>164.7</ele>
        <time>2019-12-24T19:01:16Z</time>
      </trkpt>
      <trkpt lat="42.57054" lon="2.77004">
        <ele>164.7</ele>
        <time>2019-12-24T19:01:17Z</time>
      </trkpt>
      <trkpt lat="42.57029" lon="2.76975">
        <ele>163.4</ele>
        <time>2019-12-24T19:01:18Z</time>
      </trkpt>
      <trkpt lat="42.57011" lon="2.76964">
        <ele>163.4</ele>
        <time>2019-12-24T19:01:19Z</time>
      </trkpt>
      <trkpt lat="42.56982" lon="2.76957">
        <ele>166.3</ele>
        <time>2019-12-24T19:01:21Z</time>
      </trkpt>
      <trkpt lat="42.56959" lon="2.76953">
        <ele>166.9</ele>
        <time>2019-12-24T19:01:22Z</time>
      </trkpt>
      <trkpt lat="42.56916" lon="2.76941">
        <ele>169.8</ele>
        <time>2019-12-24T19:01:24Z</time>
      </trkpt>
      <trkpt lat="42.56873" lon="2.76929">
        <ele>170.2</ele>
        <time>2019-12-24T19:01:25Z</time>
      </trkpt>
      <trkpt lat="42.56836" lon="2.76927">
        <ele>170.7</ele>
        <time>2019-12-24T19:01:27Z</time>
      </trkpt>
      <trkpt lat="42.56789" lon="2.76935">
        <ele>171.3</ele>
        <time>2019-12-24T19:01:30Z</time>
      </trkpt>
      <trkpt lat="42.56766" lon="2.76939">
        <ele>171.5</ele>
        <time>2019-12-24T19:01:35Z</time>
      </trkpt>
      <trkpt lat="42.56737" lon="2.76943">
        <ele>172</ele>
        <time>2019-12-24T19:01:42Z</time>
      </trkpt>
      <trkpt lat="42.56721" lon="2.76942">
        <ele>172.1</ele>
        <time>2019-12-24T19:01:43Z</time>
      </trkpt>
      <trkpt lat="42.56686" lon="2.76932">
        <ele>172.7</ele>
        <time>2019-12-24T19:01:43Z</time>
      </trkpt>
      <trkpt lat="42.56554" lon="2.76887">
        <ele>175.5</ele>
        <time>2019-12-24T19:01:44Z</time>
      </trkpt>
      <trkpt lat="42.56525" lon="2.76878">
        <ele>175.5</ele>
        <time>2019-12-24T19:01:44Z</time>
      </trkpt>
      <trkpt lat="42.56408" lon="2.76836">
        <ele>181</ele>
        <time>2019-12-24T19:01:45Z</time>
      </trkpt>
      <trkpt lat="42.5635" lon="2.76815">
        <ele>183.6</ele>
        <time>2019-12-24T19:01:46Z</time>
      </trkpt>
      <trkpt lat="42.56326" lon="2.76803">
        <ele>183.8</ele>
        <time>2019-12-24T19:01:48Z</time>
      </trkpt>
      <trkpt lat="42.56315" lon="2.76792">
        <ele>183.9</ele>
        <time>2019-12-24T19:01:49Z</time>
      </trkpt>
      <trkpt lat="42.56265" lon="2.76708">
        <ele>187.5</ele>
        <time>2019-12-24T19:01:50Z</time>
      </trkpt>
      <trkpt lat="42.56257" lon="2.76694">
        <ele>188.1</ele>
        <time>2019-12-24T19:01:51Z</time>
      </trkpt>
      <trkpt lat="42.56172" lon="2.76545">
        <ele>192.6</ele>
        <time>2019-12-24T19:01:52Z</time>
      </trkpt>
      <trkpt lat="42.56161" lon="2.76525">
        <ele>193.8</ele>
        <time>2019-12-24T19:01:54Z</time>
      </trkpt>
      <trkpt lat="42.56131" lon="2.76473">
        <ele>196.9</ele>
        <time>2019-12-24T19:01:57Z</time>
      </trkpt>
      <trkpt lat="42.56099" lon="2.76414">
        <ele>199.1</ele>
        <time>2019-12-24T19:02:02Z</time>
      </trkpt>
      <trkpt lat="42.56088" lon="2.76397">
        <ele>198.9</ele>
        <time>2019-12-24T19:02:04Z</time>
      </trkpt>
      <trkpt lat="42.56077" lon="2.76382">
        <ele>201.7</ele>
        <time>2019-12-24T19:02:05Z</time>
      </trkpt>
      <trkpt lat="42.5607" lon="2.76376">
        <ele>201.8</ele>
        <time>2019-12-24T19:02:06Z</time>
      </trkpt>
      <trkpt lat="42.5606" lon="2.7637">
        <ele>202</ele>
        <time>2019-12-24T19:02:07Z</time>
      </trkpt>
      <trkpt lat="42.56045" lon="2.76369">
        <ele>202.6</ele>
        <time>2019-12-24T19:02:07Z</time>
      </trkpt>
      <trkpt lat="42.5603" lon="2.76372">
        <ele>203.2</ele>
        <time>2019-12-24T19:02:09Z</time>
      </trkpt>
      <trkpt lat="42.56018" lon="2.7638">
        <ele>203.6</ele>
        <time>2019-12-24T19:02:10Z</time>
      </trkpt>
      <trkpt lat="42.56005" lon="2.76389">
        <ele>204.1</ele>
        <time>2019-12-24T19:02:12Z</time>
      </trkpt>
      <trkpt lat="42.55994" lon="2.76399">
        <ele>208.4</ele>
        <time>2019-12-24T19:02:13Z</time>
      </trkpt>
      <trkpt lat="42.55982" lon="2.76405">
        <ele>208.9</ele>
        <time>2019-12-24T19:02:14Z</time>
      </trkpt>
      <trkpt lat="42.5597" lon="2.76406">
        <ele>209.8</ele>
        <time>2019-12-24T19:02:16Z</time>
      </trkpt>
      <trkpt lat="42.55958" lon="2.76402">
        <ele>210.7</ele>
        <time>2019-12-24T19:02:18Z</time>
      </trkpt>
      <trkpt lat="42.55948" lon="2.76391">
        <ele>211.4</ele>
        <time>2019-12-24T19:02:19Z</time>
      </trkpt>
      <trkpt lat="42.55942" lon="2.76379">
        <ele>211.9</ele>
        <time>2019-12-24T19:02:21Z</time>
      </trkpt>
      <trkpt lat="42.55936" lon="2.76342">
        <ele>213.8</ele>
        <time>2019-12-24T19:02:22Z</time>
      </trkpt>
      <trkpt lat="42.55932" lon="2.76308">
        <ele>212.8</ele>
        <time>2019-12-24T19:02:23Z</time>
      </trkpt>
      <trkpt lat="42.55922" lon="2.76267">
        <ele>212.8</ele>
        <time>2019-12-24T19:02:26Z</time>
      </trkpt>
      <trkpt lat="42.55912" lon="2.76252">
        <ele>216.1</ele>
        <time>2019-12-24T19:02:30Z</time>
      </trkpt>
      <trkpt lat="42.559" lon="2.76243">
        <ele>214.5</ele>
        <time>2019-12-24T19:02:35Z</time>
      </trkpt>
      <trkpt lat="42.55881" lon="2.76237">
        <ele>214.7</ele>
        <time>2019-12-24T19:02:38Z</time>
      </trkpt>
      <trkpt lat="42.55863" lon="2.76237">
        <ele>215.8</ele>
        <time>2019-12-24T19:02:38Z</time>
      </trkpt>
      <trkpt lat="42.55846" lon="2.7624">
        <ele>217.9</ele>
        <time>2019-12-24T19:02:40Z</time>
      </trkpt>
      <trkpt lat="42.55772" lon="2.76264">
        <ele>225</ele>
        <time>2019-12-24T19:02:41Z</time>
      </trkpt>
      <trkpt lat="42.55743" lon="2.76274">
        <ele>225.4</ele>
        <time>2019-12-24T19:02:43Z</time>
      </trkpt>
      <trkpt lat="42.55724" lon="2.76277">
        <ele>225.7</ele>
        <time>2019-12-24T19:02:45Z</time>
      </trkpt>
      <trkpt lat="42.55696" lon="2.76269">
        <ele>226.3</ele>
        <time>2019-12-24T19:02:48Z</time>
      </trkpt>
      <trkpt lat="42.55677" lon="2.76253">
        <ele>227.7</ele>
        <time>2019-12-24T19:02:50Z</time>
      </trkpt>
      <trkpt lat="42.55671" lon="2.76242">
        <ele>227.9</ele>
        <time>2019-12-24T19:02:51Z</time>
      </trkpt>
      <trkpt lat="42.55647" lon="2.762">
        <ele>230.5</ele>
        <time>2019-12-24T19:02:52Z</time>
      </trkpt>
      <trkpt lat="42.55613" lon="2.76134">
        <ele>231.3</ele>
        <time>2019-12-24T19:02:53Z</time>
      </trkpt>
      <trkpt lat="42.55597" lon="2.76114">
        <ele>231.8</ele>
        <time>2019-12-24T19:02:54Z</time>
      </trkpt>
      <trkpt lat="42.55569" lon="2.76095">
        <ele>236.8</ele>
        <time>2019-12-24T19:02:56Z</time>
      </trkpt>
      <trkpt lat="42.55547" lon="2.76086">
        <ele>238.8</ele>
        <time>2019-12-24T19:02:57Z</time>
      </trkpt>
      <trkpt lat="42.5553" lon="2.76071">
        <ele>241.4</ele>
        <time>2019-12-24T19:02:57Z</time>
      </trkpt>
      <trkpt lat="42.55524" lon="2.76055">
        <ele>241.7</ele>
        <time>2019-12-24T19:02:59Z</time>
      </trkpt>
      <trkpt lat="42.55523" lon="2.76037">
        <ele>242</ele>
        <time>2019-12-24T19:03:00Z</time>
      </trkpt>
      <trkpt lat="42.55529" lon="2.7601">
        <ele>242.3</ele>
        <time>2019-12-24T19:03:01Z</time>
      </trkpt>
      <trkpt lat="42.55541" lon="2.75976">
        <ele>242.6</ele>
        <time>2019-12-24T19:03:02Z</time>
      </trkpt>
      <trkpt lat="42.55543" lon="2.7596">
        <ele>242.7</ele>
        <time>2019-12-24T19:03:04Z</time>
      </trkpt>
      <trkpt lat="42.55542" lon="2.75946">
        <ele>242.8</ele>
        <time>2019-12-24T19:03:05Z</time>
      </trkpt>
      <trkpt lat="42.55533" lon="2.75926">
        <ele>243.6</ele>
        <time>2019-12-24T19:03:07Z</time>
      </trkpt>
      <trkpt lat="42.55521" lon="2.7591">
        <ele>242.4</ele>
        <time>2019-12-24T19:03:08Z</time>
      </trkpt>
      <trkpt lat="42.55508" lon="2.75901">
        <ele>243</ele>
        <time>2019-12-24T19:03:10Z</time>
      </trkpt>
      <trkpt lat="42.55493" lon="2.75894">
        <ele>245.6</ele>
        <time>2019-12-24T19:03:11Z</time>
      </trkpt>
      <trkpt lat="42.55451" lon="2.75886">
        <ele>246.2</ele>
        <time>2019-12-24T19:03:13Z</time>
      </trkpt>
      <trkpt lat="42.55423" lon="2.75881">
        <ele>246.8</ele>
        <time>2019-12-24T19:03:16Z</time>
      </trkpt>
      <trkpt lat="42.55414" lon="2.75876">
        <ele>251.2</ele>
        <time>2019-12-24T19:03:21Z</time>
      </trkpt>
      <trkpt lat="42.55405" lon="2.75866">
        <ele>250.7</ele>
        <time>2019-12-24T19:03:26Z</time>
      </trkpt>
      <trkpt lat="42.55388" lon="2.75838">
        <ele>250.3</ele>
        <time>2019-12-24T19:03:33Z</time>
      </trkpt>
      <trkpt lat="42.55379" lon="2.75827">
        <ele>244.6</ele>
        <time>2019-12-24T19:03:35Z</time>
      </trkpt>
      <trkpt lat="42.55369" lon="2.75822">
        <ele>245.7</ele>
        <time>2019-12-24T19:03:36Z</time>
      </trkpt>
      <trkpt lat="42.55361" lon="2.7582">
        <ele>246.9</ele>
        <time>2019-12-24T19:03:37Z</time>
      </trkpt>
      <trkpt lat="42.55337" lon="2.75818">
        <ele>250.8</ele>
        <time>2019-12-24T19:03:38Z</time>
      </trkpt>
      <trkpt lat="42.55316" lon="2.75809">
        <ele>256.2</ele>
        <time>2019-12-24T19:03:39Z</time>
      </trkpt>
      <trkpt lat="42.55285" lon="2.75785">
        <ele>255.9</ele>
        <time>2019-12-24T19:03:39Z</time>
      </trkpt>
      <trkpt lat="42.55274" lon="2.75779">
        <ele>256.2</ele>
        <time>2019-12-24T19:03:39Z</time>
      </trkpt>
      <trkpt lat="42.55268" lon="2.75778">
        <ele>256.4</ele>
        <time>2019-12-24T19:03:40Z</time>
      </trkpt>
      <trkpt lat="42.55259" lon="2.75782">
        <ele>256.9</ele>
        <time>2019-12-24T19:03:41Z</time>
      </trkpt>
      <trkpt lat="42.55244" lon="2.75798">
        <ele>266.3</ele>
        <time>2019-12-24T19:03:42Z</time>
      </trkpt>
      <trkpt lat="42.5523" lon="2.75812">
        <ele>267.5</ele>
        <time>2019-12-24T19:03:43Z</time>
      </trkpt>
      <trkpt lat="42.55223" lon="2.75818">
        <ele>268.1</ele>
        <time>2019-12-24T19:03:44Z</time>
      </trkpt>
      <trkpt lat="42.55213" lon="2.75819">
        <ele>268.9</ele>
        <time>2019-12-24T19:03:45Z</time>
      </trkpt>
      <trkpt lat="42.55206" lon="2.75815">
        <ele>269.5</ele>
        <time>2019-12-24T19:03:46Z</time>
      </trkpt>
      <trkpt lat="42.55203" lon="2.75809">
        <ele>269.6</ele>
        <time>2019-12-24T19:03:46Z</time>
      </trkpt>
      <trkpt lat="42.55201" lon="2.75792">
        <ele>269.2</ele>
        <time>2019-12-24T19:03:47Z</time>
      </trkpt>
      <trkpt lat="42.552" lon="2.75766">
        <ele>268.8</ele>
        <time>2019-12-24T19:03:48Z</time>
      </trkpt>
      <trkpt lat="42.55191" lon="2.75705">
        <ele>264.2</ele>
        <time>2019-12-24T19:03:49Z</time>
      </trkpt>
      <trkpt lat="42.55182" lon="2.75653">
        <ele>260.3</ele>
        <time>2019-12-24T19:03:50Z</time>
      </trkpt>
      <trkpt lat="42.55172" lon="2.75636">
        <ele>258.1</ele>
        <time>2019-12-24T19:03:51Z</time>
      </trkpt>
      <trkpt lat="42.55162" lon="2.75626">
        <ele>264.1</ele>
        <time>2019-12-24T19:03:53Z</time>
      </trkpt>
      <trkpt lat="42.5515" lon="2.75621">
        <ele>263.7</ele>
        <time>2019-12-24T19:03:54Z</time>
      </trkpt>
      <trkpt lat="42.55139" lon="2.7562">
        <ele>263.9</ele>
        <time>2019-12-24T19:03:55Z</time>
      </trkpt>
      <trkpt lat="42.55132" lon="2.75623">
        <ele>264.4</ele>
        <time>2019-12-24T19:03:56Z</time>
      </trkpt>
      <trkpt lat="42.55118" lon="2.75637">
        <ele>266</ele>
        <time>2019-12-24T19:03:57Z</time>
      </trkpt>
      <trkpt lat="42.55109" lon="2.75647">
        <ele>267.3</ele>
        <time>2019-12-24T19:03:59Z</time>
      </trkpt>
      <trkpt lat="42.55086" lon="2.75671">
        <ele>274.4</ele>
        <time>2019-12-24T19:04:01Z</time>
      </trkpt>
      <trkpt lat="42.5508" lon="2.75676">
        <ele>276.6</ele>
        <time>2019-12-24T19:04:03Z</time>
      </trkpt>
      <trkpt lat="42.55075" lon="2.75678">
        <ele>277.5</ele>
        <time>2019-12-24T19:04:06Z</time>
      </trkpt>
      <trkpt lat="42.55064" lon="2.7568">
        <ele>278.9</ele>
        <time>2019-12-24T19:04:09Z</time>
      </trkpt>
      <trkpt lat="42.55038" lon="2.75674">
        <ele>281.1</ele>
        <time>2019-12-24T19:04:14Z</time>
      </trkpt>
      <trkpt lat="42.55033" lon="2.75672">
        <ele>281.4</ele>
        <time>2019-12-24T19:04:17Z</time>
      </trkpt>
      <trkpt lat="42.55029" lon="2.75667">
        <ele>281.7</ele>
        <time>2019-12-24T19:04:18Z</time>
      </trkpt>
      <trkpt lat="42.55023" lon="2.75656">
        <ele>276.8</ele>
        <time>2019-12-24T19:04:18Z</time>
      </trkpt>
      <trkpt lat="42.55021" lon="2.75638">
        <ele>275.1</ele>
        <time>2019-12-24T19:04:19Z</time>
      </trkpt>
      <trkpt lat="42.55018" lon="2.75619">
        <ele>273.4</ele>
        <time>2019-12-24T19:04:19Z</time>
      </trkpt>
      <trkpt lat="42.5501" lon="2.75609">
        <ele>272.9</ele>
        <time>2019-12-24T19:04:20Z</time>
      </trkpt>
      <trkpt lat="42.55002" lon="2.75605">
        <ele>272.9</ele>
        <time>2019-12-24T19:04:20Z</time>
      </trkpt>
      <trkpt lat="42.54992" lon="2.75605">
        <ele>276.9</ele>
        <time>2019-12-24T19:04:21Z</time>
      </trkpt>
      <trkpt lat="42.54979" lon="2.75609">
        <ele>277.9</ele>
        <time>2019-12-24T19:04:21Z</time>
      </trkpt>
      <trkpt lat="42.54961" lon="2.75618">
        <ele>279.2</ele>
        <time>2019-12-24T19:04:22Z</time>
      </trkpt>
      <trkpt lat="42.54937" lon="2.75638">
        <ele>281.1</ele>
        <time>2019-12-24T19:04:23Z</time>
      </trkpt>
      <trkpt lat="42.54926" lon="2.75648">
        <ele>282.5</ele>
        <time>2019-12-24T19:04:24Z</time>
      </trkpt>
      <trkpt lat="42.54914" lon="2.75654">
        <ele>285.6</ele>
        <time>2019-12-24T19:04:25Z</time>
      </trkpt>
      <trkpt lat="42.54903" lon="2.75655">
        <ele>285.7</ele>
        <time>2019-12-24T19:04:27Z</time>
      </trkpt>
      <trkpt lat="42.54891" lon="2.7565">
        <ele>285.7</ele>
        <time>2019-12-24T19:04:30Z</time>
      </trkpt>
      <trkpt lat="42.54883" lon="2.7564">
        <ele>285.7</ele>
        <time>2019-12-24T19:04:31Z</time>
      </trkpt>
      <trkpt lat="42.54876" lon="2.75616">
        <ele>285.1</ele>
        <time>2019-12-24T19:04:31Z</time>
      </trkpt>
      <trkpt lat="42.54868" lon="2.75549">
        <ele>282.2</ele>
        <time>2019-12-24T19:04:32Z</time>
      </trkpt>
      <trkpt lat="42.54862" lon="2.75506">
        <ele>282.2</ele>
        <time>2019-12-24T19:04:34Z</time>
      </trkpt>
      <trkpt lat="42.54856" lon="2.75464">
        <ele>283.8</ele>
        <time>2019-12-24T19:04:35Z</time>
      </trkpt>
      <trkpt lat="42.5485" lon="2.75423">
        <ele>284.6</ele>
        <time>2019-12-24T19:04:35Z</time>
      </trkpt>
      <trkpt lat="42.54842" lon="2.75367">
        <ele>287.7</ele>
        <time>2019-12-24T19:04:36Z</time>
      </trkpt>
      <trkpt lat="42.54839" lon="2.75341">
        <ele>288</ele>
        <time>2019-12-24T19:04:38Z</time>
      </trkpt>
      <trkpt lat="42.54835" lon="2.75316">
        <ele>288.5</ele>
        <time>2019-12-24T19:04:39Z</time>
      </trkpt>
      <trkpt lat="42.54832" lon="2.75287">
        <ele>290.2</ele>
        <time>2019-12-24T19:04:41Z</time>
      </trkpt>
      <trkpt lat="42.54832" lon="2.75261">
        <ele>291.8</ele>
        <time>2019-12-24T19:04:42Z</time>
      </trkpt>
      <trkpt lat="42.54834" lon="2.752">
        <ele>291</ele>
        <time>2019-12-24T19:04:43Z</time>
      </trkpt>
      <trkpt lat="42.54836" lon="2.75136">
        <ele>294.6</ele>
        <time>2019-12-24T19:04:44Z</time>
      </trkpt>
      <trkpt lat="42.54837" lon="2.75116">
        <ele>295.3</ele>
        <time>2019-12-24T19:04:45Z</time>
      </trkpt>
      <trkpt lat="42.54843" lon="2.7509">
        <ele>298.3</ele>
        <time>2019-12-24T19:04:46Z</time>
      </trkpt>
      <trkpt lat="42.54847" lon="2.75071">
        <ele>300.7</ele>
        <time>2019-12-24T19:04:47Z</time>
      </trkpt>
      <trkpt lat="42.54848" lon="2.75055">
        <ele>300.7</ele>
        <time>2019-12-24T19:04:49Z</time>
      </trkpt>
      <trkpt lat="42.54846" lon="2.75037">
        <ele>301.4</ele>
        <time>2019-12-24T19:04:50Z</time>
      </trkpt>
      <trkpt lat="42.54838" lon="2.75011">
        <ele>303.9</ele>
        <time>2019-12-24T19:04:51Z</time>
      </trkpt>
      <trkpt lat="42.54835" lon="2.74992">
        <ele>307.3</ele>
        <time>2019-12-24T19:04:52Z</time>
      </trkpt>
      <trkpt lat="42.54837" lon="2.74975">
        <ele>309.3</ele>
        <time>2019-12-24T19:04:54Z</time>
      </trkpt>
      <trkpt lat="42.54842" lon="2.74961">
        <ele>310.7</ele>
        <time>2019-12-24T19:04:55Z</time>
      </trkpt>
      <trkpt lat="42.54849" lon="2.74948">
        <ele>312</ele>
        <time>2019-12-24T19:04:56Z</time>
      </trkpt>
      <trkpt lat="42.54858" lon="2.74939">
        <ele>312.4</ele>
        <time>2019-12-24T19:04:57Z</time>
      </trkpt>
      <trkpt lat="42.54869" lon="2.74936">
        <ele>312</ele>
        <time>2019-12-24T19:05:00Z</time>
      </trkpt>
      <trkpt lat="42.54882" lon="2.74937">
        <ele>311.4</ele>
        <time>2019-12-24T19:05:02Z</time>
      </trkpt>
      <trkpt lat="42.54892" lon="2.74944">
        <ele>310.8</ele>
        <time>2019-12-24T19:05:03Z</time>
      </trkpt>
      <trkpt lat="42.54903" lon="2.74956">
        <ele>309.8</ele>
        <time>2019-12-24T19:05:04Z</time>
      </trkpt>
      <trkpt lat="42.54912" lon="2.74963">
        <ele>309</ele>
        <time>2019-12-24T19:05:06Z</time>
      </trkpt>
      <trkpt lat="42.54922" lon="2.74965">
        <ele>302.4</ele>
        <time>2019-12-24T19:05:08Z</time>
      </trkpt>
      <trkpt lat="42.54929" lon="2.74963">
        <ele>302.1</ele>
        <time>2019-12-24T19:05:08Z</time>
      </trkpt>
      <trkpt lat="42.54934" lon="2.74957">
        <ele>302.2</ele>
        <time>2019-12-24T19:05:09Z</time>
      </trkpt>
      <trkpt lat="42.54941" lon="2.74947">
        <ele>302.4</ele>
        <time>2019-12-24T19:05:09Z</time>
      </trkpt>
      <trkpt lat="42.54942" lon="2.74879">
        <ele>309.4</ele>
        <time>2019-12-24T19:05:10Z</time>
      </trkpt>
      <trkpt lat="42.54946" lon="2.74845">
        <ele>311.2</ele>
        <time>2019-12-24T19:05:11Z</time>
      </trkpt>
      <trkpt lat="42.54951" lon="2.74817">
        <ele>315.8</ele>
        <time>2019-12-24T19:05:12Z</time>
      </trkpt>
      <trkpt lat="42.54955" lon="2.74792">
        <ele>316.2</ele>
        <time>2019-12-24T19:05:14Z</time>
      </trkpt>
      <trkpt lat="42.54956" lon="2.74785">
        <ele>316.4</ele>
        <time>2019-12-24T19:05:15Z</time>
      </trkpt>
      <trkpt lat="42.54956" lon="2.74777">
        <ele>316.8</ele>
        <time>2019-12-24T19:05:16Z</time>
      </trkpt>
      <trkpt lat="42.54956" lon="2.74767">
        <ele>317.3</ele>
        <time>2019-12-24T19:05:17Z</time>
      </trkpt>
      <trkpt lat="42.54954" lon="2.7476">
        <ele>318</ele>
        <time>2019-12-24T19:05:18Z</time>
      </trkpt>
      <trkpt lat="42.54952" lon="2.74754">
        <ele>318.7</ele>
        <time>2019-12-24T19:05:20Z</time>
      </trkpt>
      <trkpt lat="42.5495" lon="2.74747">
        <ele>322.9</ele>
        <time>2019-12-24T19:05:22Z</time>
      </trkpt>
      <trkpt lat="42.54947" lon="2.74738">
        <ele>323.5</ele>
        <time>2019-12-24T19:05:23Z</time>
      </trkpt>
      <trkpt lat="42.54946" lon="2.7473">
        <ele>323.6</ele>
        <time>2019-12-24T19:05:24Z</time>
      </trkpt>
      <trkpt lat="42.54946" lon="2.74724">
        <ele>323.5</ele>
        <time>2019-12-24T19:05:27Z</time>
      </trkpt>
      <trkpt lat="42.54947" lon="2.74716">
        <ele>323.4</ele>
        <time>2019-12-24T19:05:28Z</time>
      </trkpt>
      <trkpt lat="42.54948" lon="2.74708">
        <ele>323.4</ele>
        <time>2019-12-24T19:05:30Z</time>
      </trkpt>
      <trkpt lat="42.54951" lon="2.74694">
        <ele>323.4</ele>
        <time>2019-12-24T19:05:31Z</time>
      </trkpt>
      <trkpt lat="42.54952" lon="2.74683">
        <ele>323.7</ele>
        <time>2019-12-24T19:05:33Z</time>
      </trkpt>
      <trkpt lat="42.54953" lon="2.7467">
        <ele>323.8</ele>
        <time>2019-12-24T19:05:34Z</time>
      </trkpt>
      <trkpt lat="42.54953" lon="2.74658">
        <ele>326.2</ele>
        <time>2019-12-24T19:05:35Z</time>
      </trkpt>
      <trkpt lat="42.54952" lon="2.74644">
        <ele>326.4</ele>
        <time>2019-12-24T19:05:36Z</time>
      </trkpt>
      <trkpt lat="42.54951" lon="2.7462">
        <ele>326.9</ele>
        <time>2019-12-24T19:05:37Z</time>
      </trkpt>
      <trkpt lat="42.54951" lon="2.74586">
        <ele>328.2</ele>
        <time>2019-12-24T19:05:38Z</time>
      </trkpt>
      <trkpt lat="42.54952" lon="2.74532">
        <ele>330.7</ele>
        <time>2019-12-24T19:05:39Z</time>
      </trkpt>
      <trkpt lat="42.54952" lon="2.74526">
        <ele>330.9</ele>
        <time>2019-12-24T19:05:40Z</time>
      </trkpt>
      <trkpt lat="42.54952" lon="2.74522">
        <ele>331</ele>
        <time>2019-12-24T19:05:41Z</time>
      </trkpt>
      <trkpt lat="42.54952" lon="2.74519">
        <ele>331.1</ele>
        <time>2019-12-24T19:05:42Z</time>
      </trkpt>
      <trkpt lat="42.54952" lon="2.74515">
        <ele>331.2</ele>
        <time>2019-12-24T19:05:42Z</time>
      </trkpt>
      <trkpt lat="42.54953" lon="2.74508">
        <ele>331.2</ele>
        <time>2019-12-24T19:05:44Z</time>
      </trkpt>
      <trkpt lat="42.54955" lon="2.74498">
        <ele>332</ele>
        <time>2019-12-24T19:05:45Z</time>
      </trkpt>
      <trkpt lat="42.54957" lon="2.74488">
        <ele>331.6</ele>
        <time>2019-12-24T19:05:46Z</time>
      </trkpt>
      <trkpt lat="42.5496" lon="2.74477">
        <ele>331.1</ele>
        <time>2019-12-24T19:05:48Z</time>
      </trkpt>
      <trkpt lat="42.54961" lon="2.74468">
        <ele>331</ele>
        <time>2019-12-24T19:05:49Z</time>
      </trkpt>
      <trkpt lat="42.54961" lon="2.74461">
        <ele>331</ele>
        <time>2019-12-24T19:05:49Z</time>
      </trkpt>
      <trkpt lat="42.5496" lon="2.74454">
        <ele>331.1</ele>
        <time>2019-12-24T19:05:50Z</time>
      </trkpt>
      <trkpt lat="42.54957" lon="2.74443">
        <ele>331.4</ele>
        <time>2019-12-24T19:05:51Z</time>
      </trkpt>
      <trkpt lat="42.5495" lon="2.74422">
        <ele>332.4</ele>
        <time>2019-12-24T19:05:54Z</time>
      </trkpt>
      <trkpt lat="42.54941" lon="2.74389">
        <ele>331.9</ele>
        <time>2019-12-24T19:05:56Z</time>
      </trkpt>
      <trkpt lat="42.54938" lon="2.74369">
        <ele>331.7</ele>
        <time>2019-12-24T19:05:58Z</time>
      </trkpt>
      <trkpt lat="42.54937" lon="2.74359">
        <ele>332</ele>
        <time>2019-12-24T19:05:58Z</time>
      </trkpt>
      <trkpt lat="42.54938" lon="2.74353">
        <ele>332.1</ele>
        <time>2019-12-24T19:06:00Z</time>
      </trkpt>
      <trkpt lat="42.54938" lon="2.74346">
        <ele>332.4</ele>
        <time>2019-12-24T19:06:01Z</time>
      </trkpt>
      <trkpt lat="42.54938" lon="2.74344">
        <ele>332.5</ele>
        <time>2019-12-24T19:06:02Z</time>
      </trkpt>
      <trkpt lat="42.54939" lon="2.74334">
        <ele>332.6</ele>
        <time>2019-12-24T19:06:03Z</time>
      </trkpt>
      <trkpt lat="42.54939" lon="2.74323">
        <ele>332.3</ele>
        <time>2019-12-24T19:06:04Z</time>
      </trkpt>
      <trkpt lat="42.54938" lon="2.74311">
        <ele>331.9</ele>
        <time>2019-12-24T19:06:05Z</time>
      </trkpt>
      <trkpt lat="42.54937" lon="2.74301">
        <ele>331.7</ele>
        <time>2019-12-24T19:06:06Z</time>
      </trkpt>
      <trkpt lat="42.54935" lon="2.74292">
        <ele>331.8</ele>
        <time>2019-12-24T19:06:07Z</time>
      </trkpt>
      <trkpt lat="42.54932" lon="2.74278">
        <ele>332.5</ele>
        <time>2019-12-24T19:06:08Z</time>
      </trkpt>
      <trkpt lat="42.54927" lon="2.74264">
        <ele>334.4</ele>
        <time>2019-12-24T19:06:09Z</time>
      </trkpt>
      <trkpt lat="42.54925" lon="2.74258">
        <ele>335.5</ele>
        <time>2019-12-24T19:06:10Z</time>
      </trkpt>
      <trkpt lat="42.54922" lon="2.74245">
        <ele>335.7</ele>
        <time>2019-12-24T19:06:11Z</time>
      </trkpt>
      <trkpt lat="42.54919" lon="2.7424">
        <ele>334.7</ele>
        <time>2019-12-24T19:06:12Z</time>
      </trkpt>
      <trkpt lat="42.54913" lon="2.74232">
        <ele>339.2</ele>
        <time>2019-12-24T19:06:13Z</time>
      </trkpt>
      <trkpt lat="42.54902" lon="2.7422">
        <ele>339.2</ele>
        <time>2019-12-24T19:06:14Z</time>
      </trkpt>
      <trkpt lat="42.54881" lon="2.742">
        <ele>339.3</ele>
        <time>2019-12-24T19:06:15Z</time>
      </trkpt>
      <trkpt lat="42.54862" lon="2.7418">
        <ele>340.3</ele>
        <time>2019-12-24T19:06:17Z</time>
      </trkpt>
      <trkpt lat="42.54848" lon="2.74165">
        <ele>337.2</ele>
        <time>2019-12-24T19:06:19Z</time>
      </trkpt>
      <trkpt lat="42.54846" lon="2.74163">
        <ele>337.6</ele>
        <time>2019-12-24T19:06:21Z</time>
      </trkpt>
      <trkpt lat="42.54839" lon="2.74157">
        <ele>338.2</ele>
        <time>2019-12-24T19:06:22Z</time>
      </trkpt>
      <trkpt lat="42.54831" lon="2.74151">
        <ele>342.7</ele>
        <time>2019-12-24T19:06:25Z</time>
      </trkpt>
      <trkpt lat="42.54823" lon="2.74145">
        <ele>342.7</ele>
        <time>2019-12-24T19:06:27Z</time>
      </trkpt>
      <trkpt lat="42.54811" lon="2.74138">
        <ele>342.8</ele>
        <time>2019-12-24T19:06:28Z</time>
      </trkpt>
      <trkpt lat="42.54797" lon="2.74129">
        <ele>343.1</ele>
        <time>2019-12-24T19:06:30Z</time>
      </trkpt>
      <trkpt lat="42.54788" lon="2.74123">
        <ele>343.4</ele>
        <time>2019-12-24T19:06:32Z</time>
      </trkpt>
      <trkpt lat="42.54782" lon="2.74118">
        <ele>343.5</ele>
        <time>2019-12-24T19:06:34Z</time>
      </trkpt>
      <trkpt lat="42.54778" lon="2.74113">
        <ele>343.5</ele>
        <time>2019-12-24T19:06:36Z</time>
      </trkpt>
      <trkpt lat="42.54774" lon="2.74107">
        <ele>343.4</ele>
        <time>2019-12-24T19:06:37Z</time>
      </trkpt>
      <trkpt lat="42.54771" lon="2.74101">
        <ele>343.3</ele>
        <time>2019-12-24T19:06:39Z</time>
      </trkpt>
      <trkpt lat="42.54767" lon="2.7409">
        <ele>343.3</ele>
        <time>2019-12-24T19:06:41Z</time>
      </trkpt>
      <trkpt lat="42.54766" lon="2.74084">
        <ele>343.2</ele>
        <time>2019-12-24T19:06:43Z</time>
      </trkpt>
      <trkpt lat="42.54764" lon="2.74079">
        <ele>338.4</ele>
        <time>2019-12-24T19:06:45Z</time>
      </trkpt>
      <trkpt lat="42.54762" lon="2.7407">
        <ele>337.5</ele>
        <time>2019-12-24T19:06:46Z</time>
      </trkpt>
      <trkpt lat="42.54758" lon="2.7406">
        <ele>336.1</ele>
        <time>2019-12-24T19:06:47Z</time>
      </trkpt>
      <trkpt lat="42.54755" lon="2.74053">
        <ele>335.2</ele>
        <time>2019-12-24T19:06:48Z</time>
      </trkpt>
      <trkpt lat="42.54751" lon="2.74045">
        <ele>334.3</ele>
        <time>2019-12-24T19:06:49Z</time>
      </trkpt>
      <trkpt lat="42.54745" lon="2.74038">
        <ele>344.2</ele>
        <time>2019-12-24T19:06:50Z</time>
      </trkpt>
      <trkpt lat="42.54739" lon="2.7403">
        <ele>343.6</ele>
        <time>2019-12-24T19:06:51Z</time>
      </trkpt>
      <trkpt lat="42.54733" lon="2.74023">
        <ele>343.3</ele>
        <time>2019-12-24T19:06:52Z</time>
      </trkpt>
      <trkpt lat="42.54725" lon="2.74015">
        <ele>343.7</ele>
        <time>2019-12-24T19:06:53Z</time>
      </trkpt>
      <trkpt lat="42.54719" lon="2.74008">
        <ele>344.4</ele>
        <time>2019-12-24T19:06:54Z</time>
      </trkpt>
      <trkpt lat="42.54711" lon="2.74002">
        <ele>345.8</ele>
        <time>2019-12-24T19:06:54Z</time>
      </trkpt>
      <trkpt lat="42.54704" lon="2.73998">
        <ele>337.6</ele>
        <time>2019-12-24T19:06:55Z</time>
      </trkpt>
      <trkpt lat="42.5469" lon="2.73989">
        <ele>340.2</ele>
        <time>2019-12-24T19:06:56Z</time>
      </trkpt>
      <trkpt lat="42.54659" lon="2.73974">
        <ele>348.2</ele>
        <time>2019-12-24T19:06:58Z</time>
      </trkpt>
      <trkpt lat="42.54634" lon="2.73961">
        <ele>346.8</ele>
        <time>2019-12-24T19:06:59Z</time>
      </trkpt>
      <trkpt lat="42.54596" lon="2.73943">
        <ele>346</ele>
        <time>2019-12-24T19:07:01Z</time>
      </trkpt>
      <trkpt lat="42.54589" lon="2.73942">
        <ele>345.9</ele>
        <time>2019-12-24T19:07:02Z</time>
      </trkpt>
      <trkpt lat="42.54583" lon="2.73943">
        <ele>351</ele>
        <time>2019-12-24T19:07:03Z</time>
      </trkpt>
      <trkpt lat="42.54576" lon="2.73944">
        <ele>351.5</ele>
        <time>2019-12-24T19:07:05Z</time>
      </trkpt>
      <trkpt lat="42.54572" lon="2.73944">
        <ele>351.8</ele>
        <time>2019-12-24T19:07:07Z</time>
      </trkpt>
      <trkpt lat="42.54567" lon="2.73944">
        <ele>352.2</ele>
        <time>2019-12-24T19:07:08Z</time>
      </trkpt>
      <trkpt lat="42.54566" lon="2.73944">
        <ele>352.3</ele>
        <time>2019-12-24T19:07:09Z</time>
      </trkpt>
      <trkpt lat="42.54563" lon="2.73942">
        <ele>352.2</ele>
        <time>2019-12-24T19:07:09Z</time>
      </trkpt>
      <trkpt lat="42.54558" lon="2.73939">
        <ele>352.3</ele>
        <time>2019-12-24T19:07:09Z</time>
      </trkpt>
      <trkpt lat="42.54555" lon="2.73936">
        <ele>352.2</ele>
        <time>2019-12-24T19:07:10Z</time>
      </trkpt>
      <trkpt lat="42.54552" lon="2.73931">
        <ele>352</ele>
        <time>2019-12-24T19:07:12Z</time>
      </trkpt>
      <trkpt lat="42.54547" lon="2.73923">
        <ele>352.1</ele>
        <time>2019-12-24T19:07:13Z</time>
      </trkpt>
      <trkpt lat="42.54544" lon="2.73918">
        <ele>352.2</ele>
        <time>2019-12-24T19:07:16Z</time>
      </trkpt>
      <trkpt lat="42.54541" lon="2.73915">
        <ele>344.1</ele>
        <time>2019-12-24T19:07:18Z</time>
      </trkpt>
      <trkpt lat="42.54536" lon="2.73911">
        <ele>344.6</ele>
        <time>2019-12-24T19:07:20Z</time>
      </trkpt>
      <trkpt lat="42.54534" lon="2.73909">
        <ele>344.8</ele>
        <time>2019-12-24T19:07:22Z</time>
      </trkpt>
      <trkpt lat="42.5453" lon="2.73907">
        <ele>345.3</ele>
        <time>2019-12-24T19:07:25Z</time>
      </trkpt>
      <trkpt lat="42.54526" lon="2.73904">
        <ele>345.7</ele>
        <time>2019-12-24T19:07:29Z</time>
      </trkpt>
      <trkpt lat="42.5452" lon="2.73902">
        <ele>346.4</ele>
        <time>2019-12-24T19:07:31Z</time>
      </trkpt>
      <trkpt lat="42.54514" lon="2.73901">
        <ele>347.2</ele>
        <time>2019-12-24T19:07:34Z</time>
      </trkpt>
      <trkpt lat="42.54505" lon="2.739">
        <ele>348.1</ele>
        <time>2019-12-24T19:07:38Z</time>
      </trkpt>
      <trkpt lat="42.54495" lon="2.73899">
        <ele>354.2</ele>
        <time>2019-12-24T19:07:39Z</time>
      </trkpt>
      <trkpt lat="42.5449" lon="2.73898">
        <ele>354.4</ele>
        <time>2019-12-24T19:07:41Z</time>
      </trkpt>
      <trkpt lat="42.54484" lon="2.73896">
        <ele>354.5</ele>
        <time>2019-12-24T19:07:43Z</time>
      </trkpt>
      <trkpt lat="42.5448" lon="2.73894">
        <ele>354.7</ele>
        <time>2019-12-24T19:07:45Z</time>
      </trkpt>
      <trkpt lat="42.54473" lon="2.73891">
        <ele>355</ele>
        <time>2019-12-24T19:07:47Z</time>
      </trkpt>
      <trkpt lat="42.54466" lon="2.73885">
        <ele>355.1</ele>
        <time>2019-12-24T19:07:50Z</time>
      </trkpt>
      <trkpt lat="42.54457" lon="2.73879">
        <ele>355.4</ele>
        <time>2019-12-24T19:07:51Z</time>
      </trkpt>
      <trkpt lat="42.54445" lon="2.73869">
        <ele>355.5</ele>
        <time>2019-12-24T19:07:52Z</time>
      </trkpt>
      <trkpt lat="42.54432" lon="2.73859">
        <ele>355.3</ele>
        <time>2019-12-24T19:07:54Z</time>
      </trkpt>
      <trkpt lat="42.54416" lon="2.73842">
        <ele>357.5</ele>
        <time>2019-12-24T19:07:55Z</time>
      </trkpt>
      <trkpt lat="42.54393" lon="2.73822">
        <ele>353.3</ele>
        <time>2019-12-24T19:07:56Z</time>
      </trkpt>
      <trkpt lat="42.54381" lon="2.73812">
        <ele>353.3</ele>
        <time>2019-12-24T19:07:58Z</time>
      </trkpt>
      <trkpt lat="42.54377" lon="2.73809">
        <ele>353.3</ele>
        <time>2019-12-24T19:07:59Z</time>
      </trkpt>
      <trkpt lat="42.54374" lon="2.73807">
        <ele>353.3</ele>
        <time>2019-12-24T19:08:01Z</time>
      </trkpt>
      <trkpt lat="42.54371" lon="2.73805">
        <ele>353.3</ele>
        <time>2019-12-24T19:08:02Z</time>
      </trkpt>
      <trkpt lat="42.54368" lon="2.73804">
        <ele>353.4</ele>
        <time>2019-12-24T19:08:04Z</time>
      </trkpt>
      <trkpt lat="42.54365" lon="2.73804">
        <ele>353.6</ele>
        <time>2019-12-24T19:08:06Z</time>
      </trkpt>
      <trkpt lat="42.54362" lon="2.73803">
        <ele>353.7</ele>
        <time>2019-12-24T19:08:07Z</time>
      </trkpt>
      <trkpt lat="42.54359" lon="2.73803">
        <ele>353.9</ele>
        <time>2019-12-24T19:08:09Z</time>
      </trkpt>
      <trkpt lat="42.54356" lon="2.73803">
        <ele>354.1</ele>
        <time>2019-12-24T19:08:11Z</time>
      </trkpt>
      <trkpt lat="42.54353" lon="2.73803">
        <ele>354.3</ele>
        <time>2019-12-24T19:08:12Z</time>
      </trkpt>
      <trkpt lat="42.54349" lon="2.73804">
        <ele>354.7</ele>
        <time>2019-12-24T19:08:14Z</time>
      </trkpt>
      <trkpt lat="42.54344" lon="2.73805">
        <ele>355.1</ele>
        <time>2019-12-24T19:08:17Z</time>
      </trkpt>
      <trkpt lat="42.54336" lon="2.73809">
        <ele>356.3</ele>
        <time>2019-12-24T19:08:27Z</time>
      </trkpt>
      <trkpt lat="42.54324" lon="2.73816">
        <ele>362.9</ele>
        <time>2019-12-24T19:08:36Z</time>
      </trkpt>
      <trkpt lat="42.5431" lon="2.73823">
        <ele>363.8</ele>
        <time>2019-12-24T19:08:37Z</time>
      </trkpt>
      <trkpt lat="42.54308" lon="2.73825">
        <ele>364</ele>
        <time>2019-12-24T19:08:38Z</time>
      </trkpt>
      <trkpt lat="42.54303" lon="2.73826">
        <ele>364.3</ele>
        <time>2019-12-24T19:08:39Z</time>
      </trkpt>
      <trkpt lat="42.543" lon="2.73826">
        <ele>364.6</ele>
        <time>2019-12-24T19:08:40Z</time>
      </trkpt>
      <trkpt lat="42.54289" lon="2.73824">
        <ele>365.6</ele>
        <time>2019-12-24T19:08:41Z</time>
      </trkpt>
      <trkpt lat="42.54285" lon="2.73821">
        <ele>366</ele>
        <time>2019-12-24T19:08:42Z</time>
      </trkpt>
      <trkpt lat="42.54282" lon="2.73819">
        <ele>366.2</ele>
        <time>2019-12-24T19:08:43Z</time>
      </trkpt>
      <trkpt lat="42.5428" lon="2.73816">
        <ele>366.2</ele>
        <time>2019-12-24T19:08:44Z</time>
      </trkpt>
      <trkpt lat="42.54273" lon="2.73806">
        <ele>366</ele>
        <time>2019-12-24T19:08:45Z</time>
      </trkpt>
      <trkpt lat="42.54267" lon="2.73797">
        <ele>365.3</ele>
        <time>2019-12-24T19:08:47Z</time>
      </trkpt>
      <trkpt lat="42.54262" lon="2.73789">
        <ele>364.7</ele>
        <time>2019-12-24T19:08:48Z</time>
      </trkpt>
      <trkpt lat="42.54258" lon="2.73783">
        <ele>364.3</ele>
        <time>2019-12-24T19:08:49Z</time>
      </trkpt>
      <trkpt lat="42.54252" lon="2.73777">
        <ele>363.9</ele>
        <time>2019-12-24T19:08:49Z</time>
      </trkpt>
      <trkpt lat="42.54247" lon="2.73772">
        <ele>374.3</ele>
        <time>2019-12-24T19:08:50Z</time>
      </trkpt>
      <trkpt lat="42.54242" lon="2.73767">
        <ele>373.4</ele>
        <time>2019-12-24T19:08:51Z</time>
      </trkpt>
      <trkpt lat="42.54238" lon="2.73763">
        <ele>373.2</ele>
        <time>2019-12-24T19:08:51Z</time>
      </trkpt>
      <trkpt lat="42.54233" lon="2.73756">
        <ele>373.4</ele>
        <time>2019-12-24T19:08:51Z</time>
      </trkpt>
      <trkpt lat="42.54229" lon="2.73749">
        <ele>369</ele>
        <time>2019-12-24T19:08:52Z</time>
      </trkpt>
      <trkpt lat="42.54226" lon="2.73741">
        <ele>369.7</ele>
        <time>2019-12-24T19:08:52Z</time>
      </trkpt>
      <trkpt lat="42.54223" lon="2.73733">
        <ele>370.4</ele>
        <time>2019-12-24T19:08:53Z</time>
      </trkpt>
      <trkpt lat="42.5422" lon="2.73724">
        <ele>370.8</ele>
        <time>2019-12-24T19:08:54Z</time>
      </trkpt>
      <trkpt lat="42.54216" lon="2.73714">
        <ele>371.1</ele>
        <time>2019-12-24T19:08:54Z</time>
      </trkpt>
      <trkpt lat="42.54213" lon="2.73707">
        <ele>371.2</ele>
        <time>2019-12-24T19:08:55Z</time>
      </trkpt>
      <trkpt lat="42.5421" lon="2.73699">
        <ele>371.2</ele>
        <time>2019-12-24T19:08:56Z</time>
      </trkpt>
      <trkpt lat="42.54205" lon="2.73691">
        <ele>371.6</ele>
        <time>2019-12-24T19:08:57Z</time>
      </trkpt>
      <trkpt lat="42.54197" lon="2.73673">
        <ele>372.7</ele>
        <time>2019-12-24T19:08:59Z</time>
      </trkpt>
      <trkpt lat="42.54191" lon="2.7366">
        <ele>370.1</ele>
        <time>2019-12-24T19:09:01Z</time>
      </trkpt>
      <trkpt lat="42.54188" lon="2.73655">
        <ele>370.4</ele>
        <time>2019-12-24T19:09:03Z</time>
      </trkpt>
      <trkpt lat="42.54182" lon="2.73647">
        <ele>370.6</ele>
        <time>2019-12-24T19:09:05Z</time>
      </trkpt>
      <trkpt lat="42.54173" lon="2.73638">
        <ele>370.4</ele>
        <time>2019-12-24T19:09:06Z</time>
      </trkpt>
      <trkpt lat="42.54168" lon="2.73632">
        <ele>369.9</ele>
        <time>2019-12-24T19:09:07Z</time>
      </trkpt>
      <trkpt lat="42.54166" lon="2.73629">
        <ele>381.7</ele>
        <time>2019-12-24T19:09:08Z</time>
      </trkpt>
      <trkpt lat="42.54163" lon="2.73626">
        <ele>381.6</ele>
        <time>2019-12-24T19:09:09Z</time>
      </trkpt>
      <trkpt lat="42.54162" lon="2.73623">
        <ele>381.4</ele>
        <time>2019-12-24T19:09:10Z</time>
      </trkpt>
      <trkpt lat="42.5416" lon="2.73618">
        <ele>381</ele>
        <time>2019-12-24T19:09:11Z</time>
      </trkpt>
      <trkpt lat="42.54159" lon="2.73611">
        <ele>380.2</ele>
        <time>2019-12-24T19:09:12Z</time>
      </trkpt>
      <trkpt lat="42.54159" lon="2.73604">
        <ele>379</ele>
        <time>2019-12-24T19:09:12Z</time>
      </trkpt>
      <trkpt lat="42.54161" lon="2.73586">
        <ele>374.2</ele>
        <time>2019-12-24T19:09:14Z</time>
      </trkpt>
      <trkpt lat="42.54161" lon="2.73578">
        <ele>373.2</ele>
        <time>2019-12-24T19:09:14Z</time>
      </trkpt>
      <trkpt lat="42.54161" lon="2.73569">
        <ele>374.5</ele>
        <time>2019-12-24T19:09:16Z</time>
      </trkpt>
      <trkpt lat="42.5416" lon="2.73562">
        <ele>375.3</ele>
        <time>2019-12-24T19:09:18Z</time>
      </trkpt>
      <trkpt lat="42.54158" lon="2.73555">
        <ele>375.8</ele>
        <time>2019-12-24T19:09:18Z</time>
      </trkpt>
      <trkpt lat="42.54155" lon="2.73542">
        <ele>376</ele>
        <time>2019-12-24T19:09:19Z</time>
      </trkpt>
      <trkpt lat="42.54152" lon="2.73532">
        <ele>375.8</ele>
        <time>2019-12-24T19:09:19Z</time>
      </trkpt>
      <trkpt lat="42.54149" lon="2.73522">
        <ele>375.3</ele>
        <time>2019-12-24T19:09:20Z</time>
      </trkpt>
      <trkpt lat="42.54145" lon="2.73513">
        <ele>375.1</ele>
        <time>2019-12-24T19:09:20Z</time>
      </trkpt>
      <trkpt lat="42.5414" lon="2.73498">
        <ele>372.5</ele>
        <time>2019-12-24T19:09:21Z</time>
      </trkpt>
      <trkpt lat="42.54137" lon="2.73487">
        <ele>372.9</ele>
        <time>2019-12-24T19:09:21Z</time>
      </trkpt>
      <trkpt lat="42.54133" lon="2.73477">
        <ele>373.3</ele>
        <time>2019-12-24T19:09:22Z</time>
      </trkpt>
      <trkpt lat="42.54129" lon="2.73467">
        <ele>373.4</ele>
        <time>2019-12-24T19:09:22Z</time>
      </trkpt>
      <trkpt lat="42.54124" lon="2.73457">
        <ele>373.5</ele>
        <time>2019-12-24T19:09:23Z</time>
      </trkpt>
      <trkpt lat="42.5412" lon="2.7345">
        <ele>373.6</ele>
        <time>2019-12-24T19:09:23Z</time>
      </trkpt>
      <trkpt lat="42.54116" lon="2.73446">
        <ele>373.9</ele>
        <time>2019-12-24T19:09:24Z</time>
      </trkpt>
      <trkpt lat="42.54111" lon="2.73442">
        <ele>374.2</ele>
        <time>2019-12-24T19:09:25Z</time>
      </trkpt>
      <trkpt lat="42.54106" lon="2.73438">
        <ele>374.5</ele>
        <time>2019-12-24T19:09:26Z</time>
      </trkpt>
      <trkpt lat="42.54101" lon="2.73435">
        <ele>374.9</ele>
        <time>2019-12-24T19:09:27Z</time>
      </trkpt>
      <trkpt lat="42.54094" lon="2.73434">
        <ele>375.3</ele>
        <time>2019-12-24T19:09:28Z</time>
      </trkpt>
      <trkpt lat="42.54087" lon="2.73433">
        <ele>375.7</ele>
        <time>2019-12-24T19:09:29Z</time>
      </trkpt>
      <trkpt lat="42.54082" lon="2.73433">
        <ele>379.5</ele>
        <time>2019-12-24T19:09:30Z</time>
      </trkpt>
      <trkpt lat="42.54077" lon="2.73433">
        <ele>379.6</ele>
        <time>2019-12-24T19:09:30Z</time>
      </trkpt>
      <trkpt lat="42.54075" lon="2.73433">
        <ele>379.7</ele>
        <time>2019-12-24T19:09:31Z</time>
      </trkpt>
      <trkpt lat="42.54067" lon="2.73434">
        <ele>380.1</ele>
        <time>2019-12-24T19:09:33Z</time>
      </trkpt>
      <trkpt lat="42.5406" lon="2.73434">
        <ele>380.5</ele>
        <time>2019-12-24T19:09:34Z</time>
      </trkpt>
      <trkpt lat="42.54052" lon="2.73434">
        <ele>380.8</ele>
        <time>2019-12-24T19:09:36Z</time>
      </trkpt>
      <trkpt lat="42.54046" lon="2.73434">
        <ele>381</ele>
        <time>2019-12-24T19:09:37Z</time>
      </trkpt>
      <trkpt lat="42.5404" lon="2.73432">
        <ele>381</ele>
        <time>2019-12-24T19:09:39Z</time>
      </trkpt>
      <trkpt lat="42.54036" lon="2.73429">
        <ele>381</ele>
        <time>2019-12-24T19:09:42Z</time>
      </trkpt>
      <trkpt lat="42.54032" lon="2.73426">
        <ele>381</ele>
        <time>2019-12-24T19:09:45Z</time>
      </trkpt>
      <trkpt lat="42.54029" lon="2.73424">
        <ele>381</ele>
        <time>2019-12-24T19:09:48Z</time>
      </trkpt>
      <trkpt lat="42.54015" lon="2.73411">
        <ele>379.8</ele>
        <time>2019-12-24T19:09:51Z</time>
      </trkpt>
      <trkpt lat="42.54005" lon="2.73398">
        <ele>379.9</ele>
        <time>2019-12-24T19:09:55Z</time>
      </trkpt>
      <trkpt lat="42.53999" lon="2.73392">
        <ele>379.8</ele>
        <time>2019-12-24T19:09:58Z</time>
      </trkpt>
      <trkpt lat="42.53996" lon="2.73387">
        <ele>379.9</ele>
        <time>2019-12-24T19:09:59Z</time>
      </trkpt>
      <trkpt lat="42.53992" lon="2.73381">
        <ele>380</ele>
        <time>2019-12-24T19:10:01Z</time>
      </trkpt>
      <trkpt lat="42.53988" lon="2.73374">
        <ele>380.1</ele>
        <time>2019-12-24T19:10:02Z</time>
      </trkpt>
      <trkpt lat="42.53985" lon="2.73366">
        <ele>380.4</ele>
        <time>2019-12-24T19:10:03Z</time>
      </trkpt>
      <trkpt lat="42.53984" lon="2.7336">
        <ele>380.7</ele>
        <time>2019-12-24T19:10:05Z</time>
      </trkpt>
      <trkpt lat="42.53982" lon="2.73354">
        <ele>381</ele>
        <time>2019-12-24T19:10:06Z</time>
      </trkpt>
      <trkpt lat="42.5398" lon="2.73346">
        <ele>381.3</ele>
        <time>2019-12-24T19:10:09Z</time>
      </trkpt>
      <trkpt lat="42.53977" lon="2.73339">
        <ele>381.4</ele>
        <time>2019-12-24T19:10:13Z</time>
      </trkpt>
      <trkpt lat="42.53974" lon="2.73333">
        <ele>387.1</ele>
        <time>2019-12-24T19:10:15Z</time>
      </trkpt>
      <trkpt lat="42.53969" lon="2.73327">
        <ele>387.5</ele>
        <time>2019-12-24T19:10:17Z</time>
      </trkpt>
      <trkpt lat="42.53964" lon="2.73321">
        <ele>387.9</ele>
        <time>2019-12-24T19:10:18Z</time>
      </trkpt>
      <trkpt lat="42.53958" lon="2.73318">
        <ele>388</ele>
        <time>2019-12-24T19:10:19Z</time>
      </trkpt>
      <trkpt lat="42.53951" lon="2.73315">
        <ele>388.1</ele>
        <time>2019-12-24T19:10:20Z</time>
      </trkpt>
      <trkpt lat="42.53947" lon="2.73314">
        <ele>388</ele>
        <time>2019-12-24T19:10:21Z</time>
      </trkpt>
      <trkpt lat="42.53942" lon="2.73314">
        <ele>387.8</ele>
        <time>2019-12-24T19:10:21Z</time>
      </trkpt>
      <trkpt lat="42.53937" lon="2.73313">
        <ele>387.6</ele>
        <time>2019-12-24T19:10:22Z</time>
      </trkpt>
      <trkpt lat="42.53932" lon="2.73313">
        <ele>387.4</ele>
        <time>2019-12-24T19:10:23Z</time>
      </trkpt>
      <trkpt lat="42.5392" lon="2.73315">
        <ele>386.5</ele>
        <time>2019-12-24T19:10:23Z</time>
      </trkpt>
      <trkpt lat="42.53911" lon="2.73316">
        <ele>383.8</ele>
        <time>2019-12-24T19:10:24Z</time>
      </trkpt>
      <trkpt lat="42.53899" lon="2.73318">
        <ele>383.6</ele>
        <time>2019-12-24T19:10:26Z</time>
      </trkpt>
      <trkpt lat="42.5389" lon="2.73318">
        <ele>383.4</ele>
        <time>2019-12-24T19:10:31Z</time>
      </trkpt>
      <trkpt lat="42.53878" lon="2.73316">
        <ele>382.9</ele>
        <time>2019-12-24T19:10:33Z</time>
      </trkpt>
      <trkpt lat="42.53867" lon="2.73314">
        <ele>382.1</ele>
        <time>2019-12-24T19:10:35Z</time>
      </trkpt>
      <trkpt lat="42.53857" lon="2.73308">
        <ele>381.8</ele>
        <time>2019-12-24T19:10:36Z</time>
      </trkpt>
      <trkpt lat="42.53847" lon="2.73301">
        <ele>381.9</ele>
        <time>2019-12-24T19:10:38Z</time>
      </trkpt>
      <trkpt lat="42.5384" lon="2.73295">
        <ele>382.5</ele>
        <time>2019-12-24T19:10:39Z</time>
      </trkpt>
      <trkpt lat="42.53833" lon="2.73286">
        <ele>378.4</ele>
        <time>2019-12-24T19:10:41Z</time>
      </trkpt>
      <trkpt lat="42.53826" lon="2.73275">
        <ele>380</ele>
        <time>2019-12-24T19:10:47Z</time>
      </trkpt>
      <trkpt lat="42.53819" lon="2.73264">
        <ele>381.2</ele>
        <time>2019-12-24T19:10:49Z</time>
      </trkpt>
      <trkpt lat="42.53815" lon="2.73254">
        <ele>381.6</ele>
        <time>2019-12-24T19:10:51Z</time>
      </trkpt>
      <trkpt lat="42.53809" lon="2.73241">
        <ele>388.8</ele>
        <time>2019-12-24T19:10:53Z</time>
      </trkpt>
      <trkpt lat="42.53806" lon="2.73228">
        <ele>389.6</ele>
        <time>2019-12-24T19:10:54Z</time>
      </trkpt>
      <trkpt lat="42.53801" lon="2.73211">
        <ele>390.8</ele>
        <time>2019-12-24T19:10:54Z</time>
      </trkpt>
      <trkpt lat="42.53799" lon="2.73203">
        <ele>391.5</ele>
        <time>2019-12-24T19:10:56Z</time>
      </trkpt>
      <trkpt lat="42.53798" lon="2.73196">
        <ele>392</ele>
        <time>2019-12-24T19:10:57Z</time>
      </trkpt>
      <trkpt lat="42.53796" lon="2.73189">
        <ele>392.5</ele>
        <time>2019-12-24T19:10:58Z</time>
      </trkpt>
      <trkpt lat="42.53794" lon="2.73183">
        <ele>392.8</ele>
        <time>2019-12-24T19:11:02Z</time>
      </trkpt>
      <trkpt lat="42.53791" lon="2.73178">
        <ele>393</ele>
        <time>2019-12-24T19:11:07Z</time>
      </trkpt>
      <trkpt lat="42.53787" lon="2.73173">
        <ele>393.2</ele>
        <time>2019-12-24T19:11:11Z</time>
      </trkpt>
      <trkpt lat="42.53783" lon="2.7317">
        <ele>393.2</ele>
        <time>2019-12-24T19:11:14Z</time>
      </trkpt>
      <trkpt lat="42.53778" lon="2.73168">
        <ele>393.3</ele>
        <time>2019-12-24T19:11:15Z</time>
      </trkpt>
      <trkpt lat="42.53772" lon="2.73166">
        <ele>401.9</ele>
        <time>2019-12-24T19:11:16Z</time>
      </trkpt>
      <trkpt lat="42.53768" lon="2.73167">
        <ele>393.7</ele>
        <time>2019-12-24T19:11:16Z</time>
      </trkpt>
      <trkpt lat="42.53764" lon="2.73167">
        <ele>394</ele>
        <time>2019-12-24T19:11:17Z</time>
      </trkpt>
      <trkpt lat="42.53758" lon="2.7317">
        <ele>394.5</ele>
        <time>2019-12-24T19:11:17Z</time>
      </trkpt>
      <trkpt lat="42.53752" lon="2.73176">
        <ele>394.2</ele>
        <time>2019-12-24T19:11:18Z</time>
      </trkpt>
      <trkpt lat="42.53747" lon="2.73183">
        <ele>394.6</ele>
        <time>2019-12-24T19:11:19Z</time>
      </trkpt>
      <trkpt lat="42.53742" lon="2.73194">
        <ele>393.6</ele>
        <time>2019-12-24T19:11:20Z</time>
      </trkpt>
      <trkpt lat="42.53738" lon="2.73203">
        <ele>392.8</ele>
        <time>2019-12-24T19:11:21Z</time>
      </trkpt>
      <trkpt lat="42.53735" lon="2.73214">
        <ele>391.5</ele>
        <time>2019-12-24T19:11:23Z</time>
      </trkpt>
      <trkpt lat="42.53731" lon="2.73224">
        <ele>390.5</ele>
        <time>2019-12-24T19:11:24Z</time>
      </trkpt>
      <trkpt lat="42.53726" lon="2.73234">
        <ele>389.8</ele>
        <time>2019-12-24T19:11:27Z</time>
      </trkpt>
      <trkpt lat="42.53722" lon="2.73241">
        <ele>389.8</ele>
        <time>2019-12-24T19:11:29Z</time>
      </trkpt>
      <trkpt lat="42.53719" lon="2.73247">
        <ele>390</ele>
        <time>2019-12-24T19:11:30Z</time>
      </trkpt>
      <trkpt lat="42.53718" lon="2.73248">
        <ele>390.1</ele>
        <time>2019-12-24T19:11:32Z</time>
      </trkpt>
      <trkpt lat="42.53716" lon="2.73251">
        <ele>381.8</ele>
        <time>2019-12-24T19:11:33Z</time>
      </trkpt>
      <trkpt lat="42.53714" lon="2.73253">
        <ele>381.9</ele>
        <time>2019-12-24T19:11:34Z</time>
      </trkpt>
      <trkpt lat="42.53707" lon="2.73262">
        <ele>382.3</ele>
        <time>2019-12-24T19:11:36Z</time>
      </trkpt>
      <trkpt lat="42.537" lon="2.73269">
        <ele>382.7</ele>
        <time>2019-12-24T19:11:37Z</time>
      </trkpt>
      <trkpt lat="42.53687" lon="2.73279">
        <ele>383</ele>
        <time>2019-12-24T19:11:38Z</time>
      </trkpt>
      <trkpt lat="42.53678" lon="2.73285">
        <ele>382.8</ele>
        <time>2019-12-24T19:11:40Z</time>
      </trkpt>
      <trkpt lat="42.53667" lon="2.73291">
        <ele>382.2</ele>
        <time>2019-12-24T19:11:42Z</time>
      </trkpt>
      <trkpt lat="42.53654" lon="2.73297">
        <ele>387.8</ele>
        <time>2019-12-24T19:11:43Z</time>
      </trkpt>
      <trkpt lat="42.53639" lon="2.73304">
        <ele>387.7</ele>
        <time>2019-12-24T19:11:44Z</time>
      </trkpt>
      <trkpt lat="42.53619" lon="2.73311">
        <ele>388.3</ele>
        <time>2019-12-24T19:11:46Z</time>
      </trkpt>
      <trkpt lat="42.53604" lon="2.73316">
        <ele>388.3</ele>
        <time>2019-12-24T19:11:48Z</time>
      </trkpt>
      <trkpt lat="42.53588" lon="2.7332">
        <ele>387.7</ele>
        <time>2019-12-24T19:11:50Z</time>
      </trkpt>
      <trkpt lat="42.53569" lon="2.73326">
        <ele>386.1</ele>
        <time>2019-12-24T19:11:51Z</time>
      </trkpt>
      <trkpt lat="42.5356" lon="2.73327">
        <ele>385.7</ele>
        <time>2019-12-24T19:11:51Z</time>
      </trkpt>
      <trkpt lat="42.53552" lon="2.73328">
        <ele>385.2</ele>
        <time>2019-12-24T19:11:52Z</time>
      </trkpt>
      <trkpt lat="42.53539" lon="2.73326">
        <ele>384.2</ele>
        <time>2019-12-24T19:11:53Z</time>
      </trkpt>
      <trkpt lat="42.53531" lon="2.73322">
        <ele>383.5</ele>
        <time>2019-12-24T19:11:54Z</time>
      </trkpt>
      <trkpt lat="42.53517" lon="2.73313">
        <ele>382.5</ele>
        <time>2019-12-24T19:11:55Z</time>
      </trkpt>
      <trkpt lat="42.53508" lon="2.733">
        <ele>383.2</ele>
        <time>2019-12-24T19:11:55Z</time>
      </trkpt>
      <trkpt lat="42.53503" lon="2.73293">
        <ele>383.5</ele>
        <time>2019-12-24T19:11:56Z</time>
      </trkpt>
      <trkpt lat="42.53501" lon="2.73283">
        <ele>383.9</ele>
        <time>2019-12-24T19:11:57Z</time>
      </trkpt>
      <trkpt lat="42.53499" lon="2.73274">
        <ele>372.8</ele>
        <time>2019-12-24T19:11:59Z</time>
      </trkpt>
      <trkpt lat="42.53497" lon="2.73266">
        <ele>374.5</ele>
        <time>2019-12-24T19:12:00Z</time>
      </trkpt>
      <trkpt lat="42.53495" lon="2.73254">
        <ele>378.2</ele>
        <time>2019-12-24T19:12:01Z</time>
      </trkpt>
      <trkpt lat="42.53494" lon="2.73243">
        <ele>376.6</ele>
        <time>2019-12-24T19:12:02Z</time>
      </trkpt>
      <trkpt lat="42.53494" lon="2.73231">
        <ele>372.9</ele>
        <time>2019-12-24T19:12:03Z</time>
      </trkpt>
      <trkpt lat="42.53494" lon="2.73219">
        <ele>370.7</ele>
        <time>2019-12-24T19:12:04Z</time>
      </trkpt>
      <trkpt lat="42.53495" lon="2.73207">
        <ele>369.8</ele>
        <time>2019-12-24T19:12:05Z</time>
      </trkpt>
      <trkpt lat="42.53496" lon="2.73193">
        <ele>370</ele>
        <time>2019-12-24T19:12:06Z</time>
      </trkpt>
      <trkpt lat="42.53498" lon="2.73182">
        <ele>371.4</ele>
        <time>2019-12-24T19:12:07Z</time>
      </trkpt>
      <trkpt lat="42.535" lon="2.73172">
        <ele>373.9</ele>
        <time>2019-12-24T19:12:08Z</time>
      </trkpt>
      <trkpt lat="42.53503" lon="2.73161">
        <ele>377.7</ele>
        <time>2019-12-24T19:12:12Z</time>
      </trkpt>
      <trkpt lat="42.53507" lon="2.73148">
        <ele>379.7</ele>
        <time>2019-12-24T19:12:13Z</time>
      </trkpt>
      <trkpt lat="42.5351" lon="2.73136">
        <ele>380.2</ele>
        <time>2019-12-24T19:12:14Z</time>
      </trkpt>
      <trkpt lat="42.53515" lon="2.73123">
        <ele>379.9</ele>
        <time>2019-12-24T19:12:14Z</time>
      </trkpt>
      <trkpt lat="42.53521" lon="2.73107">
        <ele>378.9</ele>
        <time>2019-12-24T19:12:17Z</time>
      </trkpt>
      <trkpt lat="42.53545" lon="2.7303">
        <ele>373.1</ele>
        <time>2019-12-24T19:12:18Z</time>
      </trkpt>
      <trkpt lat="42.53563" lon="2.72973">
        <ele>367.7</ele>
        <time>2019-12-24T19:12:19Z</time>
      </trkpt>
      <trkpt lat="42.53567" lon="2.72962">
        <ele>366.8</ele>
        <time>2019-12-24T19:12:20Z</time>
      </trkpt>
      <trkpt lat="42.53569" lon="2.72955">
        <ele>366.4</ele>
        <time>2019-12-24T19:12:23Z</time>
      </trkpt>
      <trkpt lat="42.53571" lon="2.7295">
        <ele>366.2</ele>
        <time>2019-12-24T19:12:24Z</time>
      </trkpt>
      <trkpt lat="42.53574" lon="2.72944">
        <ele>366.2</ele>
        <time>2019-12-24T19:12:25Z</time>
      </trkpt>
      <trkpt lat="42.53578" lon="2.72939">
        <ele>366.5</ele>
        <time>2019-12-24T19:12:26Z</time>
      </trkpt>
      <trkpt lat="42.53581" lon="2.72934">
        <ele>366.8</ele>
        <time>2019-12-24T19:12:27Z</time>
      </trkpt>
      <trkpt lat="42.53585" lon="2.72929">
        <ele>375.4</ele>
        <time>2019-12-24T19:12:28Z</time>
      </trkpt>
      <trkpt lat="42.53591" lon="2.72924">
        <ele>374.8</ele>
        <time>2019-12-24T19:12:29Z</time>
      </trkpt>
      <trkpt lat="42.53598" lon="2.7292">
        <ele>376.6</ele>
        <time>2019-12-24T19:12:30Z</time>
      </trkpt>
      <trkpt lat="42.53608" lon="2.72915">
        <ele>376.7</ele>
        <time>2019-12-24T19:12:31Z</time>
      </trkpt>
      <trkpt lat="42.53612" lon="2.72911">
        <ele>377.7</ele>
        <time>2019-12-24T19:12:32Z</time>
      </trkpt>
      <trkpt lat="42.53615" lon="2.72905">
        <ele>378.4</ele>
        <time>2019-12-24T19:12:33Z</time>
      </trkpt>
      <trkpt lat="42.53616" lon="2.72902">
        <ele>378.7</ele>
        <time>2019-12-24T19:12:33Z</time>
      </trkpt>
      <trkpt lat="42.53617" lon="2.72897">
        <ele>379.1</ele>
        <time>2019-12-24T19:12:34Z</time>
      </trkpt>
      <trkpt lat="42.53617" lon="2.72894">
        <ele>379.2</ele>
        <time>2019-12-24T19:12:34Z</time>
      </trkpt>
      <trkpt lat="42.53617" lon="2.7289">
        <ele>379.4</ele>
        <time>2019-12-24T19:12:35Z</time>
      </trkpt>
      <trkpt lat="42.53616" lon="2.72888">
        <ele>379.3</ele>
        <time>2019-12-24T19:12:35Z</time>
      </trkpt>
      <trkpt lat="42.53616" lon="2.72885">
        <ele>379.5</ele>
        <time>2019-12-24T19:12:36Z</time>
      </trkpt>
      <trkpt lat="42.53615" lon="2.72882">
        <ele>379.5</ele>
        <time>2019-12-24T19:12:37Z</time>
      </trkpt>
      <trkpt lat="42.53613" lon="2.7288">
        <ele>379.3</ele>
        <time>2019-12-24T19:12:38Z</time>
      </trkpt>
      <trkpt lat="42.53609" lon="2.72874">
        <ele>379.2</ele>
        <time>2019-12-24T19:12:39Z</time>
      </trkpt>
      <trkpt lat="42.53607" lon="2.72872">
        <ele>379.1</ele>
        <time>2019-12-24T19:12:40Z</time>
      </trkpt>
      <trkpt lat="42.53603" lon="2.7287">
        <ele>378.8</ele>
        <time>2019-12-24T19:12:41Z</time>
      </trkpt>
      <trkpt lat="42.53599" lon="2.72869">
        <ele>378.5</ele>
        <time>2019-12-24T19:12:43Z</time>
      </trkpt>
      <trkpt lat="42.5359" lon="2.72867">
        <ele>378</ele>
        <time>2019-12-24T19:12:44Z</time>
      </trkpt>
      <trkpt lat="42.5358" lon="2.72867">
        <ele>367.1</ele>
        <time>2019-12-24T19:12:45Z</time>
      </trkpt>
      <trkpt lat="42.53567" lon="2.72867">
        <ele>366.2</ele>
        <time>2019-12-24T19:12:47Z</time>
      </trkpt>
      <trkpt lat="42.53558" lon="2.72867">
        <ele>365.4</ele>
        <time>2019-12-24T19:12:49Z</time>
      </trkpt>
      <trkpt lat="42.53548" lon="2.72867">
        <ele>364.4</ele>
        <time>2019-12-24T19:12:51Z</time>
      </trkpt>
      <trkpt lat="42.5354" lon="2.72864">
        <ele>363.7</ele>
        <time>2019-12-24T19:12:53Z</time>
      </trkpt>
      <trkpt lat="42.53534" lon="2.7286">
        <ele>363.3</ele>
        <time>2019-12-24T19:12:55Z</time>
      </trkpt>
      <trkpt lat="42.53529" lon="2.72857">
        <ele>363</ele>
        <time>2019-12-24T19:12:57Z</time>
      </trkpt>
      <trkpt lat="42.53524" lon="2.72852">
        <ele>362.7</ele>
        <time>2019-12-24T19:12:59Z</time>
      </trkpt>
      <trkpt lat="42.5352" lon="2.72847">
        <ele>362.5</ele>
        <time>2019-12-24T19:12:59Z</time>
      </trkpt>
      <trkpt lat="42.53515" lon="2.72844">
        <ele>362.2</ele>
        <time>2019-12-24T19:12:59Z</time>
      </trkpt>
      <trkpt lat="42.53511" lon="2.72842">
        <ele>361.9</ele>
        <time>2019-12-24T19:13:00Z</time>
      </trkpt>
      <trkpt lat="42.5351" lon="2.72842">
        <ele>361.8</ele>
        <time>2019-12-24T19:13:01Z</time>
      </trkpt>
      <trkpt lat="42.53503" lon="2.72839">
        <ele>361.4</ele>
        <time>2019-12-24T19:13:02Z</time>
      </trkpt>
      <trkpt lat="42.53499" lon="2.72839">
        <ele>357.8</ele>
        <time>2019-12-24T19:13:02Z</time>
      </trkpt>
      <trkpt lat="42.53488" lon="2.7284">
        <ele>354.5</ele>
        <time>2019-12-24T19:13:02Z</time>
      </trkpt>
      <trkpt lat="42.53481" lon="2.7284">
        <ele>352.4</ele>
        <time>2019-12-24T19:13:03Z</time>
      </trkpt>
      <trkpt lat="42.53476" lon="2.72839">
        <ele>351.2</ele>
        <time>2019-12-24T19:13:04Z</time>
      </trkpt>
      <trkpt lat="42.53474" lon="2.72837">
        <ele>350.9</ele>
        <time>2019-12-24T19:13:04Z</time>
      </trkpt>
      <trkpt lat="42.53471" lon="2.72835">
        <ele>350.3</ele>
        <time>2019-12-24T19:13:04Z</time>
      </trkpt>
      <trkpt lat="42.53469" lon="2.72832">
        <ele>357.7</ele>
        <time>2019-12-24T19:13:05Z</time>
      </trkpt>
      <trkpt lat="42.53468" lon="2.72829">
        <ele>357.6</ele>
        <time>2019-12-24T19:13:06Z</time>
      </trkpt>
      <trkpt lat="42.53466" lon="2.72827">
        <ele>357.4</ele>
        <time>2019-12-24T19:13:06Z</time>
      </trkpt>
      <trkpt lat="42.53465" lon="2.72823">
        <ele>357.4</ele>
        <time>2019-12-24T19:13:07Z</time>
      </trkpt>
      <trkpt lat="42.53465" lon="2.7282">
        <ele>357.6</ele>
        <time>2019-12-24T19:13:08Z</time>
      </trkpt>
      <trkpt lat="42.53465" lon="2.72816">
        <ele>357.7</ele>
        <time>2019-12-24T19:13:08Z</time>
      </trkpt>
      <trkpt lat="42.53465" lon="2.72813">
        <ele>357.9</ele>
        <time>2019-12-24T19:13:09Z</time>
      </trkpt>
      <trkpt lat="42.53465" lon="2.7281">
        <ele>358</ele>
        <time>2019-12-24T19:13:09Z</time>
      </trkpt>
      <trkpt lat="42.53467" lon="2.72805">
        <ele>358.5</ele>
        <time>2019-12-24T19:13:10Z</time>
      </trkpt>
      <trkpt lat="42.5347" lon="2.72794">
        <ele>359.4</ele>
        <time>2019-12-24T19:13:11Z</time>
      </trkpt>
      <trkpt lat="42.53472" lon="2.72789">
        <ele>359.9</ele>
        <time>2019-12-24T19:13:12Z</time>
      </trkpt>
      <trkpt lat="42.53474" lon="2.72783">
        <ele>360.6</ele>
        <time>2019-12-24T19:13:12Z</time>
      </trkpt>
      <trkpt lat="42.53474" lon="2.72777">
        <ele>361.1</ele>
        <time>2019-12-24T19:13:12Z</time>
      </trkpt>
      <trkpt lat="42.53474" lon="2.72771">
        <ele>361.6</ele>
        <time>2019-12-24T19:13:12Z</time>
      </trkpt>
      <trkpt lat="42.53473" lon="2.72764">
        <ele>362.1</ele>
        <time>2019-12-24T19:13:14Z</time>
      </trkpt>
      <trkpt lat="42.5347" lon="2.72759">
        <ele>362</ele>
        <time>2019-12-24T19:13:14Z</time>
      </trkpt>
      <trkpt lat="42.53466" lon="2.72754">
        <ele>361.9</ele>
        <time>2019-12-24T19:13:15Z</time>
      </trkpt>
      <trkpt lat="42.5346" lon="2.7275">
        <ele>365.6</ele>
        <time>2019-12-24T19:13:17Z</time>
      </trkpt>
      <trkpt lat="42.53451" lon="2.72748">
        <ele>369</ele>
        <time>2019-12-24T19:13:18Z</time>
      </trkpt>
      <trkpt lat="42.53441" lon="2.72748">
        <ele>367.9</ele>
        <time>2019-12-24T19:13:19Z</time>
      </trkpt>
      <trkpt lat="42.53435" lon="2.7275">
        <ele>363.5</ele>
        <time>2019-12-24T19:13:20Z</time>
      </trkpt>
      <trkpt lat="42.53426" lon="2.72752">
        <ele>360.9</ele>
        <time>2019-12-24T19:13:22Z</time>
      </trkpt>
      <trkpt lat="42.53407" lon="2.72761">
        <ele>358.3</ele>
        <time>2019-12-24T19:13:23Z</time>
      </trkpt>
      <trkpt lat="42.53392" lon="2.7277">
        <ele>356.2</ele>
        <time>2019-12-24T19:13:25Z</time>
      </trkpt>
      <trkpt lat="42.53377" lon="2.7278">
        <ele>355.1</ele>
        <time>2019-12-24T19:13:27Z</time>
      </trkpt>
      <trkpt lat="42.53366" lon="2.7279">
        <ele>354.1</ele>
        <time>2019-12-24T19:13:28Z</time>
      </trkpt>
      <trkpt lat="42.53346" lon="2.72809">
        <ele>351.3</ele>
        <time>2019-12-24T19:13:29Z</time>
      </trkpt>
      <trkpt lat="42.53333" lon="2.72819">
        <ele>347.3</ele>
        <time>2019-12-24T19:13:30Z</time>
      </trkpt>
      <trkpt lat="42.53324" lon="2.72823">
        <ele>347</ele>
        <time>2019-12-24T19:13:31Z</time>
      </trkpt>
      <trkpt lat="42.53316" lon="2.72826">
        <ele>347.2</ele>
        <time>2019-12-24T19:13:32Z</time>
      </trkpt>
      <trkpt lat="42.53309" lon="2.72826">
        <ele>347.3</ele>
        <time>2019-12-24T19:13:33Z</time>
      </trkpt>
      <trkpt lat="42.53301" lon="2.72825">
        <ele>347.2</ele>
        <time>2019-12-24T19:13:34Z</time>
      </trkpt>
      <trkpt lat="42.53294" lon="2.72822">
        <ele>347.1</ele>
        <time>2019-12-24T19:13:36Z</time>
      </trkpt>
      <trkpt lat="42.53286" lon="2.72817">
        <ele>346.9</ele>
        <time>2019-12-24T19:13:37Z</time>
      </trkpt>
      <trkpt lat="42.53273" lon="2.72803">
        <ele>347</ele>
        <time>2019-12-24T19:13:38Z</time>
      </trkpt>
      <trkpt lat="42.53257" lon="2.72784">
        <ele>347.9</ele>
        <time>2019-12-24T19:13:40Z</time>
      </trkpt>
      <trkpt lat="42.53248" lon="2.72771">
        <ele>345.5</ele>
        <time>2019-12-24T19:13:41Z</time>
      </trkpt>
      <trkpt lat="42.53239" lon="2.72762">
        <ele>346</ele>
        <time>2019-12-24T19:13:42Z</time>
      </trkpt>
      <trkpt lat="42.53235" lon="2.72758">
        <ele>346</ele>
        <time>2019-12-24T19:13:43Z</time>
      </trkpt>
      <trkpt lat="42.53231" lon="2.72756">
        <ele>345.8</ele>
        <time>2019-12-24T19:13:45Z</time>
      </trkpt>
      <trkpt lat="42.53226" lon="2.72754">
        <ele>345.6</ele>
        <time>2019-12-24T19:13:46Z</time>
      </trkpt>
      <trkpt lat="42.53221" lon="2.72753">
        <ele>345.4</ele>
        <time>2019-12-24T19:13:47Z</time>
      </trkpt>
      <trkpt lat="42.53217" lon="2.72753">
        <ele>345.3</ele>
        <time>2019-12-24T19:13:48Z</time>
      </trkpt>
      <trkpt lat="42.53214" lon="2.72753">
        <ele>345.2</ele>
        <time>2019-12-24T19:13:49Z</time>
      </trkpt>
      <trkpt lat="42.53211" lon="2.72755">
        <ele>345.1</ele>
        <time>2019-12-24T19:13:50Z</time>
      </trkpt>
      <trkpt lat="42.53207" lon="2.72756">
        <ele>345</ele>
        <time>2019-12-24T19:13:51Z</time>
      </trkpt>
      <trkpt lat="42.53203" lon="2.7276">
        <ele>344.9</ele>
        <time>2019-12-24T19:13:52Z</time>
      </trkpt>
      <trkpt lat="42.53194" lon="2.7277">
        <ele>344.7</ele>
        <time>2019-12-24T19:13:53Z</time>
      </trkpt>
      <trkpt lat="42.5318" lon="2.72804">
        <ele>343.8</ele>
        <time>2019-12-24T19:13:54Z</time>
      </trkpt>
      <trkpt lat="42.53175" lon="2.72817">
        <ele>343.5</ele>
        <time>2019-12-24T19:13:55Z</time>
      </trkpt>
      <trkpt lat="42.53171" lon="2.72826">
        <ele>343.2</ele>
        <time>2019-12-24T19:13:55Z</time>
      </trkpt>
      <trkpt lat="42.53166" lon="2.72837">
        <ele>342.7</ele>
        <time>2019-12-24T19:13:56Z</time>
      </trkpt>
      <trkpt lat="42.53162" lon="2.72845">
        <ele>342</ele>
        <time>2019-12-24T19:13:56Z</time>
      </trkpt>
      <trkpt lat="42.53157" lon="2.72853">
        <ele>341.5</ele>
        <time>2019-12-24T19:13:57Z</time>
      </trkpt>
      <trkpt lat="42.53148" lon="2.72865">
        <ele>340.7</ele>
        <time>2019-12-24T19:13:58Z</time>
      </trkpt>
      <trkpt lat="42.53124" lon="2.72896">
        <ele>339.8</ele>
        <time>2019-12-24T19:13:59Z</time>
      </trkpt>
      <trkpt lat="42.53115" lon="2.72906">
        <ele>340</ele>
        <time>2019-12-24T19:14:00Z</time>
      </trkpt>
      <trkpt lat="42.53108" lon="2.72914">
        <ele>340.2</ele>
        <time>2019-12-24T19:14:02Z</time>
      </trkpt>
      <trkpt lat="42.53099" lon="2.72921">
        <ele>335.1</ele>
        <time>2019-12-24T19:14:03Z</time>
      </trkpt>
      <trkpt lat="42.53094" lon="2.72925">
        <ele>335.8</ele>
        <time>2019-12-24T19:14:05Z</time>
      </trkpt>
      <trkpt lat="42.5309" lon="2.72926">
        <ele>336.4</ele>
        <time>2019-12-24T19:14:05Z</time>
      </trkpt>
      <trkpt lat="42.53083" lon="2.72927">
        <ele>338.6</ele>
        <time>2019-12-24T19:14:06Z</time>
      </trkpt>
      <trkpt lat="42.53078" lon="2.72926">
        <ele>338.5</ele>
        <time>2019-12-24T19:14:07Z</time>
      </trkpt>
      <trkpt lat="42.53073" lon="2.72925">
        <ele>338.1</ele>
        <time>2019-12-24T19:14:08Z</time>
      </trkpt>
      <trkpt lat="42.53052" lon="2.72914">
        <ele>342.3</ele>
        <time>2019-12-24T19:14:08Z</time>
      </trkpt>
      <trkpt lat="42.53025" lon="2.72899">
        <ele>342.1</ele>
        <time>2019-12-24T19:14:09Z</time>
      </trkpt>
      <trkpt lat="42.53002" lon="2.72887">
        <ele>342.1</ele>
        <time>2019-12-24T19:14:10Z</time>
      </trkpt>
      <trkpt lat="42.52989" lon="2.72881">
        <ele>343.1</ele>
        <time>2019-12-24T19:14:11Z</time>
      </trkpt>
      <trkpt lat="42.5298" lon="2.72879">
        <ele>343.4</ele>
        <time>2019-12-24T19:14:11Z</time>
      </trkpt>
      <trkpt lat="42.52976" lon="2.72879">
        <ele>343.6</ele>
        <time>2019-12-24T19:14:12Z</time>
      </trkpt>
      <trkpt lat="42.52974" lon="2.7288">
        <ele>343.6</ele>
        <time>2019-12-24T19:14:13Z</time>
      </trkpt>
      <trkpt lat="42.52971" lon="2.7288">
        <ele>343.7</ele>
        <time>2019-12-24T19:14:14Z</time>
      </trkpt>
      <trkpt lat="42.52968" lon="2.72881">
        <ele>343.8</ele>
        <time>2019-12-24T19:14:15Z</time>
      </trkpt>
      <trkpt lat="42.52964" lon="2.72882">
        <ele>343.9</ele>
        <time>2019-12-24T19:14:16Z</time>
      </trkpt>
      <trkpt lat="42.52958" lon="2.72886">
        <ele>344</ele>
        <time>2019-12-24T19:14:17Z</time>
      </trkpt>
      <trkpt lat="42.52954" lon="2.72889">
        <ele>344</ele>
        <time>2019-12-24T19:14:18Z</time>
      </trkpt>
      <trkpt lat="42.5295" lon="2.72892">
        <ele>344.1</ele>
        <time>2019-12-24T19:14:19Z</time>
      </trkpt>
      <trkpt lat="42.52942" lon="2.72902">
        <ele>344.2</ele>
        <time>2019-12-24T19:14:20Z</time>
      </trkpt>
      <trkpt lat="42.52938" lon="2.72906">
        <ele>344.3</ele>
        <time>2019-12-24T19:14:21Z</time>
      </trkpt>
      <trkpt lat="42.52924" lon="2.72924">
        <ele>342.5</ele>
        <time>2019-12-24T19:14:24Z</time>
      </trkpt>
      <trkpt lat="42.52918" lon="2.72933">
        <ele>341.6</ele>
        <time>2019-12-24T19:14:25Z</time>
      </trkpt>
      <trkpt lat="42.52912" lon="2.72942">
        <ele>346</ele>
        <time>2019-12-24T19:14:26Z</time>
      </trkpt>
      <trkpt lat="42.52907" lon="2.72949">
        <ele>346</ele>
        <time>2019-12-24T19:14:27Z</time>
      </trkpt>
      <trkpt lat="42.52902" lon="2.72959">
        <ele>345.9</ele>
        <time>2019-12-24T19:14:28Z</time>
      </trkpt>
      <trkpt lat="42.52899" lon="2.72968">
        <ele>345.5</ele>
        <time>2019-12-24T19:14:29Z</time>
      </trkpt>
      <trkpt lat="42.52896" lon="2.72976">
        <ele>345.2</ele>
        <time>2019-12-24T19:14:30Z</time>
      </trkpt>
      <trkpt lat="42.52893" lon="2.72986">
        <ele>344.9</ele>
        <time>2019-12-24T19:14:31Z</time>
      </trkpt>
      <trkpt lat="42.5289" lon="2.72995">
        <ele>344.8</ele>
        <time>2019-12-24T19:14:33Z</time>
      </trkpt>
      <trkpt lat="42.52888" lon="2.73006">
        <ele>341.6</ele>
        <time>2019-12-24T19:14:34Z</time>
      </trkpt>
      <trkpt lat="42.52885" lon="2.73019">
        <ele>341.7</ele>
        <time>2019-12-24T19:14:34Z</time>
      </trkpt>
      <trkpt lat="42.52882" lon="2.73026">
        <ele>341.7</ele>
        <time>2019-12-24T19:14:35Z</time>
      </trkpt>
      <trkpt lat="42.52879" lon="2.73036">
        <ele>341.6</ele>
        <time>2019-12-24T19:14:36Z</time>
      </trkpt>
      <trkpt lat="42.52872" lon="2.73049">
        <ele>341.7</ele>
        <time>2019-12-24T19:14:37Z</time>
      </trkpt>
      <trkpt lat="42.52866" lon="2.73055">
        <ele>342.1</ele>
        <time>2019-12-24T19:14:38Z</time>
      </trkpt>
      <trkpt lat="42.52856" lon="2.73064">
        <ele>343</ele>
        <time>2019-12-24T19:14:39Z</time>
      </trkpt>
      <trkpt lat="42.52852" lon="2.73068">
        <ele>343.5</ele>
        <time>2019-12-24T19:14:41Z</time>
      </trkpt>
      <trkpt lat="42.52851" lon="2.73071">
        <ele>343.7</ele>
        <time>2019-12-24T19:14:42Z</time>
      </trkpt>
      <trkpt lat="42.52847" lon="2.73076">
        <ele>344.4</ele>
        <time>2019-12-24T19:14:43Z</time>
      </trkpt>
      <trkpt lat="42.52844" lon="2.73083">
        <ele>345</ele>
        <time>2019-12-24T19:14:45Z</time>
      </trkpt>
      <trkpt lat="42.52843" lon="2.73089">
        <ele>342.9</ele>
        <time>2019-12-24T19:14:46Z</time>
      </trkpt>
      <trkpt lat="42.52842" lon="2.73096">
        <ele>341.8</ele>
        <time>2019-12-24T19:14:47Z</time>
      </trkpt>
      <trkpt lat="42.52842" lon="2.73101">
        <ele>341</ele>
        <time>2019-12-24T19:14:48Z</time>
      </trkpt>
      <trkpt lat="42.52842" lon="2.73107">
        <ele>340.1</ele>
        <time>2019-12-24T19:14:49Z</time>
      </trkpt>
      <trkpt lat="42.52842" lon="2.73116">
        <ele>339.1</ele>
        <time>2019-12-24T19:14:50Z</time>
      </trkpt>
      <trkpt lat="42.52843" lon="2.73125">
        <ele>338.5</ele>
        <time>2019-12-24T19:14:52Z</time>
      </trkpt>
      <trkpt lat="42.52843" lon="2.73134">
        <ele>338.2</ele>
        <time>2019-12-24T19:14:53Z</time>
      </trkpt>
      <trkpt lat="42.52844" lon="2.73142">
        <ele>338.2</ele>
        <time>2019-12-24T19:14:55Z</time>
      </trkpt>
      <trkpt lat="42.52844" lon="2.73151">
        <ele>338.7</ele>
        <time>2019-12-24T19:14:57Z</time>
      </trkpt>
      <trkpt lat="42.52844" lon="2.73159">
        <ele>339.3</ele>
        <time>2019-12-24T19:14:58Z</time>
      </trkpt>
      <trkpt lat="42.52843" lon="2.73167">
        <ele>337.9</ele>
        <time>2019-12-24T19:15:00Z</time>
      </trkpt>
      <trkpt lat="42.52842" lon="2.73174">
        <ele>337.3</ele>
        <time>2019-12-24T19:15:01Z</time>
      </trkpt>
      <trkpt lat="42.52841" lon="2.73181">
        <ele>336</ele>
        <time>2019-12-24T19:15:03Z</time>
      </trkpt>
      <trkpt lat="42.52838" lon="2.7319">
        <ele>334.5</ele>
        <time>2019-12-24T19:15:04Z</time>
      </trkpt>
      <trkpt lat="42.52836" lon="2.73197">
        <ele>333.6</ele>
        <time>2019-12-24T19:15:05Z</time>
      </trkpt>
      <trkpt lat="42.52826" lon="2.73218">
        <ele>337.6</ele>
        <time>2019-12-24T19:15:06Z</time>
      </trkpt>
      <trkpt lat="42.52822" lon="2.73225">
        <ele>337.1</ele>
        <time>2019-12-24T19:15:07Z</time>
      </trkpt>
      <trkpt lat="42.52818" lon="2.7323">
        <ele>336.8</ele>
        <time>2019-12-24T19:15:10Z</time>
      </trkpt>
      <trkpt lat="42.52814" lon="2.73233">
        <ele>336.7</ele>
        <time>2019-12-24T19:15:11Z</time>
      </trkpt>
      <trkpt lat="42.52803" lon="2.73238">
        <ele>337</ele>
        <time>2019-12-24T19:15:12Z</time>
      </trkpt>
      <trkpt lat="42.52796" lon="2.7324">
        <ele>337.1</ele>
        <time>2019-12-24T19:15:12Z</time>
      </trkpt>
      <trkpt lat="42.52789" lon="2.73241">
        <ele>337.2</ele>
        <time>2019-12-24T19:15:13Z</time>
      </trkpt>
      <trkpt lat="42.52783" lon="2.73241">
        <ele>337.2</ele>
        <time>2019-12-24T19:15:13Z</time>
      </trkpt>
      <trkpt lat="42.52769" lon="2.73241">
        <ele>336.7</ele>
        <time>2019-12-24T19:15:13Z</time>
      </trkpt>
      <trkpt lat="42.5276" lon="2.73241">
        <ele>336.1</ele>
        <time>2019-12-24T19:15:15Z</time>
      </trkpt>
      <trkpt lat="42.52754" lon="2.73241">
        <ele>335.7</ele>
        <time>2019-12-24T19:15:15Z</time>
      </trkpt>
      <trkpt lat="42.52748" lon="2.7324">
        <ele>337</ele>
        <time>2019-12-24T19:15:16Z</time>
      </trkpt>
      <trkpt lat="42.52744" lon="2.73239">
        <ele>337.5</ele>
        <time>2019-12-24T19:15:17Z</time>
      </trkpt>
      <trkpt lat="42.52737" lon="2.73236">
        <ele>338.7</ele>
        <time>2019-12-24T19:15:18Z</time>
      </trkpt>
      <trkpt lat="42.52733" lon="2.73234">
        <ele>339.3</ele>
        <time>2019-12-24T19:15:18Z</time>
      </trkpt>
      <trkpt lat="42.52728" lon="2.73229">
        <ele>340.3</ele>
        <time>2019-12-24T19:15:19Z</time>
      </trkpt>
      <trkpt lat="42.52725" lon="2.73225">
        <ele>340.8</ele>
        <time>2019-12-24T19:15:20Z</time>
      </trkpt>
      <trkpt lat="42.52721" lon="2.73221">
        <ele>341.3</ele>
        <time>2019-12-24T19:15:20Z</time>
      </trkpt>
      <trkpt lat="42.52718" lon="2.73218">
        <ele>341.7</ele>
        <time>2019-12-24T19:15:22Z</time>
      </trkpt>
      <trkpt lat="42.52716" lon="2.73216">
        <ele>341.9</ele>
        <time>2019-12-24T19:15:24Z</time>
      </trkpt>
      <trkpt lat="42.52713" lon="2.73214">
        <ele>342.2</ele>
        <time>2019-12-24T19:15:25Z</time>
      </trkpt>
      <trkpt lat="42.52709" lon="2.73213">
        <ele>342.4</ele>
        <time>2019-12-24T19:15:27Z</time>
      </trkpt>
      <trkpt lat="42.52706" lon="2.73213">
        <ele>342.5</ele>
        <time>2019-12-24T19:15:29Z</time>
      </trkpt>
      <trkpt lat="42.52703" lon="2.73213">
        <ele>342.5</ele>
        <time>2019-12-24T19:15:32Z</time>
      </trkpt>
      <trkpt lat="42.52698" lon="2.73215">
        <ele>342.5</ele>
        <time>2019-12-24T19:15:37Z</time>
      </trkpt>
      <trkpt lat="42.52693" lon="2.73219">
        <ele>342.3</ele>
        <time>2019-12-24T19:15:38Z</time>
      </trkpt>
      <trkpt lat="42.5269" lon="2.73223">
        <ele>342</ele>
        <time>2019-12-24T19:15:39Z</time>
      </trkpt>
      <trkpt lat="42.52687" lon="2.73228">
        <ele>341.7</ele>
        <time>2019-12-24T19:15:40Z</time>
      </trkpt>
      <trkpt lat="42.52684" lon="2.73235">
        <ele>341.2</ele>
        <time>2019-12-24T19:15:41Z</time>
      </trkpt>
      <trkpt lat="42.52682" lon="2.7324">
        <ele>340.8</ele>
        <time>2019-12-24T19:15:41Z</time>
      </trkpt>
      <trkpt lat="42.52679" lon="2.73253">
        <ele>335.3</ele>
        <time>2019-12-24T19:15:43Z</time>
      </trkpt>
      <trkpt lat="42.52677" lon="2.73261">
        <ele>334.6</ele>
        <time>2019-12-24T19:15:43Z</time>
      </trkpt>
      <trkpt lat="42.52675" lon="2.73273">
        <ele>332.8</ele>
        <time>2019-12-24T19:15:46Z</time>
      </trkpt>
      <trkpt lat="42.52673" lon="2.73285">
        <ele>331.2</ele>
        <time>2019-12-24T19:15:48Z</time>
      </trkpt>
      <trkpt lat="42.52669" lon="2.73303">
        <ele>329.2</ele>
        <time>2019-12-24T19:15:49Z</time>
      </trkpt>
      <trkpt lat="42.52666" lon="2.73317">
        <ele>329.8</ele>
        <time>2019-12-24T19:15:50Z</time>
      </trkpt>
      <trkpt lat="42.52662" lon="2.7333">
        <ele>327.6</ele>
        <time>2019-12-24T19:15:50Z</time>
      </trkpt>
      <trkpt lat="42.52657" lon="2.73346">
        <ele>323.1</ele>
        <time>2019-12-24T19:15:51Z</time>
      </trkpt>
      <trkpt lat="42.52653" lon="2.73355">
        <ele>321.9</ele>
        <time>2019-12-24T19:15:51Z</time>
      </trkpt>
      <trkpt lat="42.52647" lon="2.73367">
        <ele>320.6</ele>
        <time>2019-12-24T19:15:53Z</time>
      </trkpt>
      <trkpt lat="42.52646" lon="2.73369">
        <ele>320.4</ele>
        <time>2019-12-24T19:15:55Z</time>
      </trkpt>
      <trkpt lat="42.52644" lon="2.73372">
        <ele>320.1</ele>
        <time>2019-12-24T19:15:56Z</time>
      </trkpt>
      <trkpt lat="42.52641" lon="2.73375">
        <ele>319.8</ele>
        <time>2019-12-24T19:15:57Z</time>
      </trkpt>
      <trkpt lat="42.52637" lon="2.73379">
        <ele>319.5</ele>
        <time>2019-12-24T19:15:57Z</time>
      </trkpt>
      <trkpt lat="42.52634" lon="2.73382">
        <ele>319.3</ele>
        <time>2019-12-24T19:15:58Z</time>
      </trkpt>
      <trkpt lat="42.52632" lon="2.73383">
        <ele>319.3</ele>
        <time>2019-12-24T19:15:59Z</time>
      </trkpt>
      <trkpt lat="42.5263" lon="2.73384">
        <ele>319.2</ele>
        <time>2019-12-24T19:15:59Z</time>
      </trkpt>
      <trkpt lat="42.52627" lon="2.73384">
        <ele>319.3</ele>
        <time>2019-12-24T19:16:01Z</time>
      </trkpt>
      <trkpt lat="42.52624" lon="2.73384">
        <ele>319.3</ele>
        <time>2019-12-24T19:16:02Z</time>
      </trkpt>
      <trkpt lat="42.52622" lon="2.73384">
        <ele>319.3</ele>
        <time>2019-12-24T19:16:06Z</time>
      </trkpt>
      <trkpt lat="42.5262" lon="2.73383">
        <ele>319.4</ele>
        <time>2019-12-24T19:16:08Z</time>
      </trkpt>
      <trkpt lat="42.52618" lon="2.73381">
        <ele>319.6</ele>
        <time>2019-12-24T19:16:10Z</time>
      </trkpt>
      <trkpt lat="42.52614" lon="2.73377">
        <ele>320</ele>
        <time>2019-12-24T19:16:12Z</time>
      </trkpt>
      <trkpt lat="42.52611" lon="2.73374">
        <ele>320.2</ele>
        <time>2019-12-24T19:16:13Z</time>
      </trkpt>
      <trkpt lat="42.52609" lon="2.7337">
        <ele>320.6</ele>
        <time>2019-12-24T19:16:14Z</time>
      </trkpt>
      <trkpt lat="42.52607" lon="2.73366">
        <ele>321</ele>
        <time>2019-12-24T19:16:15Z</time>
      </trkpt>
      <trkpt lat="42.52605" lon="2.73362">
        <ele>321.4</ele>
        <time>2019-12-24T19:16:15Z</time>
      </trkpt>
      <trkpt lat="42.52603" lon="2.73358">
        <ele>321.8</ele>
        <time>2019-12-24T19:16:16Z</time>
      </trkpt>
      <trkpt lat="42.52601" lon="2.73355">
        <ele>322.2</ele>
        <time>2019-12-24T19:16:18Z</time>
      </trkpt>
      <trkpt lat="42.52599" lon="2.73352">
        <ele>322.6</ele>
        <time>2019-12-24T19:16:20Z</time>
      </trkpt>
      <trkpt lat="42.52593" lon="2.73349">
        <ele>323.3</ele>
        <time>2019-12-24T19:16:20Z</time>
      </trkpt>
      <trkpt lat="42.52588" lon="2.73349">
        <ele>323.6</ele>
        <time>2019-12-24T19:16:21Z</time>
      </trkpt>
      <trkpt lat="42.52587" lon="2.73349">
        <ele>323.6</ele>
        <time>2019-12-24T19:16:22Z</time>
      </trkpt>
      <trkpt lat="42.52586" lon="2.7335">
        <ele>323.5</ele>
        <time>2019-12-24T19:16:22Z</time>
      </trkpt>
      <trkpt lat="42.52585" lon="2.7335">
        <ele>323.5</ele>
        <time>2019-12-24T19:16:23Z</time>
      </trkpt>
      <trkpt lat="42.52579" lon="2.73352">
        <ele>325.7</ele>
        <time>2019-12-24T19:16:24Z</time>
      </trkpt>
      <trkpt lat="42.52575" lon="2.73354">
        <ele>325.6</ele>
        <time>2019-12-24T19:16:25Z</time>
      </trkpt>
      <trkpt lat="42.52571" lon="2.73358">
        <ele>325.4</ele>
        <time>2019-12-24T19:16:26Z</time>
      </trkpt>
      <trkpt lat="42.52565" lon="2.73364">
        <ele>325</ele>
        <time>2019-12-24T19:16:27Z</time>
      </trkpt>
      <trkpt lat="42.5256" lon="2.73368">
        <ele>324.8</ele>
        <time>2019-12-24T19:16:28Z</time>
      </trkpt>
      <trkpt lat="42.52554" lon="2.73373">
        <ele>324.6</ele>
        <time>2019-12-24T19:16:29Z</time>
      </trkpt>
      <trkpt lat="42.52548" lon="2.73378">
        <ele>324.4</ele>
        <time>2019-12-24T19:16:29Z</time>
      </trkpt>
      <trkpt lat="42.5254" lon="2.73383">
        <ele>324.3</ele>
        <time>2019-12-24T19:16:30Z</time>
      </trkpt>
      <trkpt lat="42.52532" lon="2.73387">
        <ele>324.1</ele>
        <time>2019-12-24T19:16:30Z</time>
      </trkpt>
      <trkpt lat="42.52522" lon="2.73391">
        <ele>323.8</ele>
        <time>2019-12-24T19:16:31Z</time>
      </trkpt>
      <trkpt lat="42.52512" lon="2.73395">
        <ele>323</ele>
        <time>2019-12-24T19:16:32Z</time>
      </trkpt>
      <trkpt lat="42.52504" lon="2.734">
        <ele>322</ele>
        <time>2019-12-24T19:16:33Z</time>
      </trkpt>
      <trkpt lat="42.52499" lon="2.73404">
        <ele>324.4</ele>
        <time>2019-12-24T19:16:34Z</time>
      </trkpt>
      <trkpt lat="42.52495" lon="2.73407">
        <ele>323.7</ele>
        <time>2019-12-24T19:16:35Z</time>
      </trkpt>
      <trkpt lat="42.52492" lon="2.7341">
        <ele>323.5</ele>
        <time>2019-12-24T19:16:36Z</time>
      </trkpt>
      <trkpt lat="42.52489" lon="2.73415">
        <ele>323.7</ele>
        <time>2019-12-24T19:16:38Z</time>
      </trkpt>
      <trkpt lat="42.52485" lon="2.73424">
        <ele>317.8</ele>
        <time>2019-12-24T19:16:38Z</time>
      </trkpt>
      <trkpt lat="42.52481" lon="2.73432">
        <ele>317.6</ele>
        <time>2019-12-24T19:16:39Z</time>
      </trkpt>
      <trkpt lat="42.52478" lon="2.7344">
        <ele>317.2</ele>
        <time>2019-12-24T19:16:40Z</time>
      </trkpt>
      <trkpt lat="42.52474" lon="2.73447">
        <ele>316.8</ele>
        <time>2019-12-24T19:16:41Z</time>
      </trkpt>
      <trkpt lat="42.5247" lon="2.73455">
        <ele>316.4</ele>
        <time>2019-12-24T19:16:43Z</time>
      </trkpt>
      <trkpt lat="42.52465" lon="2.73464">
        <ele>315.9</ele>
        <time>2019-12-24T19:16:44Z</time>
      </trkpt>
      <trkpt lat="42.52459" lon="2.7347">
        <ele>315.8</ele>
        <time>2019-12-24T19:16:45Z</time>
      </trkpt>
      <trkpt lat="42.52453" lon="2.73476">
        <ele>315.9</ele>
        <time>2019-12-24T19:16:45Z</time>
      </trkpt>
      <trkpt lat="42.52447" lon="2.73481">
        <ele>316</ele>
        <time>2019-12-24T19:16:46Z</time>
      </trkpt>
      <trkpt lat="42.5244" lon="2.73487">
        <ele>316.1</ele>
        <time>2019-12-24T19:16:47Z</time>
      </trkpt>
      <trkpt lat="42.52434" lon="2.73491">
        <ele>316.2</ele>
        <time>2019-12-24T19:16:48Z</time>
      </trkpt>
      <trkpt lat="42.5243" lon="2.73494">
        <ele>316.2</ele>
        <time>2019-12-24T19:16:49Z</time>
      </trkpt>
      <trkpt lat="42.52425" lon="2.735">
        <ele>316.1</ele>
        <time>2019-12-24T19:16:50Z</time>
      </trkpt>
      <trkpt lat="42.52421" lon="2.73505">
        <ele>312.4</ele>
        <time>2019-12-24T19:16:50Z</time>
      </trkpt>
      <trkpt lat="42.52417" lon="2.73511">
        <ele>310.6</ele>
        <time>2019-12-24T19:16:51Z</time>
      </trkpt>
      <trkpt lat="42.52413" lon="2.73518">
        <ele>310.4</ele>
        <time>2019-12-24T19:16:52Z</time>
      </trkpt>
      <trkpt lat="42.5241" lon="2.73524">
        <ele>309.1</ele>
        <time>2019-12-24T19:16:53Z</time>
      </trkpt>
      <trkpt lat="42.52406" lon="2.73531">
        <ele>307.8</ele>
        <time>2019-12-24T19:16:54Z</time>
      </trkpt>
      <trkpt lat="42.52403" lon="2.73538">
        <ele>306.8</ele>
        <time>2019-12-24T19:16:55Z</time>
      </trkpt>
      <trkpt lat="42.52402" lon="2.73539">
        <ele>306.6</ele>
        <time>2019-12-24T19:16:56Z</time>
      </trkpt>
      <trkpt lat="42.52399" lon="2.73543">
        <ele>306.1</ele>
        <time>2019-12-24T19:16:56Z</time>
      </trkpt>
      <trkpt lat="42.52399" lon="2.73544">
        <ele>305.9</ele>
        <time>2019-12-24T19:16:58Z</time>
      </trkpt>
      <trkpt lat="42.52396" lon="2.73547">
        <ele>305.6</ele>
        <time>2019-12-24T19:16:59Z</time>
      </trkpt>
      <trkpt lat="42.52392" lon="2.73551">
        <ele>305.1</ele>
        <time>2019-12-24T19:17:00Z</time>
      </trkpt>
      <trkpt lat="42.52387" lon="2.73555">
        <ele>304.8</ele>
        <time>2019-12-24T19:17:01Z</time>
      </trkpt>
      <trkpt lat="42.52382" lon="2.73559">
        <ele>304.4</ele>
        <time>2019-12-24T19:17:01Z</time>
      </trkpt>
      <trkpt lat="42.52375" lon="2.73562">
        <ele>304.2</ele>
        <time>2019-12-24T19:17:02Z</time>
      </trkpt>
      <trkpt lat="42.52368" lon="2.73566">
        <ele>303.8</ele>
        <time>2019-12-24T19:17:03Z</time>
      </trkpt>
      <trkpt lat="42.5236" lon="2.73569">
        <ele>303.3</ele>
        <time>2019-12-24T19:17:04Z</time>
      </trkpt>
      <trkpt lat="42.52353" lon="2.73571">
        <ele>302.8</ele>
        <time>2019-12-24T19:17:05Z</time>
      </trkpt>
      <trkpt lat="42.52349" lon="2.73571">
        <ele>302.5</ele>
        <time>2019-12-24T19:17:12Z</time>
      </trkpt>
      <trkpt lat="42.52343" lon="2.73571">
        <ele>302</ele>
        <time>2019-12-24T19:17:14Z</time>
      </trkpt>
      <trkpt lat="42.52338" lon="2.73569">
        <ele>302</ele>
        <time>2019-12-24T19:17:15Z</time>
      </trkpt>
      <trkpt lat="42.52336" lon="2.73568">
        <ele>302.1</ele>
        <time>2019-12-24T19:17:15Z</time>
      </trkpt>
      <trkpt lat="42.52332" lon="2.73565">
        <ele>298.7</ele>
        <time>2019-12-24T19:17:16Z</time>
      </trkpt>
      <trkpt lat="42.5233" lon="2.73562">
        <ele>298.7</ele>
        <time>2019-12-24T19:17:17Z</time>
      </trkpt>
      <trkpt lat="42.52327" lon="2.73557">
        <ele>298.8</ele>
        <time>2019-12-24T19:17:18Z</time>
      </trkpt>
      <trkpt lat="42.52326" lon="2.73552">
        <ele>299</ele>
        <time>2019-12-24T19:17:19Z</time>
      </trkpt>
      <trkpt lat="42.52325" lon="2.73546">
        <ele>299.3</ele>
        <time>2019-12-24T19:17:24Z</time>
      </trkpt>
      <trkpt lat="42.52324" lon="2.73539">
        <ele>299.9</ele>
        <time>2019-12-24T19:17:24Z</time>
      </trkpt>
      <trkpt lat="42.52324" lon="2.73531">
        <ele>300.8</ele>
        <time>2019-12-24T19:17:26Z</time>
      </trkpt>
      <trkpt lat="42.52323" lon="2.73524">
        <ele>301.6</ele>
        <time>2019-12-24T19:17:29Z</time>
      </trkpt>
      <trkpt lat="42.52323" lon="2.73515">
        <ele>303.1</ele>
        <time>2019-12-24T19:17:31Z</time>
      </trkpt>
      <trkpt lat="42.52322" lon="2.73509">
        <ele>304</ele>
        <time>2019-12-24T19:17:32Z</time>
      </trkpt>
      <trkpt lat="42.52321" lon="2.73502">
        <ele>304.6</ele>
        <time>2019-12-24T19:17:34Z</time>
      </trkpt>
      <trkpt lat="42.5232" lon="2.73494">
        <ele>309.3</ele>
        <time>2019-12-24T19:17:35Z</time>
      </trkpt>
      <trkpt lat="42.52318" lon="2.73488">
        <ele>309.5</ele>
        <time>2019-12-24T19:17:37Z</time>
      </trkpt>
      <trkpt lat="42.52317" lon="2.73482">
        <ele>309.7</ele>
        <time>2019-12-24T19:17:38Z</time>
      </trkpt>
      <trkpt lat="42.52315" lon="2.73472">
        <ele>310.3</ele>
        <time>2019-12-24T19:17:40Z</time>
      </trkpt>
      <trkpt lat="42.52308" lon="2.73453">
        <ele>311.6</ele>
        <time>2019-12-24T19:17:42Z</time>
      </trkpt>
      <trkpt lat="42.52304" lon="2.73445">
        <ele>312.2</ele>
        <time>2019-12-24T19:17:43Z</time>
      </trkpt>
      <trkpt lat="42.52301" lon="2.73442">
        <ele>312.2</ele>
        <time>2019-12-24T19:17:45Z</time>
      </trkpt>
      <trkpt lat="42.52298" lon="2.73439">
        <ele>312.2</ele>
        <time>2019-12-24T19:17:47Z</time>
      </trkpt>
      <trkpt lat="42.52293" lon="2.73437">
        <ele>312.1</ele>
        <time>2019-12-24T19:17:48Z</time>
      </trkpt>
      <trkpt lat="42.52287" lon="2.73436">
        <ele>311.8</ele>
        <time>2019-12-24T19:17:50Z</time>
      </trkpt>
      <trkpt lat="42.52281" lon="2.73437">
        <ele>311.5</ele>
        <time>2019-12-24T19:17:50Z</time>
      </trkpt>
      <trkpt lat="42.52274" lon="2.73437">
        <ele>311.3</ele>
        <time>2019-12-24T19:17:51Z</time>
      </trkpt>
      <trkpt lat="42.52265" lon="2.73437">
        <ele>311.3</ele>
        <time>2019-12-24T19:17:53Z</time>
      </trkpt>
      <trkpt lat="42.52259" lon="2.73439">
        <ele>311.1</ele>
        <time>2019-12-24T19:17:53Z</time>
      </trkpt>
      <trkpt lat="42.52257" lon="2.7344">
        <ele>311</ele>
        <time>2019-12-24T19:17:55Z</time>
      </trkpt>
      <trkpt lat="42.52251" lon="2.73444">
        <ele>310.4</ele>
        <time>2019-12-24T19:17:57Z</time>
      </trkpt>
      <trkpt lat="42.5225" lon="2.73446">
        <ele>310.1</ele>
        <time>2019-12-24T19:17:58Z</time>
      </trkpt>
      <trkpt lat="42.52245" lon="2.73452">
        <ele>310.1</ele>
        <time>2019-12-24T19:17:59Z</time>
      </trkpt>
      <trkpt lat="42.5224" lon="2.73459">
        <ele>309.3</ele>
        <time>2019-12-24T19:18:00Z</time>
      </trkpt>
      <trkpt lat="42.52236" lon="2.73468">
        <ele>308.1</ele>
        <time>2019-12-24T19:18:01Z</time>
      </trkpt>
      <trkpt lat="42.5223" lon="2.73476">
        <ele>307.4</ele>
        <time>2019-12-24T19:18:03Z</time>
      </trkpt>
      <trkpt lat="42.52226" lon="2.73482">
        <ele>307</ele>
        <time>2019-12-24T19:18:04Z</time>
      </trkpt>
      <trkpt lat="42.52221" lon="2.73489">
        <ele>307</ele>
        <time>2019-12-24T19:18:04Z</time>
      </trkpt>
      <trkpt lat="42.52216" lon="2.73496">
        <ele>307.3</ele>
        <time>2019-12-24T19:18:05Z</time>
      </trkpt>
      <trkpt lat="42.52211" lon="2.73502">
        <ele>298.3</ele>
        <time>2019-12-24T19:18:06Z</time>
      </trkpt>
      <trkpt lat="42.52205" lon="2.73507">
        <ele>298.8</ele>
        <time>2019-12-24T19:18:06Z</time>
      </trkpt>
      <trkpt lat="42.52199" lon="2.73511">
        <ele>299.3</ele>
        <time>2019-12-24T19:18:08Z</time>
      </trkpt>
      <trkpt lat="42.52193" lon="2.73516">
        <ele>299.7</ele>
        <time>2019-12-24T19:18:09Z</time>
      </trkpt>
      <trkpt lat="42.52188" lon="2.7352">
        <ele>299.8</ele>
        <time>2019-12-24T19:18:10Z</time>
      </trkpt>
      <trkpt lat="42.52181" lon="2.73525">
        <ele>299.9</ele>
        <time>2019-12-24T19:18:11Z</time>
      </trkpt>
      <trkpt lat="42.52175" lon="2.73533">
        <ele>299</ele>
        <time>2019-12-24T19:18:12Z</time>
      </trkpt>
      <trkpt lat="42.52168" lon="2.7354">
        <ele>298.1</ele>
        <time>2019-12-24T19:18:13Z</time>
      </trkpt>
      <trkpt lat="42.5216" lon="2.73547">
        <ele>303.5</ele>
        <time>2019-12-24T19:18:14Z</time>
      </trkpt>
      <trkpt lat="42.52153" lon="2.73555">
        <ele>302.6</ele>
        <time>2019-12-24T19:18:15Z</time>
      </trkpt>
      <trkpt lat="42.52145" lon="2.73563">
        <ele>302.2</ele>
        <time>2019-12-24T19:18:16Z</time>
      </trkpt>
      <trkpt lat="42.52139" lon="2.73571">
        <ele>302.1</ele>
        <time>2019-12-24T19:18:18Z</time>
      </trkpt>
      <trkpt lat="42.52133" lon="2.7358">
        <ele>302.3</ele>
        <time>2019-12-24T19:18:21Z</time>
      </trkpt>
      <trkpt lat="42.5213" lon="2.73586">
        <ele>293.5</ele>
        <time>2019-12-24T19:18:24Z</time>
      </trkpt>
      <trkpt lat="42.52127" lon="2.73591">
        <ele>293.5</ele>
        <time>2019-12-24T19:18:26Z</time>
      </trkpt>
      <trkpt lat="42.52125" lon="2.73597">
        <ele>293.4</ele>
        <time>2019-12-24T19:18:26Z</time>
      </trkpt>
      <trkpt lat="42.52123" lon="2.73604">
        <ele>293.1</ele>
        <time>2019-12-24T19:18:27Z</time>
      </trkpt>
      <trkpt lat="42.52116" lon="2.73625">
        <ele>291.9</ele>
        <time>2019-12-24T19:18:29Z</time>
      </trkpt>
      <trkpt lat="42.52112" lon="2.73632">
        <ele>291.6</ele>
        <time>2019-12-24T19:18:31Z</time>
      </trkpt>
      <trkpt lat="42.52109" lon="2.73637">
        <ele>291.4</ele>
        <time>2019-12-24T19:18:32Z</time>
      </trkpt>
      <trkpt lat="42.52106" lon="2.73639">
        <ele>291.4</ele>
        <time>2019-12-24T19:18:33Z</time>
      </trkpt>
      <trkpt lat="42.52104" lon="2.73641">
        <ele>291.4</ele>
        <time>2019-12-24T19:18:34Z</time>
      </trkpt>
      <trkpt lat="42.52103" lon="2.73641">
        <ele>291.4</ele>
        <time>2019-12-24T19:18:35Z</time>
      </trkpt>
      <trkpt lat="42.521" lon="2.73641">
        <ele>291.6</ele>
        <time>2019-12-24T19:18:36Z</time>
      </trkpt>
      <trkpt lat="42.52094" lon="2.7364">
        <ele>291.9</ele>
        <time>2019-12-24T19:18:37Z</time>
      </trkpt>
      <trkpt lat="42.52091" lon="2.73639">
        <ele>292</ele>
        <time>2019-12-24T19:18:39Z</time>
      </trkpt>
      <trkpt lat="42.52086" lon="2.73637">
        <ele>292.3</ele>
        <time>2019-12-24T19:18:41Z</time>
      </trkpt>
      <trkpt lat="42.52081" lon="2.73633">
        <ele>296.9</ele>
        <time>2019-12-24T19:18:43Z</time>
      </trkpt>
      <trkpt lat="42.52078" lon="2.7363">
        <ele>297.2</ele>
        <time>2019-12-24T19:18:46Z</time>
      </trkpt>
      <trkpt lat="42.52075" lon="2.73628">
        <ele>297.5</ele>
        <time>2019-12-24T19:18:47Z</time>
      </trkpt>
      <trkpt lat="42.52072" lon="2.73626">
        <ele>297.7</ele>
        <time>2019-12-24T19:18:49Z</time>
      </trkpt>
      <trkpt lat="42.52068" lon="2.73625">
        <ele>297.9</ele>
        <time>2019-12-24T19:18:50Z</time>
      </trkpt>
      <trkpt lat="42.52065" lon="2.73625">
        <ele>297.9</ele>
        <time>2019-12-24T19:18:50Z</time>
      </trkpt>
      <trkpt lat="42.52054" lon="2.7363">
        <ele>297.5</ele>
        <time>2019-12-24T19:18:51Z</time>
      </trkpt>
      <trkpt lat="42.52047" lon="2.73634">
        <ele>297.2</ele>
        <time>2019-12-24T19:18:52Z</time>
      </trkpt>
      <trkpt lat="42.52038" lon="2.73639">
        <ele>296.9</ele>
        <time>2019-12-24T19:18:54Z</time>
      </trkpt>
      <trkpt lat="42.52029" lon="2.73645">
        <ele>296.3</ele>
        <time>2019-12-24T19:18:55Z</time>
      </trkpt>
      <trkpt lat="42.52017" lon="2.73653">
        <ele>295.1</ele>
        <time>2019-12-24T19:18:56Z</time>
      </trkpt>
      <trkpt lat="42.52006" lon="2.73659">
        <ele>293.3</ele>
        <time>2019-12-24T19:18:57Z</time>
      </trkpt>
      <trkpt lat="42.51978" lon="2.73676">
        <ele>284.2</ele>
        <time>2019-12-24T19:18:58Z</time>
      </trkpt>
      <trkpt lat="42.51974" lon="2.73678">
        <ele>283.4</ele>
        <time>2019-12-24T19:19:00Z</time>
      </trkpt>
      <trkpt lat="42.51969" lon="2.73678">
        <ele>282.8</ele>
        <time>2019-12-24T19:19:02Z</time>
      </trkpt>
      <trkpt lat="42.51963" lon="2.73677">
        <ele>282.1</ele>
        <time>2019-12-24T19:19:05Z</time>
      </trkpt>
      <trkpt lat="42.51958" lon="2.73675">
        <ele>281.7</ele>
        <time>2019-12-24T19:19:09Z</time>
      </trkpt>
      <trkpt lat="42.51955" lon="2.73672">
        <ele>281.4</ele>
        <time>2019-12-24T19:19:11Z</time>
      </trkpt>
      <trkpt lat="42.5195" lon="2.73665">
        <ele>287.4</ele>
        <time>2019-12-24T19:19:13Z</time>
      </trkpt>
      <trkpt lat="42.51948" lon="2.73663">
        <ele>287.2</ele>
        <time>2019-12-24T19:19:14Z</time>
      </trkpt>
      <trkpt lat="42.51941" lon="2.73644">
        <ele>287.4</ele>
        <time>2019-12-24T19:19:15Z</time>
      </trkpt>
      <trkpt lat="42.51937" lon="2.73626">
        <ele>288.5</ele>
        <time>2019-12-24T19:19:16Z</time>
      </trkpt>
      <trkpt lat="42.51935" lon="2.73621">
        <ele>288.7</ele>
        <time>2019-12-24T19:19:17Z</time>
      </trkpt>
      <trkpt lat="42.51934" lon="2.73617">
        <ele>288.8</ele>
        <time>2019-12-24T19:19:17Z</time>
      </trkpt>
      <trkpt lat="42.51932" lon="2.73612">
        <ele>288.8</ele>
        <time>2019-12-24T19:19:18Z</time>
      </trkpt>
      <trkpt lat="42.5193" lon="2.7361">
        <ele>288.7</ele>
        <time>2019-12-24T19:19:19Z</time>
      </trkpt>
      <trkpt lat="42.51928" lon="2.73608">
        <ele>288.6</ele>
        <time>2019-12-24T19:19:21Z</time>
      </trkpt>
      <trkpt lat="42.51921" lon="2.73605">
        <ele>288.2</ele>
        <time>2019-12-24T19:19:23Z</time>
      </trkpt>
      <trkpt lat="42.51908" lon="2.73596">
        <ele>281.1</ele>
        <time>2019-12-24T19:19:24Z</time>
      </trkpt>
      <trkpt lat="42.51905" lon="2.73593">
        <ele>281</ele>
        <time>2019-12-24T19:19:25Z</time>
      </trkpt>
      <trkpt lat="42.51902" lon="2.73588">
        <ele>281</ele>
        <time>2019-12-24T19:19:27Z</time>
      </trkpt>
      <trkpt lat="42.519" lon="2.73585">
        <ele>280.7</ele>
        <time>2019-12-24T19:19:27Z</time>
      </trkpt>
      <trkpt lat="42.51899" lon="2.73581">
        <ele>281.9</ele>
        <time>2019-12-24T19:19:29Z</time>
      </trkpt>
      <trkpt lat="42.51899" lon="2.73574">
        <ele>281.6</ele>
        <time>2019-12-24T19:19:30Z</time>
      </trkpt>
      <trkpt lat="42.51899" lon="2.73568">
        <ele>281.3</ele>
        <time>2019-12-24T19:19:32Z</time>
      </trkpt>
      <trkpt lat="42.51901" lon="2.73559">
        <ele>281</ele>
        <time>2019-12-24T19:19:34Z</time>
      </trkpt>
      <trkpt lat="42.51903" lon="2.73547">
        <ele>280.8</ele>
        <time>2019-12-24T19:19:35Z</time>
      </trkpt>
      <trkpt lat="42.5191" lon="2.73517">
        <ele>283.1</ele>
        <time>2019-12-24T19:19:36Z</time>
      </trkpt>
      <trkpt lat="42.51914" lon="2.73504">
        <ele>286.3</ele>
        <time>2019-12-24T19:19:37Z</time>
      </trkpt>
      <trkpt lat="42.51916" lon="2.73491">
        <ele>285.6</ele>
        <time>2019-12-24T19:19:38Z</time>
      </trkpt>
      <trkpt lat="42.51918" lon="2.73478">
        <ele>293.3</ele>
        <time>2019-12-24T19:19:39Z</time>
      </trkpt>
      <trkpt lat="42.51918" lon="2.7347">
        <ele>294.1</ele>
        <time>2019-12-24T19:19:40Z</time>
      </trkpt>
      <trkpt lat="42.51917" lon="2.73463">
        <ele>294.3</ele>
        <time>2019-12-24T19:19:41Z</time>
      </trkpt>
      <trkpt lat="42.51916" lon="2.73456">
        <ele>283.1</ele>
        <time>2019-12-24T19:19:43Z</time>
      </trkpt>
      <trkpt lat="42.51914" lon="2.73451">
        <ele>283.1</ele>
        <time>2019-12-24T19:19:44Z</time>
      </trkpt>
      <trkpt lat="42.5191" lon="2.73445">
        <ele>283.2</ele>
        <time>2019-12-24T19:19:45Z</time>
      </trkpt>
      <trkpt lat="42.51903" lon="2.73438">
        <ele>283.2</ele>
        <time>2019-12-24T19:19:46Z</time>
      </trkpt>
      <trkpt lat="42.51896" lon="2.7343">
        <ele>283</ele>
        <time>2019-12-24T19:19:47Z</time>
      </trkpt>
      <trkpt lat="42.51893" lon="2.73426">
        <ele>282.8</ele>
        <time>2019-12-24T19:19:57Z</time>
      </trkpt>
      <trkpt lat="42.51891" lon="2.73423">
        <ele>282.6</ele>
        <time>2019-12-24T19:19:59Z</time>
      </trkpt>
      <trkpt lat="42.51889" lon="2.73418">
        <ele>282.4</ele>
        <time>2019-12-24T19:20:00Z</time>
      </trkpt>
      <trkpt lat="42.51888" lon="2.73412">
        <ele>284.8</ele>
        <time>2019-12-24T19:20:01Z</time>
      </trkpt>
      <trkpt lat="42.51888" lon="2.73405">
        <ele>284.8</ele>
        <time>2019-12-24T19:20:03Z</time>
      </trkpt>
      <trkpt lat="42.51888" lon="2.73398">
        <ele>284.8</ele>
        <time>2019-12-24T19:20:03Z</time>
      </trkpt>
      <trkpt lat="42.51888" lon="2.73391">
        <ele>284.9</ele>
        <time>2019-12-24T19:20:07Z</time>
      </trkpt>
      <trkpt lat="42.51889" lon="2.73385">
        <ele>285.1</ele>
        <time>2019-12-24T19:20:11Z</time>
      </trkpt>
      <trkpt lat="42.51888" lon="2.73379">
        <ele>285.1</ele>
        <time>2019-12-24T19:20:13Z</time>
      </trkpt>
      <trkpt lat="42.51887" lon="2.73373">
        <ele>285.3</ele>
        <time>2019-12-24T19:20:13Z</time>
      </trkpt>
      <trkpt lat="42.51884" lon="2.73367">
        <ele>285.3</ele>
        <time>2019-12-24T19:20:14Z</time>
      </trkpt>
      <trkpt lat="42.51882" lon="2.73363">
        <ele>285.3</ele>
        <time>2019-12-24T19:20:15Z</time>
      </trkpt>
      <trkpt lat="42.51881" lon="2.73361">
        <ele>285.3</ele>
        <time>2019-12-24T19:20:16Z</time>
      </trkpt>
      <trkpt lat="42.51878" lon="2.73358">
        <ele>285.3</ele>
        <time>2019-12-24T19:20:17Z</time>
      </trkpt>
      <trkpt lat="42.51874" lon="2.73355">
        <ele>285.1</ele>
        <time>2019-12-24T19:20:18Z</time>
      </trkpt>
      <trkpt lat="42.5187" lon="2.73353">
        <ele>284.9</ele>
        <time>2019-12-24T19:20:19Z</time>
      </trkpt>
      <trkpt lat="42.51866" lon="2.73351">
        <ele>284.8</ele>
        <time>2019-12-24T19:20:20Z</time>
      </trkpt>
      <trkpt lat="42.5186" lon="2.7335">
        <ele>284.5</ele>
        <time>2019-12-24T19:20:22Z</time>
      </trkpt>
      <trkpt lat="42.51851" lon="2.73351">
        <ele>284.2</ele>
        <time>2019-12-24T19:20:24Z</time>
      </trkpt>
      <trkpt lat="42.51845" lon="2.73352">
        <ele>284</ele>
        <time>2019-12-24T19:20:25Z</time>
      </trkpt>
      <trkpt lat="42.51836" lon="2.73353">
        <ele>283.8</ele>
        <time>2019-12-24T19:20:27Z</time>
      </trkpt>
      <trkpt lat="42.51835" lon="2.73353">
        <ele>283.8</ele>
        <time>2019-12-24T19:20:28Z</time>
      </trkpt>
      <trkpt lat="42.51832" lon="2.73353">
        <ele>278.7</ele>
        <time>2019-12-24T19:20:30Z</time>
      </trkpt>
      <trkpt lat="42.51824" lon="2.73353">
        <ele>278.2</ele>
        <time>2019-12-24T19:20:34Z</time>
      </trkpt>
      <trkpt lat="42.51816" lon="2.73352">
        <ele>277.6</ele>
        <time>2019-12-24T19:20:36Z</time>
      </trkpt>
      <trkpt lat="42.51808" lon="2.7335">
        <ele>276.9</ele>
        <time>2019-12-24T19:20:38Z</time>
      </trkpt>
      <trkpt lat="42.51804" lon="2.73346">
        <ele>276.7</ele>
        <time>2019-12-24T19:20:40Z</time>
      </trkpt>
      <trkpt lat="42.518" lon="2.73341">
        <ele>276.4</ele>
        <time>2019-12-24T19:20:41Z</time>
      </trkpt>
      <trkpt lat="42.51799" lon="2.73337">
        <ele>276.4</ele>
        <time>2019-12-24T19:20:43Z</time>
      </trkpt>
      <trkpt lat="42.51797" lon="2.73332">
        <ele>280</ele>
        <time>2019-12-24T19:20:44Z</time>
      </trkpt>
      <trkpt lat="42.51796" lon="2.73326">
        <ele>279.9</ele>
        <time>2019-12-24T19:20:46Z</time>
      </trkpt>
      <trkpt lat="42.51794" lon="2.73319">
        <ele>279.8</ele>
        <time>2019-12-24T19:20:47Z</time>
      </trkpt>
      <trkpt lat="42.51793" lon="2.73313">
        <ele>279.8</ele>
        <time>2019-12-24T19:20:48Z</time>
      </trkpt>
      <trkpt lat="42.51791" lon="2.73307">
        <ele>279.7</ele>
        <time>2019-12-24T19:20:49Z</time>
      </trkpt>
      <trkpt lat="42.51789" lon="2.73301">
        <ele>279.6</ele>
        <time>2019-12-24T19:20:51Z</time>
      </trkpt>
      <trkpt lat="42.51787" lon="2.73295">
        <ele>279.6</ele>
        <time>2019-12-24T19:20:52Z</time>
      </trkpt>
      <trkpt lat="42.51785" lon="2.73292">
        <ele>279.5</ele>
        <time>2019-12-24T19:20:53Z</time>
      </trkpt>
      <trkpt lat="42.5178" lon="2.73286">
        <ele>279.3</ele>
        <time>2019-12-24T19:20:56Z</time>
      </trkpt>
      <trkpt lat="42.51775" lon="2.73282">
        <ele>278.9</ele>
        <time>2019-12-24T19:20:57Z</time>
      </trkpt>
      <trkpt lat="42.51772" lon="2.7328">
        <ele>278.7</ele>
        <time>2019-12-24T19:20:58Z</time>
      </trkpt>
      <trkpt lat="42.51767" lon="2.73277">
        <ele>278.4</ele>
        <time>2019-12-24T19:20:59Z</time>
      </trkpt>
      <trkpt lat="42.51763" lon="2.73276">
        <ele>278.1</ele>
        <time>2019-12-24T19:21:00Z</time>
      </trkpt>
      <trkpt lat="42.51756" lon="2.73272">
        <ele>277.7</ele>
        <time>2019-12-24T19:21:01Z</time>
      </trkpt>
      <trkpt lat="42.51751" lon="2.73272">
        <ele>277.5</ele>
        <time>2019-12-24T19:21:01Z</time>
      </trkpt>
      <trkpt lat="42.51744" lon="2.73271">
        <ele>273.3</ele>
        <time>2019-12-24T19:21:03Z</time>
      </trkpt>
      <trkpt lat="42.51738" lon="2.73272">
        <ele>273.1</ele>
        <time>2019-12-24T19:21:04Z</time>
      </trkpt>
      <trkpt lat="42.51735" lon="2.73272">
        <ele>273</ele>
        <time>2019-12-24T19:21:05Z</time>
      </trkpt>
      <trkpt lat="42.51731" lon="2.73273">
        <ele>272.8</ele>
        <time>2019-12-24T19:21:06Z</time>
      </trkpt>
      <trkpt lat="42.51726" lon="2.73276">
        <ele>272.6</ele>
        <time>2019-12-24T19:21:08Z</time>
      </trkpt>
      <trkpt lat="42.51722" lon="2.73279">
        <ele>272.4</ele>
        <time>2019-12-24T19:21:11Z</time>
      </trkpt>
      <trkpt lat="42.51716" lon="2.73283">
        <ele>272.2</ele>
        <time>2019-12-24T19:21:12Z</time>
      </trkpt>
      <trkpt lat="42.51679" lon="2.73308">
        <ele>271.5</ele>
        <time>2019-12-24T19:21:13Z</time>
      </trkpt>
      <trkpt lat="42.51673" lon="2.73311">
        <ele>271.4</ele>
        <time>2019-12-24T19:21:14Z</time>
      </trkpt>
      <trkpt lat="42.51668" lon="2.73313">
        <ele>271.4</ele>
        <time>2019-12-24T19:21:15Z</time>
      </trkpt>
      <trkpt lat="42.51666" lon="2.73314">
        <ele>271.3</ele>
        <time>2019-12-24T19:21:15Z</time>
      </trkpt>
      <trkpt lat="42.51662" lon="2.73315">
        <ele>271.3</ele>
        <time>2019-12-24T19:21:16Z</time>
      </trkpt>
      <trkpt lat="42.51657" lon="2.73316">
        <ele>271.3</ele>
        <time>2019-12-24T19:21:17Z</time>
      </trkpt>
      <trkpt lat="42.5165" lon="2.73317">
        <ele>271.4</ele>
        <time>2019-12-24T19:21:18Z</time>
      </trkpt>
      <trkpt lat="42.51644" lon="2.73318">
        <ele>271.5</ele>
        <time>2019-12-24T19:21:19Z</time>
      </trkpt>
      <trkpt lat="42.51618" lon="2.7332">
        <ele>271.7</ele>
        <time>2019-12-24T19:21:20Z</time>
      </trkpt>
      <trkpt lat="42.51616" lon="2.7332">
        <ele>271.8</ele>
        <time>2019-12-24T19:21:21Z</time>
      </trkpt>
      <trkpt lat="42.51605" lon="2.73321">
        <ele>271.7</ele>
        <time>2019-12-24T19:21:22Z</time>
      </trkpt>
      <trkpt lat="42.5159" lon="2.73323">
        <ele>271.5</ele>
        <time>2019-12-24T19:21:23Z</time>
      </trkpt>
      <trkpt lat="42.51578" lon="2.73325">
        <ele>271.3</ele>
        <time>2019-12-24T19:21:25Z</time>
      </trkpt>
      <trkpt lat="42.5157" lon="2.73327">
        <ele>271.3</ele>
        <time>2019-12-24T19:21:26Z</time>
      </trkpt>
      <trkpt lat="42.51562" lon="2.73329">
        <ele>271.4</ele>
        <time>2019-12-24T19:21:28Z</time>
      </trkpt>
      <trkpt lat="42.51554" lon="2.73332">
        <ele>271.4</ele>
        <time>2019-12-24T19:21:29Z</time>
      </trkpt>
      <trkpt lat="42.51545" lon="2.73335">
        <ele>269.8</ele>
        <time>2019-12-24T19:21:31Z</time>
      </trkpt>
      <trkpt lat="42.51536" lon="2.73339">
        <ele>269.8</ele>
        <time>2019-12-24T19:21:33Z</time>
      </trkpt>
      <trkpt lat="42.51526" lon="2.73344">
        <ele>269.9</ele>
        <time>2019-12-24T19:21:35Z</time>
      </trkpt>
      <trkpt lat="42.51519" lon="2.73348">
        <ele>270</ele>
        <time>2019-12-24T19:21:37Z</time>
      </trkpt>
      <trkpt lat="42.51511" lon="2.73354">
        <ele>269.9</ele>
        <time>2019-12-24T19:21:40Z</time>
      </trkpt>
      <trkpt lat="42.51502" lon="2.73361">
        <ele>269.6</ele>
        <time>2019-12-24T19:21:42Z</time>
      </trkpt>
      <trkpt lat="42.51494" lon="2.73368">
        <ele>268.8</ele>
        <time>2019-12-24T19:21:43Z</time>
      </trkpt>
      <trkpt lat="42.51487" lon="2.73374">
        <ele>268.5</ele>
        <time>2019-12-24T19:21:45Z</time>
      </trkpt>
      <trkpt lat="42.5148" lon="2.7338">
        <ele>268.3</ele>
        <time>2019-12-24T19:21:49Z</time>
      </trkpt>
      <trkpt lat="42.51478" lon="2.73382">
        <ele>268.2</ele>
        <time>2019-12-24T19:21:51Z</time>
      </trkpt>
      <trkpt lat="42.51473" lon="2.73386">
        <ele>268.1</ele>
        <time>2019-12-24T19:21:54Z</time>
      </trkpt>
      <trkpt lat="42.51466" lon="2.73389">
        <ele>268.1</ele>
        <time>2019-12-24T19:21:56Z</time>
      </trkpt>
      <trkpt lat="42.51464" lon="2.73389">
        <ele>268.1</ele>
        <time>2019-12-24T19:21:59Z</time>
      </trkpt>
      <trkpt lat="42.5145" lon="2.73393">
        <ele>268.1</ele>
        <time>2019-12-24T19:22:01Z</time>
      </trkpt>
      <trkpt lat="42.51443" lon="2.73393">
        <ele>268.2</ele>
        <time>2019-12-24T19:22:03Z</time>
      </trkpt>
      <trkpt lat="42.51437" lon="2.73393">
        <ele>268.2</ele>
        <time>2019-12-24T19:22:05Z</time>
      </trkpt>
      <trkpt lat="42.5143" lon="2.73391">
        <ele>268.2</ele>
        <time>2019-12-24T19:22:06Z</time>
      </trkpt>
      <trkpt lat="42.51424" lon="2.73389">
        <ele>268.2</ele>
        <time>2019-12-24T19:22:08Z</time>
      </trkpt>
      <trkpt lat="42.51418" lon="2.73387">
        <ele>268.2</ele>
        <time>2019-12-24T19:22:09Z</time>
      </trkpt>
      <trkpt lat="42.51409" lon="2.73384">
        <ele>269.1</ele>
        <time>2019-12-24T19:22:14Z</time>
      </trkpt>
      <trkpt lat="42.51404" lon="2.73383">
        <ele>269.1</ele>
        <time>2019-12-24T19:22:24Z</time>
      </trkpt>
      <trkpt lat="42.51403" lon="2.73382">
        <ele>269.1</ele>
        <time>2019-12-24T19:22:30Z</time>
      </trkpt>
      <trkpt lat="42.51396" lon="2.73379">
        <ele>269.2</ele>
        <time>2019-12-24T19:22:31Z</time>
      </trkpt>
      <trkpt lat="42.51391" lon="2.73377">
        <ele>269.3</ele>
        <time>2019-12-24T19:22:33Z</time>
      </trkpt>
      <trkpt lat="42.5139" lon="2.73376">
        <ele>269.4</ele>
        <time>2019-12-24T19:22:34Z</time>
      </trkpt>
      <trkpt lat="42.51383" lon="2.73371">
        <ele>269.6</ele>
        <time>2019-12-24T19:22:36Z</time>
      </trkpt>
      <trkpt lat="42.51376" lon="2.73364">
        <ele>269.9</ele>
        <time>2019-12-24T19:22:38Z</time>
      </trkpt>
      <trkpt lat="42.51373" lon="2.7336">
        <ele>270.1</ele>
        <time>2019-12-24T19:22:39Z</time>
      </trkpt>
      <trkpt lat="42.51369" lon="2.73353">
        <ele>270.4</ele>
        <time>2019-12-24T19:22:42Z</time>
      </trkpt>
      <trkpt lat="42.51366" lon="2.73345">
        <ele>270.8</ele>
        <time>2019-12-24T19:22:46Z</time>
      </trkpt>
      <trkpt lat="42.51364" lon="2.73338">
        <ele>271.1</ele>
        <time>2019-12-24T19:22:48Z</time>
      </trkpt>
      <trkpt lat="42.51363" lon="2.73332">
        <ele>270.7</ele>
        <time>2019-12-24T19:22:50Z</time>
      </trkpt>
      <trkpt lat="42.51363" lon="2.73325">
        <ele>270.6</ele>
        <time>2019-12-24T19:22:52Z</time>
      </trkpt>
      <trkpt lat="42.51363" lon="2.73315">
        <ele>270.2</ele>
        <time>2019-12-24T19:22:53Z</time>
      </trkpt>
      <trkpt lat="42.51366" lon="2.73301">
        <ele>269.5</ele>
        <time>2019-12-24T19:22:54Z</time>
      </trkpt>
      <trkpt lat="42.51369" lon="2.73285">
        <ele>268.8</ele>
        <time>2019-12-24T19:22:56Z</time>
      </trkpt>
      <trkpt lat="42.51375" lon="2.73263">
        <ele>267.7</ele>
        <time>2019-12-24T19:22:57Z</time>
      </trkpt>
      <trkpt lat="42.51377" lon="2.73249">
        <ele>260.9</ele>
        <time>2019-12-24T19:23:01Z</time>
      </trkpt>
      <trkpt lat="42.51377" lon="2.73242">
        <ele>260.6</ele>
        <time>2019-12-24T19:23:03Z</time>
      </trkpt>
      <trkpt lat="42.51375" lon="2.73235">
        <ele>260.5</ele>
        <time>2019-12-24T19:23:05Z</time>
      </trkpt>
      <trkpt lat="42.51372" lon="2.73222">
        <ele>259.8</ele>
        <time>2019-12-24T19:23:06Z</time>
      </trkpt>
      <trkpt lat="42.51364" lon="2.7321">
        <ele>259.2</ele>
        <time>2019-12-24T19:23:07Z</time>
      </trkpt>
      <trkpt lat="42.5136" lon="2.73205">
        <ele>258.9</ele>
        <time>2019-12-24T19:23:08Z</time>
      </trkpt>
      <trkpt lat="42.51357" lon="2.73201">
        <ele>258.6</ele>
        <time>2019-12-24T19:23:09Z</time>
      </trkpt>
      <trkpt lat="42.51353" lon="2.73199">
        <ele>258.5</ele>
        <time>2019-12-24T19:23:10Z</time>
      </trkpt>
      <trkpt lat="42.51347" lon="2.73196">
        <ele>258.3</ele>
        <time>2019-12-24T19:23:11Z</time>
      </trkpt>
      <trkpt lat="42.51341" lon="2.73195">
        <ele>258.3</ele>
        <time>2019-12-24T19:23:12Z</time>
      </trkpt>
      <trkpt lat="42.51333" lon="2.73195">
        <ele>260</ele>
        <time>2019-12-24T19:23:13Z</time>
      </trkpt>
      <trkpt lat="42.51327" lon="2.73196">
        <ele>260.2</ele>
        <time>2019-12-24T19:23:15Z</time>
      </trkpt>
      <trkpt lat="42.51315" lon="2.73198">
        <ele>260.5</ele>
        <time>2019-12-24T19:23:18Z</time>
      </trkpt>
      <trkpt lat="42.513" lon="2.73201">
        <ele>260.6</ele>
        <time>2019-12-24T19:23:19Z</time>
      </trkpt>
      <trkpt lat="42.51285" lon="2.73206">
        <ele>260.7</ele>
        <time>2019-12-24T19:23:24Z</time>
      </trkpt>
      <trkpt lat="42.51278" lon="2.73209">
        <ele>260.8</ele>
        <time>2019-12-24T19:23:25Z</time>
      </trkpt>
      <trkpt lat="42.51271" lon="2.73213">
        <ele>261.2</ele>
        <time>2019-12-24T19:23:27Z</time>
      </trkpt>
      <trkpt lat="42.51267" lon="2.73215">
        <ele>261.5</ele>
        <time>2019-12-24T19:23:28Z</time>
      </trkpt>
      <trkpt lat="42.51264" lon="2.73217">
        <ele>261.8</ele>
        <time>2019-12-24T19:23:30Z</time>
      </trkpt>
      <trkpt lat="42.51259" lon="2.7322">
        <ele>262.3</ele>
        <time>2019-12-24T19:23:31Z</time>
      </trkpt>
      <trkpt lat="42.51253" lon="2.73226">
        <ele>263.4</ele>
        <time>2019-12-24T19:23:33Z</time>
      </trkpt>
      <trkpt lat="42.51247" lon="2.73231">
        <ele>261</ele>
        <time>2019-12-24T19:23:35Z</time>
      </trkpt>
      <trkpt lat="42.51242" lon="2.73236">
        <ele>261.9</ele>
        <time>2019-12-24T19:23:36Z</time>
      </trkpt>
      <trkpt lat="42.51236" lon="2.7324">
        <ele>261.8</ele>
        <time>2019-12-24T19:23:38Z</time>
      </trkpt>
      <trkpt lat="42.5123" lon="2.73245">
        <ele>261.1</ele>
        <time>2019-12-24T19:23:40Z</time>
      </trkpt>
      <trkpt lat="42.51224" lon="2.73249">
        <ele>260.3</ele>
        <time>2019-12-24T19:23:41Z</time>
      </trkpt>
      <trkpt lat="42.51217" lon="2.73254">
        <ele>271.1</ele>
        <time>2019-12-24T19:23:42Z</time>
      </trkpt>
      <trkpt lat="42.51203" lon="2.73257">
        <ele>270.5</ele>
        <time>2019-12-24T19:23:43Z</time>
      </trkpt>
      <trkpt lat="42.51187" lon="2.73258">
        <ele>268.7</ele>
        <time>2019-12-24T19:23:44Z</time>
      </trkpt>
      <trkpt lat="42.51165" lon="2.73254">
        <ele>263.3</ele>
        <time>2019-12-24T19:23:45Z</time>
      </trkpt>
      <trkpt lat="42.51155" lon="2.73254">
        <ele>265</ele>
        <time>2019-12-24T19:23:46Z</time>
      </trkpt>
      <trkpt lat="42.51146" lon="2.73252">
        <ele>266</ele>
        <time>2019-12-24T19:23:48Z</time>
      </trkpt>
      <trkpt lat="42.51139" lon="2.73251">
        <ele>266.4</ele>
        <time>2019-12-24T19:23:51Z</time>
      </trkpt>
      <trkpt lat="42.51133" lon="2.7325">
        <ele>254.5</ele>
        <time>2019-12-24T19:23:52Z</time>
      </trkpt>
      <trkpt lat="42.51128" lon="2.73249">
        <ele>254.2</ele>
        <time>2019-12-24T19:23:53Z</time>
      </trkpt>
      <trkpt lat="42.51123" lon="2.73249">
        <ele>254.1</ele>
        <time>2019-12-24T19:23:54Z</time>
      </trkpt>
      <trkpt lat="42.51119" lon="2.7325">
        <ele>254.2</ele>
        <time>2019-12-24T19:23:56Z</time>
      </trkpt>
      <trkpt lat="42.51114" lon="2.73252">
        <ele>266.1</ele>
        <time>2019-12-24T19:23:57Z</time>
      </trkpt>
      <trkpt lat="42.51109" lon="2.73257">
        <ele>266</ele>
        <time>2019-12-24T19:23:58Z</time>
      </trkpt>
      <trkpt lat="42.511" lon="2.73265">
        <ele>265.8</ele>
        <time>2019-12-24T19:24:00Z</time>
      </trkpt>
      <trkpt lat="42.5109" lon="2.73272">
        <ele>266.2</ele>
        <time>2019-12-24T19:24:01Z</time>
      </trkpt>
      <trkpt lat="42.51085" lon="2.73274">
        <ele>266.5</ele>
        <time>2019-12-24T19:24:02Z</time>
      </trkpt>
      <trkpt lat="42.5108" lon="2.73274">
        <ele>268.1</ele>
        <time>2019-12-24T19:24:03Z</time>
      </trkpt>
      <trkpt lat="42.51072" lon="2.73271">
        <ele>268.1</ele>
        <time>2019-12-24T19:24:05Z</time>
      </trkpt>
      <trkpt lat="42.51068" lon="2.73268">
        <ele>268</ele>
        <time>2019-12-24T19:24:06Z</time>
      </trkpt>
      <trkpt lat="42.51061" lon="2.7326">
        <ele>268</ele>
        <time>2019-12-24T19:24:07Z</time>
      </trkpt>
      <trkpt lat="42.51058" lon="2.73253">
        <ele>268</ele>
        <time>2019-12-24T19:24:08Z</time>
      </trkpt>
      <trkpt lat="42.51052" lon="2.73241">
        <ele>258.5</ele>
        <time>2019-12-24T19:24:10Z</time>
      </trkpt>
      <trkpt lat="42.51048" lon="2.73231">
        <ele>258</ele>
        <time>2019-12-24T19:24:11Z</time>
      </trkpt>
      <trkpt lat="42.51043" lon="2.7322">
        <ele>257.3</ele>
        <time>2019-12-24T19:24:12Z</time>
      </trkpt>
      <trkpt lat="42.5104" lon="2.73214">
        <ele>256.8</ele>
        <time>2019-12-24T19:24:14Z</time>
      </trkpt>
      <trkpt lat="42.51036" lon="2.73209">
        <ele>256.5</ele>
        <time>2019-12-24T19:24:15Z</time>
      </trkpt>
      <trkpt lat="42.51032" lon="2.73204">
        <ele>256.2</ele>
        <time>2019-12-24T19:24:16Z</time>
      </trkpt>
      <trkpt lat="42.51027" lon="2.732">
        <ele>256.1</ele>
        <time>2019-12-24T19:24:18Z</time>
      </trkpt>
      <trkpt lat="42.51023" lon="2.73196">
        <ele>255.8</ele>
        <time>2019-12-24T19:24:19Z</time>
      </trkpt>
      <trkpt lat="42.51017" lon="2.73193">
        <ele>255.7</ele>
        <time>2019-12-24T19:24:21Z</time>
      </trkpt>
      <trkpt lat="42.5101" lon="2.73189">
        <ele>255.5</ele>
        <time>2019-12-24T19:24:23Z</time>
      </trkpt>
      <trkpt lat="42.51004" lon="2.73187">
        <ele>255.3</ele>
        <time>2019-12-24T19:24:25Z</time>
      </trkpt>
      <trkpt lat="42.50997" lon="2.73187">
        <ele>258.6</ele>
        <time>2019-12-24T19:24:27Z</time>
      </trkpt>
      <trkpt lat="42.5099" lon="2.73187">
        <ele>258.9</ele>
        <time>2019-12-24T19:24:29Z</time>
      </trkpt>
      <trkpt lat="42.50986" lon="2.73187">
        <ele>259.2</ele>
        <time>2019-12-24T19:24:31Z</time>
      </trkpt>
      <trkpt lat="42.50927" lon="2.73193">
        <ele>260.7</ele>
        <time>2019-12-24T19:24:32Z</time>
      </trkpt>
      <trkpt lat="42.50919" lon="2.73194">
        <ele>260.7</ele>
        <time>2019-12-24T19:24:34Z</time>
      </trkpt>
      <trkpt lat="42.50912" lon="2.73195">
        <ele>258.2</ele>
        <time>2019-12-24T19:24:36Z</time>
      </trkpt>
      <trkpt lat="42.50904" lon="2.73197">
        <ele>258.2</ele>
        <time>2019-12-24T19:24:41Z</time>
      </trkpt>
      <trkpt lat="42.50898" lon="2.73199">
        <ele>258.1</ele>
        <time>2019-12-24T19:24:51Z</time>
      </trkpt>
      <trkpt lat="42.50893" lon="2.732">
        <ele>258</ele>
        <time>2019-12-24T19:24:57Z</time>
      </trkpt>
      <trkpt lat="42.50874" lon="2.73208">
        <ele>257.4</ele>
        <time>2019-12-24T19:24:59Z</time>
      </trkpt>
      <trkpt lat="42.50855" lon="2.73215">
        <ele>256.5</ele>
        <time>2019-12-24T19:25:00Z</time>
      </trkpt>
      <trkpt lat="42.50844" lon="2.7322">
        <ele>256</ele>
        <time>2019-12-24T19:25:00Z</time>
      </trkpt>
      <trkpt lat="42.5084" lon="2.73222">
        <ele>255.8</ele>
        <time>2019-12-24T19:25:01Z</time>
      </trkpt>
      <trkpt lat="42.50835" lon="2.73226">
        <ele>255.5</ele>
        <time>2019-12-24T19:25:02Z</time>
      </trkpt>
      <trkpt lat="42.50832" lon="2.73231">
        <ele>249</ele>
        <time>2019-12-24T19:25:03Z</time>
      </trkpt>
      <trkpt lat="42.5083" lon="2.73236">
        <ele>249.5</ele>
        <time>2019-12-24T19:25:04Z</time>
      </trkpt>
      <trkpt lat="42.50829" lon="2.73244">
        <ele>250.8</ele>
        <time>2019-12-24T19:25:06Z</time>
      </trkpt>
      <trkpt lat="42.5083" lon="2.73251">
        <ele>251.3</ele>
        <time>2019-12-24T19:25:07Z</time>
      </trkpt>
      <trkpt lat="42.50831" lon="2.73257">
        <ele>249.8</ele>
        <time>2019-12-24T19:25:09Z</time>
      </trkpt>
      <trkpt lat="42.50834" lon="2.73266">
        <ele>256.2</ele>
        <time>2019-12-24T19:25:12Z</time>
      </trkpt>
      <trkpt lat="42.50838" lon="2.7328">
        <ele>257.4</ele>
        <time>2019-12-24T19:25:13Z</time>
      </trkpt>
      <trkpt lat="42.50841" lon="2.73295">
        <ele>257.7</ele>
        <time>2019-12-24T19:25:14Z</time>
      </trkpt>
      <trkpt lat="42.50841" lon="2.73305">
        <ele>257.2</ele>
        <time>2019-12-24T19:25:15Z</time>
      </trkpt>
      <trkpt lat="42.50842" lon="2.73316">
        <ele>256.2</ele>
        <time>2019-12-24T19:25:16Z</time>
      </trkpt>
      <trkpt lat="42.50842" lon="2.73327">
        <ele>254.5</ele>
        <time>2019-12-24T19:25:17Z</time>
      </trkpt>
      <trkpt lat="42.50842" lon="2.73343">
        <ele>254.9</ele>
        <time>2019-12-24T19:25:18Z</time>
      </trkpt>
      <trkpt lat="42.50841" lon="2.7337">
        <ele>257.1</ele>
        <time>2019-12-24T19:25:19Z</time>
      </trkpt>
      <trkpt lat="42.5084" lon="2.73386">
        <ele>256.5</ele>
        <time>2019-12-24T19:25:19Z</time>
      </trkpt>
      <trkpt lat="42.50838" lon="2.73398">
        <ele>254.9</ele>
        <time>2019-12-24T19:25:20Z</time>
      </trkpt>
      <trkpt lat="42.50835" lon="2.73412">
        <ele>251.1</ele>
        <time>2019-12-24T19:25:20Z</time>
      </trkpt>
      <trkpt lat="42.50831" lon="2.73423">
        <ele>247.1</ele>
        <time>2019-12-24T19:25:21Z</time>
      </trkpt>
      <trkpt lat="42.50827" lon="2.73433">
        <ele>245.2</ele>
        <time>2019-12-24T19:25:21Z</time>
      </trkpt>
      <trkpt lat="42.50823" lon="2.73442">
        <ele>244.1</ele>
        <time>2019-12-24T19:25:22Z</time>
      </trkpt>
      <trkpt lat="42.50817" lon="2.73451">
        <ele>243.4</ele>
        <time>2019-12-24T19:25:22Z</time>
      </trkpt>
      <trkpt lat="42.50811" lon="2.73458">
        <ele>242.9</ele>
        <time>2019-12-24T19:25:23Z</time>
      </trkpt>
      <trkpt lat="42.50806" lon="2.73464">
        <ele>242.7</ele>
        <time>2019-12-24T19:25:24Z</time>
      </trkpt>
      <trkpt lat="42.508" lon="2.73468">
        <ele>242.2</ele>
        <time>2019-12-24T19:25:25Z</time>
      </trkpt>
      <trkpt lat="42.50794" lon="2.73473">
        <ele>241.8</ele>
        <time>2019-12-24T19:25:26Z</time>
      </trkpt>
      <trkpt lat="42.50788" lon="2.73478">
        <ele>241.4</ele>
        <time>2019-12-24T19:25:29Z</time>
      </trkpt>
      <trkpt lat="42.50781" lon="2.73484">
        <ele>240.9</ele>
        <time>2019-12-24T19:25:30Z</time>
      </trkpt>
      <trkpt lat="42.50767" lon="2.73497">
        <ele>239.7</ele>
        <time>2019-12-24T19:25:32Z</time>
      </trkpt>
      <trkpt lat="42.50763" lon="2.73503">
        <ele>239.6</ele>
        <time>2019-12-24T19:25:33Z</time>
      </trkpt>
      <trkpt lat="42.50761" lon="2.7351">
        <ele>239.6</ele>
        <time>2019-12-24T19:25:33Z</time>
      </trkpt>
      <trkpt lat="42.5076" lon="2.73515">
        <ele>239.7</ele>
        <time>2019-12-24T19:25:34Z</time>
      </trkpt>
      <trkpt lat="42.50761" lon="2.7352">
        <ele>239.9</ele>
        <time>2019-12-24T19:25:35Z</time>
      </trkpt>
      <trkpt lat="42.50762" lon="2.73526">
        <ele>240</ele>
        <time>2019-12-24T19:25:35Z</time>
      </trkpt>
      <trkpt lat="42.50764" lon="2.73531">
        <ele>240.1</ele>
        <time>2019-12-24T19:25:35Z</time>
      </trkpt>
      <trkpt lat="42.5077" lon="2.73538">
        <ele>240.3</ele>
        <time>2019-12-24T19:25:36Z</time>
      </trkpt>
      <trkpt lat="42.50776" lon="2.73542">
        <ele>240.5</ele>
        <time>2019-12-24T19:25:37Z</time>
      </trkpt>
      <trkpt lat="42.50783" lon="2.73546">
        <ele>240.8</ele>
        <time>2019-12-24T19:25:38Z</time>
      </trkpt>
      <trkpt lat="42.50789" lon="2.7355">
        <ele>241.1</ele>
        <time>2019-12-24T19:25:39Z</time>
      </trkpt>
      <trkpt lat="42.50796" lon="2.73554">
        <ele>241.5</ele>
        <time>2019-12-24T19:25:39Z</time>
      </trkpt>
      <trkpt lat="42.50812" lon="2.73562">
        <ele>242.5</ele>
        <time>2019-12-24T19:25:40Z</time>
      </trkpt>
      <trkpt lat="42.50818" lon="2.73565">
        <ele>242.9</ele>
        <time>2019-12-24T19:25:43Z</time>
      </trkpt>
      <trkpt lat="42.50823" lon="2.73569">
        <ele>243.3</ele>
        <time>2019-12-24T19:25:44Z</time>
      </trkpt>
      <trkpt lat="42.50826" lon="2.73573">
        <ele>243.7</ele>
        <time>2019-12-24T19:25:45Z</time>
      </trkpt>
      <trkpt lat="42.50829" lon="2.73577">
        <ele>244.1</ele>
        <time>2019-12-24T19:25:46Z</time>
      </trkpt>
      <trkpt lat="42.50831" lon="2.73583">
        <ele>244.7</ele>
        <time>2019-12-24T19:25:47Z</time>
      </trkpt>
      <trkpt lat="42.50832" lon="2.73588">
        <ele>243.7</ele>
        <time>2019-12-24T19:25:49Z</time>
      </trkpt>
      <trkpt lat="42.50832" lon="2.73595">
        <ele>242.4</ele>
        <time>2019-12-24T19:26:01Z</time>
      </trkpt>
      <trkpt lat="42.50831" lon="2.73602">
        <ele>241.5</ele>
        <time>2019-12-24T19:26:03Z</time>
      </trkpt>
      <trkpt lat="42.5083" lon="2.73609">
        <ele>240.8</ele>
        <time>2019-12-24T19:26:09Z</time>
      </trkpt>
      <trkpt lat="42.50827" lon="2.73617">
        <ele>240.3</ele>
        <time>2019-12-24T19:26:10Z</time>
      </trkpt>
      <trkpt lat="42.50823" lon="2.73625">
        <ele>239.9</ele>
        <time>2019-12-24T19:26:13Z</time>
      </trkpt>
      <trkpt lat="42.5082" lon="2.73631">
        <ele>239.8</ele>
        <time>2019-12-24T19:26:15Z</time>
      </trkpt>
      <trkpt lat="42.50815" lon="2.73637">
        <ele>239.5</ele>
        <time>2019-12-24T19:26:15Z</time>
      </trkpt>
      <trkpt lat="42.50809" lon="2.73644">
        <ele>239.1</ele>
        <time>2019-12-24T19:26:17Z</time>
      </trkpt>
      <trkpt lat="42.50803" lon="2.7365">
        <ele>238.4</ele>
        <time>2019-12-24T19:26:20Z</time>
      </trkpt>
      <trkpt lat="42.50796" lon="2.73657">
        <ele>237.3</ele>
        <time>2019-12-24T19:26:20Z</time>
      </trkpt>
      <trkpt lat="42.50791" lon="2.73665">
        <ele>236.3</ele>
        <time>2019-12-24T19:26:20Z</time>
      </trkpt>
      <trkpt lat="42.50785" lon="2.73674">
        <ele>235.5</ele>
        <time>2019-12-24T19:26:20Z</time>
      </trkpt>
      <trkpt lat="42.50778" lon="2.73686">
        <ele>234.7</ele>
        <time>2019-12-24T19:26:20Z</time>
      </trkpt>
      <trkpt lat="42.5077" lon="2.73702">
        <ele>234.7</ele>
        <time>2019-12-24T19:26:20Z</time>
      </trkpt>
      <trkpt lat="42.50764" lon="2.73715">
        <ele>234.6</ele>
        <time>2019-12-24T19:26:21Z</time>
      </trkpt>
      <trkpt lat="42.50754" lon="2.73732">
        <ele>233.1</ele>
        <time>2019-12-24T19:26:21Z</time>
      </trkpt>
      <trkpt lat="42.50746" lon="2.73741">
        <ele>226.9</ele>
        <time>2019-12-24T19:26:21Z</time>
      </trkpt>
      <trkpt lat="42.5074" lon="2.73749">
        <ele>226.8</ele>
        <time>2019-12-24T19:26:21Z</time>
      </trkpt>
      <trkpt lat="42.50732" lon="2.73758">
        <ele>227.6</ele>
        <time>2019-12-24T19:26:21Z</time>
      </trkpt>
      <trkpt lat="42.50717" lon="2.73772">
        <ele>226.7</ele>
        <time>2019-12-24T19:26:21Z</time>
      </trkpt>
      <trkpt lat="42.50706" lon="2.7378">
        <ele>226</ele>
        <time>2019-12-24T19:40:25Z</time>
      </trkpt>
      <trkpt lat="42.50692" lon="2.73789">
        <ele>225.2</ele>
        <time>2019-12-24T19:40:29Z</time>
      </trkpt>
      <trkpt lat="42.50679" lon="2.73798">
        <ele>224.8</ele>
        <time>2019-12-24T19:40:36Z</time>
      </trkpt>
      <trkpt lat="42.50665" lon="2.73809">
        <ele>216.9</ele>
        <time>2019-12-24T19:40:38Z</time>
      </trkpt>
      <trkpt lat="42.50655" lon="2.73816">
        <ele>217.1</ele>
        <time>2019-12-24T19:40:39Z</time>
      </trkpt>
      <trkpt lat="42.50645" lon="2.73825">
        <ele>216.4</ele>
        <time>2019-12-24T19:40:40Z</time>
      </trkpt>
      <trkpt lat="42.50638" lon="2.73832">
        <ele>215.3</ele>
        <time>2019-12-24T19:40:43Z</time>
      </trkpt>
      <trkpt lat="42.50633" lon="2.7384">
        <ele>216.9</ele>
        <time>2019-12-24T19:40:44Z</time>
      </trkpt>
      <trkpt lat="42.50627" lon="2.73849">
        <ele>216.1</ele>
        <time>2019-12-24T19:40:45Z</time>
      </trkpt>
      <trkpt lat="42.5062" lon="2.73859">
        <ele>215.4</ele>
        <time>2019-12-24T19:40:47Z</time>
      </trkpt>
      <trkpt lat="42.50604" lon="2.73885">
        <ele>214.5</ele>
        <time>2019-12-24T19:40:49Z</time>
      </trkpt>
      <trkpt lat="42.50568" lon="2.73946">
        <ele>205.4</ele>
        <time>2019-12-24T19:40:53Z</time>
      </trkpt>
      <trkpt lat="42.50549" lon="2.73978">
        <ele>204.9</ele>
        <time>2019-12-24T19:40:56Z</time>
      </trkpt>
      <trkpt lat="42.50542" lon="2.73989">
        <ele>203.9</ele>
        <time>2019-12-24T19:40:59Z</time>
      </trkpt>
      <trkpt lat="42.50538" lon="2.73997">
        <ele>203.1</ele>
        <time>2019-12-24T19:41:02Z</time>
      </trkpt>
      <trkpt lat="42.50532" lon="2.74006">
        <ele>206.4</ele>
        <time>2019-12-24T19:41:10Z</time>
      </trkpt>
      <trkpt lat="42.50526" lon="2.74014">
        <ele>205.5</ele>
        <time>2019-12-24T19:41:16Z</time>
      </trkpt>
      <trkpt lat="42.50519" lon="2.74023">
        <ele>205.2</ele>
        <time>2019-12-24T19:41:19Z</time>
      </trkpt>
      <trkpt lat="42.50512" lon="2.74032">
        <ele>205.7</ele>
        <time>2019-12-24T19:41:22Z</time>
      </trkpt>
      <trkpt lat="42.50499" lon="2.74047">
        <ele>195.2</ele>
        <time>2019-12-24T19:41:26Z</time>
      </trkpt>
      <trkpt lat="42.50485" lon="2.74064">
        <ele>197</ele>
        <time>2019-12-24T19:41:28Z</time>
      </trkpt>
      <trkpt lat="42.50475" lon="2.74076">
        <ele>196.4</ele>
        <time>2019-12-24T19:41:30Z</time>
      </trkpt>
      <trkpt lat="42.50467" lon="2.74084">
        <ele>201.2</ele>
        <time>2019-12-24T19:41:32Z</time>
      </trkpt>
      <trkpt lat="42.50459" lon="2.74092">
        <ele>199.9</ele>
        <time>2019-12-24T19:41:35Z</time>
      </trkpt>
      <trkpt lat="42.50453" lon="2.74097">
        <ele>199.1</ele>
        <time>2019-12-24T19:41:36Z</time>
      </trkpt>
      <trkpt lat="42.50445" lon="2.74104">
        <ele>198.2</ele>
        <time>2019-12-24T19:41:37Z</time>
      </trkpt>
      <trkpt lat="42.50436" lon="2.7411">
        <ele>197.5</ele>
        <time>2019-12-24T19:41:39Z</time>
      </trkpt>
      <trkpt lat="42.5043" lon="2.74114">
        <ele>197.4</ele>
        <time>2019-12-24T19:41:42Z</time>
      </trkpt>
      <trkpt lat="42.50411" lon="2.74129">
        <ele>188.5</ele>
        <time>2019-12-24T19:41:43Z</time>
      </trkpt>
      <trkpt lat="42.50403" lon="2.74137">
        <ele>189.3</ele>
        <time>2019-12-24T19:41:45Z</time>
      </trkpt>
      <trkpt lat="42.50396" lon="2.74143">
        <ele>189.5</ele>
        <time>2019-12-24T19:41:46Z</time>
      </trkpt>
      <trkpt lat="42.50391" lon="2.7415">
        <ele>189.7</ele>
        <time>2019-12-24T19:41:47Z</time>
      </trkpt>
      <trkpt lat="42.50387" lon="2.74155">
        <ele>189.5</ele>
        <time>2019-12-24T19:41:48Z</time>
      </trkpt>
      <trkpt lat="42.50382" lon="2.74162">
        <ele>189.2</ele>
        <time>2019-12-24T19:41:49Z</time>
      </trkpt>
      <trkpt lat="42.50377" lon="2.74166">
        <ele>188.6</ele>
        <time>2019-12-24T19:41:49Z</time>
      </trkpt>
      <trkpt lat="42.50372" lon="2.74172">
        <ele>197.7</ele>
        <time>2019-12-24T19:41:50Z</time>
      </trkpt>
      <trkpt lat="42.50369" lon="2.74175">
        <ele>197.5</ele>
        <time>2019-12-24T19:41:51Z</time>
      </trkpt>
      <trkpt lat="42.50364" lon="2.74176">
        <ele>196.7</ele>
        <time>2019-12-24T19:41:52Z</time>
      </trkpt>
      <trkpt lat="42.50356" lon="2.74177">
        <ele>195.3</ele>
        <time>2019-12-24T19:41:53Z</time>
      </trkpt>
      <trkpt lat="42.50349" lon="2.74178">
        <ele>193.9</ele>
        <time>2019-12-24T19:41:53Z</time>
      </trkpt>
      <trkpt lat="42.5033" lon="2.7418">
        <ele>187.9</ele>
        <time>2019-12-24T19:41:53Z</time>
      </trkpt>
      <trkpt lat="42.50323" lon="2.74181">
        <ele>188.4</ele>
        <time>2019-12-24T19:41:53Z</time>
      </trkpt>
      <trkpt lat="42.50298" lon="2.74183">
        <ele>188.8</ele>
        <time>2019-12-24T19:41:53Z</time>
      </trkpt>
      <trkpt lat="42.5029" lon="2.74183">
        <ele>188.3</ele>
        <time>2019-12-24T19:41:53Z</time>
      </trkpt>
      <trkpt lat="42.50281" lon="2.74183">
        <ele>187.5</ele>
        <time>2019-12-24T19:41:53Z</time>
      </trkpt>
      <trkpt lat="42.50272" lon="2.74183">
        <ele>186.3</ele>
        <time>2019-12-24T19:41:54Z</time>
      </trkpt>
      <trkpt lat="42.50264" lon="2.74183">
        <ele>185</ele>
        <time>2019-12-24T19:41:54Z</time>
      </trkpt>
      <trkpt lat="42.50255" lon="2.74184">
        <ele>184.1</ele>
        <time>2019-12-24T19:41:54Z</time>
      </trkpt>
      <trkpt lat="42.50246" lon="2.74184">
        <ele>179.9</ele>
        <time>2019-12-24T19:41:54Z</time>
      </trkpt>
      <trkpt lat="42.50236" lon="2.74186">
        <ele>180.5</ele>
        <time>2019-12-24T19:41:54Z</time>
      </trkpt>
      <trkpt lat="42.50227" lon="2.74189">
        <ele>180.9</ele>
        <time>2019-12-24T19:41:54Z</time>
      </trkpt>
      <trkpt lat="42.50218" lon="2.74192">
        <ele>181.1</ele>
        <time>2019-12-24T19:41:54Z</time>
      </trkpt>
      <trkpt lat="42.50209" lon="2.74196">
        <ele>181.2</ele>
        <time>2019-12-24T19:41:55Z</time>
      </trkpt>
      <trkpt lat="42.50202" lon="2.74199">
        <ele>181.1</ele>
        <time>2019-12-24T19:41:55Z</time>
      </trkpt>
      <trkpt lat="42.50196" lon="2.74202">
        <ele>181.1</ele>
        <time>2019-12-24T19:41:55Z</time>
      </trkpt>
      <trkpt lat="42.50191" lon="2.74203">
        <ele>181</ele>
        <time>2019-12-24T19:41:55Z</time>
      </trkpt>
      <trkpt lat="42.50185" lon="2.74205">
        <ele>181</ele>
        <time>2019-12-24T19:41:55Z</time>
      </trkpt>
      <trkpt lat="42.5018" lon="2.74205">
        <ele>180.7</ele>
        <time>2019-12-24T19:41:55Z</time>
      </trkpt>
      <trkpt lat="42.50173" lon="2.74203">
        <ele>180</ele>
        <time>2019-12-24T19:41:56Z</time>
      </trkpt>
      <trkpt lat="42.50166" lon="2.742">
        <ele>174.1</ele>
        <time>2019-12-24T19:41:56Z</time>
      </trkpt>
      <trkpt lat="42.50149" lon="2.74196">
        <ele>173.4</ele>
        <time>2019-12-24T19:41:56Z</time>
      </trkpt>
      <trkpt lat="42.50141" lon="2.74195">
        <ele>173.2</ele>
        <time>2019-12-24T19:41:56Z</time>
      </trkpt>
      <trkpt lat="42.50134" lon="2.74195">
        <ele>173.1</ele>
        <time>2019-12-24T19:41:56Z</time>
      </trkpt>
      <trkpt lat="42.50128" lon="2.74195">
        <ele>172.9</ele>
        <time>2019-12-24T19:41:57Z</time>
      </trkpt>
      <trkpt lat="42.50121" lon="2.74197">
        <ele>172.8</ele>
        <time>2019-12-24T19:41:57Z</time>
      </trkpt>
      <trkpt lat="42.50113" lon="2.742">
        <ele>172.8</ele>
        <time>2019-12-24T19:41:58Z</time>
      </trkpt>
      <trkpt lat="42.50106" lon="2.74201">
        <ele>172.6</ele>
        <time>2019-12-24T19:41:59Z</time>
      </trkpt>
      <trkpt lat="42.50099" lon="2.74202">
        <ele>172.4</ele>
        <time>2019-12-24T19:41:59Z</time>
      </trkpt>
      <trkpt lat="42.50092" lon="2.74202">
        <ele>172.1</ele>
        <time>2019-12-24T19:42:00Z</time>
      </trkpt>
      <trkpt lat="42.50085" lon="2.74202">
        <ele>171.9</ele>
        <time>2019-12-24T19:42:01Z</time>
      </trkpt>
      <trkpt lat="42.50078" lon="2.74202">
        <ele>166.5</ele>
        <time>2019-12-24T19:42:02Z</time>
      </trkpt>
      <trkpt lat="42.50071" lon="2.74203">
        <ele>166.4</ele>
        <time>2019-12-24T19:42:04Z</time>
      </trkpt>
      <trkpt lat="42.50064" lon="2.74205">
        <ele>166.4</ele>
        <time>2019-12-24T19:42:08Z</time>
      </trkpt>
      <trkpt lat="42.50058" lon="2.74207">
        <ele>166.3</ele>
        <time>2019-12-24T19:42:11Z</time>
      </trkpt>
      <trkpt lat="42.50051" lon="2.74211">
        <ele>166.3</ele>
        <time>2019-12-24T19:42:12Z</time>
      </trkpt>
      <trkpt lat="42.50044" lon="2.74216">
        <ele>166.3</ele>
        <time>2019-12-24T19:42:13Z</time>
      </trkpt>
      <trkpt lat="42.50039" lon="2.74221">
        <ele>166.4</ele>
        <time>2019-12-24T19:42:15Z</time>
      </trkpt>
      <trkpt lat="42.50032" lon="2.74227">
        <ele>166.5</ele>
        <time>2019-12-24T19:42:16Z</time>
      </trkpt>
      <trkpt lat="42.50027" lon="2.74232">
        <ele>166.6</ele>
        <time>2019-12-24T19:42:17Z</time>
      </trkpt>
      <trkpt lat="42.50021" lon="2.74237">
        <ele>166.8</ele>
        <time>2019-12-24T19:42:19Z</time>
      </trkpt>
      <trkpt lat="42.50013" lon="2.74242">
        <ele>167</ele>
        <time>2019-12-24T19:42:20Z</time>
      </trkpt>
      <trkpt lat="42.50006" lon="2.74245">
        <ele>167.3</ele>
        <time>2019-12-24T19:42:22Z</time>
      </trkpt>
      <trkpt lat="42.49997" lon="2.74246">
        <ele>166.1</ele>
        <time>2019-12-24T19:42:26Z</time>
      </trkpt>
      <trkpt lat="42.49986" lon="2.74248">
        <ele>163.6</ele>
        <time>2019-12-24T19:42:28Z</time>
      </trkpt>
      <trkpt lat="42.49976" lon="2.74249">
        <ele>161.9</ele>
        <time>2019-12-24T19:42:29Z</time>
      </trkpt>
      <trkpt lat="42.49964" lon="2.7425">
        <ele>168.6</ele>
        <time>2019-12-24T19:42:30Z</time>
      </trkpt>
      <trkpt lat="42.49955" lon="2.74252">
        <ele>168</ele>
        <time>2019-12-24T19:42:31Z</time>
      </trkpt>
      <trkpt lat="42.49943" lon="2.74255">
        <ele>166.7</ele>
        <time>2019-12-24T19:42:32Z</time>
      </trkpt>
      <trkpt lat="42.49932" lon="2.74258">
        <ele>165.2</ele>
        <time>2019-12-24T19:42:35Z</time>
      </trkpt>
      <trkpt lat="42.49924" lon="2.7426">
        <ele>164.1</ele>
        <time>2019-12-24T19:42:36Z</time>
      </trkpt>
      <trkpt lat="42.49916" lon="2.74262">
        <ele>159.9</ele>
        <time>2019-12-24T19:42:38Z</time>
      </trkpt>
      <trkpt lat="42.49904" lon="2.74264">
        <ele>159.7</ele>
        <time>2019-12-24T19:42:39Z</time>
      </trkpt>
      <trkpt lat="42.49875" lon="2.74271">
        <ele>158.3</ele>
        <time>2019-12-24T19:42:41Z</time>
      </trkpt>
      <trkpt lat="42.49823" lon="2.74284">
        <ele>150.9</ele>
        <time>2019-12-24T19:42:42Z</time>
      </trkpt>
      <trkpt lat="42.4979" lon="2.74293">
        <ele>150.2</ele>
        <time>2019-12-24T19:42:43Z</time>
      </trkpt>
      <trkpt lat="42.49779" lon="2.74296">
        <ele>149.8</ele>
        <time>2019-12-24T19:42:44Z</time>
      </trkpt>
      <trkpt lat="42.49774" lon="2.74298">
        <ele>149.6</ele>
        <time>2019-12-24T19:42:45Z</time>
      </trkpt>
      <trkpt lat="42.4977" lon="2.74301">
        <ele>149.5</ele>
        <time>2019-12-24T19:42:47Z</time>
      </trkpt>
      <trkpt lat="42.49767" lon="2.74305">
        <ele>149.4</ele>
        <time>2019-12-24T19:42:49Z</time>
      </trkpt>
      <trkpt lat="42.49763" lon="2.74309">
        <ele>149.2</ele>
        <time>2019-12-24T19:42:50Z</time>
      </trkpt>
      <trkpt lat="42.49759" lon="2.74313">
        <ele>148.9</ele>
        <time>2019-12-24T19:42:52Z</time>
      </trkpt>
      <trkpt lat="42.49754" lon="2.74319">
        <ele>148.5</ele>
        <time>2019-12-24T19:42:53Z</time>
      </trkpt>
      <trkpt lat="42.49747" lon="2.74326">
        <ele>146</ele>
        <time>2019-12-24T19:42:55Z</time>
      </trkpt>
      <trkpt lat="42.49739" lon="2.74333">
        <ele>145.7</ele>
        <time>2019-12-24T19:42:56Z</time>
      </trkpt>
      <trkpt lat="42.49731" lon="2.74341">
        <ele>145.6</ele>
        <time>2019-12-24T19:43:00Z</time>
      </trkpt>
      <trkpt lat="42.49718" lon="2.74351">
        <ele>144.9</ele>
        <time>2019-12-24T19:43:02Z</time>
      </trkpt>
      <trkpt lat="42.49713" lon="2.74355">
        <ele>144.8</ele>
        <time>2019-12-24T19:43:05Z</time>
      </trkpt>
      <trkpt lat="42.49707" lon="2.74358">
        <ele>144.6</ele>
        <time>2019-12-24T19:43:10Z</time>
      </trkpt>
      <trkpt lat="42.49702" lon="2.7436">
        <ele>144.4</ele>
        <time>2019-12-24T19:43:11Z</time>
      </trkpt>
      <trkpt lat="42.49698" lon="2.74361">
        <ele>144.3</ele>
        <time>2019-12-24T19:43:13Z</time>
      </trkpt>
      <trkpt lat="42.49689" lon="2.74364">
        <ele>144</ele>
        <time>2019-12-24T19:43:17Z</time>
      </trkpt>
      <trkpt lat="42.49685" lon="2.74366">
        <ele>144</ele>
        <time>2019-12-24T19:43:20Z</time>
      </trkpt>
      <trkpt lat="42.49682" lon="2.74368">
        <ele>143.9</ele>
        <time>2019-12-24T19:43:23Z</time>
      </trkpt>
      <trkpt lat="42.49679" lon="2.7437">
        <ele>143.9</ele>
        <time>2019-12-24T19:43:26Z</time>
      </trkpt>
      <trkpt lat="42.49677" lon="2.74373">
        <ele>144</ele>
        <time>2019-12-24T19:43:27Z</time>
      </trkpt>
      <trkpt lat="42.49675" lon="2.74375">
        <ele>144</ele>
        <time>2019-12-24T19:43:28Z</time>
      </trkpt>
      <trkpt lat="42.49673" lon="2.74378">
        <ele>144</ele>
        <time>2019-12-24T19:43:29Z</time>
      </trkpt>
      <trkpt lat="42.49672" lon="2.7438">
        <ele>144.1</ele>
        <time>2019-12-24T19:43:30Z</time>
      </trkpt>
      <trkpt lat="42.4967" lon="2.74384">
        <ele>144.1</ele>
        <time>2019-12-24T19:43:32Z</time>
      </trkpt>
      <trkpt lat="42.49668" lon="2.74388">
        <ele>144.1</ele>
        <time>2019-12-24T19:43:33Z</time>
      </trkpt>
      <trkpt lat="42.49664" lon="2.74394">
        <ele>139.9</ele>
        <time>2019-12-24T19:43:34Z</time>
      </trkpt>
      <trkpt lat="42.4966" lon="2.744">
        <ele>140.3</ele>
        <time>2019-12-24T19:43:36Z</time>
      </trkpt>
      <trkpt lat="42.49658" lon="2.74401">
        <ele>140.3</ele>
        <time>2019-12-24T19:43:37Z</time>
      </trkpt>
      <trkpt lat="42.49654" lon="2.74408">
        <ele>140.5</ele>
        <time>2019-12-24T19:43:39Z</time>
      </trkpt>
      <trkpt lat="42.49643" lon="2.74425">
        <ele>140.1</ele>
        <time>2019-12-24T19:43:40Z</time>
      </trkpt>
      <trkpt lat="42.49637" lon="2.74433">
        <ele>139.4</ele>
        <time>2019-12-24T19:43:41Z</time>
      </trkpt>
      <trkpt lat="42.49632" lon="2.7444">
        <ele>138.9</ele>
        <time>2019-12-24T19:43:42Z</time>
      </trkpt>
      <trkpt lat="42.49628" lon="2.74446">
        <ele>138.7</ele>
        <time>2019-12-24T19:43:42Z</time>
      </trkpt>
      <trkpt lat="42.49625" lon="2.7445">
        <ele>138.5</ele>
        <time>2019-12-24T19:43:43Z</time>
      </trkpt>
      <trkpt lat="42.49621" lon="2.74455">
        <ele>138.4</ele>
        <time>2019-12-24T19:43:43Z</time>
      </trkpt>
      <trkpt lat="42.49618" lon="2.74456">
        <ele>138.2</ele>
        <time>2019-12-24T19:43:45Z</time>
      </trkpt>
      <trkpt lat="42.49617" lon="2.74456">
        <ele>138.1</ele>
        <time>2019-12-24T19:43:45Z</time>
      </trkpt>
      <trkpt lat="42.49616" lon="2.74457">
        <ele>138.1</ele>
        <time>2019-12-24T19:43:46Z</time>
      </trkpt>
      <trkpt lat="42.49611" lon="2.74458">
        <ele>137.8</ele>
        <time>2019-12-24T19:43:47Z</time>
      </trkpt>
      <trkpt lat="42.49606" lon="2.74461">
        <ele>137.6</ele>
        <time>2019-12-24T19:43:49Z</time>
      </trkpt>
      <trkpt lat="42.49601" lon="2.74463">
        <ele>137.5</ele>
        <time>2019-12-24T19:43:51Z</time>
      </trkpt>
      <trkpt lat="42.49538" lon="2.74354">
        <ele>137</ele>
        <time>2019-12-24T19:43:53Z</time>
      </trkpt>
      <trkpt lat="42.49483" lon="2.74257">
        <ele>147.1</ele>
        <time>2019-12-24T19:44:00Z</time>
      </trkpt>
      <trkpt lat="42.49453" lon="2.74221">
        <ele>147.3</ele>
        <time>2019-12-24T19:44:10Z</time>
      </trkpt>
      <trkpt lat="42.49459" lon="2.74187">
        <ele>147.2</ele>
        <time>2019-12-24T19:44:14Z</time>
      </trkpt>
      <trkpt lat="42.4946" lon="2.74184">
        <ele>147.2</ele>
        <time>2019-12-24T19:44:23Z</time>
      </trkpt>
      <trkpt lat="42.49464" lon="2.7416">
        <ele>147.1</ele>
        <time>2019-12-24T19:44:25Z</time>
      </trkpt>
      <trkpt lat="42.49467" lon="2.74136">
        <ele>147.1</ele>
        <time>2019-12-24T19:44:26Z</time>
      </trkpt>
      <trkpt lat="42.49473" lon="2.74088">
        <ele>147</ele>
        <time>2019-12-24T19:44:27Z</time>
      </trkpt>
      <trkpt lat="42.49475" lon="2.74064">
        <ele>147.7</ele>
        <time>2019-12-24T19:44:28Z</time>
      </trkpt>
      <trkpt lat="42.49477" lon="2.74032">
        <ele>148.1</ele>
        <time>2019-12-24T19:44:29Z</time>
      </trkpt>
      <trkpt lat="42.49477" lon="2.7403">
        <ele>148.1</ele>
        <time>2019-12-24T19:44:30Z</time>
      </trkpt>
      <trkpt lat="42.49477" lon="2.74016">
        <ele>148.2</ele>
        <time>2019-12-24T19:44:33Z</time>
      </trkpt>
      <trkpt lat="42.49477" lon="2.74013">
        <ele>148.2</ele>
        <time>2019-12-24T19:44:34Z</time>
      </trkpt>
      <trkpt lat="42.49477" lon="2.73996">
        <ele>149.2</ele>
        <time>2019-12-24T19:44:36Z</time>
      </trkpt>
      <trkpt lat="42.49477" lon="2.73975">
        <ele>149.6</ele>
        <time>2019-12-24T19:44:39Z</time>
      </trkpt>
      <trkpt lat="42.49476" lon="2.73935">
        <ele>150.3</ele>
        <time>2019-12-24T19:44:43Z</time>
      </trkpt>
      <trkpt lat="42.49476" lon="2.73915">
        <ele>151.5</ele>
        <time>2019-12-24T19:44:45Z</time>
      </trkpt>
      <trkpt lat="42.49475" lon="2.73847">
        <ele>152.1</ele>
        <time>2019-12-24T19:44:45Z</time>
      </trkpt>
      <trkpt lat="42.49474" lon="2.73833">
        <ele>152.7</ele>
        <time>2019-12-24T19:44:48Z</time>
      </trkpt>
      <trkpt lat="42.49472" lon="2.73743">
        <ele>153</ele>
        <time>2019-12-24T19:44:49Z</time>
      </trkpt>
      <trkpt lat="42.4947" lon="2.73655">
        <ele>152.9</ele>
        <time>2019-12-24T19:44:51Z</time>
      </trkpt>
      <trkpt lat="42.4947" lon="2.73651">
        <ele>152.9</ele>
        <time>2019-12-24T19:44:53Z</time>
      </trkpt>
      <trkpt lat="42.49468" lon="2.73578">
        <ele>154.2</ele>
        <time>2019-12-24T19:44:55Z</time>
      </trkpt>
      <trkpt lat="42.49468" lon="2.73552">
        <ele>154.7</ele>
        <time>2019-12-24T19:44:57Z</time>
      </trkpt>
      <trkpt lat="42.49468" lon="2.73537">
        <ele>154.9</ele>
        <time>2019-12-24T19:44:59Z</time>
      </trkpt>
      <trkpt lat="42.49472" lon="2.73503">
        <ele>154.9</ele>
        <time>2019-12-24T19:45:00Z</time>
      </trkpt>
      <trkpt lat="42.4948" lon="2.7343">
        <ele>155.4</ele>
        <time>2019-12-24T19:45:02Z</time>
      </trkpt>
      <trkpt lat="42.49486" lon="2.73378">
        <ele>155.8</ele>
        <time>2019-12-24T19:45:03Z</time>
      </trkpt>
      <trkpt lat="42.49497" lon="2.73289">
        <ele>155.4</ele>
        <time>2019-12-24T19:45:05Z</time>
      </trkpt>
      <trkpt lat="42.49501" lon="2.73262">
        <ele>151.9</ele>
        <time>2019-12-24T19:45:12Z</time>
      </trkpt>
      <trkpt lat="42.49503" lon="2.73248">
        <ele>153.4</ele>
        <time>2019-12-24T19:45:22Z</time>
      </trkpt>
      <trkpt lat="42.49506" lon="2.73218">
        <ele>151.2</ele>
        <time>2019-12-24T19:45:26Z</time>
      </trkpt>
      <trkpt lat="42.4951" lon="2.73177">
        <ele>151.7</ele>
        <time>2019-12-24T19:45:31Z</time>
      </trkpt>
      <trkpt lat="42.49514" lon="2.73145">
        <ele>151.3</ele>
        <time>2019-12-24T19:45:34Z</time>
      </trkpt>
      <trkpt lat="42.49523" lon="2.73093">
        <ele>151.1</ele>
        <time>2019-12-24T19:45:45Z</time>
      </trkpt>
      <trkpt lat="42.49523" lon="2.73084">
        <ele>151.2</ele>
        <time>2019-12-24T19:45:51Z</time>
      </trkpt>
      <trkpt lat="42.49525" lon="2.73073">
        <ele>151.3</ele>
        <time>2019-12-24T19:45:57Z</time>
      </trkpt>
      <trkpt lat="42.49526" lon="2.73064">
        <ele>151.3</ele>
        <time>2019-12-24T19:45:59Z</time>
      </trkpt>
      <trkpt lat="42.4953" lon="2.73048">
        <ele>151.1</ele>
        <time>2019-12-24T19:46:02Z</time>
      </trkpt>
      <trkpt lat="42.49532" lon="2.73036">
        <ele>151.2</ele>
        <time>2019-12-24T19:46:03Z</time>
      </trkpt>
      <trkpt lat="42.49533" lon="2.73027">
        <ele>151.3</ele>
        <time>2019-12-24T19:46:05Z</time>
      </trkpt>
      <trkpt lat="42.49534" lon="2.73014">
        <ele>151.4</ele>
        <time>2019-12-24T19:46:06Z</time>
      </trkpt>
      <trkpt lat="42.49534" lon="2.72997">
        <ele>152.3</ele>
        <time>2019-12-24T19:46:08Z</time>
      </trkpt>
      <trkpt lat="42.49533" lon="2.72968">
        <ele>152.3</ele>
        <time>2019-12-24T19:46:10Z</time>
      </trkpt>
      <trkpt lat="42.49532" lon="2.72949">
        <ele>152.5</ele>
        <time>2019-12-24T19:46:11Z</time>
      </trkpt>
      <trkpt lat="42.4953" lon="2.72925">
        <ele>152.9</ele>
        <time>2019-12-24T19:46:13Z</time>
      </trkpt>
      <trkpt lat="42.49526" lon="2.72898">
        <ele>153.7</ele>
        <time>2019-12-24T19:46:14Z</time>
      </trkpt>
      <trkpt lat="42.49519" lon="2.72843">
        <ele>154.6</ele>
        <time>2019-12-24T19:46:15Z</time>
      </trkpt>
      <trkpt lat="42.49514" lon="2.72795">
        <ele>154.7</ele>
        <time>2019-12-24T19:46:17Z</time>
      </trkpt>
      <trkpt lat="42.49511" lon="2.72772">
        <ele>155.3</ele>
        <time>2019-12-24T19:46:18Z</time>
      </trkpt>
      <trkpt lat="42.49509" lon="2.72749">
        <ele>156.3</ele>
        <time>2019-12-24T19:46:20Z</time>
      </trkpt>
      <trkpt lat="42.49507" lon="2.72723">
        <ele>154.7</ele>
        <time>2019-12-24T19:46:22Z</time>
      </trkpt>
      <trkpt lat="42.49506" lon="2.72708">
        <ele>154.3</ele>
        <time>2019-12-24T19:46:24Z</time>
      </trkpt>
      <trkpt lat="42.49503" lon="2.72694">
        <ele>154.5</ele>
        <time>2019-12-24T19:46:26Z</time>
      </trkpt>
      <trkpt lat="42.495" lon="2.72676">
        <ele>159.5</ele>
        <time>2019-12-24T19:46:28Z</time>
      </trkpt>
      <trkpt lat="42.49495" lon="2.72656">
        <ele>159.4</ele>
        <time>2019-12-24T19:46:29Z</time>
      </trkpt>
      <trkpt lat="42.49491" lon="2.72646">
        <ele>160.6</ele>
        <time>2019-12-24T19:46:31Z</time>
      </trkpt>
      <trkpt lat="42.49488" lon="2.72637">
        <ele>161.1</ele>
        <time>2019-12-24T19:46:31Z</time>
      </trkpt>
      <trkpt lat="42.49482" lon="2.72624">
        <ele>161.4</ele>
        <time>2019-12-24T19:46:35Z</time>
      </trkpt>
      <trkpt lat="42.49475" lon="2.72612">
        <ele>161.4</ele>
        <time>2019-12-24T19:46:39Z</time>
      </trkpt>
      <trkpt lat="42.49471" lon="2.72605">
        <ele>161.5</ele>
        <time>2019-12-24T19:46:42Z</time>
      </trkpt>
      <trkpt lat="42.49464" lon="2.72593">
        <ele>161.8</ele>
        <time>2019-12-24T19:46:45Z</time>
      </trkpt>
      <trkpt lat="42.4946" lon="2.72584">
        <ele>162.2</ele>
        <time>2019-12-24T19:46:47Z</time>
      </trkpt>
      <trkpt lat="42.49458" lon="2.72577">
        <ele>159.4</ele>
        <time>2019-12-24T19:46:49Z</time>
      </trkpt>
      <trkpt lat="42.49456" lon="2.72572">
        <ele>159.5</ele>
        <time>2019-12-24T19:46:56Z</time>
      </trkpt>
      <trkpt lat="42.49454" lon="2.72566">
        <ele>159.6</ele>
        <time>2019-12-24T19:47:05Z</time>
      </trkpt>
      <trkpt lat="42.49452" lon="2.72561">
        <ele>159.7</ele>
        <time>2019-12-24T19:47:14Z</time>
      </trkpt>
      <trkpt lat="42.49451" lon="2.72554">
        <ele>159.5</ele>
        <time>2019-12-24T19:47:20Z</time>
      </trkpt>
      <trkpt lat="42.4945" lon="2.72546">
        <ele>159.3</ele>
        <time>2019-12-24T19:47:22Z</time>
      </trkpt>
      <trkpt lat="42.49449" lon="2.72539">
        <ele>159.2</ele>
        <time>2019-12-24T19:47:22Z</time>
      </trkpt>
      <trkpt lat="42.4945" lon="2.72538">
        <ele>159.1</ele>
        <time>2019-12-24T19:47:23Z</time>
      </trkpt>
      <trkpt lat="42.4945" lon="2.72537">
        <ele>159.1</ele>
        <time>2019-12-24T19:47:28Z</time>
      </trkpt>
      <trkpt lat="42.49451" lon="2.72536">
        <ele>159</ele>
        <time>2019-12-24T19:47:32Z</time>
      </trkpt>
      <trkpt lat="42.49451" lon="2.72535">
        <ele>159</ele>
        <time>2019-12-24T19:47:33Z</time>
      </trkpt>
      <trkpt lat="42.49451" lon="2.72534">
        <ele>159</ele>
        <time>2019-12-24T19:47:33Z</time>
      </trkpt>
      <trkpt lat="42.49451" lon="2.72533">
        <ele>158.9</ele>
        <time>2019-12-24T19:47:35Z</time>
      </trkpt>
      <trkpt lat="42.49451" lon="2.72532">
        <ele>158.9</ele>
        <time>2019-12-24T19:47:40Z</time>
      </trkpt>
      <trkpt lat="42.49451" lon="2.72531">
        <ele>158.9</ele>
        <time>2019-12-24T19:47:41Z</time>
      </trkpt>
      <trkpt lat="42.49451" lon="2.7253">
        <ele>158.9</ele>
        <time>2019-12-24T19:47:42Z</time>
      </trkpt>
      <trkpt lat="42.49451" lon="2.72529">
        <ele>158.9</ele>
        <time>2019-12-24T19:47:43Z</time>
      </trkpt>
      <trkpt lat="42.49451" lon="2.72528">
        <ele>158.8</ele>
        <time>2019-12-24T19:47:45Z</time>
      </trkpt>
      <trkpt lat="42.49451" lon="2.72527">
        <ele>158.8</ele>
        <time>2019-12-24T19:47:48Z</time>
      </trkpt>
      <trkpt lat="42.49451" lon="2.72526">
        <ele>158.8</ele>
        <time>2019-12-24T19:47:50Z</time>
      </trkpt>
      <trkpt lat="42.4945" lon="2.72525">
        <ele>158.8</ele>
        <time>2019-12-24T19:47:53Z</time>
      </trkpt>
      <trkpt lat="42.4945" lon="2.72524">
        <ele>158.8</ele>
        <time>2019-12-24T19:47:55Z</time>
      </trkpt>
      <trkpt lat="42.49449" lon="2.72523">
        <ele>158.8</ele>
        <time>2019-12-24T19:47:58Z</time>
      </trkpt>
      <trkpt lat="42.49449" lon="2.72522">
        <ele>158.8</ele>
        <time>2019-12-24T19:48:02Z</time>
      </trkpt>
      <trkpt lat="42.49448" lon="2.72522">
        <ele>158.9</ele>
        <time>2019-12-24T19:48:07Z</time>
      </trkpt>
      <trkpt lat="42.49448" lon="2.72521">
        <ele>158.9</ele>
        <time>2019-12-24T19:48:12Z</time>
      </trkpt>
      <trkpt lat="42.49447" lon="2.72521">
        <ele>158.9</ele>
        <time>2019-12-24T19:48:15Z</time>
      </trkpt>
      <trkpt lat="42.49447" lon="2.7252">
        <ele>158.9</ele>
        <time>2019-12-24T19:48:19Z</time>
      </trkpt>
      <trkpt lat="42.49446" lon="2.7252">
        <ele>158.9</ele>
        <time>2019-12-24T19:48:28Z</time>
      </trkpt>
      <trkpt lat="42.49445" lon="2.72519">
        <ele>159</ele>
        <time>2019-12-24T19:48:41Z</time>
      </trkpt>
      <trkpt lat="42.49444" lon="2.72519">
        <ele>159</ele>
        <time>2019-12-24T19:48:50Z</time>
      </trkpt>
      <trkpt lat="42.49443" lon="2.72519">
        <ele>159.1</ele>
        <time>2019-12-24T19:48:58Z</time>
      </trkpt>
      <trkpt lat="42.49441" lon="2.72515">
        <ele>159.1</ele>
        <time>2019-12-24T19:49:06Z</time>
      </trkpt>
      <trkpt lat="42.49439" lon="2.72512">
        <ele>159.2</ele>
        <time>2019-12-24T19:49:07Z</time>
      </trkpt>
      <trkpt lat="42.49437" lon="2.72508">
        <ele>159.2</ele>
        <time>2019-12-24T19:49:10Z</time>
      </trkpt>
      <trkpt lat="42.49436" lon="2.72505">
        <ele>159.2</ele>
        <time>2019-12-24T19:49:12Z</time>
      </trkpt>
      <trkpt lat="42.49435" lon="2.72502">
        <ele>159.3</ele>
        <time>2019-12-24T19:49:19Z</time>
      </trkpt>
      <trkpt lat="42.49434" lon="2.72496">
        <ele>157.9</ele>
        <time>2019-12-24T19:49:23Z</time>
      </trkpt>
      <trkpt lat="42.49431" lon="2.7249">
        <ele>157.9</ele>
        <time>2019-12-24T19:49:25Z</time>
      </trkpt>
      <trkpt lat="42.49431" lon="2.72478">
        <ele>157.4</ele>
        <time>2019-12-24T19:49:26Z</time>
      </trkpt>
      <trkpt lat="42.49431" lon="2.72462">
        <ele>156.8</ele>
        <time>2019-12-24T19:49:29Z</time>
      </trkpt>
      <trkpt lat="42.4943" lon="2.72434">
        <ele>156.5</ele>
        <time>2019-12-24T19:49:30Z</time>
      </trkpt>
      <trkpt lat="42.49428" lon="2.72414">
        <ele>156.2</ele>
        <time>2019-12-24T19:49:34Z</time>
      </trkpt>
      <trkpt lat="42.49426" lon="2.72401">
        <ele>156</ele>
        <time>2019-12-24T19:49:36Z</time>
      </trkpt>
      <trkpt lat="42.49424" lon="2.72394">
        <ele>155.9</ele>
        <time>2019-12-24T19:49:38Z</time>
      </trkpt>
      <trkpt lat="42.49422" lon="2.72385">
        <ele>155.8</ele>
        <time>2019-12-24T19:49:40Z</time>
      </trkpt>
      <trkpt lat="42.4942" lon="2.72375">
        <ele>155.7</ele>
        <time>2019-12-24T19:49:42Z</time>
      </trkpt>
      <trkpt lat="42.49417" lon="2.72365">
        <ele>155.8</ele>
        <time>2019-12-24T19:49:44Z</time>
      </trkpt>
      <trkpt lat="42.49415" lon="2.72357">
        <ele>159.7</ele>
        <time>2019-12-24T19:49:47Z</time>
      </trkpt>
      <trkpt lat="42.49411" lon="2.72345">
        <ele>158.9</ele>
        <time>2019-12-24T19:49:51Z</time>
      </trkpt>
      <trkpt lat="42.49407" lon="2.72335">
        <ele>158.6</ele>
        <time>2019-12-24T19:49:56Z</time>
      </trkpt>
      <trkpt lat="42.49399" lon="2.72305">
        <ele>159.8</ele>
        <time>2019-12-24T19:49:59Z</time>
      </trkpt>
      <trkpt lat="42.49396" lon="2.72291">
        <ele>159.9</ele>
        <time>2019-12-24T19:50:03Z</time>
      </trkpt>
      <trkpt lat="42.49396" lon="2.72284">
        <ele>159.7</ele>
        <time>2019-12-24T19:50:05Z</time>
      </trkpt>
      <trkpt lat="42.49395" lon="2.72274">
        <ele>159.4</ele>
        <time>2019-12-24T19:50:09Z</time>
      </trkpt>
      <trkpt lat="42.49396" lon="2.72265">
        <ele>158.9</ele>
        <time>2019-12-24T19:50:15Z</time>
      </trkpt>
      <trkpt lat="42.49397" lon="2.72256">
        <ele>158.3</ele>
        <time>2019-12-24T19:50:19Z</time>
      </trkpt>
      <trkpt lat="42.49399" lon="2.7224">
        <ele>159.4</ele>
        <time>2019-12-24T19:50:21Z</time>
      </trkpt>
      <trkpt lat="42.494" lon="2.72228">
        <ele>160.4</ele>
        <time>2019-12-24T19:50:23Z</time>
      </trkpt>
      <trkpt lat="42.49401" lon="2.72213">
        <ele>161.2</ele>
        <time>2019-12-24T19:50:24Z</time>
      </trkpt>
      <trkpt lat="42.49401" lon="2.72204">
        <ele>161.4</ele>
        <time>2019-12-24T19:50:25Z</time>
      </trkpt>
      <trkpt lat="42.49401" lon="2.72195">
        <ele>161.2</ele>
        <time>2019-12-24T19:50:26Z</time>
      </trkpt>
      <trkpt lat="42.494" lon="2.72186">
        <ele>160.9</ele>
        <time>2019-12-24T19:50:27Z</time>
      </trkpt>
      <trkpt lat="42.49399" lon="2.72179">
        <ele>160.6</ele>
        <time>2019-12-24T19:50:28Z</time>
      </trkpt>
      <trkpt lat="42.49398" lon="2.72171">
        <ele>160.4</ele>
        <time>2019-12-24T19:50:28Z</time>
      </trkpt>
      <trkpt lat="42.49396" lon="2.72162">
        <ele>164.3</ele>
        <time>2019-12-24T19:50:29Z</time>
      </trkpt>
      <trkpt lat="42.49393" lon="2.72146">
        <ele>166.5</ele>
        <time>2019-12-24T19:50:30Z</time>
      </trkpt>
      <trkpt lat="42.49391" lon="2.72134">
        <ele>167.8</ele>
        <time>2019-12-24T19:50:35Z</time>
      </trkpt>
      <trkpt lat="42.4939" lon="2.72122">
        <ele>168.5</ele>
        <time>2019-12-24T19:50:41Z</time>
      </trkpt>
      <trkpt lat="42.4939" lon="2.72112">
        <ele>168.5</ele>
        <time>2019-12-24T19:50:44Z</time>
      </trkpt>
      <trkpt lat="42.4939" lon="2.72102">
        <ele>168.2</ele>
        <time>2019-12-24T19:50:47Z</time>
      </trkpt>
      <trkpt lat="42.4939" lon="2.72089">
        <ele>167.6</ele>
        <time>2019-12-24T19:50:55Z</time>
      </trkpt>
      <trkpt lat="42.49392" lon="2.72076">
        <ele>172.9</ele>
        <time>2019-12-24T19:50:59Z</time>
      </trkpt>
      <trkpt lat="42.49394" lon="2.72051">
        <ele>176.2</ele>
        <time>2019-12-24T19:51:05Z</time>
      </trkpt>
      <trkpt lat="42.49396" lon="2.72032">
        <ele>177.1</ele>
        <time>2019-12-24T19:51:11Z</time>
      </trkpt>
      <trkpt lat="42.49399" lon="2.7201">
        <ele>174.8</ele>
        <time>2019-12-24T19:51:14Z</time>
      </trkpt>
      <trkpt lat="42.49406" lon="2.71976">
        <ele>183</ele>
        <time>2019-12-24T19:51:17Z</time>
      </trkpt>
      <trkpt lat="42.49408" lon="2.71968">
        <ele>184.8</ele>
        <time>2019-12-24T19:51:21Z</time>
      </trkpt>
      <trkpt lat="42.49411" lon="2.71956">
        <ele>186.3</ele>
        <time>2019-12-24T19:51:24Z</time>
      </trkpt>
      <trkpt lat="42.4942" lon="2.71926">
        <ele>172.1</ele>
        <time>2019-12-24T19:51:27Z</time>
      </trkpt>
      <trkpt lat="42.49427" lon="2.71902">
        <ele>172.3</ele>
        <time>2019-12-24T19:51:31Z</time>
      </trkpt>
      <trkpt lat="42.49435" lon="2.71881">
        <ele>169.8</ele>
        <time>2019-12-24T19:51:34Z</time>
      </trkpt>
      <trkpt lat="42.4944" lon="2.71864">
        <ele>169.8</ele>
        <time>2019-12-24T19:51:35Z</time>
      </trkpt>
      <trkpt lat="42.49443" lon="2.71856">
        <ele>169.8</ele>
        <time>2019-12-24T19:51:39Z</time>
      </trkpt>
      <trkpt lat="42.49444" lon="2.71849">
        <ele>170.1</ele>
        <time>2019-12-24T19:51:47Z</time>
      </trkpt>
      <trkpt lat="42.49445" lon="2.71842">
        <ele>170.3</ele>
        <time>2019-12-24T19:51:52Z</time>
      </trkpt>
      <trkpt lat="42.49446" lon="2.7183">
        <ele>167.6</ele>
        <time>2019-12-24T19:51:55Z</time>
      </trkpt>
      <trkpt lat="42.49446" lon="2.71819">
        <ele>166.7</ele>
        <time>2019-12-24T19:51:58Z</time>
      </trkpt>
      <trkpt lat="42.49447" lon="2.7181">
        <ele>165.4</ele>
        <time>2019-12-24T19:52:03Z</time>
      </trkpt>
      <trkpt lat="42.49447" lon="2.718">
        <ele>164.3</ele>
        <time>2019-12-24T19:52:11Z</time>
      </trkpt>
      <trkpt lat="42.49446" lon="2.71789">
        <ele>163.4</ele>
        <time>2019-12-24T19:52:12Z</time>
      </trkpt>
      <trkpt lat="42.49444" lon="2.71776">
        <ele>162.7</ele>
        <time>2019-12-24T19:52:17Z</time>
      </trkpt>
      <trkpt lat="42.4944" lon="2.71766">
        <ele>162.6</ele>
        <time>2019-12-24T19:52:18Z</time>
      </trkpt>
      <trkpt lat="42.49436" lon="2.71758">
        <ele>162.7</ele>
        <time>2019-12-24T19:52:20Z</time>
      </trkpt>
      <trkpt lat="42.49433" lon="2.71753">
        <ele>162.9</ele>
        <time>2019-12-24T19:52:26Z</time>
      </trkpt>
      <trkpt lat="42.49432" lon="2.7175">
        <ele>160.4</ele>
        <time>2019-12-24T19:52:30Z</time>
      </trkpt>
      <trkpt lat="42.49431" lon="2.71746">
        <ele>160.5</ele>
        <time>2019-12-24T19:52:32Z</time>
      </trkpt>
      <trkpt lat="42.49429" lon="2.7174">
        <ele>160.4</ele>
        <time>2019-12-24T19:52:36Z</time>
      </trkpt>
      <trkpt lat="42.49429" lon="2.71736">
        <ele>160</ele>
        <time>2019-12-24T19:52:38Z</time>
      </trkpt>
      <trkpt lat="42.4943" lon="2.71727">
        <ele>159.2</ele>
        <time>2019-12-24T19:52:38Z</time>
      </trkpt>
      <trkpt lat="42.4943" lon="2.71722">
        <ele>158.9</ele>
        <time>2019-12-24T19:52:39Z</time>
      </trkpt>
      <trkpt lat="42.49431" lon="2.71717">
        <ele>158.6</ele>
        <time>2019-12-24T19:52:39Z</time>
      </trkpt>
      <trkpt lat="42.49435" lon="2.71707">
        <ele>158.2</ele>
        <time>2019-12-24T19:52:39Z</time>
      </trkpt>
      <trkpt lat="42.49438" lon="2.71695">
        <ele>158</ele>
        <time>2019-12-24T19:52:39Z</time>
      </trkpt>
      <trkpt lat="42.49442" lon="2.71684">
        <ele>158</ele>
        <time>2019-12-24T19:52:39Z</time>
      </trkpt>
      <trkpt lat="42.49446" lon="2.71664">
        <ele>159.2</ele>
        <time>2019-12-24T19:52:39Z</time>
      </trkpt>
      <trkpt lat="42.49455" lon="2.71618">
        <ele>159.5</ele>
        <time>2019-12-24T19:52:39Z</time>
      </trkpt>
      <trkpt lat="42.49472" lon="2.71541">
        <ele>162.6</ele>
        <time>2019-12-24T19:52:40Z</time>
      </trkpt>
      <trkpt lat="42.49477" lon="2.71517">
        <ele>162.5</ele>
        <time>2019-12-24T19:52:40Z</time>
      </trkpt>
      <trkpt lat="42.49491" lon="2.71448">
        <ele>166</ele>
        <time>2019-12-24T19:52:40Z</time>
      </trkpt>
      <trkpt lat="42.49494" lon="2.71433">
        <ele>165.9</ele>
        <time>2019-12-24T19:52:40Z</time>
      </trkpt>
      <trkpt lat="42.49495" lon="2.71424">
        <ele>165.6</ele>
        <time>2019-12-24T19:52:40Z</time>
      </trkpt>
      <trkpt lat="42.49496" lon="2.71418">
        <ele>165.3</ele>
        <time>2019-12-24T19:52:40Z</time>
      </trkpt>
      <trkpt lat="42.49496" lon="2.71412">
        <ele>166</ele>
        <time>2019-12-24T19:52:40Z</time>
      </trkpt>
      <trkpt lat="42.49496" lon="2.71403">
        <ele>166.9</ele>
        <time>2019-12-24T19:52:41Z</time>
      </trkpt>
      <trkpt lat="42.49496" lon="2.71394">
        <ele>167.5</ele>
        <time>2019-12-24T19:52:41Z</time>
      </trkpt>
      <trkpt lat="42.49495" lon="2.71375">
        <ele>168.1</ele>
        <time>2019-12-24T19:52:44Z</time>
      </trkpt>
      <trkpt lat="42.49493" lon="2.71361">
        <ele>168</ele>
        <time>2019-12-24T19:52:46Z</time>
      </trkpt>
      <trkpt lat="42.49493" lon="2.71352">
        <ele>167.8</ele>
        <time>2019-12-24T19:52:48Z</time>
      </trkpt>
      <trkpt lat="42.49491" lon="2.71328">
        <ele>167.4</ele>
        <time>2019-12-24T19:52:49Z</time>
      </trkpt>
      <trkpt lat="42.49488" lon="2.71295">
        <ele>168.8</ele>
        <time>2019-12-24T19:52:55Z</time>
      </trkpt>
      <trkpt lat="42.49487" lon="2.71285">
        <ele>168.7</ele>
        <time>2019-12-24T19:53:03Z</time>
      </trkpt>
      <trkpt lat="42.49486" lon="2.71282">
        <ele>168.7</ele>
        <time>2019-12-24T19:53:10Z</time>
      </trkpt>
      <trkpt lat="42.49485" lon="2.71261">
        <ele>167.9</ele>
        <time>2019-12-24T19:53:15Z</time>
      </trkpt>
      <trkpt lat="42.49483" lon="2.71249">
        <ele>168</ele>
        <time>2019-12-24T19:53:16Z</time>
      </trkpt>
      <trkpt lat="42.49482" lon="2.71234">
        <ele>168.6</ele>
        <time>2019-12-24T19:53:16Z</time>
      </trkpt>
      <trkpt lat="42.49482" lon="2.71218">
        <ele>169.2</ele>
        <time>2019-12-24T19:53:17Z</time>
      </trkpt>
      <trkpt lat="42.49482" lon="2.71203">
        <ele>169.4</ele>
        <time>2019-12-24T19:53:18Z</time>
      </trkpt>
      <trkpt lat="42.49483" lon="2.7119">
        <ele>169.1</ele>
        <time>2019-12-24T19:53:20Z</time>
      </trkpt>
      <trkpt lat="42.49484" lon="2.71179">
        <ele>168.7</ele>
        <time>2019-12-24T19:53:22Z</time>
      </trkpt>
      <trkpt lat="42.49487" lon="2.71165">
        <ele>169.7</ele>
        <time>2019-12-24T19:53:25Z</time>
      </trkpt>
      <trkpt lat="42.49489" lon="2.71155">
        <ele>170.3</ele>
        <time>2019-12-24T19:53:30Z</time>
      </trkpt>
      <trkpt lat="42.49491" lon="2.71145">
        <ele>171.4</ele>
        <time>2019-12-24T19:53:37Z</time>
      </trkpt>
      <trkpt lat="42.49495" lon="2.71129">
        <ele>172.8</ele>
        <time>2019-12-24T19:53:42Z</time>
      </trkpt>
      <trkpt lat="42.49507" lon="2.71085">
        <ele>170.1</ele>
        <time>2019-12-24T19:53:46Z</time>
      </trkpt>
      <trkpt lat="42.49528" lon="2.71013">
        <ele>173.7</ele>
        <time>2019-12-24T19:53:49Z</time>
      </trkpt>
      <trkpt lat="42.49537" lon="2.70979">
        <ele>178.8</ele>
        <time>2019-12-24T19:53:53Z</time>
      </trkpt>
      <trkpt lat="42.49544" lon="2.70949">
        <ele>179.4</ele>
        <time>2019-12-24T19:53:55Z</time>
      </trkpt>
      <trkpt lat="42.49551" lon="2.70922">
        <ele>178.6</ele>
        <time>2019-12-24T19:53:57Z</time>
      </trkpt>
      <trkpt lat="42.49572" lon="2.70844">
        <ele>179.5</ele>
        <time>2019-12-24T19:53:59Z</time>
      </trkpt>
      <trkpt lat="42.49584" lon="2.70799">
        <ele>171.8</ele>
        <time>2019-12-24T19:54:01Z</time>
      </trkpt>
      <trkpt lat="42.49593" lon="2.70762">
        <ele>174.5</ele>
        <time>2019-12-24T19:54:01Z</time>
      </trkpt>
      <trkpt lat="42.49596" lon="2.70744">
        <ele>176.3</ele>
        <time>2019-12-24T19:54:04Z</time>
      </trkpt>
      <trkpt lat="42.49599" lon="2.70725">
        <ele>175</ele>
        <time>2019-12-24T19:54:06Z</time>
      </trkpt>
      <trkpt lat="42.496" lon="2.70711">
        <ele>174.8</ele>
        <time>2019-12-24T19:54:09Z</time>
      </trkpt>
      <trkpt lat="42.496" lon="2.70699">
        <ele>175</ele>
        <time>2019-12-24T19:54:10Z</time>
      </trkpt>
      <trkpt lat="42.496" lon="2.70688">
        <ele>175.5</ele>
        <time>2019-12-24T19:54:11Z</time>
      </trkpt>
      <trkpt lat="42.49599" lon="2.70675">
        <ele>176.5</ele>
        <time>2019-12-24T19:54:15Z</time>
      </trkpt>
      <trkpt lat="42.49597" lon="2.70662">
        <ele>176.5</ele>
        <time>2019-12-24T19:54:21Z</time>
      </trkpt>
      <trkpt lat="42.49595" lon="2.70652">
        <ele>175.9</ele>
        <time>2019-12-24T19:54:25Z</time>
      </trkpt>
      <trkpt lat="42.49591" lon="2.70641">
        <ele>175</ele>
        <time>2019-12-24T19:54:30Z</time>
      </trkpt>
      <trkpt lat="42.49588" lon="2.70632">
        <ele>174.5</ele>
        <time>2019-12-24T19:54:33Z</time>
      </trkpt>
      <trkpt lat="42.49585" lon="2.70624">
        <ele>174.2</ele>
        <time>2019-12-24T19:54:34Z</time>
      </trkpt>
      <trkpt lat="42.49581" lon="2.70615">
        <ele>179.7</ele>
        <time>2019-12-24T19:54:35Z</time>
      </trkpt>
      <trkpt lat="42.49577" lon="2.70609">
        <ele>179.4</ele>
        <time>2019-12-24T19:54:38Z</time>
      </trkpt>
      <trkpt lat="42.4957" lon="2.70597">
        <ele>178.8</ele>
      </trkpt>
      <trkpt lat="42.49561" lon="2.70587">
        <ele>179.1</ele>
      </trkpt>
      <trkpt lat="42.4955" lon="2.70575">
        <ele>174.6</ele>
      </trkpt>
      <trkpt lat="42.49541" lon="2.70567">
        <ele>174.5</ele>
      </trkpt>
      <trkpt lat="42.49535" lon="2.70562">
        <ele>174.5</ele>
      </trkpt>
      <trkpt lat="42.49528" lon="2.70556">
        <ele>174.5</ele>
      </trkpt>
      <trkpt lat="42.4952" lon="2.70552">
        <ele>174.5</ele>
      </trkpt>
      <trkpt lat="42.49519" lon="2.7055">
        <ele>174.4</ele>
      </trkpt>
      <trkpt lat="42.49498" lon="2.70539">
        <ele>177.9</ele>
      </trkpt>
      <trkpt lat="42.49478" lon="2.7053">
        <ele>177.6</ele>
      </trkpt>
      <trkpt lat="42.49459" lon="2.70523">
        <ele>178</ele>
      </trkpt>
      <trkpt lat="42.49445" lon="2.7052">
        <ele>178</ele>
      </trkpt>
      <trkpt lat="42.49432" lon="2.70518">
        <ele>177.5</ele>
      </trkpt>
      <trkpt lat="42.49422" lon="2.70519">
        <ele>177.3</ele>
      </trkpt>
      <trkpt lat="42.4938" lon="2.70528">
        <ele>182.2</ele>
      </trkpt>
      <trkpt lat="42.49329" lon="2.70539">
        <ele>184.6</ele>
      </trkpt>
      <trkpt lat="42.49281" lon="2.70548">
        <ele>187.2</ele>
      </trkpt>
      <trkpt lat="42.49246" lon="2.70554">
        <ele>195.2</ele>
      </trkpt>
      <trkpt lat="42.49239" lon="2.70554">
        <ele>195.3</ele>
      </trkpt>
      <trkpt lat="42.49235" lon="2.70553">
        <ele>195.1</ele>
      </trkpt>
      <trkpt lat="42.49231" lon="2.70552">
        <ele>195</ele>
      </trkpt>
      <trkpt lat="42.49206" lon="2.70537">
        <ele>193.5</ele>
      </trkpt>
      <trkpt lat="42.49187" lon="2.70524">
        <ele>191.8</ele>
      </trkpt>
      <trkpt lat="42.49183" lon="2.7052">
        <ele>191</ele>
      </trkpt>
      <trkpt lat="42.49179" lon="2.70516">
        <ele>189.9</ele>
      </trkpt>
      <trkpt lat="42.49174" lon="2.70508">
        <ele>187.6</ele>
      </trkpt>
      <trkpt lat="42.49155" lon="2.7048">
        <ele>187.3</ele>
      </trkpt>
      <trkpt lat="42.49149" lon="2.70472">
        <ele>187.8</ele>
      </trkpt>
      <trkpt lat="42.49146" lon="2.7047">
        <ele>188</ele>
      </trkpt>
      <trkpt lat="42.49139" lon="2.70465">
        <ele>188.6</ele>
      </trkpt>
      <trkpt lat="42.4913" lon="2.70459">
        <ele>189.3</ele>
      </trkpt>
      <trkpt lat="42.49118" lon="2.70449">
        <ele>189.8</ele>
      </trkpt>
      <trkpt lat="42.4911" lon="2.7044">
        <ele>189.8</ele>
      </trkpt>
      <trkpt lat="42.49094" lon="2.7042">
        <ele>189.3</ele>
      </trkpt>
      <trkpt lat="42.49086" lon="2.70413">
        <ele>186.9</ele>
      </trkpt>
      <trkpt lat="42.49073" lon="2.70401">
        <ele>188.5</ele>
      </trkpt>
      <trkpt lat="42.49053" lon="2.70383">
        <ele>188.1</ele>
      </trkpt>
      <trkpt lat="42.4903" lon="2.70362">
        <ele>187.7</ele>
      </trkpt>
      <trkpt lat="42.49005" lon="2.70339">
        <ele>185.9</ele>
      </trkpt>
      <trkpt lat="42.48992" lon="2.70326">
        <ele>183.8</ele>
      </trkpt>
      <trkpt lat="42.48976" lon="2.70309">
        <ele>182.5</ele>
      </trkpt>
      <trkpt lat="42.48936" lon="2.70266">
        <ele>180.6</ele>
      </trkpt>
      <trkpt lat="42.48881" lon="2.70206">
        <ele>178.4</ele>
      </trkpt>
      <trkpt lat="42.48842" lon="2.70162">
        <ele>175.9</ele>
      </trkpt>
      <trkpt lat="42.48803" lon="2.70121">
        <ele>177.6</ele>
      </trkpt>
      <trkpt lat="42.4877" lon="2.70085">
        <ele>178.4</ele>
      </trkpt>
      <trkpt lat="42.48764" lon="2.70079">
        <ele>176.9</ele>
      </trkpt>
      <trkpt lat="42.48752" lon="2.70067">
        <ele>176.8</ele>
      </trkpt>
      <trkpt lat="42.48741" lon="2.70056">
        <ele>178.4</ele>
      </trkpt>
      <trkpt lat="42.48712" lon="2.70025">
        <ele>178.1</ele>
      </trkpt>
      <trkpt lat="42.48693" lon="2.70006">
        <ele>178.4</ele>
      </trkpt>
      <trkpt lat="42.48685" lon="2.69997">
        <ele>177.4</ele>
      </trkpt>
      <trkpt lat="42.48678" lon="2.6999">
        <ele>177.6</ele>
      </trkpt>
      <trkpt lat="42.48668" lon="2.69982">
        <ele>177.4</ele>
      </trkpt>
      <trkpt lat="42.4866" lon="2.69975">
        <ele>178.2</ele>
      </trkpt>
      <trkpt lat="42.48641" lon="2.69961">
        <ele>177.9</ele>
      </trkpt>
      <trkpt lat="42.48631" lon="2.69952">
        <ele>177.9</ele>
      </trkpt>
      <trkpt lat="42.48622" lon="2.69945">
        <ele>178</ele>
      </trkpt>
      <trkpt lat="42.48614" lon="2.69939">
        <ele>178.1</ele>
      </trkpt>
      <trkpt lat="42.48604" lon="2.69929">
        <ele>178.3</ele>
      </trkpt>
      <trkpt lat="42.48593" lon="2.69917">
        <ele>178.7</ele>
      </trkpt>
      <trkpt lat="42.48584" lon="2.69906">
        <ele>178.4</ele>
      </trkpt>
      <trkpt lat="42.48566" lon="2.69884">
        <ele>178.4</ele>
      </trkpt>
      <trkpt lat="42.48546" lon="2.69858">
        <ele>178.2</ele>
      </trkpt>
      <trkpt lat="42.48535" lon="2.69844">
        <ele>178.5</ele>
      </trkpt>
      <trkpt lat="42.48518" lon="2.69823">
        <ele>179.2</ele>
      </trkpt>
      <trkpt lat="42.48509" lon="2.6981">
        <ele>179.2</ele>
      </trkpt>
      <trkpt lat="42.48496" lon="2.69788">
        <ele>180.4</ele>
      </trkpt>
      <trkpt lat="42.48473" lon="2.6975">
        <ele>179.7</ele>
      </trkpt>
      <trkpt lat="42.48459" lon="2.69725">
        <ele>179.9</ele>
      </trkpt>
      <trkpt lat="42.48451" lon="2.69713">
        <ele>179.9</ele>
      </trkpt>
      <trkpt lat="42.48445" lon="2.69704">
        <ele>179.9</ele>
      </trkpt>
      <trkpt lat="42.48442" lon="2.69698">
        <ele>179.9</ele>
      </trkpt>
      <trkpt lat="42.48438" lon="2.69689">
        <ele>179.8</ele>
      </trkpt>
      <trkpt lat="42.48436" lon="2.69683">
        <ele>179.7</ele>
      </trkpt>
      <trkpt lat="42.48434" lon="2.69678">
        <ele>179.7</ele>
      </trkpt>
      <trkpt lat="42.48433" lon="2.69672">
        <ele>179.6</ele>
      </trkpt>
      <trkpt lat="42.48433" lon="2.69667">
        <ele>179.6</ele>
      </trkpt>
      <trkpt lat="42.48432" lon="2.69662">
        <ele>179.9</ele>
      </trkpt>
      <trkpt lat="42.48432" lon="2.69658">
        <ele>180</ele>
      </trkpt>
      <trkpt lat="42.4843" lon="2.69613">
        <ele>180.9</ele>
      </trkpt>
      <trkpt lat="42.48427" lon="2.69569">
        <ele>181.7</ele>
      </trkpt>
      <trkpt lat="42.48426" lon="2.6955">
        <ele>181.6</ele>
      </trkpt>
      <trkpt lat="42.48425" lon="2.69526">
        <ele>181.9</ele>
      </trkpt>
      <trkpt lat="42.48422" lon="2.69465">
        <ele>182.2</ele>
      </trkpt>
      <trkpt lat="42.48421" lon="2.69437">
        <ele>182.4</ele>
      </trkpt>
      <trkpt lat="42.48418" lon="2.69388">
        <ele>182.4</ele>
      </trkpt>
      <trkpt lat="42.48416" lon="2.69339">
        <ele>183.6</ele>
      </trkpt>
      <trkpt lat="42.48414" lon="2.6932">
        <ele>184.3</ele>
      </trkpt>
      <trkpt lat="42.48413" lon="2.69297">
        <ele>185.2</ele>
      </trkpt>
      <trkpt lat="42.4841" lon="2.69269">
        <ele>185.1</ele>
      </trkpt>
      <trkpt lat="42.48407" lon="2.69248">
        <ele>185.6</ele>
      </trkpt>
      <trkpt lat="42.48404" lon="2.69223">
        <ele>187.2</ele>
      </trkpt>
      <trkpt lat="42.48399" lon="2.69196">
        <ele>187.9</ele>
      </trkpt>
      <trkpt lat="42.48396" lon="2.69173">
        <ele>187.7</ele>
      </trkpt>
      <trkpt lat="42.48394" lon="2.6916">
        <ele>189.2</ele>
      </trkpt>
      <trkpt lat="42.4839" lon="2.69136">
        <ele>190.2</ele>
      </trkpt>
      <trkpt lat="42.48381" lon="2.69073">
        <ele>191</ele>
      </trkpt>
      <trkpt lat="42.48375" lon="2.69034">
        <ele>191.5</ele>
      </trkpt>
      <trkpt lat="42.48372" lon="2.69017">
        <ele>191.7</ele>
      </trkpt>
      <trkpt lat="42.48368" lon="2.68991">
        <ele>191.7</ele>
      </trkpt>
      <trkpt lat="42.4836" lon="2.68955">
        <ele>192</ele>
      </trkpt>
      <trkpt lat="42.48349" lon="2.68899">
        <ele>192.4</ele>
      </trkpt>
      <trkpt lat="42.48347" lon="2.68888">
        <ele>191.9</ele>
      </trkpt>
      <trkpt lat="42.48334" lon="2.68852">
        <ele>191.4</ele>
      </trkpt>
      <trkpt lat="42.48332" lon="2.68847">
        <ele>197</ele>
      </trkpt>
      <trkpt lat="42.48325" lon="2.68833">
        <ele>193.8</ele>
      </trkpt>
      <trkpt lat="42.48305" lon="2.68801">
        <ele>196.9</ele>
      </trkpt>
      <trkpt lat="42.48289" lon="2.68778">
        <ele>197.5</ele>
      </trkpt>
      <trkpt lat="42.48281" lon="2.68766">
        <ele>197.7</ele>
      </trkpt>
      <trkpt lat="42.4827" lon="2.68744">
        <ele>195.6</ele>
      </trkpt>
      <trkpt lat="42.48259" lon="2.68727">
        <ele>195.3</ele>
      </trkpt>
      <trkpt lat="42.48259" lon="2.68727">
        <ele>195.3</ele>
      </trkpt>
      <trkpt lat="42.48259" lon="2.68726">
        <ele>195.2</ele>
      </trkpt>
      <trkpt lat="42.48259" lon="2.68725">
        <ele>195.2</ele>
      </trkpt>
      <trkpt lat="42.48259" lon="2.68724">
        <ele>195.1</ele>
      </trkpt>
      <trkpt lat="42.48259" lon="2.68723">
        <ele>195</ele>
      </trkpt>
      <trkpt lat="42.48259" lon="2.68722">
        <ele>194.9</ele>
      </trkpt>
      <trkpt lat="42.48259" lon="2.68721">
        <ele>194.9</ele>
      </trkpt>
      <trkpt lat="42.48259" lon="2.6872">
        <ele>194.8</ele>
      </trkpt>
      <trkpt lat="42.48259" lon="2.68719">
        <ele>194.7</ele>
      </trkpt>
      <trkpt lat="42.48258" lon="2.68719">
        <ele>194.8</ele>
      </trkpt>
      <trkpt lat="42.48258" lon="2.68718">
        <ele>194.7</ele>
      </trkpt>
      <trkpt lat="42.48258" lon="2.68717">
        <ele>194.7</ele>
      </trkpt>
      <trkpt lat="42.48257" lon="2.68717">
        <ele>194.7</ele>
      </trkpt>
      <trkpt lat="42.48257" lon="2.68716">
        <ele>194.6</ele>
      </trkpt>
      <trkpt lat="42.48256" lon="2.68716">
        <ele>194.6</ele>
      </trkpt>
      <trkpt lat="42.48256" lon="2.68715">
        <ele>194.6</ele>
      </trkpt>
      <trkpt lat="42.48255" lon="2.68715">
        <ele>194.6</ele>
      </trkpt>
      <trkpt lat="42.4825" lon="2.68688">
        <ele>193.5</ele>
      </trkpt>
      <trkpt lat="42.48247" lon="2.68675">
        <ele>195.8</ele>
      </trkpt>
      <trkpt lat="42.48243" lon="2.68662">
        <ele>195.2</ele>
      </trkpt>
      <trkpt lat="42.48241" lon="2.68655">
        <ele>196.4</ele>
      </trkpt>
      <trkpt lat="42.48229" lon="2.68611">
        <ele>199</ele>
      </trkpt>
      <trkpt lat="42.48215" lon="2.68556">
        <ele>200.9</ele>
      </trkpt>
      <trkpt lat="42.482" lon="2.68504">
        <ele>202.4</ele>
      </trkpt>
      <trkpt lat="42.48192" lon="2.68472">
        <ele>203.2</ele>
      </trkpt>
      <trkpt lat="42.4819" lon="2.68465">
        <ele>203.3</ele>
      </trkpt>
      <trkpt lat="42.48189" lon="2.68459">
        <ele>203.4</ele>
      </trkpt>
      <trkpt lat="42.48189" lon="2.68453">
        <ele>203.5</ele>
      </trkpt>
      <trkpt lat="42.48189" lon="2.68447">
        <ele>203.7</ele>
      </trkpt>
      <trkpt lat="42.4819" lon="2.68434">
        <ele>204.1</ele>
      </trkpt>
      <trkpt lat="42.48192" lon="2.68417">
        <ele>204.3</ele>
      </trkpt>
      <trkpt lat="42.48195" lon="2.68393">
        <ele>204.7</ele>
      </trkpt>
      <trkpt lat="42.48199" lon="2.6836">
        <ele>204.6</ele>
      </trkpt>
      <trkpt lat="42.48206" lon="2.68301">
        <ele>204.7</ele>
      </trkpt>
      <trkpt lat="42.48209" lon="2.68268">
        <ele>204.5</ele>
      </trkpt>
      <trkpt lat="42.48212" lon="2.68237">
        <ele>204.8</ele>
      </trkpt>
      <trkpt lat="42.48214" lon="2.68211">
        <ele>204.9</ele>
      </trkpt>
      <trkpt lat="42.48217" lon="2.68185">
        <ele>204.9</ele>
      </trkpt>
      <trkpt lat="42.48218" lon="2.68167">
        <ele>204.8</ele>
      </trkpt>
      <trkpt lat="42.48217" lon="2.68154">
        <ele>204.9</ele>
      </trkpt>
      <trkpt lat="42.48214" lon="2.68137">
        <ele>205.1</ele>
      </trkpt>
      <trkpt lat="42.48209" lon="2.68121">
        <ele>205.2</ele>
      </trkpt>
      <trkpt lat="42.48209" lon="2.6812">
        <ele>205.2</ele>
      </trkpt>
      <trkpt lat="42.48205" lon="2.68104">
        <ele>205.2</ele>
      </trkpt>
      <trkpt lat="42.48201" lon="2.68088">
        <ele>205.4</ele>
      </trkpt>
      <trkpt lat="42.48195" lon="2.68066">
        <ele>205.2</ele>
      </trkpt>
      <trkpt lat="42.48193" lon="2.6806">
        <ele>205.2</ele>
      </trkpt>
      <trkpt lat="42.48191" lon="2.68055">
        <ele>205.2</ele>
      </trkpt>
      <trkpt lat="42.48182" lon="2.68022">
        <ele>205.5</ele>
      </trkpt>
      <trkpt lat="42.48171" lon="2.6798">
        <ele>206.5</ele>
      </trkpt>
      <trkpt lat="42.48163" lon="2.67952">
        <ele>211.5</ele>
      </trkpt>
      <trkpt lat="42.48153" lon="2.67916">
        <ele>210.5</ele>
      </trkpt>
      <trkpt lat="42.48148" lon="2.67897">
        <ele>211.3</ele>
      </trkpt>
      <trkpt lat="42.48146" lon="2.67888">
        <ele>211.5</ele>
      </trkpt>
      <trkpt lat="42.48143" lon="2.67878">
        <ele>211.7</ele>
      </trkpt>
      <trkpt lat="42.48137" lon="2.67862">
        <ele>211.8</ele>
      </trkpt>
      <trkpt lat="42.48112" lon="2.67731">
        <ele>210.7</ele>
      </trkpt>
      <trkpt lat="42.4809" lon="2.67663">
        <ele>210.1</ele>
      </trkpt>
      <trkpt lat="42.48032" lon="2.67569">
        <ele>211.9</ele>
      </trkpt>
      <trkpt lat="42.48" lon="2.67513">
        <ele>213.1</ele>
      </trkpt>
      <trkpt lat="42.47838" lon="2.67386">
        <ele>210.8</ele>
      </trkpt>
      <trkpt lat="42.4781" lon="2.6737">
        <ele>210.4</ele>
      </trkpt>
      <trkpt lat="42.47787" lon="2.6737">
        <ele>210.3</ele>
      </trkpt>
      <trkpt lat="42.4774" lon="2.67393">
        <ele>211.3</ele>
      </trkpt>
      <trkpt lat="42.47642" lon="2.67455">
        <ele>218.2</ele>
      </trkpt>
      <trkpt lat="42.47511" lon="2.67523">
        <ele>226.9</ele>
      </trkpt>
      <trkpt lat="42.47482" lon="2.67544">
        <ele>233</ele>
      </trkpt>
      <trkpt lat="42.47413" lon="2.67518">
        <ele>230.6</ele>
      </trkpt>
      <trkpt lat="42.4736" lon="2.67437">
        <ele>221</ele>
      </trkpt>
      <trkpt lat="42.47322" lon="2.67349">
        <ele>223.2</ele>
      </trkpt>
      <trkpt lat="42.47329" lon="2.67222">
        <ele>220</ele>
      </trkpt>
      <trkpt lat="42.4733" lon="2.67134">
        <ele>221.1</ele>
      </trkpt>
      <trkpt lat="42.47352" lon="2.67043">
        <ele>221.5</ele>
      </trkpt>
      <trkpt lat="42.4739" lon="2.66942">
        <ele>223.3</ele>
      </trkpt>
      <trkpt lat="42.4744" lon="2.66855">
        <ele>223.6</ele>
      </trkpt>
      <trkpt lat="42.47468" lon="2.66806">
        <ele>224.1</ele>
      </trkpt>
      <trkpt lat="42.47514" lon="2.66697">
        <ele>223.3</ele>
      </trkpt>
      <trkpt lat="42.47523" lon="2.666">
        <ele>224.8</ele>
      </trkpt>
      <trkpt lat="42.47512" lon="2.66522">
        <ele>225.7</ele>
      </trkpt>
      <trkpt lat="42.47488" lon="2.66464">
        <ele>229</ele>
      </trkpt>
      <trkpt lat="42.47444" lon="2.66392">
        <ele>230.5</ele>
      </trkpt>
      <trkpt lat="42.47392" lon="2.66324">
        <ele>233.9</ele>
      </trkpt>
      <trkpt lat="42.47363" lon="2.66308">
        <ele>235.7</ele>
      </trkpt>
    </trkseg>
  </trk>
</gpx>